<?xml version="1.0" encoding="UTF-8" standalone="no" ?>
<gpx xmlns="http://www.topografix.com/GPX/1/1" xmlns:xsi="http://www.w3.org/2001/XMLSchema-instance" xsi:schemaLocation="http://www.topografix.com/GPX/1/1 http://www.topografix.com/GPX/1/1/gpx.xsd" version="1.1" creator="VisuGPX - https://www.visugpx.com">
  <metadata>
    <name>Tour de Beaume de venise</name>
  </metadata>
  <trk>
    <name><![CDATA[2010-11-14-ADTEV]]></name>
    <trkseg>
      <trkpt lat="44.10937" lon="4.98668">
        <ele>69</ele>
        <time>2010-11-14T08:27:38Z</time>
      </trkpt>
      <trkpt lat="44.10938" lon="4.98668">
        <ele>69.4</ele>
        <time>2010-11-14T08:27:39Z</time>
      </trkpt>
      <trkpt lat="44.10951" lon="4.98682">
        <ele>69.6</ele>
        <time>2010-11-14T08:27:50Z</time>
      </trkpt>
      <trkpt lat="44.10956" lon="4.9869">
        <ele>69.6</ele>
        <time>2010-11-14T08:27:56Z</time>
      </trkpt>
      <trkpt lat="44.10962" lon="4.98698">
        <ele>69.6</ele>
        <time>2010-11-14T08:28:01Z</time>
      </trkpt>
      <trkpt lat="44.10969" lon="4.98705">
        <ele>69.7</ele>
        <time>2010-11-14T08:28:06Z</time>
      </trkpt>
      <trkpt lat="44.10973" lon="4.98713">
        <ele>69.4</ele>
        <time>2010-11-14T08:28:11Z</time>
      </trkpt>
      <trkpt lat="44.10977" lon="4.98723">
        <ele>69.8</ele>
        <time>2010-11-14T08:28:17Z</time>
      </trkpt>
      <trkpt lat="44.10983" lon="4.98733">
        <ele>69.9</ele>
        <time>2010-11-14T08:28:24Z</time>
      </trkpt>
      <trkpt lat="44.10986" lon="4.98743">
        <ele>69.7</ele>
        <time>2010-11-14T08:28:32Z</time>
      </trkpt>
      <trkpt lat="44.10991" lon="4.98751">
        <ele>69.8</ele>
        <time>2010-11-14T08:28:38Z</time>
      </trkpt>
      <trkpt lat="44.10996" lon="4.9876">
        <ele>70.6</ele>
        <time>2010-11-14T08:28:43Z</time>
      </trkpt>
      <trkpt lat="44.10997" lon="4.98762">
        <ele>70.4</ele>
        <time>2010-11-14T08:28:44Z</time>
      </trkpt>
      <trkpt lat="44.11006" lon="4.98777">
        <ele>70.6</ele>
        <time>2010-11-14T08:28:52Z</time>
      </trkpt>
      <trkpt lat="44.11013" lon="4.98785">
        <ele>70.6</ele>
        <time>2010-11-14T08:28:57Z</time>
      </trkpt>
      <trkpt lat="44.11018" lon="4.98795">
        <ele>71</ele>
        <time>2010-11-14T08:29:02Z</time>
      </trkpt>
      <trkpt lat="44.11025" lon="4.988">
        <ele>70.5</ele>
        <time>2010-11-14T08:29:09Z</time>
      </trkpt>
      <trkpt lat="44.11033" lon="4.98795">
        <ele>71</ele>
        <time>2010-11-14T08:29:14Z</time>
      </trkpt>
      <trkpt lat="44.11039" lon="4.98791">
        <ele>71</ele>
        <time>2010-11-14T08:29:19Z</time>
      </trkpt>
      <trkpt lat="44.11047" lon="4.98787">
        <ele>70.6</ele>
        <time>2010-11-14T08:29:26Z</time>
      </trkpt>
      <trkpt lat="44.11056" lon="4.98783">
        <ele>70.9</ele>
        <time>2010-11-14T08:29:32Z</time>
      </trkpt>
      <trkpt lat="44.11064" lon="4.98783">
        <ele>70.7</ele>
        <time>2010-11-14T08:29:37Z</time>
      </trkpt>
      <trkpt lat="44.11072" lon="4.98784">
        <ele>71.8</ele>
        <time>2010-11-14T08:29:47Z</time>
      </trkpt>
      <trkpt lat="44.11073" lon="4.98784">
        <ele>71.8</ele>
        <time>2010-11-14T08:29:48Z</time>
      </trkpt>
      <trkpt lat="44.11087" lon="4.98792">
        <ele>72.6</ele>
        <time>2010-11-14T08:30:05Z</time>
      </trkpt>
      <trkpt lat="44.11095" lon="4.98795">
        <ele>73.4</ele>
        <time>2010-11-14T08:30:47Z</time>
      </trkpt>
      <trkpt lat="44.11102" lon="4.98788">
        <ele>71</ele>
        <time>2010-11-14T08:33:52Z</time>
      </trkpt>
      <trkpt lat="44.11103" lon="4.98788">
        <ele>71</ele>
        <time>2010-11-14T08:33:53Z</time>
      </trkpt>
      <trkpt lat="44.11118" lon="4.98788">
        <ele>71.6</ele>
        <time>2010-11-14T08:34:04Z</time>
      </trkpt>
      <trkpt lat="44.11125" lon="4.98785">
        <ele>72.4</ele>
        <time>2010-11-14T08:34:08Z</time>
      </trkpt>
      <trkpt lat="44.11133" lon="4.98781">
        <ele>72.9</ele>
        <time>2010-11-14T08:34:12Z</time>
      </trkpt>
      <trkpt lat="44.1114" lon="4.98778">
        <ele>72.4</ele>
        <time>2010-11-14T08:34:16Z</time>
      </trkpt>
      <trkpt lat="44.11149" lon="4.98775">
        <ele>72.7</ele>
        <time>2010-11-14T08:34:21Z</time>
      </trkpt>
      <trkpt lat="44.11157" lon="4.98771">
        <ele>73.5</ele>
        <time>2010-11-14T08:34:27Z</time>
      </trkpt>
      <trkpt lat="44.11165" lon="4.98768">
        <ele>73.7</ele>
        <time>2010-11-14T08:34:32Z</time>
      </trkpt>
      <trkpt lat="44.11174" lon="4.98766">
        <ele>73.4</ele>
        <time>2010-11-14T08:34:37Z</time>
      </trkpt>
      <trkpt lat="44.11182" lon="4.98768">
        <ele>73.6</ele>
        <time>2010-11-14T08:34:43Z</time>
      </trkpt>
      <trkpt lat="44.1119" lon="4.98768">
        <ele>74.7</ele>
        <time>2010-11-14T08:34:49Z</time>
      </trkpt>
      <trkpt lat="44.11198" lon="4.9877">
        <ele>74.7</ele>
        <time>2010-11-14T08:34:54Z</time>
      </trkpt>
      <trkpt lat="44.11199" lon="4.98769">
        <ele>74.8</ele>
        <time>2010-11-14T08:34:55Z</time>
      </trkpt>
      <trkpt lat="44.11215" lon="4.98764">
        <ele>75.5</ele>
        <time>2010-11-14T08:35:06Z</time>
      </trkpt>
      <trkpt lat="44.11223" lon="4.98762">
        <ele>76.8</ele>
        <time>2010-11-14T08:35:11Z</time>
      </trkpt>
      <trkpt lat="44.11231" lon="4.98758">
        <ele>76.7</ele>
        <time>2010-11-14T08:35:16Z</time>
      </trkpt>
      <trkpt lat="44.11239" lon="4.98754">
        <ele>76.7</ele>
        <time>2010-11-14T08:35:22Z</time>
      </trkpt>
      <trkpt lat="44.11246" lon="4.98749">
        <ele>77</ele>
        <time>2010-11-14T08:35:28Z</time>
      </trkpt>
      <trkpt lat="44.11253" lon="4.98743">
        <ele>77.9</ele>
        <time>2010-11-14T08:35:34Z</time>
      </trkpt>
      <trkpt lat="44.1126" lon="4.9874">
        <ele>78.4</ele>
        <time>2010-11-14T08:35:39Z</time>
      </trkpt>
      <trkpt lat="44.11267" lon="4.98736">
        <ele>79</ele>
        <time>2010-11-14T08:35:43Z</time>
      </trkpt>
      <trkpt lat="44.11274" lon="4.98731">
        <ele>79.8</ele>
        <time>2010-11-14T08:35:49Z</time>
      </trkpt>
      <trkpt lat="44.11283" lon="4.98726">
        <ele>81.3</ele>
        <time>2010-11-14T08:35:58Z</time>
      </trkpt>
      <trkpt lat="44.11284" lon="4.98725">
        <ele>81</ele>
        <time>2010-11-14T08:35:59Z</time>
      </trkpt>
      <trkpt lat="44.11297" lon="4.98717">
        <ele>81.8</ele>
        <time>2010-11-14T08:36:08Z</time>
      </trkpt>
      <trkpt lat="44.11304" lon="4.98711">
        <ele>82.1</ele>
        <time>2010-11-14T08:36:12Z</time>
      </trkpt>
      <trkpt lat="44.11311" lon="4.98706">
        <ele>82.7</ele>
        <time>2010-11-14T08:36:17Z</time>
      </trkpt>
      <trkpt lat="44.11319" lon="4.9871">
        <ele>83.8</ele>
        <time>2010-11-14T08:36:24Z</time>
      </trkpt>
      <trkpt lat="44.11319" lon="4.98721">
        <ele>84.8</ele>
        <time>2010-11-14T08:36:30Z</time>
      </trkpt>
      <trkpt lat="44.11316" lon="4.98732">
        <ele>85</ele>
        <time>2010-11-14T08:36:36Z</time>
      </trkpt>
      <trkpt lat="44.11312" lon="4.98743">
        <ele>85.6</ele>
        <time>2010-11-14T08:36:43Z</time>
      </trkpt>
      <trkpt lat="44.11309" lon="4.98754">
        <ele>86.4</ele>
        <time>2010-11-14T08:36:49Z</time>
      </trkpt>
      <trkpt lat="44.11306" lon="4.98764">
        <ele>86.8</ele>
        <time>2010-11-14T08:36:54Z</time>
      </trkpt>
      <trkpt lat="44.11305" lon="4.98775">
        <ele>87.4</ele>
        <time>2010-11-14T08:37:00Z</time>
      </trkpt>
      <trkpt lat="44.11305" lon="4.98777">
        <ele>87.4</ele>
        <time>2010-11-14T08:37:01Z</time>
      </trkpt>
      <trkpt lat="44.11311" lon="4.98797">
        <ele>87.8</ele>
        <time>2010-11-14T08:37:16Z</time>
      </trkpt>
      <trkpt lat="44.11313" lon="4.98808">
        <ele>87.5</ele>
        <time>2010-11-14T08:37:24Z</time>
      </trkpt>
      <trkpt lat="44.11322" lon="4.98811">
        <ele>86.8</ele>
        <time>2010-11-14T08:37:33Z</time>
      </trkpt>
      <trkpt lat="44.1133" lon="4.98809">
        <ele>87.2</ele>
        <time>2010-11-14T08:37:39Z</time>
      </trkpt>
      <trkpt lat="44.11338" lon="4.98807">
        <ele>87.2</ele>
        <time>2010-11-14T08:37:45Z</time>
      </trkpt>
      <trkpt lat="44.11345" lon="4.98806">
        <ele>87.4</ele>
        <time>2010-11-14T08:37:52Z</time>
      </trkpt>
      <trkpt lat="44.11353" lon="4.98803">
        <ele>87.8</ele>
        <time>2010-11-14T08:37:58Z</time>
      </trkpt>
      <trkpt lat="44.11362" lon="4.988">
        <ele>88.5</ele>
        <time>2010-11-14T08:38:06Z</time>
      </trkpt>
      <trkpt lat="44.11363" lon="4.988">
        <ele>88.7</ele>
        <time>2010-11-14T08:38:07Z</time>
      </trkpt>
      <trkpt lat="44.11378" lon="4.98796">
        <ele>89</ele>
        <time>2010-11-14T08:38:18Z</time>
      </trkpt>
      <trkpt lat="44.11387" lon="4.98794">
        <ele>89.8</ele>
        <time>2010-11-14T08:38:24Z</time>
      </trkpt>
      <trkpt lat="44.11395" lon="4.98792">
        <ele>89.6</ele>
        <time>2010-11-14T08:38:29Z</time>
      </trkpt>
      <trkpt lat="44.11404" lon="4.98789">
        <ele>90</ele>
        <time>2010-11-14T08:38:35Z</time>
      </trkpt>
      <trkpt lat="44.11412" lon="4.98788">
        <ele>90.1</ele>
        <time>2010-11-14T08:38:42Z</time>
      </trkpt>
      <trkpt lat="44.11419" lon="4.98786">
        <ele>89.8</ele>
        <time>2010-11-14T08:38:47Z</time>
      </trkpt>
      <trkpt lat="44.11427" lon="4.98786">
        <ele>90.2</ele>
        <time>2010-11-14T08:38:51Z</time>
      </trkpt>
      <trkpt lat="44.11435" lon="4.98786">
        <ele>90.4</ele>
        <time>2010-11-14T08:38:57Z</time>
      </trkpt>
      <trkpt lat="44.11442" lon="4.9879">
        <ele>90</ele>
        <time>2010-11-14T08:39:03Z</time>
      </trkpt>
      <trkpt lat="44.11448" lon="4.98798">
        <ele>89.1</ele>
        <time>2010-11-14T08:39:09Z</time>
      </trkpt>
      <trkpt lat="44.1145" lon="4.98799">
        <ele>88.8</ele>
        <time>2010-11-14T08:39:10Z</time>
      </trkpt>
      <trkpt lat="44.11458" lon="4.98814">
        <ele>87.5</ele>
        <time>2010-11-14T08:39:19Z</time>
      </trkpt>
      <trkpt lat="44.11465" lon="4.98821">
        <ele>86.4</ele>
        <time>2010-11-14T08:39:24Z</time>
      </trkpt>
      <trkpt lat="44.11471" lon="4.9883">
        <ele>85.7</ele>
        <time>2010-11-14T08:39:30Z</time>
      </trkpt>
      <trkpt lat="44.11472" lon="4.98842">
        <ele>84.6</ele>
        <time>2010-11-14T08:39:34Z</time>
      </trkpt>
      <trkpt lat="44.11471" lon="4.98854">
        <ele>84.2</ele>
        <time>2010-11-14T08:39:39Z</time>
      </trkpt>
      <trkpt lat="44.1147" lon="4.98866">
        <ele>83.8</ele>
        <time>2010-11-14T08:39:51Z</time>
      </trkpt>
      <trkpt lat="44.11476" lon="4.98872">
        <ele>82.5</ele>
        <time>2010-11-14T08:39:56Z</time>
      </trkpt>
      <trkpt lat="44.11484" lon="4.98876">
        <ele>81.4</ele>
        <time>2010-11-14T08:40:02Z</time>
      </trkpt>
      <trkpt lat="44.11492" lon="4.98874">
        <ele>81.6</ele>
        <time>2010-11-14T08:40:09Z</time>
      </trkpt>
      <trkpt lat="44.11501" lon="4.98873">
        <ele>82</ele>
        <time>2010-11-14T08:40:13Z</time>
      </trkpt>
      <trkpt lat="44.11503" lon="4.98873">
        <ele>82</ele>
        <time>2010-11-14T08:40:14Z</time>
      </trkpt>
      <trkpt lat="44.11516" lon="4.98873">
        <ele>82.3</ele>
        <time>2010-11-14T08:40:23Z</time>
      </trkpt>
      <trkpt lat="44.11524" lon="4.98872">
        <ele>82.2</ele>
        <time>2010-11-14T08:40:27Z</time>
      </trkpt>
      <trkpt lat="44.11532" lon="4.9887">
        <ele>82.2</ele>
        <time>2010-11-14T08:40:32Z</time>
      </trkpt>
      <trkpt lat="44.1154" lon="4.98868">
        <ele>81.8</ele>
        <time>2010-11-14T08:40:37Z</time>
      </trkpt>
      <trkpt lat="44.11548" lon="4.98865">
        <ele>82.2</ele>
        <time>2010-11-14T08:40:43Z</time>
      </trkpt>
      <trkpt lat="44.11556" lon="4.98864">
        <ele>82</ele>
        <time>2010-11-14T08:40:49Z</time>
      </trkpt>
      <trkpt lat="44.11563" lon="4.98863">
        <ele>81.8</ele>
        <time>2010-11-14T08:40:53Z</time>
      </trkpt>
      <trkpt lat="44.11571" lon="4.9886">
        <ele>82.5</ele>
        <time>2010-11-14T08:40:58Z</time>
      </trkpt>
      <trkpt lat="44.11579" lon="4.98857">
        <ele>82.9</ele>
        <time>2010-11-14T08:41:03Z</time>
      </trkpt>
      <trkpt lat="44.11588" lon="4.98857">
        <ele>83.3</ele>
        <time>2010-11-14T08:41:09Z</time>
      </trkpt>
      <trkpt lat="44.11597" lon="4.98854">
        <ele>83.2</ele>
        <time>2010-11-14T08:41:16Z</time>
      </trkpt>
      <trkpt lat="44.11598" lon="4.98854">
        <ele>83.4</ele>
        <time>2010-11-14T08:41:17Z</time>
      </trkpt>
      <trkpt lat="44.11613" lon="4.98849">
        <ele>83.2</ele>
        <time>2010-11-14T08:41:28Z</time>
      </trkpt>
      <trkpt lat="44.11621" lon="4.98849">
        <ele>83.3</ele>
        <time>2010-11-14T08:41:32Z</time>
      </trkpt>
      <trkpt lat="44.11628" lon="4.98849">
        <ele>83.5</ele>
        <time>2010-11-14T08:41:36Z</time>
      </trkpt>
      <trkpt lat="44.11636" lon="4.98848">
        <ele>83.7</ele>
        <time>2010-11-14T08:41:40Z</time>
      </trkpt>
      <trkpt lat="44.11644" lon="4.98846">
        <ele>83.8</ele>
        <time>2010-11-14T08:41:44Z</time>
      </trkpt>
      <trkpt lat="44.11652" lon="4.98843">
        <ele>84.2</ele>
        <time>2010-11-14T08:41:49Z</time>
      </trkpt>
      <trkpt lat="44.11661" lon="4.98839">
        <ele>84.6</ele>
        <time>2010-11-14T08:41:55Z</time>
      </trkpt>
      <trkpt lat="44.11669" lon="4.98838">
        <ele>85</ele>
        <time>2010-11-14T08:42:01Z</time>
      </trkpt>
      <trkpt lat="44.11676" lon="4.98837">
        <ele>85.2</ele>
        <time>2010-11-14T08:42:06Z</time>
      </trkpt>
      <trkpt lat="44.11684" lon="4.98835">
        <ele>85</ele>
        <time>2010-11-14T08:42:11Z</time>
      </trkpt>
      <trkpt lat="44.11693" lon="4.98833">
        <ele>84.6</ele>
        <time>2010-11-14T08:42:17Z</time>
      </trkpt>
      <trkpt lat="44.11694" lon="4.98832">
        <ele>84.5</ele>
        <time>2010-11-14T08:42:18Z</time>
      </trkpt>
      <trkpt lat="44.11709" lon="4.98832">
        <ele>84.8</ele>
        <time>2010-11-14T08:42:27Z</time>
      </trkpt>
      <trkpt lat="44.11717" lon="4.98831">
        <ele>85.2</ele>
        <time>2010-11-14T08:42:32Z</time>
      </trkpt>
      <trkpt lat="44.11726" lon="4.98831">
        <ele>85.2</ele>
        <time>2010-11-14T08:42:37Z</time>
      </trkpt>
      <trkpt lat="44.11734" lon="4.98831">
        <ele>85.5</ele>
        <time>2010-11-14T08:42:42Z</time>
      </trkpt>
      <trkpt lat="44.11741" lon="4.98833">
        <ele>85.8</ele>
        <time>2010-11-14T08:42:46Z</time>
      </trkpt>
      <trkpt lat="44.11749" lon="4.9883">
        <ele>86.3</ele>
        <time>2010-11-14T08:42:53Z</time>
      </trkpt>
      <trkpt lat="44.11757" lon="4.98831">
        <ele>86.5</ele>
        <time>2010-11-14T08:42:58Z</time>
      </trkpt>
      <trkpt lat="44.11766" lon="4.98829">
        <ele>86.7</ele>
        <time>2010-11-14T08:43:03Z</time>
      </trkpt>
      <trkpt lat="44.11774" lon="4.98827">
        <ele>86.7</ele>
        <time>2010-11-14T08:43:07Z</time>
      </trkpt>
      <trkpt lat="44.11782" lon="4.98826">
        <ele>86.8</ele>
        <time>2010-11-14T08:43:11Z</time>
      </trkpt>
      <trkpt lat="44.1179" lon="4.98824">
        <ele>86.6</ele>
        <time>2010-11-14T08:43:17Z</time>
      </trkpt>
      <trkpt lat="44.11799" lon="4.98824">
        <ele>86.6</ele>
        <time>2010-11-14T08:43:22Z</time>
      </trkpt>
      <trkpt lat="44.118" lon="4.98824">
        <ele>86.6</ele>
        <time>2010-11-14T08:43:23Z</time>
      </trkpt>
      <trkpt lat="44.11814" lon="4.98817">
        <ele>87.1</ele>
        <time>2010-11-14T08:43:32Z</time>
      </trkpt>
      <trkpt lat="44.11823" lon="4.98813">
        <ele>87.3</ele>
        <time>2010-11-14T08:43:38Z</time>
      </trkpt>
      <trkpt lat="44.1183" lon="4.9881">
        <ele>87.7</ele>
        <time>2010-11-14T08:43:43Z</time>
      </trkpt>
      <trkpt lat="44.11839" lon="4.98806">
        <ele>88</ele>
        <time>2010-11-14T08:43:48Z</time>
      </trkpt>
      <trkpt lat="44.11846" lon="4.98805">
        <ele>88</ele>
        <time>2010-11-14T08:43:52Z</time>
      </trkpt>
      <trkpt lat="44.11855" lon="4.98802">
        <ele>88.5</ele>
        <time>2010-11-14T08:43:58Z</time>
      </trkpt>
      <trkpt lat="44.11863" lon="4.98806">
        <ele>88.7</ele>
        <time>2010-11-14T08:44:03Z</time>
      </trkpt>
      <trkpt lat="44.11871" lon="4.98812">
        <ele>88.3</ele>
        <time>2010-11-14T08:44:10Z</time>
      </trkpt>
      <trkpt lat="44.11877" lon="4.98819">
        <ele>88.5</ele>
        <time>2010-11-14T08:44:15Z</time>
      </trkpt>
      <trkpt lat="44.11882" lon="4.98827">
        <ele>89</ele>
        <time>2010-11-14T08:44:20Z</time>
      </trkpt>
      <trkpt lat="44.11886" lon="4.98837">
        <ele>88.9</ele>
        <time>2010-11-14T08:44:25Z</time>
      </trkpt>
      <trkpt lat="44.11888" lon="4.98839">
        <ele>89.1</ele>
        <time>2010-11-14T08:44:26Z</time>
      </trkpt>
      <trkpt lat="44.119" lon="4.98852">
        <ele>89.2</ele>
        <time>2010-11-14T08:44:36Z</time>
      </trkpt>
      <trkpt lat="44.11907" lon="4.98858">
        <ele>89.1</ele>
        <time>2010-11-14T08:44:41Z</time>
      </trkpt>
      <trkpt lat="44.11916" lon="4.98862">
        <ele>89.2</ele>
        <time>2010-11-14T08:44:45Z</time>
      </trkpt>
      <trkpt lat="44.11924" lon="4.98865">
        <ele>89.4</ele>
        <time>2010-11-14T08:44:50Z</time>
      </trkpt>
      <trkpt lat="44.11932" lon="4.98869">
        <ele>89.4</ele>
        <time>2010-11-14T08:44:55Z</time>
      </trkpt>
      <trkpt lat="44.1194" lon="4.98873">
        <ele>89.6</ele>
        <time>2010-11-14T08:45:00Z</time>
      </trkpt>
      <trkpt lat="44.11948" lon="4.98877">
        <ele>89.3</ele>
        <time>2010-11-14T08:45:06Z</time>
      </trkpt>
      <trkpt lat="44.11953" lon="4.98885">
        <ele>88.8</ele>
        <time>2010-11-14T08:45:11Z</time>
      </trkpt>
      <trkpt lat="44.11956" lon="4.98894">
        <ele>88.3</ele>
        <time>2010-11-14T08:45:14Z</time>
      </trkpt>
      <trkpt lat="44.11958" lon="4.98906">
        <ele>88.1</ele>
        <time>2010-11-14T08:45:19Z</time>
      </trkpt>
      <trkpt lat="44.11959" lon="4.98918">
        <ele>88.5</ele>
        <time>2010-11-14T08:45:25Z</time>
      </trkpt>
      <trkpt lat="44.11961" lon="4.98928">
        <ele>88.4</ele>
        <time>2010-11-14T08:45:29Z</time>
      </trkpt>
      <trkpt lat="44.11961" lon="4.98931">
        <ele>88.3</ele>
        <time>2010-11-14T08:45:30Z</time>
      </trkpt>
      <trkpt lat="44.11963" lon="4.98953">
        <ele>88.1</ele>
        <time>2010-11-14T08:45:38Z</time>
      </trkpt>
      <trkpt lat="44.11963" lon="4.98965">
        <ele>88</ele>
        <time>2010-11-14T08:45:42Z</time>
      </trkpt>
      <trkpt lat="44.11958" lon="4.98974">
        <ele>88</ele>
        <time>2010-11-14T08:45:46Z</time>
      </trkpt>
      <trkpt lat="44.1195" lon="4.98978">
        <ele>86.7</ele>
        <time>2010-11-14T08:45:52Z</time>
      </trkpt>
      <trkpt lat="44.11943" lon="4.98982">
        <ele>85.9</ele>
        <time>2010-11-14T08:45:56Z</time>
      </trkpt>
      <trkpt lat="44.11934" lon="4.98986">
        <ele>87.2</ele>
        <time>2010-11-14T08:46:01Z</time>
      </trkpt>
      <trkpt lat="44.11927" lon="4.9899">
        <ele>86.5</ele>
        <time>2010-11-14T08:46:06Z</time>
      </trkpt>
      <trkpt lat="44.11919" lon="4.98992">
        <ele>86.7</ele>
        <time>2010-11-14T08:46:10Z</time>
      </trkpt>
      <trkpt lat="44.11911" lon="4.98995">
        <ele>86.1</ele>
        <time>2010-11-14T08:46:15Z</time>
      </trkpt>
      <trkpt lat="44.11905" lon="4.98999">
        <ele>86.1</ele>
        <time>2010-11-14T08:46:20Z</time>
      </trkpt>
      <trkpt lat="44.11898" lon="4.99003">
        <ele>86.8</ele>
        <time>2010-11-14T08:46:25Z</time>
      </trkpt>
      <trkpt lat="44.11891" lon="4.9901">
        <ele>86.5</ele>
        <time>2010-11-14T08:46:31Z</time>
      </trkpt>
      <trkpt lat="44.1189" lon="4.99012">
        <ele>86.3</ele>
        <time>2010-11-14T08:46:32Z</time>
      </trkpt>
      <trkpt lat="44.11895" lon="4.99032">
        <ele>87</ele>
        <time>2010-11-14T08:46:43Z</time>
      </trkpt>
      <trkpt lat="44.11898" lon="4.99042">
        <ele>87.2</ele>
        <time>2010-11-14T08:46:48Z</time>
      </trkpt>
      <trkpt lat="44.11902" lon="4.99052">
        <ele>87</ele>
        <time>2010-11-14T08:46:53Z</time>
      </trkpt>
      <trkpt lat="44.11906" lon="4.99062">
        <ele>87</ele>
        <time>2010-11-14T08:46:58Z</time>
      </trkpt>
      <trkpt lat="44.11911" lon="4.99071">
        <ele>88</ele>
        <time>2010-11-14T08:47:03Z</time>
      </trkpt>
      <trkpt lat="44.11913" lon="4.99081">
        <ele>88.2</ele>
        <time>2010-11-14T08:47:09Z</time>
      </trkpt>
      <trkpt lat="44.11913" lon="4.99093">
        <ele>88.7</ele>
        <time>2010-11-14T08:47:13Z</time>
      </trkpt>
      <trkpt lat="44.11914" lon="4.99104">
        <ele>88.7</ele>
        <time>2010-11-14T08:47:18Z</time>
      </trkpt>
      <trkpt lat="44.11913" lon="4.99116">
        <ele>88.9</ele>
        <time>2010-11-14T08:47:23Z</time>
      </trkpt>
      <trkpt lat="44.11914" lon="4.99127">
        <ele>88.5</ele>
        <time>2010-11-14T08:47:28Z</time>
      </trkpt>
      <trkpt lat="44.11913" lon="4.99139">
        <ele>88.3</ele>
        <time>2010-11-14T08:47:33Z</time>
      </trkpt>
      <trkpt lat="44.11913" lon="4.99142">
        <ele>88.4</ele>
        <time>2010-11-14T08:47:34Z</time>
      </trkpt>
      <trkpt lat="44.11912" lon="4.99161">
        <ele>87.6</ele>
        <time>2010-11-14T08:47:42Z</time>
      </trkpt>
      <trkpt lat="44.11913" lon="4.99173">
        <ele>87.2</ele>
        <time>2010-11-14T08:47:47Z</time>
      </trkpt>
      <trkpt lat="44.11915" lon="4.99183">
        <ele>86.6</ele>
        <time>2010-11-14T08:47:52Z</time>
      </trkpt>
      <trkpt lat="44.11916" lon="4.99194">
        <ele>86.8</ele>
        <time>2010-11-14T08:47:57Z</time>
      </trkpt>
      <trkpt lat="44.11918" lon="4.99205">
        <ele>86.3</ele>
        <time>2010-11-14T08:48:02Z</time>
      </trkpt>
      <trkpt lat="44.11923" lon="4.99214">
        <ele>85.3</ele>
        <time>2010-11-14T08:48:07Z</time>
      </trkpt>
      <trkpt lat="44.11928" lon="4.9922">
        <ele>85.5</ele>
        <time>2010-11-14T08:48:10Z</time>
      </trkpt>
      <trkpt lat="44.11934" lon="4.99224">
        <ele>86.1</ele>
        <time>2010-11-14T08:48:13Z</time>
      </trkpt>
      <trkpt lat="44.11942" lon="4.99226">
        <ele>86.6</ele>
        <time>2010-11-14T08:48:17Z</time>
      </trkpt>
      <trkpt lat="44.1195" lon="4.99223">
        <ele>86.5</ele>
        <time>2010-11-14T08:48:25Z</time>
      </trkpt>
      <trkpt lat="44.11959" lon="4.99218">
        <ele>86.7</ele>
        <time>2010-11-14T08:48:30Z</time>
      </trkpt>
      <trkpt lat="44.11966" lon="4.99213">
        <ele>86.6</ele>
        <time>2010-11-14T08:48:36Z</time>
      </trkpt>
      <trkpt lat="44.11967" lon="4.99212">
        <ele>86.9</ele>
        <time>2010-11-14T08:48:37Z</time>
      </trkpt>
      <trkpt lat="44.11981" lon="4.99202">
        <ele>87.2</ele>
        <time>2010-11-14T08:48:47Z</time>
      </trkpt>
      <trkpt lat="44.11989" lon="4.99199">
        <ele>86.3</ele>
        <time>2010-11-14T08:48:51Z</time>
      </trkpt>
      <trkpt lat="44.11996" lon="4.99194">
        <ele>85.8</ele>
        <time>2010-11-14T08:48:55Z</time>
      </trkpt>
      <trkpt lat="44.12004" lon="4.9919">
        <ele>85.4</ele>
        <time>2010-11-14T08:49:00Z</time>
      </trkpt>
      <trkpt lat="44.12012" lon="4.99185">
        <ele>86.1</ele>
        <time>2010-11-14T08:49:04Z</time>
      </trkpt>
      <trkpt lat="44.1202" lon="4.99181">
        <ele>86.2</ele>
        <time>2010-11-14T08:49:08Z</time>
      </trkpt>
      <trkpt lat="44.12028" lon="4.99175">
        <ele>85.4</ele>
        <time>2010-11-14T08:49:15Z</time>
      </trkpt>
      <trkpt lat="44.12035" lon="4.9917">
        <ele>86.2</ele>
        <time>2010-11-14T08:49:20Z</time>
      </trkpt>
      <trkpt lat="44.12043" lon="4.99167">
        <ele>85.6</ele>
        <time>2010-11-14T08:49:25Z</time>
      </trkpt>
      <trkpt lat="44.12052" lon="4.99165">
        <ele>85.8</ele>
        <time>2010-11-14T08:49:32Z</time>
      </trkpt>
      <trkpt lat="44.1206" lon="4.9917">
        <ele>85</ele>
        <time>2010-11-14T08:49:40Z</time>
      </trkpt>
      <trkpt lat="44.1206" lon="4.99172">
        <ele>84.8</ele>
        <time>2010-11-14T08:49:41Z</time>
      </trkpt>
      <trkpt lat="44.12061" lon="4.99193">
        <ele>83.3</ele>
        <time>2010-11-14T08:49:49Z</time>
      </trkpt>
      <trkpt lat="44.12061" lon="4.99205">
        <ele>82.6</ele>
        <time>2010-11-14T08:49:54Z</time>
      </trkpt>
      <trkpt lat="44.12063" lon="4.99217">
        <ele>81.3</ele>
        <time>2010-11-14T08:50:00Z</time>
      </trkpt>
      <trkpt lat="44.12064" lon="4.99228">
        <ele>81.7</ele>
        <time>2010-11-14T08:50:06Z</time>
      </trkpt>
      <trkpt lat="44.12065" lon="4.9924">
        <ele>81.9</ele>
        <time>2010-11-14T08:50:11Z</time>
      </trkpt>
      <trkpt lat="44.12067" lon="4.99252">
        <ele>82.6</ele>
        <time>2010-11-14T08:50:17Z</time>
      </trkpt>
      <trkpt lat="44.12069" lon="4.99263">
        <ele>82.8</ele>
        <time>2010-11-14T08:50:22Z</time>
      </trkpt>
      <trkpt lat="44.1207" lon="4.99274">
        <ele>82.4</ele>
        <time>2010-11-14T08:50:26Z</time>
      </trkpt>
      <trkpt lat="44.1207" lon="4.99286">
        <ele>82.5</ele>
        <time>2010-11-14T08:50:31Z</time>
      </trkpt>
      <trkpt lat="44.12069" lon="4.99297">
        <ele>81.9</ele>
        <time>2010-11-14T08:50:35Z</time>
      </trkpt>
      <trkpt lat="44.12069" lon="4.99307">
        <ele>81.9</ele>
        <time>2010-11-14T08:50:38Z</time>
      </trkpt>
      <trkpt lat="44.1207" lon="4.99316">
        <ele>81.6</ele>
        <time>2010-11-14T08:50:41Z</time>
      </trkpt>
      <trkpt lat="44.1207" lon="4.9932">
        <ele>81.6</ele>
        <time>2010-11-14T08:50:42Z</time>
      </trkpt>
      <trkpt lat="44.12083" lon="4.99319">
        <ele>83.4</ele>
        <time>2010-11-14T08:50:51Z</time>
      </trkpt>
      <trkpt lat="44.12092" lon="4.99317">
        <ele>83.7</ele>
        <time>2010-11-14T08:50:56Z</time>
      </trkpt>
      <trkpt lat="44.12099" lon="4.99315">
        <ele>84.8</ele>
        <time>2010-11-14T08:51:02Z</time>
      </trkpt>
      <trkpt lat="44.12107" lon="4.99311">
        <ele>84.8</ele>
        <time>2010-11-14T08:51:08Z</time>
      </trkpt>
      <trkpt lat="44.12115" lon="4.99305">
        <ele>84.8</ele>
        <time>2010-11-14T08:51:13Z</time>
      </trkpt>
      <trkpt lat="44.12122" lon="4.99303">
        <ele>85.4</ele>
        <time>2010-11-14T08:51:16Z</time>
      </trkpt>
      <trkpt lat="44.12128" lon="4.99298">
        <ele>86</ele>
        <time>2010-11-14T08:51:19Z</time>
      </trkpt>
      <trkpt lat="44.12135" lon="4.99297">
        <ele>86.4</ele>
        <time>2010-11-14T08:51:22Z</time>
      </trkpt>
      <trkpt lat="44.12144" lon="4.99295">
        <ele>87</ele>
        <time>2010-11-14T08:51:27Z</time>
      </trkpt>
      <trkpt lat="44.12152" lon="4.99289">
        <ele>87.4</ele>
        <time>2010-11-14T08:51:30Z</time>
      </trkpt>
      <trkpt lat="44.12159" lon="4.99283">
        <ele>88.5</ele>
        <time>2010-11-14T08:51:33Z</time>
      </trkpt>
      <trkpt lat="44.12165" lon="4.99284">
        <ele>90.3</ele>
        <time>2010-11-14T08:51:36Z</time>
      </trkpt>
      <trkpt lat="44.12169" lon="4.99291">
        <ele>91</ele>
        <time>2010-11-14T08:51:38Z</time>
      </trkpt>
      <trkpt lat="44.12174" lon="4.99301">
        <ele>91.7</ele>
        <time>2010-11-14T08:51:43Z</time>
      </trkpt>
      <trkpt lat="44.12175" lon="4.99302">
        <ele>91.9</ele>
        <time>2010-11-14T08:51:44Z</time>
      </trkpt>
      <trkpt lat="44.12182" lon="4.99319">
        <ele>92.7</ele>
        <time>2010-11-14T08:51:52Z</time>
      </trkpt>
      <trkpt lat="44.1219" lon="4.99319">
        <ele>91.9</ele>
        <time>2010-11-14T08:51:57Z</time>
      </trkpt>
      <trkpt lat="44.12198" lon="4.99315">
        <ele>92.4</ele>
        <time>2010-11-14T08:52:04Z</time>
      </trkpt>
      <trkpt lat="44.12206" lon="4.9931">
        <ele>92.8</ele>
        <time>2010-11-14T08:52:12Z</time>
      </trkpt>
      <trkpt lat="44.12214" lon="4.99308">
        <ele>92.8</ele>
        <time>2010-11-14T08:52:17Z</time>
      </trkpt>
      <trkpt lat="44.12221" lon="4.99303">
        <ele>92.6</ele>
        <time>2010-11-14T08:52:22Z</time>
      </trkpt>
      <trkpt lat="44.1223" lon="4.99303">
        <ele>93</ele>
        <time>2010-11-14T08:52:29Z</time>
      </trkpt>
      <trkpt lat="44.12236" lon="4.99297">
        <ele>94.4</ele>
        <time>2010-11-14T08:52:37Z</time>
      </trkpt>
      <trkpt lat="44.12239" lon="4.99286">
        <ele>95</ele>
        <time>2010-11-14T08:52:42Z</time>
      </trkpt>
      <trkpt lat="44.12242" lon="4.99277">
        <ele>95.4</ele>
        <time>2010-11-14T08:52:47Z</time>
      </trkpt>
      <trkpt lat="44.12243" lon="4.99275">
        <ele>95.5</ele>
        <time>2010-11-14T08:52:48Z</time>
      </trkpt>
      <trkpt lat="44.12257" lon="4.99264">
        <ele>95.4</ele>
        <time>2010-11-14T08:52:59Z</time>
      </trkpt>
      <trkpt lat="44.12262" lon="4.99255">
        <ele>95.8</ele>
        <time>2010-11-14T08:53:05Z</time>
      </trkpt>
      <trkpt lat="44.12268" lon="4.99248">
        <ele>96.3</ele>
        <time>2010-11-14T08:53:10Z</time>
      </trkpt>
      <trkpt lat="44.12276" lon="4.99245">
        <ele>97.1</ele>
        <time>2010-11-14T08:53:17Z</time>
      </trkpt>
      <trkpt lat="44.12284" lon="4.99241">
        <ele>97.4</ele>
        <time>2010-11-14T08:53:23Z</time>
      </trkpt>
      <trkpt lat="44.12289" lon="4.99233">
        <ele>98</ele>
        <time>2010-11-14T08:53:29Z</time>
      </trkpt>
      <trkpt lat="44.12297" lon="4.9923">
        <ele>98.4</ele>
        <time>2010-11-14T08:53:34Z</time>
      </trkpt>
      <trkpt lat="44.12305" lon="4.99227">
        <ele>98.7</ele>
        <time>2010-11-14T08:53:39Z</time>
      </trkpt>
      <trkpt lat="44.12313" lon="4.99224">
        <ele>99</ele>
        <time>2010-11-14T08:53:43Z</time>
      </trkpt>
      <trkpt lat="44.12321" lon="4.9922">
        <ele>99.2</ele>
        <time>2010-11-14T08:53:48Z</time>
      </trkpt>
      <trkpt lat="44.12322" lon="4.9922">
        <ele>99.3</ele>
        <time>2010-11-14T08:53:49Z</time>
      </trkpt>
      <trkpt lat="44.12338" lon="4.99215">
        <ele>100.4</ele>
        <time>2010-11-14T08:53:59Z</time>
      </trkpt>
      <trkpt lat="44.12346" lon="4.99214">
        <ele>101.3</ele>
        <time>2010-11-14T08:54:04Z</time>
      </trkpt>
      <trkpt lat="44.12354" lon="4.99213">
        <ele>101.7</ele>
        <time>2010-11-14T08:54:10Z</time>
      </trkpt>
      <trkpt lat="44.12362" lon="4.99211">
        <ele>102.2</ele>
        <time>2010-11-14T08:54:16Z</time>
      </trkpt>
      <trkpt lat="44.1237" lon="4.99208">
        <ele>102.5</ele>
        <time>2010-11-14T08:54:22Z</time>
      </trkpt>
      <trkpt lat="44.12378" lon="4.99207">
        <ele>102.9</ele>
        <time>2010-11-14T08:54:27Z</time>
      </trkpt>
      <trkpt lat="44.12386" lon="4.99205">
        <ele>103.4</ele>
        <time>2010-11-14T08:54:32Z</time>
      </trkpt>
      <trkpt lat="44.12394" lon="4.99204">
        <ele>104.8</ele>
        <time>2010-11-14T08:54:37Z</time>
      </trkpt>
      <trkpt lat="44.12402" lon="4.99202">
        <ele>104.5</ele>
        <time>2010-11-14T08:54:42Z</time>
      </trkpt>
      <trkpt lat="44.1241" lon="4.99202">
        <ele>105</ele>
        <time>2010-11-14T08:54:47Z</time>
      </trkpt>
      <trkpt lat="44.12419" lon="4.99201">
        <ele>105.4</ele>
        <time>2010-11-14T08:54:52Z</time>
      </trkpt>
      <trkpt lat="44.1242" lon="4.99201">
        <ele>105.5</ele>
        <time>2010-11-14T08:54:53Z</time>
      </trkpt>
      <trkpt lat="44.12435" lon="4.99199">
        <ele>106.3</ele>
        <time>2010-11-14T08:55:02Z</time>
      </trkpt>
      <trkpt lat="44.12443" lon="4.99198">
        <ele>106.1</ele>
        <time>2010-11-14T08:55:06Z</time>
      </trkpt>
      <trkpt lat="44.12451" lon="4.99196">
        <ele>106.1</ele>
        <time>2010-11-14T08:55:12Z</time>
      </trkpt>
      <trkpt lat="44.12459" lon="4.99195">
        <ele>106.2</ele>
        <time>2010-11-14T08:55:17Z</time>
      </trkpt>
      <trkpt lat="44.12467" lon="4.99193">
        <ele>106.2</ele>
        <time>2010-11-14T08:55:23Z</time>
      </trkpt>
      <trkpt lat="44.12476" lon="4.99192">
        <ele>106.4</ele>
        <time>2010-11-14T08:55:29Z</time>
      </trkpt>
      <trkpt lat="44.12485" lon="4.99191">
        <ele>106.5</ele>
        <time>2010-11-14T08:55:34Z</time>
      </trkpt>
      <trkpt lat="44.12492" lon="4.9919">
        <ele>106.4</ele>
        <time>2010-11-14T08:55:39Z</time>
      </trkpt>
      <trkpt lat="44.12501" lon="4.99189">
        <ele>106.8</ele>
        <time>2010-11-14T08:55:44Z</time>
      </trkpt>
      <trkpt lat="44.12508" lon="4.99188">
        <ele>106.8</ele>
        <time>2010-11-14T08:55:49Z</time>
      </trkpt>
      <trkpt lat="44.12516" lon="4.99187">
        <ele>107.2</ele>
        <time>2010-11-14T08:55:54Z</time>
      </trkpt>
      <trkpt lat="44.12517" lon="4.99188">
        <ele>107.3</ele>
        <time>2010-11-14T08:55:55Z</time>
      </trkpt>
      <trkpt lat="44.12533" lon="4.99183">
        <ele>108.2</ele>
        <time>2010-11-14T08:56:05Z</time>
      </trkpt>
      <trkpt lat="44.12541" lon="4.9918">
        <ele>108</ele>
        <time>2010-11-14T08:56:11Z</time>
      </trkpt>
      <trkpt lat="44.12548" lon="4.9918">
        <ele>108.3</ele>
        <time>2010-11-14T08:56:16Z</time>
      </trkpt>
      <trkpt lat="44.12557" lon="4.99181">
        <ele>108.1</ele>
        <time>2010-11-14T08:56:21Z</time>
      </trkpt>
      <trkpt lat="44.12565" lon="4.99183">
        <ele>108.6</ele>
        <time>2010-11-14T08:56:27Z</time>
      </trkpt>
      <trkpt lat="44.12572" lon="4.9919">
        <ele>109.5</ele>
        <time>2010-11-14T08:56:33Z</time>
      </trkpt>
      <trkpt lat="44.12579" lon="4.99198">
        <ele>110</ele>
        <time>2010-11-14T08:56:39Z</time>
      </trkpt>
      <trkpt lat="44.12584" lon="4.99206">
        <ele>110.1</ele>
        <time>2010-11-14T08:56:44Z</time>
      </trkpt>
      <trkpt lat="44.12591" lon="4.99213">
        <ele>110.9</ele>
        <time>2010-11-14T08:56:49Z</time>
      </trkpt>
      <trkpt lat="44.12597" lon="4.9922">
        <ele>111.2</ele>
        <time>2010-11-14T08:56:54Z</time>
      </trkpt>
      <trkpt lat="44.12603" lon="4.99228">
        <ele>111.1</ele>
        <time>2010-11-14T08:56:59Z</time>
      </trkpt>
      <trkpt lat="44.12604" lon="4.9923">
        <ele>111.2</ele>
        <time>2010-11-14T08:57:00Z</time>
      </trkpt>
      <trkpt lat="44.12616" lon="4.99245">
        <ele>111.5</ele>
        <time>2010-11-14T08:57:10Z</time>
      </trkpt>
      <trkpt lat="44.12622" lon="4.99252">
        <ele>111.4</ele>
        <time>2010-11-14T08:57:15Z</time>
      </trkpt>
      <trkpt lat="44.12629" lon="4.99259">
        <ele>112</ele>
        <time>2010-11-14T08:57:20Z</time>
      </trkpt>
      <trkpt lat="44.12635" lon="4.99266">
        <ele>112.1</ele>
        <time>2010-11-14T08:57:25Z</time>
      </trkpt>
      <trkpt lat="44.12641" lon="4.99272">
        <ele>112.7</ele>
        <time>2010-11-14T08:57:29Z</time>
      </trkpt>
      <trkpt lat="44.12647" lon="4.99277">
        <ele>112.9</ele>
        <time>2010-11-14T08:57:33Z</time>
      </trkpt>
      <trkpt lat="44.12653" lon="4.99284">
        <ele>113.1</ele>
        <time>2010-11-14T08:57:38Z</time>
      </trkpt>
      <trkpt lat="44.12658" lon="4.99293">
        <ele>113.7</ele>
        <time>2010-11-14T08:57:44Z</time>
      </trkpt>
      <trkpt lat="44.12664" lon="4.99301">
        <ele>113.9</ele>
        <time>2010-11-14T08:57:50Z</time>
      </trkpt>
      <trkpt lat="44.1267" lon="4.99307">
        <ele>113.9</ele>
        <time>2010-11-14T08:57:54Z</time>
      </trkpt>
      <trkpt lat="44.12676" lon="4.99311">
        <ele>114.2</ele>
        <time>2010-11-14T08:57:56Z</time>
      </trkpt>
      <trkpt lat="44.12682" lon="4.99319">
        <ele>114.8</ele>
        <time>2010-11-14T08:58:01Z</time>
      </trkpt>
      <trkpt lat="44.12683" lon="4.9932">
        <ele>115</ele>
        <time>2010-11-14T08:58:02Z</time>
      </trkpt>
      <trkpt lat="44.12697" lon="4.99329">
        <ele>115</ele>
        <time>2010-11-14T08:58:18Z</time>
      </trkpt>
      <trkpt lat="44.12703" lon="4.99322">
        <ele>114.8</ele>
        <time>2010-11-14T08:58:24Z</time>
      </trkpt>
      <trkpt lat="44.1271" lon="4.99314">
        <ele>115.1</ele>
        <time>2010-11-14T08:58:31Z</time>
      </trkpt>
      <trkpt lat="44.12712" lon="4.99303">
        <ele>113.5</ele>
        <time>2010-11-14T08:58:38Z</time>
      </trkpt>
      <trkpt lat="44.1271" lon="4.99292">
        <ele>112.1</ele>
        <time>2010-11-14T08:58:43Z</time>
      </trkpt>
      <trkpt lat="44.12716" lon="4.99284">
        <ele>112</ele>
        <time>2010-11-14T08:58:49Z</time>
      </trkpt>
      <trkpt lat="44.12723" lon="4.99281">
        <ele>111.9</ele>
        <time>2010-11-14T08:58:53Z</time>
      </trkpt>
      <trkpt lat="44.1273" lon="4.99277">
        <ele>112.1</ele>
        <time>2010-11-14T08:58:56Z</time>
      </trkpt>
      <trkpt lat="44.12737" lon="4.99272">
        <ele>112.5</ele>
        <time>2010-11-14T08:58:59Z</time>
      </trkpt>
      <trkpt lat="44.12744" lon="4.99266">
        <ele>111.7</ele>
        <time>2010-11-14T08:59:05Z</time>
      </trkpt>
      <trkpt lat="44.12745" lon="4.99265">
        <ele>111.5</ele>
        <time>2010-11-14T08:59:06Z</time>
      </trkpt>
      <trkpt lat="44.12758" lon="4.99254">
        <ele>110.3</ele>
        <time>2010-11-14T08:59:14Z</time>
      </trkpt>
      <trkpt lat="44.12765" lon="4.9925">
        <ele>109.6</ele>
        <time>2010-11-14T08:59:18Z</time>
      </trkpt>
      <trkpt lat="44.12772" lon="4.99243">
        <ele>108.8</ele>
        <time>2010-11-14T08:59:23Z</time>
      </trkpt>
      <trkpt lat="44.12779" lon="4.99237">
        <ele>108.4</ele>
        <time>2010-11-14T08:59:28Z</time>
      </trkpt>
      <trkpt lat="44.12788" lon="4.99234">
        <ele>108.2</ele>
        <time>2010-11-14T08:59:33Z</time>
      </trkpt>
      <trkpt lat="44.12794" lon="4.99231">
        <ele>108.3</ele>
        <time>2010-11-14T08:59:36Z</time>
      </trkpt>
      <trkpt lat="44.12801" lon="4.99224">
        <ele>108.2</ele>
        <time>2010-11-14T08:59:41Z</time>
      </trkpt>
      <trkpt lat="44.12806" lon="4.99217">
        <ele>108.9</ele>
        <time>2010-11-14T08:59:46Z</time>
      </trkpt>
      <trkpt lat="44.12813" lon="4.99209">
        <ele>109.2</ele>
        <time>2010-11-14T08:59:52Z</time>
      </trkpt>
      <trkpt lat="44.12815" lon="4.99199">
        <ele>109.4</ele>
        <time>2010-11-14T08:59:57Z</time>
      </trkpt>
      <trkpt lat="44.12817" lon="4.99187">
        <ele>110</ele>
        <time>2010-11-14T09:00:02Z</time>
      </trkpt>
      <trkpt lat="44.12819" lon="4.99176">
        <ele>110</ele>
        <time>2010-11-14T09:00:07Z</time>
      </trkpt>
      <trkpt lat="44.12821" lon="4.99174">
        <ele>109.7</ele>
        <time>2010-11-14T09:00:08Z</time>
      </trkpt>
      <trkpt lat="44.12821" lon="4.99153">
        <ele>108.1</ele>
        <time>2010-11-14T09:00:16Z</time>
      </trkpt>
      <trkpt lat="44.12823" lon="4.99141">
        <ele>108.6</ele>
        <time>2010-11-14T09:00:20Z</time>
      </trkpt>
      <trkpt lat="44.12825" lon="4.9913">
        <ele>109.1</ele>
        <time>2010-11-14T09:00:26Z</time>
      </trkpt>
      <trkpt lat="44.12827" lon="4.99118">
        <ele>109.6</ele>
        <time>2010-11-14T09:00:32Z</time>
      </trkpt>
      <trkpt lat="44.12832" lon="4.99109">
        <ele>109.8</ele>
        <time>2010-11-14T09:00:36Z</time>
      </trkpt>
      <trkpt lat="44.12839" lon="4.99104">
        <ele>110.1</ele>
        <time>2010-11-14T09:00:42Z</time>
      </trkpt>
      <trkpt lat="44.12846" lon="4.99102">
        <ele>110.2</ele>
        <time>2010-11-14T09:00:46Z</time>
      </trkpt>
      <trkpt lat="44.12854" lon="4.99099">
        <ele>111.1</ele>
        <time>2010-11-14T09:00:50Z</time>
      </trkpt>
      <trkpt lat="44.12863" lon="4.99095">
        <ele>110.8</ele>
        <time>2010-11-14T09:00:57Z</time>
      </trkpt>
      <trkpt lat="44.1287" lon="4.99092">
        <ele>111.6</ele>
        <time>2010-11-14T09:01:02Z</time>
      </trkpt>
      <trkpt lat="44.12879" lon="4.99092">
        <ele>112.3</ele>
        <time>2010-11-14T09:01:07Z</time>
      </trkpt>
      <trkpt lat="44.12887" lon="4.99092">
        <ele>113.5</ele>
        <time>2010-11-14T09:01:12Z</time>
      </trkpt>
      <trkpt lat="44.1289" lon="4.99092">
        <ele>113.8</ele>
        <time>2010-11-14T09:01:13Z</time>
      </trkpt>
      <trkpt lat="44.129" lon="4.99102">
        <ele>113.9</ele>
        <time>2010-11-14T09:01:22Z</time>
      </trkpt>
      <trkpt lat="44.12908" lon="4.99107">
        <ele>113</ele>
        <time>2010-11-14T09:01:26Z</time>
      </trkpt>
      <trkpt lat="44.12914" lon="4.99115">
        <ele>113.2</ele>
        <time>2010-11-14T09:01:32Z</time>
      </trkpt>
      <trkpt lat="44.1292" lon="4.99121">
        <ele>113.1</ele>
        <time>2010-11-14T09:01:37Z</time>
      </trkpt>
      <trkpt lat="44.12927" lon="4.99128">
        <ele>113.3</ele>
        <time>2010-11-14T09:01:42Z</time>
      </trkpt>
      <trkpt lat="44.12934" lon="4.99131">
        <ele>113</ele>
        <time>2010-11-14T09:01:47Z</time>
      </trkpt>
      <trkpt lat="44.12941" lon="4.99138">
        <ele>113</ele>
        <time>2010-11-14T09:01:52Z</time>
      </trkpt>
      <trkpt lat="44.12946" lon="4.99146">
        <ele>113.1</ele>
        <time>2010-11-14T09:01:57Z</time>
      </trkpt>
      <trkpt lat="44.12952" lon="4.99153">
        <ele>113.3</ele>
        <time>2010-11-14T09:02:03Z</time>
      </trkpt>
      <trkpt lat="44.12958" lon="4.99157">
        <ele>113.2</ele>
        <time>2010-11-14T09:02:07Z</time>
      </trkpt>
      <trkpt lat="44.12965" lon="4.99163">
        <ele>112.9</ele>
        <time>2010-11-14T09:02:11Z</time>
      </trkpt>
      <trkpt lat="44.12972" lon="4.99167">
        <ele>112.5</ele>
        <time>2010-11-14T09:02:16Z</time>
      </trkpt>
      <trkpt lat="44.12973" lon="4.99168">
        <ele>112.9</ele>
        <time>2010-11-14T09:02:17Z</time>
      </trkpt>
      <trkpt lat="44.12987" lon="4.99178">
        <ele>113.2</ele>
        <time>2010-11-14T09:02:27Z</time>
      </trkpt>
      <trkpt lat="44.12993" lon="4.99185">
        <ele>113.5</ele>
        <time>2010-11-14T09:02:33Z</time>
      </trkpt>
      <trkpt lat="44.12999" lon="4.99191">
        <ele>113.8</ele>
        <time>2010-11-14T09:02:38Z</time>
      </trkpt>
      <trkpt lat="44.13006" lon="4.99198">
        <ele>113.8</ele>
        <time>2010-11-14T09:02:43Z</time>
      </trkpt>
      <trkpt lat="44.13011" lon="4.99205">
        <ele>114.2</ele>
        <time>2010-11-14T09:02:48Z</time>
      </trkpt>
      <trkpt lat="44.13018" lon="4.99212">
        <ele>114.4</ele>
        <time>2010-11-14T09:02:54Z</time>
      </trkpt>
      <trkpt lat="44.13024" lon="4.9922">
        <ele>114.8</ele>
        <time>2010-11-14T09:03:00Z</time>
      </trkpt>
      <trkpt lat="44.13029" lon="4.99228">
        <ele>115.1</ele>
        <time>2010-11-14T09:03:06Z</time>
      </trkpt>
      <trkpt lat="44.13034" lon="4.99235">
        <ele>115.1</ele>
        <time>2010-11-14T09:03:11Z</time>
      </trkpt>
      <trkpt lat="44.13041" lon="4.99242">
        <ele>115.2</ele>
        <time>2010-11-14T09:03:16Z</time>
      </trkpt>
      <trkpt lat="44.13048" lon="4.99247">
        <ele>114.9</ele>
        <time>2010-11-14T09:03:21Z</time>
      </trkpt>
      <trkpt lat="44.13049" lon="4.99248">
        <ele>114.8</ele>
        <time>2010-11-14T09:03:22Z</time>
      </trkpt>
      <trkpt lat="44.13062" lon="4.9926">
        <ele>115.5</ele>
        <time>2010-11-14T09:03:31Z</time>
      </trkpt>
      <trkpt lat="44.13066" lon="4.99263">
        <ele>115.8</ele>
        <time>2010-11-14T09:03:33Z</time>
      </trkpt>
      <trkpt lat="44.13073" lon="4.99269">
        <ele>115.9</ele>
        <time>2010-11-14T09:03:35Z</time>
      </trkpt>
      <trkpt lat="44.13081" lon="4.99272">
        <ele>116.8</ele>
        <time>2010-11-14T09:03:41Z</time>
      </trkpt>
      <trkpt lat="44.13089" lon="4.99276">
        <ele>117.3</ele>
        <time>2010-11-14T09:03:53Z</time>
      </trkpt>
      <trkpt lat="44.13097" lon="4.99274">
        <ele>117.5</ele>
        <time>2010-11-14T09:03:57Z</time>
      </trkpt>
      <trkpt lat="44.13103" lon="4.99268">
        <ele>117.5</ele>
        <time>2010-11-14T09:04:00Z</time>
      </trkpt>
      <trkpt lat="44.13108" lon="4.99257">
        <ele>117.3</ele>
        <time>2010-11-14T09:04:06Z</time>
      </trkpt>
      <trkpt lat="44.13113" lon="4.99248">
        <ele>117.1</ele>
        <time>2010-11-14T09:04:11Z</time>
      </trkpt>
      <trkpt lat="44.1312" lon="4.99256">
        <ele>117.2</ele>
        <time>2010-11-14T09:04:18Z</time>
      </trkpt>
      <trkpt lat="44.13125" lon="4.99264">
        <ele>117.8</ele>
        <time>2010-11-14T09:04:23Z</time>
      </trkpt>
      <trkpt lat="44.13126" lon="4.99266">
        <ele>117.9</ele>
        <time>2010-11-14T09:04:24Z</time>
      </trkpt>
      <trkpt lat="44.13139" lon="4.99277">
        <ele>118.3</ele>
        <time>2010-11-14T09:04:35Z</time>
      </trkpt>
      <trkpt lat="44.13146" lon="4.99283">
        <ele>118.8</ele>
        <time>2010-11-14T09:04:40Z</time>
      </trkpt>
      <trkpt lat="44.13154" lon="4.99288">
        <ele>119.1</ele>
        <time>2010-11-14T09:04:48Z</time>
      </trkpt>
      <trkpt lat="44.13162" lon="4.99293">
        <ele>119.6</ele>
        <time>2010-11-14T09:04:55Z</time>
      </trkpt>
      <trkpt lat="44.13167" lon="4.993">
        <ele>120.2</ele>
        <time>2010-11-14T09:05:00Z</time>
      </trkpt>
      <trkpt lat="44.13173" lon="4.99306">
        <ele>120.3</ele>
        <time>2010-11-14T09:05:04Z</time>
      </trkpt>
      <trkpt lat="44.1318" lon="4.99314">
        <ele>120.7</ele>
        <time>2010-11-14T09:05:09Z</time>
      </trkpt>
      <trkpt lat="44.13186" lon="4.99322">
        <ele>120.4</ele>
        <time>2010-11-14T09:05:14Z</time>
      </trkpt>
      <trkpt lat="44.13192" lon="4.9933">
        <ele>120.4</ele>
        <time>2010-11-14T09:05:19Z</time>
      </trkpt>
      <trkpt lat="44.13198" lon="4.99337">
        <ele>120.7</ele>
        <time>2010-11-14T09:05:23Z</time>
      </trkpt>
      <trkpt lat="44.13204" lon="4.99346">
        <ele>121</ele>
        <time>2010-11-14T09:05:29Z</time>
      </trkpt>
      <trkpt lat="44.13205" lon="4.99348">
        <ele>120.8</ele>
        <time>2010-11-14T09:05:30Z</time>
      </trkpt>
      <trkpt lat="44.13216" lon="4.99359">
        <ele>121.2</ele>
        <time>2010-11-14T09:05:38Z</time>
      </trkpt>
      <trkpt lat="44.13223" lon="4.99366">
        <ele>121.2</ele>
        <time>2010-11-14T09:05:43Z</time>
      </trkpt>
      <trkpt lat="44.1323" lon="4.99372">
        <ele>121.2</ele>
        <time>2010-11-14T09:05:48Z</time>
      </trkpt>
      <trkpt lat="44.13236" lon="4.99379">
        <ele>121.3</ele>
        <time>2010-11-14T09:05:54Z</time>
      </trkpt>
      <trkpt lat="44.13243" lon="4.99386">
        <ele>121.9</ele>
        <time>2010-11-14T09:05:59Z</time>
      </trkpt>
      <trkpt lat="44.13248" lon="4.99393">
        <ele>121.8</ele>
        <time>2010-11-14T09:06:05Z</time>
      </trkpt>
      <trkpt lat="44.13255" lon="4.99401">
        <ele>121.9</ele>
        <time>2010-11-14T09:06:10Z</time>
      </trkpt>
      <trkpt lat="44.13261" lon="4.99408">
        <ele>122</ele>
        <time>2010-11-14T09:06:15Z</time>
      </trkpt>
      <trkpt lat="44.13268" lon="4.99415">
        <ele>122</ele>
        <time>2010-11-14T09:06:20Z</time>
      </trkpt>
      <trkpt lat="44.13274" lon="4.99423">
        <ele>123.4</ele>
        <time>2010-11-14T09:06:26Z</time>
      </trkpt>
      <trkpt lat="44.1328" lon="4.9943">
        <ele>123.9</ele>
        <time>2010-11-14T09:06:31Z</time>
      </trkpt>
      <trkpt lat="44.13281" lon="4.99432">
        <ele>123.9</ele>
        <time>2010-11-14T09:06:32Z</time>
      </trkpt>
      <trkpt lat="44.13294" lon="4.99438">
        <ele>124.8</ele>
        <time>2010-11-14T09:06:42Z</time>
      </trkpt>
      <trkpt lat="44.133" lon="4.99432">
        <ele>124.6</ele>
        <time>2010-11-14T09:06:47Z</time>
      </trkpt>
      <trkpt lat="44.13306" lon="4.99425">
        <ele>125.5</ele>
        <time>2010-11-14T09:06:53Z</time>
      </trkpt>
      <trkpt lat="44.13313" lon="4.99421">
        <ele>125.1</ele>
        <time>2010-11-14T09:06:59Z</time>
      </trkpt>
      <trkpt lat="44.13321" lon="4.99418">
        <ele>125.5</ele>
        <time>2010-11-14T09:07:05Z</time>
      </trkpt>
      <trkpt lat="44.13328" lon="4.9942">
        <ele>125.3</ele>
        <time>2010-11-14T09:07:09Z</time>
      </trkpt>
      <trkpt lat="44.13335" lon="4.99421">
        <ele>125.4</ele>
        <time>2010-11-14T09:07:12Z</time>
      </trkpt>
      <trkpt lat="44.13342" lon="4.99423">
        <ele>125.2</ele>
        <time>2010-11-14T09:07:15Z</time>
      </trkpt>
      <trkpt lat="44.13348" lon="4.99428">
        <ele>125.1</ele>
        <time>2010-11-14T09:07:18Z</time>
      </trkpt>
      <trkpt lat="44.13355" lon="4.99435">
        <ele>125.8</ele>
        <time>2010-11-14T09:07:21Z</time>
      </trkpt>
      <trkpt lat="44.13358" lon="4.99442">
        <ele>126.7</ele>
        <time>2010-11-14T09:07:23Z</time>
      </trkpt>
      <trkpt lat="44.13361" lon="4.99451">
        <ele>127.4</ele>
        <time>2010-11-14T09:07:25Z</time>
      </trkpt>
      <trkpt lat="44.13365" lon="4.99459">
        <ele>128.1</ele>
        <time>2010-11-14T09:07:27Z</time>
      </trkpt>
      <trkpt lat="44.1337" lon="4.99464">
        <ele>128.4</ele>
        <time>2010-11-14T09:07:29Z</time>
      </trkpt>
      <trkpt lat="44.13378" lon="4.99468">
        <ele>129.2</ele>
        <time>2010-11-14T09:07:32Z</time>
      </trkpt>
      <trkpt lat="44.13381" lon="4.99469">
        <ele>129.3</ele>
        <time>2010-11-14T09:07:33Z</time>
      </trkpt>
      <trkpt lat="44.13391" lon="4.99474">
        <ele>129.3</ele>
        <time>2010-11-14T09:07:37Z</time>
      </trkpt>
      <trkpt lat="44.13399" lon="4.99477">
        <ele>129.5</ele>
        <time>2010-11-14T09:07:42Z</time>
      </trkpt>
      <trkpt lat="44.13405" lon="4.99478">
        <ele>129.5</ele>
        <time>2010-11-14T09:07:46Z</time>
      </trkpt>
      <trkpt lat="44.13412" lon="4.9948">
        <ele>129.5</ele>
        <time>2010-11-14T09:07:50Z</time>
      </trkpt>
      <trkpt lat="44.13418" lon="4.99488">
        <ele>129.8</ele>
        <time>2010-11-14T09:07:55Z</time>
      </trkpt>
      <trkpt lat="44.13424" lon="4.99496">
        <ele>130.2</ele>
        <time>2010-11-14T09:07:59Z</time>
      </trkpt>
      <trkpt lat="44.13428" lon="4.99505">
        <ele>130.5</ele>
        <time>2010-11-14T09:08:04Z</time>
      </trkpt>
      <trkpt lat="44.13434" lon="4.99515">
        <ele>131.1</ele>
        <time>2010-11-14T09:08:12Z</time>
      </trkpt>
      <trkpt lat="44.13439" lon="4.99522">
        <ele>131.5</ele>
        <time>2010-11-14T09:08:17Z</time>
      </trkpt>
      <trkpt lat="44.13445" lon="4.99528">
        <ele>132</ele>
        <time>2010-11-14T09:08:22Z</time>
      </trkpt>
      <trkpt lat="44.13452" lon="4.99534">
        <ele>132.2</ele>
        <time>2010-11-14T09:08:27Z</time>
      </trkpt>
      <trkpt lat="44.13461" lon="4.99539">
        <ele>132.6</ele>
        <time>2010-11-14T09:08:34Z</time>
      </trkpt>
      <trkpt lat="44.13464" lon="4.99539">
        <ele>132.6</ele>
        <time>2010-11-14T09:08:35Z</time>
      </trkpt>
      <trkpt lat="44.13477" lon="4.99546">
        <ele>133.2</ele>
        <time>2010-11-14T09:08:45Z</time>
      </trkpt>
      <trkpt lat="44.13484" lon="4.9955">
        <ele>134.1</ele>
        <time>2010-11-14T09:08:52Z</time>
      </trkpt>
      <trkpt lat="44.13492" lon="4.99553">
        <ele>133.7</ele>
        <time>2010-11-14T09:08:57Z</time>
      </trkpt>
      <trkpt lat="44.135" lon="4.99556">
        <ele>134.5</ele>
        <time>2010-11-14T09:09:04Z</time>
      </trkpt>
      <trkpt lat="44.13508" lon="4.99558">
        <ele>134.6</ele>
        <time>2010-11-14T09:09:08Z</time>
      </trkpt>
      <trkpt lat="44.13516" lon="4.99561">
        <ele>134.5</ele>
        <time>2010-11-14T09:09:14Z</time>
      </trkpt>
      <trkpt lat="44.13523" lon="4.99565">
        <ele>134.3</ele>
        <time>2010-11-14T09:09:19Z</time>
      </trkpt>
      <trkpt lat="44.13531" lon="4.99567">
        <ele>134.2</ele>
        <time>2010-11-14T09:09:23Z</time>
      </trkpt>
      <trkpt lat="44.13538" lon="4.99568">
        <ele>134.1</ele>
        <time>2010-11-14T09:09:26Z</time>
      </trkpt>
      <trkpt lat="44.13546" lon="4.99571">
        <ele>134.5</ele>
        <time>2010-11-14T09:09:30Z</time>
      </trkpt>
      <trkpt lat="44.13554" lon="4.99571">
        <ele>134.5</ele>
        <time>2010-11-14T09:09:35Z</time>
      </trkpt>
      <trkpt lat="44.13557" lon="4.99571">
        <ele>134.5</ele>
        <time>2010-11-14T09:09:36Z</time>
      </trkpt>
      <trkpt lat="44.1357" lon="4.99567">
        <ele>135.4</ele>
        <time>2010-11-14T09:09:50Z</time>
      </trkpt>
      <trkpt lat="44.13578" lon="4.99567">
        <ele>134.9</ele>
        <time>2010-11-14T09:09:56Z</time>
      </trkpt>
      <trkpt lat="44.13587" lon="4.99566">
        <ele>135.3</ele>
        <time>2010-11-14T09:10:02Z</time>
      </trkpt>
      <trkpt lat="44.13594" lon="4.99566">
        <ele>135.4</ele>
        <time>2010-11-14T09:10:08Z</time>
      </trkpt>
      <trkpt lat="44.13601" lon="4.9957">
        <ele>136</ele>
        <time>2010-11-14T09:10:14Z</time>
      </trkpt>
      <trkpt lat="44.13606" lon="4.9958">
        <ele>136.6</ele>
        <time>2010-11-14T09:10:20Z</time>
      </trkpt>
      <trkpt lat="44.13605" lon="4.99591">
        <ele>137.1</ele>
        <time>2010-11-14T09:10:25Z</time>
      </trkpt>
      <trkpt lat="44.13605" lon="4.99603">
        <ele>137.9</ele>
        <time>2010-11-14T09:10:31Z</time>
      </trkpt>
      <trkpt lat="44.13611" lon="4.99612">
        <ele>138.5</ele>
        <time>2010-11-14T09:10:35Z</time>
      </trkpt>
      <trkpt lat="44.13616" lon="4.99621">
        <ele>139.2</ele>
        <time>2010-11-14T09:10:40Z</time>
      </trkpt>
      <trkpt lat="44.13616" lon="4.99623">
        <ele>139.2</ele>
        <time>2010-11-14T09:10:41Z</time>
      </trkpt>
      <trkpt lat="44.13624" lon="4.99642">
        <ele>140.8</ele>
        <time>2010-11-14T09:10:49Z</time>
      </trkpt>
      <trkpt lat="44.13628" lon="4.99651">
        <ele>141</ele>
        <time>2010-11-14T09:10:52Z</time>
      </trkpt>
      <trkpt lat="44.13628" lon="4.9966">
        <ele>140.9</ele>
        <time>2010-11-14T09:10:54Z</time>
      </trkpt>
      <trkpt lat="44.13626" lon="4.9967">
        <ele>141.2</ele>
        <time>2010-11-14T09:10:56Z</time>
      </trkpt>
      <trkpt lat="44.13628" lon="4.9968">
        <ele>141.2</ele>
        <time>2010-11-14T09:11:00Z</time>
      </trkpt>
      <trkpt lat="44.13628" lon="4.99692">
        <ele>141.4</ele>
        <time>2010-11-14T09:11:05Z</time>
      </trkpt>
      <trkpt lat="44.13625" lon="4.99703">
        <ele>141.9</ele>
        <time>2010-11-14T09:11:11Z</time>
      </trkpt>
      <trkpt lat="44.13624" lon="4.99715">
        <ele>142.9</ele>
        <time>2010-11-14T09:11:16Z</time>
      </trkpt>
      <trkpt lat="44.13619" lon="4.99725">
        <ele>143</ele>
        <time>2010-11-14T09:11:21Z</time>
      </trkpt>
      <trkpt lat="44.13617" lon="4.99735">
        <ele>142.9</ele>
        <time>2010-11-14T09:11:24Z</time>
      </trkpt>
      <trkpt lat="44.13613" lon="4.99746">
        <ele>143.5</ele>
        <time>2010-11-14T09:11:27Z</time>
      </trkpt>
      <trkpt lat="44.13609" lon="4.99756">
        <ele>143.7</ele>
        <time>2010-11-14T09:11:32Z</time>
      </trkpt>
      <trkpt lat="44.13603" lon="4.99765">
        <ele>144.5</ele>
        <time>2010-11-14T09:11:36Z</time>
      </trkpt>
      <trkpt lat="44.136" lon="4.99774">
        <ele>144.9</ele>
        <time>2010-11-14T09:11:41Z</time>
      </trkpt>
      <trkpt lat="44.13599" lon="4.99776">
        <ele>145.2</ele>
        <time>2010-11-14T09:11:42Z</time>
      </trkpt>
      <trkpt lat="44.13591" lon="4.99794">
        <ele>146.5</ele>
        <time>2010-11-14T09:11:51Z</time>
      </trkpt>
      <trkpt lat="44.13586" lon="4.99803">
        <ele>147.2</ele>
        <time>2010-11-14T09:11:57Z</time>
      </trkpt>
      <trkpt lat="44.13582" lon="4.99814">
        <ele>147.5</ele>
        <time>2010-11-14T09:12:02Z</time>
      </trkpt>
      <trkpt lat="44.1358" lon="4.99826">
        <ele>147.6</ele>
        <time>2010-11-14T09:12:09Z</time>
      </trkpt>
      <trkpt lat="44.13576" lon="4.99837">
        <ele>148.2</ele>
        <time>2010-11-14T09:12:15Z</time>
      </trkpt>
      <trkpt lat="44.1358" lon="4.99847">
        <ele>148.3</ele>
        <time>2010-11-14T09:12:19Z</time>
      </trkpt>
      <trkpt lat="44.13583" lon="4.99857">
        <ele>148.4</ele>
        <time>2010-11-14T09:12:23Z</time>
      </trkpt>
      <trkpt lat="44.13588" lon="4.99866">
        <ele>148.4</ele>
        <time>2010-11-14T09:12:28Z</time>
      </trkpt>
      <trkpt lat="44.13592" lon="4.99875">
        <ele>149.2</ele>
        <time>2010-11-14T09:12:33Z</time>
      </trkpt>
      <trkpt lat="44.13594" lon="4.99885">
        <ele>149.6</ele>
        <time>2010-11-14T09:12:37Z</time>
      </trkpt>
      <trkpt lat="44.13598" lon="4.99895">
        <ele>150.7</ele>
        <time>2010-11-14T09:12:41Z</time>
      </trkpt>
      <trkpt lat="44.13603" lon="4.99905">
        <ele>150.9</ele>
        <time>2010-11-14T09:12:46Z</time>
      </trkpt>
      <trkpt lat="44.13604" lon="4.99907">
        <ele>150.9</ele>
        <time>2010-11-14T09:12:47Z</time>
      </trkpt>
      <trkpt lat="44.13611" lon="4.99925">
        <ele>151.6</ele>
        <time>2010-11-14T09:12:56Z</time>
      </trkpt>
      <trkpt lat="44.13615" lon="4.99936">
        <ele>151.9</ele>
        <time>2010-11-14T09:13:00Z</time>
      </trkpt>
      <trkpt lat="44.13618" lon="4.99947">
        <ele>151.6</ele>
        <time>2010-11-14T09:13:06Z</time>
      </trkpt>
      <trkpt lat="44.13623" lon="4.99956">
        <ele>152.6</ele>
        <time>2010-11-14T09:13:11Z</time>
      </trkpt>
      <trkpt lat="44.13627" lon="4.99966">
        <ele>152.9</ele>
        <time>2010-11-14T09:13:18Z</time>
      </trkpt>
      <trkpt lat="44.13635" lon="4.99967">
        <ele>153.4</ele>
        <time>2010-11-14T09:13:22Z</time>
      </trkpt>
      <trkpt lat="44.13641" lon="4.99965">
        <ele>153.4</ele>
        <time>2010-11-14T09:13:26Z</time>
      </trkpt>
      <trkpt lat="44.13648" lon="4.99962">
        <ele>154.1</ele>
        <time>2010-11-14T09:13:30Z</time>
      </trkpt>
      <trkpt lat="44.13655" lon="4.99954">
        <ele>154.6</ele>
        <time>2010-11-14T09:13:36Z</time>
      </trkpt>
      <trkpt lat="44.13661" lon="4.99948">
        <ele>154.7</ele>
        <time>2010-11-14T09:13:41Z</time>
      </trkpt>
      <trkpt lat="44.13668" lon="4.99942">
        <ele>154.9</ele>
        <time>2010-11-14T09:13:46Z</time>
      </trkpt>
      <trkpt lat="44.13675" lon="4.99936">
        <ele>154.9</ele>
        <time>2010-11-14T09:13:51Z</time>
      </trkpt>
      <trkpt lat="44.13676" lon="4.99934">
        <ele>154.8</ele>
        <time>2010-11-14T09:13:52Z</time>
      </trkpt>
      <trkpt lat="44.13688" lon="4.99923">
        <ele>155.5</ele>
        <time>2010-11-14T09:14:04Z</time>
      </trkpt>
      <trkpt lat="44.13696" lon="4.99918">
        <ele>155.4</ele>
        <time>2010-11-14T09:14:09Z</time>
      </trkpt>
      <trkpt lat="44.13703" lon="4.99913">
        <ele>155.5</ele>
        <time>2010-11-14T09:14:14Z</time>
      </trkpt>
      <trkpt lat="44.1371" lon="4.99907">
        <ele>155.3</ele>
        <time>2010-11-14T09:14:19Z</time>
      </trkpt>
      <trkpt lat="44.13717" lon="4.99901">
        <ele>156</ele>
        <time>2010-11-14T09:14:25Z</time>
      </trkpt>
      <trkpt lat="44.13724" lon="4.99895">
        <ele>156</ele>
        <time>2010-11-14T09:14:30Z</time>
      </trkpt>
      <trkpt lat="44.13731" lon="4.9989">
        <ele>155.8</ele>
        <time>2010-11-14T09:14:35Z</time>
      </trkpt>
      <trkpt lat="44.13739" lon="4.99885">
        <ele>156</ele>
        <time>2010-11-14T09:14:39Z</time>
      </trkpt>
      <trkpt lat="44.13745" lon="4.99878">
        <ele>155.3</ele>
        <time>2010-11-14T09:14:43Z</time>
      </trkpt>
      <trkpt lat="44.13751" lon="4.99871">
        <ele>155</ele>
        <time>2010-11-14T09:14:48Z</time>
      </trkpt>
      <trkpt lat="44.13758" lon="4.99863">
        <ele>155</ele>
        <time>2010-11-14T09:14:53Z</time>
      </trkpt>
      <trkpt lat="44.13758" lon="4.99862">
        <ele>155</ele>
        <time>2010-11-14T09:14:54Z</time>
      </trkpt>
      <trkpt lat="44.13771" lon="4.9985">
        <ele>155</ele>
        <time>2010-11-14T09:15:04Z</time>
      </trkpt>
      <trkpt lat="44.13778" lon="4.99843">
        <ele>155.8</ele>
        <time>2010-11-14T09:15:10Z</time>
      </trkpt>
      <trkpt lat="44.13785" lon="4.99836">
        <ele>156.2</ele>
        <time>2010-11-14T09:15:15Z</time>
      </trkpt>
      <trkpt lat="44.13792" lon="4.99832">
        <ele>156.2</ele>
        <time>2010-11-14T09:15:22Z</time>
      </trkpt>
      <trkpt lat="44.13799" lon="4.99831">
        <ele>156.3</ele>
        <time>2010-11-14T09:15:25Z</time>
      </trkpt>
      <trkpt lat="44.13804" lon="4.99841">
        <ele>156.5</ele>
        <time>2010-11-14T09:15:31Z</time>
      </trkpt>
      <trkpt lat="44.138" lon="4.99852">
        <ele>156.3</ele>
        <time>2010-11-14T09:15:36Z</time>
      </trkpt>
      <trkpt lat="44.13796" lon="4.99862">
        <ele>157.1</ele>
        <time>2010-11-14T09:15:41Z</time>
      </trkpt>
      <trkpt lat="44.13794" lon="4.99872">
        <ele>157.6</ele>
        <time>2010-11-14T09:15:46Z</time>
      </trkpt>
      <trkpt lat="44.1379" lon="4.99882">
        <ele>158.7</ele>
        <time>2010-11-14T09:15:51Z</time>
      </trkpt>
      <trkpt lat="44.13787" lon="4.99893">
        <ele>159.3</ele>
        <time>2010-11-14T09:15:57Z</time>
      </trkpt>
      <trkpt lat="44.13786" lon="4.99895">
        <ele>159.4</ele>
        <time>2010-11-14T09:15:58Z</time>
      </trkpt>
      <trkpt lat="44.13782" lon="4.99914">
        <ele>159.7</ele>
        <time>2010-11-14T09:16:05Z</time>
      </trkpt>
      <trkpt lat="44.13781" lon="4.99924">
        <ele>160.8</ele>
        <time>2010-11-14T09:16:11Z</time>
      </trkpt>
      <trkpt lat="44.13779" lon="4.99935">
        <ele>160.9</ele>
        <time>2010-11-14T09:16:16Z</time>
      </trkpt>
      <trkpt lat="44.13776" lon="4.99945">
        <ele>161.6</ele>
        <time>2010-11-14T09:16:21Z</time>
      </trkpt>
      <trkpt lat="44.13773" lon="4.99956">
        <ele>162.2</ele>
        <time>2010-11-14T09:16:27Z</time>
      </trkpt>
      <trkpt lat="44.13773" lon="4.99967">
        <ele>162.5</ele>
        <time>2010-11-14T09:16:32Z</time>
      </trkpt>
      <trkpt lat="44.13771" lon="4.99979">
        <ele>162.9</ele>
        <time>2010-11-14T09:16:38Z</time>
      </trkpt>
      <trkpt lat="44.13771" lon="4.9999">
        <ele>164.1</ele>
        <time>2010-11-14T09:16:44Z</time>
      </trkpt>
      <trkpt lat="44.13769" lon="5.00002">
        <ele>164.6</ele>
        <time>2010-11-14T09:16:50Z</time>
      </trkpt>
      <trkpt lat="44.13768" lon="5.00014">
        <ele>165</ele>
        <time>2010-11-14T09:16:57Z</time>
      </trkpt>
      <trkpt lat="44.13767" lon="5.00025">
        <ele>165.5</ele>
        <time>2010-11-14T09:17:02Z</time>
      </trkpt>
      <trkpt lat="44.13767" lon="5.00028">
        <ele>165.6</ele>
        <time>2010-11-14T09:17:03Z</time>
      </trkpt>
      <trkpt lat="44.13764" lon="5.00047">
        <ele>166.3</ele>
        <time>2010-11-14T09:17:11Z</time>
      </trkpt>
      <trkpt lat="44.1376" lon="5.00057">
        <ele>166.9</ele>
        <time>2010-11-14T09:17:17Z</time>
      </trkpt>
      <trkpt lat="44.1376" lon="5.00069">
        <ele>168.7</ele>
        <time>2010-11-14T09:17:22Z</time>
      </trkpt>
      <trkpt lat="44.13759" lon="5.00079">
        <ele>170</ele>
        <time>2010-11-14T09:17:27Z</time>
      </trkpt>
      <trkpt lat="44.13757" lon="5.0009">
        <ele>169.9</ele>
        <time>2010-11-14T09:17:31Z</time>
      </trkpt>
      <trkpt lat="44.13755" lon="5.00099">
        <ele>170.4</ele>
        <time>2010-11-14T09:17:34Z</time>
      </trkpt>
      <trkpt lat="44.13753" lon="5.00111">
        <ele>170.3</ele>
        <time>2010-11-14T09:17:39Z</time>
      </trkpt>
      <trkpt lat="44.13752" lon="5.00121">
        <ele>171.2</ele>
        <time>2010-11-14T09:17:44Z</time>
      </trkpt>
      <trkpt lat="44.1375" lon="5.00132">
        <ele>171.1</ele>
        <time>2010-11-14T09:17:48Z</time>
      </trkpt>
      <trkpt lat="44.13747" lon="5.00143">
        <ele>171.8</ele>
        <time>2010-11-14T09:17:54Z</time>
      </trkpt>
      <trkpt lat="44.13744" lon="5.00154">
        <ele>173.3</ele>
        <time>2010-11-14T09:18:02Z</time>
      </trkpt>
      <trkpt lat="44.13742" lon="5.00166">
        <ele>174.5</ele>
        <time>2010-11-14T09:18:07Z</time>
      </trkpt>
      <trkpt lat="44.13741" lon="5.00168">
        <ele>174.7</ele>
        <time>2010-11-14T09:18:08Z</time>
      </trkpt>
      <trkpt lat="44.13737" lon="5.00189">
        <ele>175.2</ele>
        <time>2010-11-14T09:18:17Z</time>
      </trkpt>
      <trkpt lat="44.13736" lon="5.00199">
        <ele>175.1</ele>
        <time>2010-11-14T09:18:22Z</time>
      </trkpt>
      <trkpt lat="44.13733" lon="5.0021">
        <ele>176.2</ele>
        <time>2010-11-14T09:18:27Z</time>
      </trkpt>
      <trkpt lat="44.13729" lon="5.00221">
        <ele>176.2</ele>
        <time>2010-11-14T09:18:31Z</time>
      </trkpt>
      <trkpt lat="44.1373" lon="5.00232">
        <ele>177.1</ele>
        <time>2010-11-14T09:18:38Z</time>
      </trkpt>
      <trkpt lat="44.13729" lon="5.00242">
        <ele>178</ele>
        <time>2010-11-14T09:18:42Z</time>
      </trkpt>
      <trkpt lat="44.13727" lon="5.00253">
        <ele>177.8</ele>
        <time>2010-11-14T09:18:46Z</time>
      </trkpt>
      <trkpt lat="44.13725" lon="5.00263">
        <ele>178.5</ele>
        <time>2010-11-14T09:18:50Z</time>
      </trkpt>
      <trkpt lat="44.13724" lon="5.00273">
        <ele>179</ele>
        <time>2010-11-14T09:18:55Z</time>
      </trkpt>
      <trkpt lat="44.13724" lon="5.00284">
        <ele>181.1</ele>
        <time>2010-11-14T09:19:00Z</time>
      </trkpt>
      <trkpt lat="44.13722" lon="5.00296">
        <ele>181</ele>
        <time>2010-11-14T09:19:05Z</time>
      </trkpt>
      <trkpt lat="44.13721" lon="5.00307">
        <ele>181.6</ele>
        <time>2010-11-14T09:19:10Z</time>
      </trkpt>
      <trkpt lat="44.13721" lon="5.00309">
        <ele>181.5</ele>
        <time>2010-11-14T09:19:11Z</time>
      </trkpt>
      <trkpt lat="44.13718" lon="5.00328">
        <ele>181</ele>
        <time>2010-11-14T09:19:19Z</time>
      </trkpt>
      <trkpt lat="44.13717" lon="5.00339">
        <ele>181.6</ele>
        <time>2010-11-14T09:19:24Z</time>
      </trkpt>
      <trkpt lat="44.13716" lon="5.0035">
        <ele>180.5</ele>
        <time>2010-11-14T09:19:30Z</time>
      </trkpt>
      <trkpt lat="44.13714" lon="5.00361">
        <ele>179.3</ele>
        <time>2010-11-14T09:19:34Z</time>
      </trkpt>
      <trkpt lat="44.13711" lon="5.00369">
        <ele>179.3</ele>
        <time>2010-11-14T09:19:37Z</time>
      </trkpt>
      <trkpt lat="44.13705" lon="5.00377">
        <ele>179.7</ele>
        <time>2010-11-14T09:19:42Z</time>
      </trkpt>
      <trkpt lat="44.13698" lon="5.00384">
        <ele>179.1</ele>
        <time>2010-11-14T09:19:49Z</time>
      </trkpt>
      <trkpt lat="44.13692" lon="5.0039">
        <ele>178.5</ele>
        <time>2010-11-14T09:19:53Z</time>
      </trkpt>
      <trkpt lat="44.13684" lon="5.00395">
        <ele>177.9</ele>
        <time>2010-11-14T09:19:57Z</time>
      </trkpt>
      <trkpt lat="44.13677" lon="5.00397">
        <ele>177.1</ele>
        <time>2010-11-14T09:20:02Z</time>
      </trkpt>
      <trkpt lat="44.13668" lon="5.00399">
        <ele>176.5</ele>
        <time>2010-11-14T09:20:07Z</time>
      </trkpt>
      <trkpt lat="44.1366" lon="5.00399">
        <ele>176.1</ele>
        <time>2010-11-14T09:20:12Z</time>
      </trkpt>
      <trkpt lat="44.13659" lon="5.00399">
        <ele>176</ele>
        <time>2010-11-14T09:20:13Z</time>
      </trkpt>
      <trkpt lat="44.13644" lon="5.00393">
        <ele>175.7</ele>
        <time>2010-11-14T09:20:22Z</time>
      </trkpt>
      <trkpt lat="44.13637" lon="5.00389">
        <ele>175</ele>
        <time>2010-11-14T09:20:27Z</time>
      </trkpt>
      <trkpt lat="44.13629" lon="5.00383">
        <ele>174.3</ele>
        <time>2010-11-14T09:20:32Z</time>
      </trkpt>
      <trkpt lat="44.13622" lon="5.00377">
        <ele>173.4</ele>
        <time>2010-11-14T09:20:37Z</time>
      </trkpt>
      <trkpt lat="44.13614" lon="5.00374">
        <ele>172.3</ele>
        <time>2010-11-14T09:20:42Z</time>
      </trkpt>
      <trkpt lat="44.13606" lon="5.00373">
        <ele>171.4</ele>
        <time>2010-11-14T09:20:48Z</time>
      </trkpt>
      <trkpt lat="44.13598" lon="5.00372">
        <ele>170.5</ele>
        <time>2010-11-14T09:20:54Z</time>
      </trkpt>
      <trkpt lat="44.1359" lon="5.00374">
        <ele>169.8</ele>
        <time>2010-11-14T09:20:59Z</time>
      </trkpt>
      <trkpt lat="44.13583" lon="5.0038">
        <ele>168.7</ele>
        <time>2010-11-14T09:21:05Z</time>
      </trkpt>
      <trkpt lat="44.13578" lon="5.00389">
        <ele>167.2</ele>
        <time>2010-11-14T09:21:10Z</time>
      </trkpt>
      <trkpt lat="44.13574" lon="5.00399">
        <ele>166.8</ele>
        <time>2010-11-14T09:21:14Z</time>
      </trkpt>
      <trkpt lat="44.13573" lon="5.00402">
        <ele>167.1</ele>
        <time>2010-11-14T09:21:15Z</time>
      </trkpt>
      <trkpt lat="44.13571" lon="5.00422">
        <ele>167.6</ele>
        <time>2010-11-14T09:21:24Z</time>
      </trkpt>
      <trkpt lat="44.13571" lon="5.00434">
        <ele>168</ele>
        <time>2010-11-14T09:21:29Z</time>
      </trkpt>
      <trkpt lat="44.13571" lon="5.00443">
        <ele>168.6</ele>
        <time>2010-11-14T09:21:32Z</time>
      </trkpt>
      <trkpt lat="44.13572" lon="5.00454">
        <ele>168.7</ele>
        <time>2010-11-14T09:21:37Z</time>
      </trkpt>
      <trkpt lat="44.13574" lon="5.00464">
        <ele>169.9</ele>
        <time>2010-11-14T09:21:41Z</time>
      </trkpt>
      <trkpt lat="44.13577" lon="5.00474">
        <ele>171.1</ele>
        <time>2010-11-14T09:21:46Z</time>
      </trkpt>
      <trkpt lat="44.13581" lon="5.00485">
        <ele>172.5</ele>
        <time>2010-11-14T09:21:52Z</time>
      </trkpt>
      <trkpt lat="44.13585" lon="5.00496">
        <ele>173.8</ele>
        <time>2010-11-14T09:21:58Z</time>
      </trkpt>
      <trkpt lat="44.13588" lon="5.00505">
        <ele>174.9</ele>
        <time>2010-11-14T09:22:03Z</time>
      </trkpt>
      <trkpt lat="44.13591" lon="5.00516">
        <ele>177.1</ele>
        <time>2010-11-14T09:22:09Z</time>
      </trkpt>
      <trkpt lat="44.13593" lon="5.00526">
        <ele>178.2</ele>
        <time>2010-11-14T09:22:14Z</time>
      </trkpt>
      <trkpt lat="44.13594" lon="5.00536">
        <ele>179.3</ele>
        <time>2010-11-14T09:22:18Z</time>
      </trkpt>
      <trkpt lat="44.13594" lon="5.00539">
        <ele>179.5</ele>
        <time>2010-11-14T09:22:19Z</time>
      </trkpt>
      <trkpt lat="44.13601" lon="5.00556">
        <ele>182.4</ele>
        <time>2010-11-14T09:22:29Z</time>
      </trkpt>
      <trkpt lat="44.13604" lon="5.00567">
        <ele>183.9</ele>
        <time>2010-11-14T09:22:34Z</time>
      </trkpt>
      <trkpt lat="44.13607" lon="5.00577">
        <ele>185.9</ele>
        <time>2010-11-14T09:22:39Z</time>
      </trkpt>
      <trkpt lat="44.13613" lon="5.00587">
        <ele>187.7</ele>
        <time>2010-11-14T09:22:45Z</time>
      </trkpt>
      <trkpt lat="44.13616" lon="5.00596">
        <ele>188.9</ele>
        <time>2010-11-14T09:22:49Z</time>
      </trkpt>
      <trkpt lat="44.13617" lon="5.00606">
        <ele>189.5</ele>
        <time>2010-11-14T09:22:53Z</time>
      </trkpt>
      <trkpt lat="44.13619" lon="5.00618">
        <ele>189.5</ele>
        <time>2010-11-14T09:22:58Z</time>
      </trkpt>
      <trkpt lat="44.13619" lon="5.00629">
        <ele>191.4</ele>
        <time>2010-11-14T09:23:03Z</time>
      </trkpt>
      <trkpt lat="44.13619" lon="5.00639">
        <ele>192.5</ele>
        <time>2010-11-14T09:23:08Z</time>
      </trkpt>
      <trkpt lat="44.13618" lon="5.0065">
        <ele>192.8</ele>
        <time>2010-11-14T09:23:13Z</time>
      </trkpt>
      <trkpt lat="44.13617" lon="5.00662">
        <ele>193.5</ele>
        <time>2010-11-14T09:23:18Z</time>
      </trkpt>
      <trkpt lat="44.13614" lon="5.00673">
        <ele>194.1</ele>
        <time>2010-11-14T09:23:24Z</time>
      </trkpt>
      <trkpt lat="44.13614" lon="5.00675">
        <ele>194.3</ele>
        <time>2010-11-14T09:23:25Z</time>
      </trkpt>
      <trkpt lat="44.13613" lon="5.00696">
        <ele>196.3</ele>
        <time>2010-11-14T09:23:36Z</time>
      </trkpt>
      <trkpt lat="44.13615" lon="5.00708">
        <ele>197.6</ele>
        <time>2010-11-14T09:23:43Z</time>
      </trkpt>
      <trkpt lat="44.13614" lon="5.0072">
        <ele>199.3</ele>
        <time>2010-11-14T09:23:50Z</time>
      </trkpt>
      <trkpt lat="44.13616" lon="5.00731">
        <ele>198.4</ele>
        <time>2010-11-14T09:23:55Z</time>
      </trkpt>
      <trkpt lat="44.13614" lon="5.00743">
        <ele>199</ele>
        <time>2010-11-14T09:24:01Z</time>
      </trkpt>
      <trkpt lat="44.13613" lon="5.00755">
        <ele>199.9</ele>
        <time>2010-11-14T09:24:08Z</time>
      </trkpt>
      <trkpt lat="44.13612" lon="5.00766">
        <ele>200.2</ele>
        <time>2010-11-14T09:24:13Z</time>
      </trkpt>
      <trkpt lat="44.1361" lon="5.00777">
        <ele>199.5</ele>
        <time>2010-11-14T09:24:18Z</time>
      </trkpt>
      <trkpt lat="44.13608" lon="5.00786">
        <ele>199.5</ele>
        <time>2010-11-14T09:24:21Z</time>
      </trkpt>
      <trkpt lat="44.13607" lon="5.00799">
        <ele>198.6</ele>
        <time>2010-11-14T09:24:26Z</time>
      </trkpt>
      <trkpt lat="44.13607" lon="5.008">
        <ele>198.4</ele>
        <time>2010-11-14T09:24:27Z</time>
      </trkpt>
      <trkpt lat="44.13603" lon="5.00819">
        <ele>198.3</ele>
        <time>2010-11-14T09:24:35Z</time>
      </trkpt>
      <trkpt lat="44.13603" lon="5.00829">
        <ele>197.4</ele>
        <time>2010-11-14T09:24:40Z</time>
      </trkpt>
      <trkpt lat="44.13601" lon="5.0084">
        <ele>197.4</ele>
        <time>2010-11-14T09:24:45Z</time>
      </trkpt>
      <trkpt lat="44.136" lon="5.00852">
        <ele>196.3</ele>
        <time>2010-11-14T09:24:51Z</time>
      </trkpt>
      <trkpt lat="44.13603" lon="5.00863">
        <ele>196.5</ele>
        <time>2010-11-14T09:24:58Z</time>
      </trkpt>
      <trkpt lat="44.13601" lon="5.00873">
        <ele>197.1</ele>
        <time>2010-11-14T09:25:03Z</time>
      </trkpt>
      <trkpt lat="44.13598" lon="5.00885">
        <ele>196.8</ele>
        <time>2010-11-14T09:25:08Z</time>
      </trkpt>
      <trkpt lat="44.13595" lon="5.00894">
        <ele>196.3</ele>
        <time>2010-11-14T09:25:12Z</time>
      </trkpt>
      <trkpt lat="44.13591" lon="5.00905">
        <ele>196.8</ele>
        <time>2010-11-14T09:25:17Z</time>
      </trkpt>
      <trkpt lat="44.13588" lon="5.00916">
        <ele>195.9</ele>
        <time>2010-11-14T09:25:21Z</time>
      </trkpt>
      <trkpt lat="44.13586" lon="5.00925">
        <ele>196.4</ele>
        <time>2010-11-14T09:25:25Z</time>
      </trkpt>
      <trkpt lat="44.13583" lon="5.00935">
        <ele>196.5</ele>
        <time>2010-11-14T09:25:28Z</time>
      </trkpt>
      <trkpt lat="44.13583" lon="5.00938">
        <ele>196.6</ele>
        <time>2010-11-14T09:25:29Z</time>
      </trkpt>
      <trkpt lat="44.13579" lon="5.00956">
        <ele>197.2</ele>
        <time>2010-11-14T09:25:36Z</time>
      </trkpt>
      <trkpt lat="44.13573" lon="5.00963">
        <ele>196.8</ele>
        <time>2010-11-14T09:25:39Z</time>
      </trkpt>
      <trkpt lat="44.13568" lon="5.00968">
        <ele>196.4</ele>
        <time>2010-11-14T09:25:41Z</time>
      </trkpt>
      <trkpt lat="44.13563" lon="5.00973">
        <ele>195</ele>
        <time>2010-11-14T09:25:43Z</time>
      </trkpt>
      <trkpt lat="44.13554" lon="5.00977">
        <ele>196.8</ele>
        <time>2010-11-14T09:25:46Z</time>
      </trkpt>
      <trkpt lat="44.1355" lon="5.00988">
        <ele>198.2</ele>
        <time>2010-11-14T09:25:51Z</time>
      </trkpt>
      <trkpt lat="44.13547" lon="5.00999">
        <ele>198.6</ele>
        <time>2010-11-14T09:25:56Z</time>
      </trkpt>
      <trkpt lat="44.13546" lon="5.01011">
        <ele>197.9</ele>
        <time>2010-11-14T09:26:03Z</time>
      </trkpt>
      <trkpt lat="44.13543" lon="5.01022">
        <ele>197.2</ele>
        <time>2010-11-14T09:26:09Z</time>
      </trkpt>
      <trkpt lat="44.13541" lon="5.01032">
        <ele>197.8</ele>
        <time>2010-11-14T09:26:14Z</time>
      </trkpt>
      <trkpt lat="44.13539" lon="5.01044">
        <ele>198.5</ele>
        <time>2010-11-14T09:26:19Z</time>
      </trkpt>
      <trkpt lat="44.13536" lon="5.01054">
        <ele>198.9</ele>
        <time>2010-11-14T09:26:24Z</time>
      </trkpt>
      <trkpt lat="44.13536" lon="5.01065">
        <ele>199.9</ele>
        <time>2010-11-14T09:26:29Z</time>
      </trkpt>
      <trkpt lat="44.13535" lon="5.01066">
        <ele>200.1</ele>
        <time>2010-11-14T09:26:30Z</time>
      </trkpt>
      <trkpt lat="44.13532" lon="5.01086">
        <ele>200.5</ele>
        <time>2010-11-14T09:26:40Z</time>
      </trkpt>
      <trkpt lat="44.1353" lon="5.01096">
        <ele>199.5</ele>
        <time>2010-11-14T09:26:44Z</time>
      </trkpt>
      <trkpt lat="44.13527" lon="5.01108">
        <ele>201.3</ele>
        <time>2010-11-14T09:26:48Z</time>
      </trkpt>
      <trkpt lat="44.13526" lon="5.0112">
        <ele>201.1</ele>
        <time>2010-11-14T09:26:52Z</time>
      </trkpt>
      <trkpt lat="44.13526" lon="5.0113">
        <ele>202</ele>
        <time>2010-11-14T09:26:55Z</time>
      </trkpt>
      <trkpt lat="44.13525" lon="5.01139">
        <ele>201.5</ele>
        <time>2010-11-14T09:26:57Z</time>
      </trkpt>
      <trkpt lat="44.13525" lon="5.0115">
        <ele>202.3</ele>
        <time>2010-11-14T09:27:00Z</time>
      </trkpt>
      <trkpt lat="44.13527" lon="5.01157">
        <ele>203.8</ele>
        <time>2010-11-14T09:27:02Z</time>
      </trkpt>
      <trkpt lat="44.13527" lon="5.01163">
        <ele>203.3</ele>
        <time>2010-11-14T09:27:03Z</time>
      </trkpt>
      <trkpt lat="44.13527" lon="5.0117">
        <ele>202.9</ele>
        <time>2010-11-14T09:27:04Z</time>
      </trkpt>
      <trkpt lat="44.13526" lon="5.01178">
        <ele>202.9</ele>
        <time>2010-11-14T09:27:05Z</time>
      </trkpt>
      <trkpt lat="44.13526" lon="5.01187">
        <ele>203.4</ele>
        <time>2010-11-14T09:27:06Z</time>
      </trkpt>
      <trkpt lat="44.13525" lon="5.01194">
        <ele>203.6</ele>
        <time>2010-11-14T09:27:07Z</time>
      </trkpt>
      <trkpt lat="44.13525" lon="5.01202">
        <ele>204.1</ele>
        <time>2010-11-14T09:27:08Z</time>
      </trkpt>
      <trkpt lat="44.13524" lon="5.01209">
        <ele>205</ele>
        <time>2010-11-14T09:27:09Z</time>
      </trkpt>
      <trkpt lat="44.13523" lon="5.01222">
        <ele>205.9</ele>
        <time>2010-11-14T09:27:11Z</time>
      </trkpt>
      <trkpt lat="44.13524" lon="5.01228">
        <ele>205.6</ele>
        <time>2010-11-14T09:27:12Z</time>
      </trkpt>
      <trkpt lat="44.13524" lon="5.01235">
        <ele>205.8</ele>
        <time>2010-11-14T09:27:13Z</time>
      </trkpt>
      <trkpt lat="44.13524" lon="5.01242">
        <ele>206.5</ele>
        <time>2010-11-14T09:27:14Z</time>
      </trkpt>
      <trkpt lat="44.13523" lon="5.0125">
        <ele>207</ele>
        <time>2010-11-14T09:27:15Z</time>
      </trkpt>
      <trkpt lat="44.13523" lon="5.01263">
        <ele>207.3</ele>
        <time>2010-11-14T09:27:17Z</time>
      </trkpt>
      <trkpt lat="44.13523" lon="5.01269">
        <ele>208.3</ele>
        <time>2010-11-14T09:27:18Z</time>
      </trkpt>
      <trkpt lat="44.13523" lon="5.01276">
        <ele>209</ele>
        <time>2010-11-14T09:27:19Z</time>
      </trkpt>
      <trkpt lat="44.13522" lon="5.01283">
        <ele>208.8</ele>
        <time>2010-11-14T09:27:20Z</time>
      </trkpt>
      <trkpt lat="44.13521" lon="5.0129">
        <ele>208.7</ele>
        <time>2010-11-14T09:27:21Z</time>
      </trkpt>
      <trkpt lat="44.1352" lon="5.01296">
        <ele>209</ele>
        <time>2010-11-14T09:27:22Z</time>
      </trkpt>
      <trkpt lat="44.13518" lon="5.01303">
        <ele>209.5</ele>
        <time>2010-11-14T09:27:23Z</time>
      </trkpt>
      <trkpt lat="44.13515" lon="5.01311">
        <ele>209.9</ele>
        <time>2010-11-14T09:27:24Z</time>
      </trkpt>
      <trkpt lat="44.13512" lon="5.01318">
        <ele>210.1</ele>
        <time>2010-11-14T09:27:25Z</time>
      </trkpt>
      <trkpt lat="44.13509" lon="5.01325">
        <ele>210.4</ele>
        <time>2010-11-14T09:27:26Z</time>
      </trkpt>
      <trkpt lat="44.13507" lon="5.01334">
        <ele>210.7</ele>
        <time>2010-11-14T09:27:27Z</time>
      </trkpt>
      <trkpt lat="44.13505" lon="5.01344">
        <ele>211.3</ele>
        <time>2010-11-14T09:27:28Z</time>
      </trkpt>
      <trkpt lat="44.13504" lon="5.01352">
        <ele>212.2</ele>
        <time>2010-11-14T09:27:29Z</time>
      </trkpt>
      <trkpt lat="44.13504" lon="5.0136">
        <ele>212.6</ele>
        <time>2010-11-14T09:27:30Z</time>
      </trkpt>
      <trkpt lat="44.13504" lon="5.01368">
        <ele>212.6</ele>
        <time>2010-11-14T09:27:31Z</time>
      </trkpt>
      <trkpt lat="44.13505" lon="5.01375">
        <ele>213.3</ele>
        <time>2010-11-14T09:27:32Z</time>
      </trkpt>
      <trkpt lat="44.13506" lon="5.01383">
        <ele>214</ele>
        <time>2010-11-14T09:27:33Z</time>
      </trkpt>
      <trkpt lat="44.1351" lon="5.0139">
        <ele>214.6</ele>
        <time>2010-11-14T09:27:34Z</time>
      </trkpt>
      <trkpt lat="44.13515" lon="5.01397">
        <ele>214.9</ele>
        <time>2010-11-14T09:27:35Z</time>
      </trkpt>
      <trkpt lat="44.13519" lon="5.01403">
        <ele>215.8</ele>
        <time>2010-11-14T09:27:36Z</time>
      </trkpt>
      <trkpt lat="44.13523" lon="5.0141">
        <ele>216.4</ele>
        <time>2010-11-14T09:27:37Z</time>
      </trkpt>
      <trkpt lat="44.13527" lon="5.01417">
        <ele>217.3</ele>
        <time>2010-11-14T09:27:38Z</time>
      </trkpt>
      <trkpt lat="44.13531" lon="5.01424">
        <ele>218.2</ele>
        <time>2010-11-14T09:27:39Z</time>
      </trkpt>
      <trkpt lat="44.13535" lon="5.0143">
        <ele>219.2</ele>
        <time>2010-11-14T09:27:40Z</time>
      </trkpt>
      <trkpt lat="44.13539" lon="5.01437">
        <ele>220.1</ele>
        <time>2010-11-14T09:27:41Z</time>
      </trkpt>
      <trkpt lat="44.13543" lon="5.01444">
        <ele>220.5</ele>
        <time>2010-11-14T09:27:42Z</time>
      </trkpt>
      <trkpt lat="44.13547" lon="5.0145">
        <ele>221.1</ele>
        <time>2010-11-14T09:27:43Z</time>
      </trkpt>
      <trkpt lat="44.13551" lon="5.01456">
        <ele>221.6</ele>
        <time>2010-11-14T09:27:44Z</time>
      </trkpt>
      <trkpt lat="44.13555" lon="5.01461">
        <ele>222.1</ele>
        <time>2010-11-14T09:27:45Z</time>
      </trkpt>
      <trkpt lat="44.1356" lon="5.01467">
        <ele>222.6</ele>
        <time>2010-11-14T09:27:46Z</time>
      </trkpt>
      <trkpt lat="44.13564" lon="5.01473">
        <ele>222.9</ele>
        <time>2010-11-14T09:27:47Z</time>
      </trkpt>
      <trkpt lat="44.13568" lon="5.01477">
        <ele>223.1</ele>
        <time>2010-11-14T09:27:48Z</time>
      </trkpt>
      <trkpt lat="44.13571" lon="5.01482">
        <ele>223.2</ele>
        <time>2010-11-14T09:27:49Z</time>
      </trkpt>
      <trkpt lat="44.13578" lon="5.01489">
        <ele>223.9</ele>
        <time>2010-11-14T09:27:51Z</time>
      </trkpt>
      <trkpt lat="44.13586" lon="5.01493">
        <ele>224.4</ele>
        <time>2010-11-14T09:27:53Z</time>
      </trkpt>
      <trkpt lat="44.13591" lon="5.01492">
        <ele>224.8</ele>
        <time>2010-11-14T09:27:54Z</time>
      </trkpt>
      <trkpt lat="44.13596" lon="5.01492">
        <ele>225.3</ele>
        <time>2010-11-14T09:27:55Z</time>
      </trkpt>
      <trkpt lat="44.13604" lon="5.01492">
        <ele>225.9</ele>
        <time>2010-11-14T09:27:57Z</time>
      </trkpt>
      <trkpt lat="44.13608" lon="5.0149">
        <ele>226</ele>
        <time>2010-11-14T09:27:58Z</time>
      </trkpt>
      <trkpt lat="44.13613" lon="5.01487">
        <ele>226</ele>
        <time>2010-11-14T09:27:59Z</time>
      </trkpt>
      <trkpt lat="44.13618" lon="5.01484">
        <ele>226</ele>
        <time>2010-11-14T09:28:00Z</time>
      </trkpt>
      <trkpt lat="44.13623" lon="5.01481">
        <ele>226</ele>
        <time>2010-11-14T09:28:01Z</time>
      </trkpt>
      <trkpt lat="44.13628" lon="5.0148">
        <ele>226.1</ele>
        <time>2010-11-14T09:28:02Z</time>
      </trkpt>
      <trkpt lat="44.13634" lon="5.0148">
        <ele>226</ele>
        <time>2010-11-14T09:28:03Z</time>
      </trkpt>
      <trkpt lat="44.13639" lon="5.0148">
        <ele>226.1</ele>
        <time>2010-11-14T09:28:04Z</time>
      </trkpt>
      <trkpt lat="44.13648" lon="5.01482">
        <ele>226</ele>
        <time>2010-11-14T09:28:06Z</time>
      </trkpt>
      <trkpt lat="44.13651" lon="5.01486">
        <ele>226.3</ele>
        <time>2010-11-14T09:28:07Z</time>
      </trkpt>
      <trkpt lat="44.13653" lon="5.01493">
        <ele>226.5</ele>
        <time>2010-11-14T09:28:08Z</time>
      </trkpt>
      <trkpt lat="44.13656" lon="5.015">
        <ele>226.9</ele>
        <time>2010-11-14T09:28:09Z</time>
      </trkpt>
      <trkpt lat="44.13658" lon="5.01507">
        <ele>227</ele>
        <time>2010-11-14T09:28:10Z</time>
      </trkpt>
      <trkpt lat="44.13662" lon="5.01514">
        <ele>227.2</ele>
        <time>2010-11-14T09:28:11Z</time>
      </trkpt>
      <trkpt lat="44.13667" lon="5.0152">
        <ele>227.7</ele>
        <time>2010-11-14T09:28:12Z</time>
      </trkpt>
      <trkpt lat="44.13671" lon="5.01526">
        <ele>228.2</ele>
        <time>2010-11-14T09:28:13Z</time>
      </trkpt>
      <trkpt lat="44.13675" lon="5.01527">
        <ele>228.7</ele>
        <time>2010-11-14T09:28:14Z</time>
      </trkpt>
      <trkpt lat="44.1368" lon="5.0153">
        <ele>229</ele>
        <time>2010-11-14T09:28:15Z</time>
      </trkpt>
      <trkpt lat="44.13688" lon="5.01533">
        <ele>229.9</ele>
        <time>2010-11-14T09:28:17Z</time>
      </trkpt>
      <trkpt lat="44.13692" lon="5.01533">
        <ele>230.4</ele>
        <time>2010-11-14T09:28:18Z</time>
      </trkpt>
      <trkpt lat="44.13698" lon="5.01533">
        <ele>230.4</ele>
        <time>2010-11-14T09:28:19Z</time>
      </trkpt>
      <trkpt lat="44.13705" lon="5.01533">
        <ele>230.8</ele>
        <time>2010-11-14T09:28:20Z</time>
      </trkpt>
      <trkpt lat="44.13712" lon="5.01532">
        <ele>231.3</ele>
        <time>2010-11-14T09:28:21Z</time>
      </trkpt>
      <trkpt lat="44.13717" lon="5.01531">
        <ele>231.9</ele>
        <time>2010-11-14T09:28:22Z</time>
      </trkpt>
      <trkpt lat="44.13723" lon="5.01529">
        <ele>232.7</ele>
        <time>2010-11-14T09:28:23Z</time>
      </trkpt>
      <trkpt lat="44.1373" lon="5.01527">
        <ele>233.3</ele>
        <time>2010-11-14T09:28:24Z</time>
      </trkpt>
      <trkpt lat="44.13737" lon="5.01524">
        <ele>233.8</ele>
        <time>2010-11-14T09:28:25Z</time>
      </trkpt>
      <trkpt lat="44.13744" lon="5.01522">
        <ele>234.3</ele>
        <time>2010-11-14T09:28:26Z</time>
      </trkpt>
      <trkpt lat="44.13752" lon="5.01519">
        <ele>234.8</ele>
        <time>2010-11-14T09:28:27Z</time>
      </trkpt>
      <trkpt lat="44.13759" lon="5.01517">
        <ele>235.6</ele>
        <time>2010-11-14T09:28:28Z</time>
      </trkpt>
      <trkpt lat="44.13766" lon="5.01515">
        <ele>236.3</ele>
        <time>2010-11-14T09:28:29Z</time>
      </trkpt>
      <trkpt lat="44.13773" lon="5.01513">
        <ele>236.8</ele>
        <time>2010-11-14T09:28:30Z</time>
      </trkpt>
      <trkpt lat="44.13779" lon="5.01512">
        <ele>237.5</ele>
        <time>2010-11-14T09:28:31Z</time>
      </trkpt>
      <trkpt lat="44.13786" lon="5.01511">
        <ele>238.1</ele>
        <time>2010-11-14T09:28:32Z</time>
      </trkpt>
      <trkpt lat="44.13792" lon="5.0151">
        <ele>239</ele>
        <time>2010-11-14T09:28:33Z</time>
      </trkpt>
      <trkpt lat="44.138" lon="5.01512">
        <ele>240.3</ele>
        <time>2010-11-14T09:28:35Z</time>
      </trkpt>
      <trkpt lat="44.13805" lon="5.01512">
        <ele>240.9</ele>
        <time>2010-11-14T09:28:36Z</time>
      </trkpt>
      <trkpt lat="44.1381" lon="5.01513">
        <ele>241.4</ele>
        <time>2010-11-14T09:28:37Z</time>
      </trkpt>
      <trkpt lat="44.13816" lon="5.01512">
        <ele>242.1</ele>
        <time>2010-11-14T09:28:38Z</time>
      </trkpt>
      <trkpt lat="44.13821" lon="5.01512">
        <ele>242.7</ele>
        <time>2010-11-14T09:28:39Z</time>
      </trkpt>
      <trkpt lat="44.13828" lon="5.01511">
        <ele>242.8</ele>
        <time>2010-11-14T09:28:40Z</time>
      </trkpt>
      <trkpt lat="44.13834" lon="5.01509">
        <ele>243</ele>
        <time>2010-11-14T09:28:41Z</time>
      </trkpt>
      <trkpt lat="44.13839" lon="5.01509">
        <ele>244</ele>
        <time>2010-11-14T09:28:42Z</time>
      </trkpt>
      <trkpt lat="44.13844" lon="5.01509">
        <ele>244.5</ele>
        <time>2010-11-14T09:28:43Z</time>
      </trkpt>
      <trkpt lat="44.1385" lon="5.01509">
        <ele>245</ele>
        <time>2010-11-14T09:28:44Z</time>
      </trkpt>
      <trkpt lat="44.13856" lon="5.01508">
        <ele>245.4</ele>
        <time>2010-11-14T09:28:45Z</time>
      </trkpt>
      <trkpt lat="44.13861" lon="5.01508">
        <ele>246</ele>
        <time>2010-11-14T09:28:46Z</time>
      </trkpt>
      <trkpt lat="44.13866" lon="5.01508">
        <ele>246.5</ele>
        <time>2010-11-14T09:28:47Z</time>
      </trkpt>
      <trkpt lat="44.13872" lon="5.01509">
        <ele>246.9</ele>
        <time>2010-11-14T09:28:48Z</time>
      </trkpt>
      <trkpt lat="44.13878" lon="5.0151">
        <ele>247.4</ele>
        <time>2010-11-14T09:28:49Z</time>
      </trkpt>
      <trkpt lat="44.13885" lon="5.01512">
        <ele>248.2</ele>
        <time>2010-11-14T09:28:50Z</time>
      </trkpt>
      <trkpt lat="44.13892" lon="5.01514">
        <ele>248.8</ele>
        <time>2010-11-14T09:28:51Z</time>
      </trkpt>
      <trkpt lat="44.13899" lon="5.01517">
        <ele>249.3</ele>
        <time>2010-11-14T09:28:52Z</time>
      </trkpt>
      <trkpt lat="44.13906" lon="5.01519">
        <ele>250</ele>
        <time>2010-11-14T09:28:53Z</time>
      </trkpt>
      <trkpt lat="44.13912" lon="5.01521">
        <ele>250.8</ele>
        <time>2010-11-14T09:28:54Z</time>
      </trkpt>
      <trkpt lat="44.13919" lon="5.01522">
        <ele>251.8</ele>
        <time>2010-11-14T09:28:55Z</time>
      </trkpt>
      <trkpt lat="44.13925" lon="5.01523">
        <ele>252.8</ele>
        <time>2010-11-14T09:28:56Z</time>
      </trkpt>
      <trkpt lat="44.13933" lon="5.01524">
        <ele>253.7</ele>
        <time>2010-11-14T09:28:57Z</time>
      </trkpt>
      <trkpt lat="44.13939" lon="5.01523">
        <ele>254.7</ele>
        <time>2010-11-14T09:28:58Z</time>
      </trkpt>
      <trkpt lat="44.13946" lon="5.01522">
        <ele>255.4</ele>
        <time>2010-11-14T09:28:59Z</time>
      </trkpt>
      <trkpt lat="44.13953" lon="5.0152">
        <ele>256.3</ele>
        <time>2010-11-14T09:29:00Z</time>
      </trkpt>
      <trkpt lat="44.13959" lon="5.01517">
        <ele>257.5</ele>
        <time>2010-11-14T09:29:01Z</time>
      </trkpt>
      <trkpt lat="44.13966" lon="5.01514">
        <ele>258.2</ele>
        <time>2010-11-14T09:29:02Z</time>
      </trkpt>
      <trkpt lat="44.13971" lon="5.01511">
        <ele>258.8</ele>
        <time>2010-11-14T09:29:03Z</time>
      </trkpt>
      <trkpt lat="44.13977" lon="5.01508">
        <ele>259.4</ele>
        <time>2010-11-14T09:29:04Z</time>
      </trkpt>
      <trkpt lat="44.13983" lon="5.01505">
        <ele>260.1</ele>
        <time>2010-11-14T09:29:05Z</time>
      </trkpt>
      <trkpt lat="44.13988" lon="5.01502">
        <ele>260.7</ele>
        <time>2010-11-14T09:29:06Z</time>
      </trkpt>
      <trkpt lat="44.13997" lon="5.01497">
        <ele>261.7</ele>
        <time>2010-11-14T09:29:08Z</time>
      </trkpt>
      <trkpt lat="44.14004" lon="5.01497">
        <ele>261.9</ele>
        <time>2010-11-14T09:29:10Z</time>
      </trkpt>
      <trkpt lat="44.14011" lon="5.01495">
        <ele>262.5</ele>
        <time>2010-11-14T09:29:12Z</time>
      </trkpt>
      <trkpt lat="44.14019" lon="5.01493">
        <ele>262.7</ele>
        <time>2010-11-14T09:29:16Z</time>
      </trkpt>
      <trkpt lat="44.14028" lon="5.01491">
        <ele>262.3</ele>
        <time>2010-11-14T09:29:24Z</time>
      </trkpt>
      <trkpt lat="44.14037" lon="5.01489">
        <ele>262.3</ele>
        <time>2010-11-14T09:29:30Z</time>
      </trkpt>
      <trkpt lat="44.14045" lon="5.01487">
        <ele>261</ele>
        <time>2010-11-14T09:29:37Z</time>
      </trkpt>
      <trkpt lat="44.14047" lon="5.01486">
        <ele>260.8</ele>
        <time>2010-11-14T09:29:38Z</time>
      </trkpt>
      <trkpt lat="44.14061" lon="5.01478">
        <ele>259.7</ele>
        <time>2010-11-14T09:29:48Z</time>
      </trkpt>
      <trkpt lat="44.14068" lon="5.01473">
        <ele>258.2</ele>
        <time>2010-11-14T09:29:53Z</time>
      </trkpt>
      <trkpt lat="44.14076" lon="5.01468">
        <ele>257.1</ele>
        <time>2010-11-14T09:29:59Z</time>
      </trkpt>
      <trkpt lat="44.14084" lon="5.01465">
        <ele>255.9</ele>
        <time>2010-11-14T09:30:06Z</time>
      </trkpt>
      <trkpt lat="44.14091" lon="5.01461">
        <ele>255.7</ele>
        <time>2010-11-14T09:30:12Z</time>
      </trkpt>
      <trkpt lat="44.14099" lon="5.0146">
        <ele>254.3</ele>
        <time>2010-11-14T09:30:16Z</time>
      </trkpt>
      <trkpt lat="44.14107" lon="5.01458">
        <ele>253.7</ele>
        <time>2010-11-14T09:30:22Z</time>
      </trkpt>
      <trkpt lat="44.14116" lon="5.01457">
        <ele>253.7</ele>
        <time>2010-11-14T09:30:26Z</time>
      </trkpt>
      <trkpt lat="44.14123" lon="5.01457">
        <ele>253.5</ele>
        <time>2010-11-14T09:30:29Z</time>
      </trkpt>
      <trkpt lat="44.14126" lon="5.01468">
        <ele>254.3</ele>
        <time>2010-11-14T09:30:36Z</time>
      </trkpt>
      <trkpt lat="44.14122" lon="5.01478">
        <ele>254.1</ele>
        <time>2010-11-14T09:30:42Z</time>
      </trkpt>
      <trkpt lat="44.14121" lon="5.01479">
        <ele>254.3</ele>
        <time>2010-11-14T09:30:43Z</time>
      </trkpt>
      <trkpt lat="44.14108" lon="5.0149">
        <ele>254</ele>
        <time>2010-11-14T09:30:58Z</time>
      </trkpt>
      <trkpt lat="44.14103" lon="5.015">
        <ele>252.7</ele>
        <time>2010-11-14T09:31:03Z</time>
      </trkpt>
      <trkpt lat="44.14099" lon="5.0151">
        <ele>252.4</ele>
        <time>2010-11-14T09:31:10Z</time>
      </trkpt>
      <trkpt lat="44.14094" lon="5.01519">
        <ele>252</ele>
        <time>2010-11-14T09:31:14Z</time>
      </trkpt>
      <trkpt lat="44.14091" lon="5.01528">
        <ele>251.5</ele>
        <time>2010-11-14T09:31:17Z</time>
      </trkpt>
      <trkpt lat="44.14089" lon="5.0154">
        <ele>250.8</ele>
        <time>2010-11-14T09:31:21Z</time>
      </trkpt>
      <trkpt lat="44.14086" lon="5.01551">
        <ele>250.8</ele>
        <time>2010-11-14T09:31:26Z</time>
      </trkpt>
      <trkpt lat="44.14083" lon="5.01561">
        <ele>250</ele>
        <time>2010-11-14T09:31:31Z</time>
      </trkpt>
      <trkpt lat="44.14079" lon="5.01571">
        <ele>250.1</ele>
        <time>2010-11-14T09:31:36Z</time>
      </trkpt>
      <trkpt lat="44.14072" lon="5.01576">
        <ele>250.6</ele>
        <time>2010-11-14T09:31:42Z</time>
      </trkpt>
      <trkpt lat="44.14063" lon="5.01579">
        <ele>250.8</ele>
        <time>2010-11-14T09:31:48Z</time>
      </trkpt>
      <trkpt lat="44.14062" lon="5.0158">
        <ele>251.1</ele>
        <time>2010-11-14T09:31:49Z</time>
      </trkpt>
      <trkpt lat="44.14048" lon="5.01582">
        <ele>252.4</ele>
        <time>2010-11-14T09:31:58Z</time>
      </trkpt>
      <trkpt lat="44.1404" lon="5.01585">
        <ele>253.3</ele>
        <time>2010-11-14T09:32:01Z</time>
      </trkpt>
      <trkpt lat="44.14032" lon="5.0159">
        <ele>253.8</ele>
        <time>2010-11-14T09:32:04Z</time>
      </trkpt>
      <trkpt lat="44.14026" lon="5.01595">
        <ele>254.6</ele>
        <time>2010-11-14T09:32:07Z</time>
      </trkpt>
      <trkpt lat="44.14018" lon="5.01601">
        <ele>255.4</ele>
        <time>2010-11-14T09:32:09Z</time>
      </trkpt>
      <trkpt lat="44.14011" lon="5.01607">
        <ele>255.6</ele>
        <time>2010-11-14T09:32:11Z</time>
      </trkpt>
      <trkpt lat="44.14004" lon="5.01614">
        <ele>255.9</ele>
        <time>2010-11-14T09:32:13Z</time>
      </trkpt>
      <trkpt lat="44.13999" lon="5.01616">
        <ele>256.3</ele>
        <time>2010-11-14T09:32:14Z</time>
      </trkpt>
      <trkpt lat="44.13994" lon="5.01619">
        <ele>256.3</ele>
        <time>2010-11-14T09:32:15Z</time>
      </trkpt>
      <trkpt lat="44.13988" lon="5.01622">
        <ele>256.4</ele>
        <time>2010-11-14T09:32:16Z</time>
      </trkpt>
      <trkpt lat="44.13983" lon="5.01625">
        <ele>256.5</ele>
        <time>2010-11-14T09:32:17Z</time>
      </trkpt>
      <trkpt lat="44.13979" lon="5.01629">
        <ele>256.6</ele>
        <time>2010-11-14T09:32:18Z</time>
      </trkpt>
      <trkpt lat="44.13974" lon="5.01633">
        <ele>256.8</ele>
        <time>2010-11-14T09:32:19Z</time>
      </trkpt>
      <trkpt lat="44.13968" lon="5.01637">
        <ele>256.9</ele>
        <time>2010-11-14T09:32:20Z</time>
      </trkpt>
      <trkpt lat="44.13962" lon="5.01641">
        <ele>257.3</ele>
        <time>2010-11-14T09:32:21Z</time>
      </trkpt>
      <trkpt lat="44.13954" lon="5.01644">
        <ele>257.5</ele>
        <time>2010-11-14T09:32:22Z</time>
      </trkpt>
      <trkpt lat="44.13946" lon="5.01648">
        <ele>257.8</ele>
        <time>2010-11-14T09:32:23Z</time>
      </trkpt>
      <trkpt lat="44.13938" lon="5.01651">
        <ele>258.4</ele>
        <time>2010-11-14T09:32:24Z</time>
      </trkpt>
      <trkpt lat="44.13929" lon="5.01654">
        <ele>258.9</ele>
        <time>2010-11-14T09:32:25Z</time>
      </trkpt>
      <trkpt lat="44.1392" lon="5.01657">
        <ele>259.5</ele>
        <time>2010-11-14T09:32:26Z</time>
      </trkpt>
      <trkpt lat="44.13912" lon="5.01661">
        <ele>260.2</ele>
        <time>2010-11-14T09:32:27Z</time>
      </trkpt>
      <trkpt lat="44.13903" lon="5.01665">
        <ele>261.1</ele>
        <time>2010-11-14T09:32:28Z</time>
      </trkpt>
      <trkpt lat="44.13895" lon="5.0167">
        <ele>261.6</ele>
        <time>2010-11-14T09:32:29Z</time>
      </trkpt>
      <trkpt lat="44.13887" lon="5.01675">
        <ele>262.2</ele>
        <time>2010-11-14T09:32:30Z</time>
      </trkpt>
      <trkpt lat="44.13878" lon="5.0168">
        <ele>262.9</ele>
        <time>2010-11-14T09:32:31Z</time>
      </trkpt>
      <trkpt lat="44.1387" lon="5.01685">
        <ele>263.5</ele>
        <time>2010-11-14T09:32:32Z</time>
      </trkpt>
      <trkpt lat="44.13863" lon="5.0169">
        <ele>263.7</ele>
        <time>2010-11-14T09:32:33Z</time>
      </trkpt>
      <trkpt lat="44.13857" lon="5.01695">
        <ele>264.5</ele>
        <time>2010-11-14T09:32:34Z</time>
      </trkpt>
      <trkpt lat="44.1385" lon="5.017">
        <ele>265.2</ele>
        <time>2010-11-14T09:32:35Z</time>
      </trkpt>
      <trkpt lat="44.13843" lon="5.01704">
        <ele>265.9</ele>
        <time>2010-11-14T09:32:36Z</time>
      </trkpt>
      <trkpt lat="44.13836" lon="5.01707">
        <ele>266.3</ele>
        <time>2010-11-14T09:32:37Z</time>
      </trkpt>
      <trkpt lat="44.13828" lon="5.01711">
        <ele>266.6</ele>
        <time>2010-11-14T09:32:38Z</time>
      </trkpt>
      <trkpt lat="44.13821" lon="5.01713">
        <ele>266.8</ele>
        <time>2010-11-14T09:32:39Z</time>
      </trkpt>
      <trkpt lat="44.13813" lon="5.01714">
        <ele>267.2</ele>
        <time>2010-11-14T09:32:40Z</time>
      </trkpt>
      <trkpt lat="44.13806" lon="5.01707">
        <ele>267.6</ele>
        <time>2010-11-14T09:32:41Z</time>
      </trkpt>
      <trkpt lat="44.13799" lon="5.01704">
        <ele>268.2</ele>
        <time>2010-11-14T09:32:42Z</time>
      </trkpt>
      <trkpt lat="44.13792" lon="5.01703">
        <ele>268.6</ele>
        <time>2010-11-14T09:32:43Z</time>
      </trkpt>
      <trkpt lat="44.13786" lon="5.01704">
        <ele>269.5</ele>
        <time>2010-11-14T09:32:44Z</time>
      </trkpt>
      <trkpt lat="44.13779" lon="5.01705">
        <ele>270</ele>
        <time>2010-11-14T09:32:45Z</time>
      </trkpt>
      <trkpt lat="44.13773" lon="5.01707">
        <ele>270.6</ele>
        <time>2010-11-14T09:32:46Z</time>
      </trkpt>
      <trkpt lat="44.13767" lon="5.0171">
        <ele>271.3</ele>
        <time>2010-11-14T09:32:47Z</time>
      </trkpt>
      <trkpt lat="44.13761" lon="5.01713">
        <ele>272</ele>
        <time>2010-11-14T09:32:48Z</time>
      </trkpt>
      <trkpt lat="44.13755" lon="5.01718">
        <ele>272.3</ele>
        <time>2010-11-14T09:32:49Z</time>
      </trkpt>
      <trkpt lat="44.13749" lon="5.01721">
        <ele>272.7</ele>
        <time>2010-11-14T09:32:50Z</time>
      </trkpt>
      <trkpt lat="44.13744" lon="5.01725">
        <ele>273.7</ele>
        <time>2010-11-14T09:32:51Z</time>
      </trkpt>
      <trkpt lat="44.13738" lon="5.01729">
        <ele>274.5</ele>
        <time>2010-11-14T09:32:52Z</time>
      </trkpt>
      <trkpt lat="44.13732" lon="5.01733">
        <ele>274.8</ele>
        <time>2010-11-14T09:32:53Z</time>
      </trkpt>
      <trkpt lat="44.13726" lon="5.01739">
        <ele>275.5</ele>
        <time>2010-11-14T09:32:54Z</time>
      </trkpt>
      <trkpt lat="44.1372" lon="5.01745">
        <ele>276.1</ele>
        <time>2010-11-14T09:32:55Z</time>
      </trkpt>
      <trkpt lat="44.13714" lon="5.01751">
        <ele>276.9</ele>
        <time>2010-11-14T09:32:56Z</time>
      </trkpt>
      <trkpt lat="44.137" lon="5.01779">
        <ele>278</ele>
        <time>2010-11-14T09:32:59Z</time>
      </trkpt>
      <trkpt lat="44.13696" lon="5.01792">
        <ele>279.4</ele>
        <time>2010-11-14T09:33:01Z</time>
      </trkpt>
      <trkpt lat="44.13693" lon="5.01802">
        <ele>280.6</ele>
        <time>2010-11-14T09:33:02Z</time>
      </trkpt>
      <trkpt lat="44.13689" lon="5.01812">
        <ele>281.8</ele>
        <time>2010-11-14T09:33:03Z</time>
      </trkpt>
      <trkpt lat="44.13684" lon="5.0182">
        <ele>281.5</ele>
        <time>2010-11-14T09:33:04Z</time>
      </trkpt>
      <trkpt lat="44.13679" lon="5.01827">
        <ele>282.3</ele>
        <time>2010-11-14T09:33:05Z</time>
      </trkpt>
      <trkpt lat="44.13673" lon="5.01834">
        <ele>283.3</ele>
        <time>2010-11-14T09:33:06Z</time>
      </trkpt>
      <trkpt lat="44.13668" lon="5.01841">
        <ele>284.4</ele>
        <time>2010-11-14T09:33:07Z</time>
      </trkpt>
      <trkpt lat="44.13662" lon="5.01847">
        <ele>284.3</ele>
        <time>2010-11-14T09:33:08Z</time>
      </trkpt>
      <trkpt lat="44.13658" lon="5.01853">
        <ele>284.5</ele>
        <time>2010-11-14T09:33:09Z</time>
      </trkpt>
      <trkpt lat="44.13653" lon="5.01861">
        <ele>287.9</ele>
        <time>2010-11-14T09:33:10Z</time>
      </trkpt>
      <trkpt lat="44.13649" lon="5.01869">
        <ele>289.6</ele>
        <time>2010-11-14T09:33:11Z</time>
      </trkpt>
      <trkpt lat="44.13645" lon="5.01878">
        <ele>290.5</ele>
        <time>2010-11-14T09:33:12Z</time>
      </trkpt>
      <trkpt lat="44.13644" lon="5.01887">
        <ele>289.9</ele>
        <time>2010-11-14T09:33:13Z</time>
      </trkpt>
      <trkpt lat="44.13644" lon="5.01897">
        <ele>289.1</ele>
        <time>2010-11-14T09:33:14Z</time>
      </trkpt>
      <trkpt lat="44.13647" lon="5.01906">
        <ele>288.8</ele>
        <time>2010-11-14T09:33:15Z</time>
      </trkpt>
      <trkpt lat="44.13652" lon="5.01913">
        <ele>289</ele>
        <time>2010-11-14T09:33:16Z</time>
      </trkpt>
      <trkpt lat="44.13655" lon="5.0192">
        <ele>289</ele>
        <time>2010-11-14T09:33:17Z</time>
      </trkpt>
      <trkpt lat="44.13657" lon="5.01928">
        <ele>288.7</ele>
        <time>2010-11-14T09:33:18Z</time>
      </trkpt>
      <trkpt lat="44.13659" lon="5.01936">
        <ele>288.5</ele>
        <time>2010-11-14T09:33:19Z</time>
      </trkpt>
      <trkpt lat="44.13661" lon="5.01943">
        <ele>288.5</ele>
        <time>2010-11-14T09:33:20Z</time>
      </trkpt>
      <trkpt lat="44.13663" lon="5.0195">
        <ele>288.7</ele>
        <time>2010-11-14T09:33:21Z</time>
      </trkpt>
      <trkpt lat="44.13667" lon="5.01958">
        <ele>289</ele>
        <time>2010-11-14T09:33:22Z</time>
      </trkpt>
      <trkpt lat="44.1367" lon="5.01965">
        <ele>289</ele>
        <time>2010-11-14T09:33:23Z</time>
      </trkpt>
      <trkpt lat="44.13674" lon="5.01971">
        <ele>289.1</ele>
        <time>2010-11-14T09:33:24Z</time>
      </trkpt>
      <trkpt lat="44.13679" lon="5.01977">
        <ele>289.3</ele>
        <time>2010-11-14T09:33:25Z</time>
      </trkpt>
      <trkpt lat="44.13685" lon="5.01983">
        <ele>289.5</ele>
        <time>2010-11-14T09:33:26Z</time>
      </trkpt>
      <trkpt lat="44.13692" lon="5.01987">
        <ele>290.7</ele>
        <time>2010-11-14T09:33:27Z</time>
      </trkpt>
      <trkpt lat="44.137" lon="5.01985">
        <ele>291.9</ele>
        <time>2010-11-14T09:33:28Z</time>
      </trkpt>
      <trkpt lat="44.1371" lon="5.01979">
        <ele>292.4</ele>
        <time>2010-11-14T09:33:29Z</time>
      </trkpt>
      <trkpt lat="44.13718" lon="5.01977">
        <ele>293.1</ele>
        <time>2010-11-14T09:33:30Z</time>
      </trkpt>
      <trkpt lat="44.13726" lon="5.01975">
        <ele>293.7</ele>
        <time>2010-11-14T09:33:31Z</time>
      </trkpt>
      <trkpt lat="44.13733" lon="5.01973">
        <ele>294.6</ele>
        <time>2010-11-14T09:33:32Z</time>
      </trkpt>
      <trkpt lat="44.1374" lon="5.0197">
        <ele>295.1</ele>
        <time>2010-11-14T09:33:33Z</time>
      </trkpt>
      <trkpt lat="44.13747" lon="5.01968">
        <ele>295.9</ele>
        <time>2010-11-14T09:33:34Z</time>
      </trkpt>
      <trkpt lat="44.13756" lon="5.01964">
        <ele>296.8</ele>
        <time>2010-11-14T09:33:35Z</time>
      </trkpt>
      <trkpt lat="44.13763" lon="5.01961">
        <ele>297.5</ele>
        <time>2010-11-14T09:33:36Z</time>
      </trkpt>
      <trkpt lat="44.13769" lon="5.01959">
        <ele>297.8</ele>
        <time>2010-11-14T09:33:37Z</time>
      </trkpt>
      <trkpt lat="44.13775" lon="5.01957">
        <ele>298.2</ele>
        <time>2010-11-14T09:33:38Z</time>
      </trkpt>
      <trkpt lat="44.13782" lon="5.01955">
        <ele>298.3</ele>
        <time>2010-11-14T09:33:39Z</time>
      </trkpt>
      <trkpt lat="44.1379" lon="5.01952">
        <ele>298.5</ele>
        <time>2010-11-14T09:33:40Z</time>
      </trkpt>
      <trkpt lat="44.13796" lon="5.01951">
        <ele>298.7</ele>
        <time>2010-11-14T09:33:41Z</time>
      </trkpt>
      <trkpt lat="44.13804" lon="5.01949">
        <ele>298.7</ele>
        <time>2010-11-14T09:33:42Z</time>
      </trkpt>
      <trkpt lat="44.13811" lon="5.01947">
        <ele>299.3</ele>
        <time>2010-11-14T09:33:43Z</time>
      </trkpt>
      <trkpt lat="44.13817" lon="5.01946">
        <ele>300.1</ele>
        <time>2010-11-14T09:33:44Z</time>
      </trkpt>
      <trkpt lat="44.13823" lon="5.01945">
        <ele>300.7</ele>
        <time>2010-11-14T09:33:45Z</time>
      </trkpt>
      <trkpt lat="44.13828" lon="5.01943">
        <ele>301.2</ele>
        <time>2010-11-14T09:33:46Z</time>
      </trkpt>
      <trkpt lat="44.13837" lon="5.01942">
        <ele>302.1</ele>
        <time>2010-11-14T09:33:48Z</time>
      </trkpt>
      <trkpt lat="44.13842" lon="5.01941">
        <ele>302.4</ele>
        <time>2010-11-14T09:33:49Z</time>
      </trkpt>
      <trkpt lat="44.13847" lon="5.0194">
        <ele>302.5</ele>
        <time>2010-11-14T09:33:50Z</time>
      </trkpt>
      <trkpt lat="44.13853" lon="5.0194">
        <ele>302.8</ele>
        <time>2010-11-14T09:33:51Z</time>
      </trkpt>
      <trkpt lat="44.13858" lon="5.0194">
        <ele>303.6</ele>
        <time>2010-11-14T09:33:52Z</time>
      </trkpt>
      <trkpt lat="44.13862" lon="5.0194">
        <ele>304.2</ele>
        <time>2010-11-14T09:33:53Z</time>
      </trkpt>
      <trkpt lat="44.13871" lon="5.01939">
        <ele>305.7</ele>
        <time>2010-11-14T09:33:55Z</time>
      </trkpt>
      <trkpt lat="44.13878" lon="5.01939">
        <ele>307.2</ele>
        <time>2010-11-14T09:33:57Z</time>
      </trkpt>
      <trkpt lat="44.13885" lon="5.01937">
        <ele>307.5</ele>
        <time>2010-11-14T09:33:59Z</time>
      </trkpt>
      <trkpt lat="44.13893" lon="5.01933">
        <ele>308.1</ele>
        <time>2010-11-14T09:34:04Z</time>
      </trkpt>
      <trkpt lat="44.13893" lon="5.01946">
        <ele>307</ele>
        <time>2010-11-14T09:34:45Z</time>
      </trkpt>
      <trkpt lat="44.13901" lon="5.01949">
        <ele>306.3</ele>
        <time>2010-11-14T09:34:49Z</time>
      </trkpt>
      <trkpt lat="44.13909" lon="5.01948">
        <ele>306.8</ele>
        <time>2010-11-14T09:34:54Z</time>
      </trkpt>
      <trkpt lat="44.1391" lon="5.01948">
        <ele>306.5</ele>
        <time>2010-11-14T09:34:55Z</time>
      </trkpt>
      <trkpt lat="44.13924" lon="5.01955">
        <ele>307.1</ele>
        <time>2010-11-14T09:35:04Z</time>
      </trkpt>
      <trkpt lat="44.13932" lon="5.01953">
        <ele>307.5</ele>
        <time>2010-11-14T09:35:08Z</time>
      </trkpt>
      <trkpt lat="44.13941" lon="5.01956">
        <ele>307.9</ele>
        <time>2010-11-14T09:35:14Z</time>
      </trkpt>
      <trkpt lat="44.13948" lon="5.01959">
        <ele>308</ele>
        <time>2010-11-14T09:35:19Z</time>
      </trkpt>
      <trkpt lat="44.13955" lon="5.01963">
        <ele>308.4</ele>
        <time>2010-11-14T09:35:23Z</time>
      </trkpt>
      <trkpt lat="44.13961" lon="5.01972">
        <ele>308.2</ele>
        <time>2010-11-14T09:35:28Z</time>
      </trkpt>
      <trkpt lat="44.13967" lon="5.0198">
        <ele>308.4</ele>
        <time>2010-11-14T09:35:32Z</time>
      </trkpt>
      <trkpt lat="44.13973" lon="5.01987">
        <ele>308.2</ele>
        <time>2010-11-14T09:35:38Z</time>
      </trkpt>
      <trkpt lat="44.13979" lon="5.01994">
        <ele>308.6</ele>
        <time>2010-11-14T09:35:43Z</time>
      </trkpt>
      <trkpt lat="44.13984" lon="5.02004">
        <ele>308.9</ele>
        <time>2010-11-14T09:35:48Z</time>
      </trkpt>
      <trkpt lat="44.13989" lon="5.02013">
        <ele>309.2</ele>
        <time>2010-11-14T09:35:52Z</time>
      </trkpt>
      <trkpt lat="44.13995" lon="5.02019">
        <ele>310.8</ele>
        <time>2010-11-14T09:35:59Z</time>
      </trkpt>
      <trkpt lat="44.13996" lon="5.0202">
        <ele>310.9</ele>
        <time>2010-11-14T09:36:00Z</time>
      </trkpt>
      <trkpt lat="44.14011" lon="5.02029">
        <ele>311.7</ele>
        <time>2010-11-14T09:36:09Z</time>
      </trkpt>
      <trkpt lat="44.14018" lon="5.02031">
        <ele>312.6</ele>
        <time>2010-11-14T09:36:14Z</time>
      </trkpt>
      <trkpt lat="44.14027" lon="5.02032">
        <ele>312.4</ele>
        <time>2010-11-14T09:36:19Z</time>
      </trkpt>
      <trkpt lat="44.14031" lon="5.02041">
        <ele>312</ele>
        <time>2010-11-14T09:36:24Z</time>
      </trkpt>
      <trkpt lat="44.14031" lon="5.02052">
        <ele>311.3</ele>
        <time>2010-11-14T09:36:29Z</time>
      </trkpt>
      <trkpt lat="44.14029" lon="5.02063">
        <ele>311</ele>
        <time>2010-11-14T09:36:36Z</time>
      </trkpt>
      <trkpt lat="44.14022" lon="5.0207">
        <ele>310.4</ele>
        <time>2010-11-14T09:36:43Z</time>
      </trkpt>
      <trkpt lat="44.14014" lon="5.02072">
        <ele>310.4</ele>
        <time>2010-11-14T09:36:50Z</time>
      </trkpt>
      <trkpt lat="44.14006" lon="5.02073">
        <ele>309.9</ele>
        <time>2010-11-14T09:36:55Z</time>
      </trkpt>
      <trkpt lat="44.13998" lon="5.02069">
        <ele>310.3</ele>
        <time>2010-11-14T09:37:00Z</time>
      </trkpt>
      <trkpt lat="44.13996" lon="5.02069">
        <ele>310.4</ele>
        <time>2010-11-14T09:37:01Z</time>
      </trkpt>
      <trkpt lat="44.13983" lon="5.02058">
        <ele>309.1</ele>
        <time>2010-11-14T09:37:11Z</time>
      </trkpt>
      <trkpt lat="44.13976" lon="5.02051">
        <ele>309.3</ele>
        <time>2010-11-14T09:37:17Z</time>
      </trkpt>
      <trkpt lat="44.13968" lon="5.02046">
        <ele>308.5</ele>
        <time>2010-11-14T09:37:23Z</time>
      </trkpt>
      <trkpt lat="44.13961" lon="5.02041">
        <ele>307.8</ele>
        <time>2010-11-14T09:37:27Z</time>
      </trkpt>
      <trkpt lat="44.13953" lon="5.02038">
        <ele>307.8</ele>
        <time>2010-11-14T09:37:33Z</time>
      </trkpt>
      <trkpt lat="44.13945" lon="5.0204">
        <ele>307.3</ele>
        <time>2010-11-14T09:37:37Z</time>
      </trkpt>
      <trkpt lat="44.13938" lon="5.02043">
        <ele>307.3</ele>
        <time>2010-11-14T09:37:41Z</time>
      </trkpt>
      <trkpt lat="44.13931" lon="5.02049">
        <ele>308</ele>
        <time>2010-11-14T09:37:46Z</time>
      </trkpt>
      <trkpt lat="44.13923" lon="5.02052">
        <ele>307.6</ele>
        <time>2010-11-14T09:37:51Z</time>
      </trkpt>
      <trkpt lat="44.13917" lon="5.02059">
        <ele>307.9</ele>
        <time>2010-11-14T09:37:55Z</time>
      </trkpt>
      <trkpt lat="44.1391" lon="5.02067">
        <ele>309.7</ele>
        <time>2010-11-14T09:38:01Z</time>
      </trkpt>
      <trkpt lat="44.13909" lon="5.02069">
        <ele>309.9</ele>
        <time>2010-11-14T09:38:02Z</time>
      </trkpt>
      <trkpt lat="44.13902" lon="5.02086">
        <ele>309.5</ele>
        <time>2010-11-14T09:38:09Z</time>
      </trkpt>
      <trkpt lat="44.13899" lon="5.02098">
        <ele>309.2</ele>
        <time>2010-11-14T09:38:12Z</time>
      </trkpt>
      <trkpt lat="44.13895" lon="5.02104">
        <ele>309.1</ele>
        <time>2010-11-14T09:38:14Z</time>
      </trkpt>
      <trkpt lat="44.13891" lon="5.02112">
        <ele>309.5</ele>
        <time>2010-11-14T09:38:16Z</time>
      </trkpt>
      <trkpt lat="44.13888" lon="5.02122">
        <ele>310.4</ele>
        <time>2010-11-14T09:38:18Z</time>
      </trkpt>
      <trkpt lat="44.13885" lon="5.02131">
        <ele>311</ele>
        <time>2010-11-14T09:38:20Z</time>
      </trkpt>
      <trkpt lat="44.13882" lon="5.0214">
        <ele>311.6</ele>
        <time>2010-11-14T09:38:24Z</time>
      </trkpt>
      <trkpt lat="44.1388" lon="5.0215">
        <ele>311.5</ele>
        <time>2010-11-14T09:38:29Z</time>
      </trkpt>
      <trkpt lat="44.13879" lon="5.02161">
        <ele>311.3</ele>
        <time>2010-11-14T09:38:35Z</time>
      </trkpt>
      <trkpt lat="44.13878" lon="5.02173">
        <ele>313.8</ele>
        <time>2010-11-14T09:38:40Z</time>
      </trkpt>
      <trkpt lat="44.13878" lon="5.02184">
        <ele>313.8</ele>
        <time>2010-11-14T09:38:45Z</time>
      </trkpt>
      <trkpt lat="44.1388" lon="5.02195">
        <ele>313.5</ele>
        <time>2010-11-14T09:38:50Z</time>
      </trkpt>
      <trkpt lat="44.1388" lon="5.02206">
        <ele>312.1</ele>
        <time>2010-11-14T09:38:55Z</time>
      </trkpt>
      <trkpt lat="44.13881" lon="5.02217">
        <ele>311.2</ele>
        <time>2010-11-14T09:39:00Z</time>
      </trkpt>
      <trkpt lat="44.13882" lon="5.02228">
        <ele>311.4</ele>
        <time>2010-11-14T09:39:04Z</time>
      </trkpt>
      <trkpt lat="44.13882" lon="5.0223">
        <ele>311.2</ele>
        <time>2010-11-14T09:39:05Z</time>
      </trkpt>
      <trkpt lat="44.13882" lon="5.02251">
        <ele>308.9</ele>
        <time>2010-11-14T09:39:14Z</time>
      </trkpt>
      <trkpt lat="44.13883" lon="5.02262">
        <ele>308.1</ele>
        <time>2010-11-14T09:39:19Z</time>
      </trkpt>
      <trkpt lat="44.13882" lon="5.02273">
        <ele>308.4</ele>
        <time>2010-11-14T09:39:24Z</time>
      </trkpt>
      <trkpt lat="44.13879" lon="5.02285">
        <ele>307.1</ele>
        <time>2010-11-14T09:39:29Z</time>
      </trkpt>
      <trkpt lat="44.13879" lon="5.02295">
        <ele>305.7</ele>
        <time>2010-11-14T09:39:33Z</time>
      </trkpt>
      <trkpt lat="44.13879" lon="5.02306">
        <ele>305.4</ele>
        <time>2010-11-14T09:39:37Z</time>
      </trkpt>
      <trkpt lat="44.1388" lon="5.02315">
        <ele>304.4</ele>
        <time>2010-11-14T09:39:41Z</time>
      </trkpt>
      <trkpt lat="44.13881" lon="5.02327">
        <ele>303.8</ele>
        <time>2010-11-14T09:39:45Z</time>
      </trkpt>
      <trkpt lat="44.13885" lon="5.02337">
        <ele>303</ele>
        <time>2010-11-14T09:39:50Z</time>
      </trkpt>
      <trkpt lat="44.1389" lon="5.02346">
        <ele>303.6</ele>
        <time>2010-11-14T09:39:56Z</time>
      </trkpt>
      <trkpt lat="44.13886" lon="5.02355">
        <ele>303.1</ele>
        <time>2010-11-14T09:40:01Z</time>
      </trkpt>
      <trkpt lat="44.13878" lon="5.02361">
        <ele>302.7</ele>
        <time>2010-11-14T09:40:06Z</time>
      </trkpt>
      <trkpt lat="44.13876" lon="5.02362">
        <ele>302.4</ele>
        <time>2010-11-14T09:40:07Z</time>
      </trkpt>
      <trkpt lat="44.13869" lon="5.02379">
        <ele>300.4</ele>
        <time>2010-11-14T09:40:18Z</time>
      </trkpt>
      <trkpt lat="44.13875" lon="5.02386">
        <ele>299.8</ele>
        <time>2010-11-14T09:40:23Z</time>
      </trkpt>
      <trkpt lat="44.13883" lon="5.0239">
        <ele>299.7</ele>
        <time>2010-11-14T09:40:28Z</time>
      </trkpt>
      <trkpt lat="44.1389" lon="5.02393">
        <ele>299.2</ele>
        <time>2010-11-14T09:40:32Z</time>
      </trkpt>
      <trkpt lat="44.13898" lon="5.02399">
        <ele>298.3</ele>
        <time>2010-11-14T09:40:38Z</time>
      </trkpt>
      <trkpt lat="44.13904" lon="5.02406">
        <ele>298.3</ele>
        <time>2010-11-14T09:40:43Z</time>
      </trkpt>
      <trkpt lat="44.13909" lon="5.02414">
        <ele>298.5</ele>
        <time>2010-11-14T09:40:47Z</time>
      </trkpt>
      <trkpt lat="44.13914" lon="5.02421">
        <ele>299</ele>
        <time>2010-11-14T09:40:51Z</time>
      </trkpt>
      <trkpt lat="44.13921" lon="5.02427">
        <ele>299.6</ele>
        <time>2010-11-14T09:40:56Z</time>
      </trkpt>
      <trkpt lat="44.13929" lon="5.02432">
        <ele>300.1</ele>
        <time>2010-11-14T09:41:00Z</time>
      </trkpt>
      <trkpt lat="44.13936" lon="5.02439">
        <ele>301.9</ele>
        <time>2010-11-14T09:41:05Z</time>
      </trkpt>
      <trkpt lat="44.13941" lon="5.02447">
        <ele>301.8</ele>
        <time>2010-11-14T09:41:11Z</time>
      </trkpt>
      <trkpt lat="44.13941" lon="5.02449">
        <ele>301.7</ele>
        <time>2010-11-14T09:41:12Z</time>
      </trkpt>
      <trkpt lat="44.1395" lon="5.02464">
        <ele>301.1</ele>
        <time>2010-11-14T09:41:20Z</time>
      </trkpt>
      <trkpt lat="44.13953" lon="5.02476">
        <ele>301.8</ele>
        <time>2010-11-14T09:41:25Z</time>
      </trkpt>
      <trkpt lat="44.13955" lon="5.02488">
        <ele>302.2</ele>
        <time>2010-11-14T09:41:29Z</time>
      </trkpt>
      <trkpt lat="44.13958" lon="5.02499">
        <ele>302.8</ele>
        <time>2010-11-14T09:41:33Z</time>
      </trkpt>
      <trkpt lat="44.13959" lon="5.0251">
        <ele>301.5</ele>
        <time>2010-11-14T09:41:37Z</time>
      </trkpt>
      <trkpt lat="44.13959" lon="5.0252">
        <ele>301.4</ele>
        <time>2010-11-14T09:41:40Z</time>
      </trkpt>
      <trkpt lat="44.1396" lon="5.0253">
        <ele>301.5</ele>
        <time>2010-11-14T09:41:44Z</time>
      </trkpt>
      <trkpt lat="44.13962" lon="5.02541">
        <ele>302.2</ele>
        <time>2010-11-14T09:41:49Z</time>
      </trkpt>
      <trkpt lat="44.13963" lon="5.02552">
        <ele>302.4</ele>
        <time>2010-11-14T09:41:54Z</time>
      </trkpt>
      <trkpt lat="44.13964" lon="5.02563">
        <ele>303</ele>
        <time>2010-11-14T09:41:59Z</time>
      </trkpt>
      <trkpt lat="44.13965" lon="5.02574">
        <ele>303.1</ele>
        <time>2010-11-14T09:42:03Z</time>
      </trkpt>
      <trkpt lat="44.13966" lon="5.02586">
        <ele>303.7</ele>
        <time>2010-11-14T09:42:08Z</time>
      </trkpt>
      <trkpt lat="44.13968" lon="5.02598">
        <ele>303.7</ele>
        <time>2010-11-14T09:42:14Z</time>
      </trkpt>
      <trkpt lat="44.13968" lon="5.02601">
        <ele>304</ele>
        <time>2010-11-14T09:42:15Z</time>
      </trkpt>
      <trkpt lat="44.13971" lon="5.02618">
        <ele>304.3</ele>
        <time>2010-11-14T09:42:22Z</time>
      </trkpt>
      <trkpt lat="44.13973" lon="5.02629">
        <ele>304.5</ele>
        <time>2010-11-14T09:42:26Z</time>
      </trkpt>
      <trkpt lat="44.13974" lon="5.02638">
        <ele>304.8</ele>
        <time>2010-11-14T09:42:30Z</time>
      </trkpt>
      <trkpt lat="44.13975" lon="5.02649">
        <ele>304.5</ele>
        <time>2010-11-14T09:42:33Z</time>
      </trkpt>
      <trkpt lat="44.13978" lon="5.02661">
        <ele>304.2</ele>
        <time>2010-11-14T09:42:38Z</time>
      </trkpt>
      <trkpt lat="44.13981" lon="5.0267">
        <ele>304.5</ele>
        <time>2010-11-14T09:42:42Z</time>
      </trkpt>
      <trkpt lat="44.13987" lon="5.02677">
        <ele>304.9</ele>
        <time>2010-11-14T09:42:48Z</time>
      </trkpt>
      <trkpt lat="44.13994" lon="5.02682">
        <ele>305</ele>
        <time>2010-11-14T09:42:52Z</time>
      </trkpt>
      <trkpt lat="44.14002" lon="5.02686">
        <ele>305.5</ele>
        <time>2010-11-14T09:42:57Z</time>
      </trkpt>
      <trkpt lat="44.14009" lon="5.02691">
        <ele>306.4</ele>
        <time>2010-11-14T09:43:02Z</time>
      </trkpt>
      <trkpt lat="44.14016" lon="5.02698">
        <ele>306.7</ele>
        <time>2010-11-14T09:43:07Z</time>
      </trkpt>
      <trkpt lat="44.14023" lon="5.02705">
        <ele>307.2</ele>
        <time>2010-11-14T09:43:12Z</time>
      </trkpt>
      <trkpt lat="44.14031" lon="5.02709">
        <ele>307.3</ele>
        <time>2010-11-14T09:43:17Z</time>
      </trkpt>
      <trkpt lat="44.14033" lon="5.02709">
        <ele>307.5</ele>
        <time>2010-11-14T09:43:18Z</time>
      </trkpt>
      <trkpt lat="44.14045" lon="5.02718">
        <ele>308.6</ele>
        <time>2010-11-14T09:43:26Z</time>
      </trkpt>
      <trkpt lat="44.1405" lon="5.02728">
        <ele>307.7</ele>
        <time>2010-11-14T09:43:31Z</time>
      </trkpt>
      <trkpt lat="44.14056" lon="5.02737">
        <ele>307.8</ele>
        <time>2010-11-14T09:43:35Z</time>
      </trkpt>
      <trkpt lat="44.14061" lon="5.02744">
        <ele>307.7</ele>
        <time>2010-11-14T09:43:39Z</time>
      </trkpt>
      <trkpt lat="44.14064" lon="5.02755">
        <ele>306.3</ele>
        <time>2010-11-14T09:43:42Z</time>
      </trkpt>
      <trkpt lat="44.14071" lon="5.02763">
        <ele>305.2</ele>
        <time>2010-11-14T09:43:47Z</time>
      </trkpt>
      <trkpt lat="44.14078" lon="5.02767">
        <ele>304.6</ele>
        <time>2010-11-14T09:43:52Z</time>
      </trkpt>
      <trkpt lat="44.14085" lon="5.02774">
        <ele>304.1</ele>
        <time>2010-11-14T09:43:57Z</time>
      </trkpt>
      <trkpt lat="44.14092" lon="5.02782">
        <ele>303.8</ele>
        <time>2010-11-14T09:44:04Z</time>
      </trkpt>
      <trkpt lat="44.141" lon="5.02786">
        <ele>303.9</ele>
        <time>2010-11-14T09:44:09Z</time>
      </trkpt>
      <trkpt lat="44.14106" lon="5.0279">
        <ele>303.6</ele>
        <time>2010-11-14T09:44:14Z</time>
      </trkpt>
      <trkpt lat="44.14112" lon="5.02799">
        <ele>303.9</ele>
        <time>2010-11-14T09:44:19Z</time>
      </trkpt>
      <trkpt lat="44.14114" lon="5.02799">
        <ele>303.6</ele>
        <time>2010-11-14T09:44:20Z</time>
      </trkpt>
      <trkpt lat="44.14127" lon="5.02807">
        <ele>303.8</ele>
        <time>2010-11-14T09:44:27Z</time>
      </trkpt>
      <trkpt lat="44.14134" lon="5.02813">
        <ele>303.9</ele>
        <time>2010-11-14T09:44:31Z</time>
      </trkpt>
      <trkpt lat="44.14139" lon="5.02822">
        <ele>302.9</ele>
        <time>2010-11-14T09:44:36Z</time>
      </trkpt>
      <trkpt lat="44.14142" lon="5.02833">
        <ele>302.9</ele>
        <time>2010-11-14T09:44:41Z</time>
      </trkpt>
      <trkpt lat="44.14146" lon="5.02842">
        <ele>302.9</ele>
        <time>2010-11-14T09:44:46Z</time>
      </trkpt>
      <trkpt lat="44.14154" lon="5.02849">
        <ele>303</ele>
        <time>2010-11-14T09:44:52Z</time>
      </trkpt>
      <trkpt lat="44.14157" lon="5.0286">
        <ele>303.2</ele>
        <time>2010-11-14T09:45:22Z</time>
      </trkpt>
      <trkpt lat="44.14158" lon="5.02861">
        <ele>303.1</ele>
        <time>2010-11-14T09:45:23Z</time>
      </trkpt>
      <trkpt lat="44.14165" lon="5.02871">
        <ele>302.4</ele>
        <time>2010-11-14T09:46:24Z</time>
      </trkpt>
      <trkpt lat="44.14177" lon="5.02877">
        <ele>301.3</ele>
        <time>2010-11-14T09:46:49Z</time>
      </trkpt>
      <trkpt lat="44.14183" lon="5.02882">
        <ele>301.4</ele>
        <time>2010-11-14T09:46:56Z</time>
      </trkpt>
      <trkpt lat="44.1419" lon="5.02887">
        <ele>301.3</ele>
        <time>2010-11-14T09:46:59Z</time>
      </trkpt>
      <trkpt lat="44.14197" lon="5.02888">
        <ele>301.5</ele>
        <time>2010-11-14T09:47:03Z</time>
      </trkpt>
      <trkpt lat="44.14204" lon="5.02895">
        <ele>301.4</ele>
        <time>2010-11-14T09:47:08Z</time>
      </trkpt>
      <trkpt lat="44.14211" lon="5.02901">
        <ele>301.8</ele>
        <time>2010-11-14T09:47:13Z</time>
      </trkpt>
      <trkpt lat="44.14217" lon="5.02907">
        <ele>301.4</ele>
        <time>2010-11-14T09:47:18Z</time>
      </trkpt>
      <trkpt lat="44.14224" lon="5.02912">
        <ele>300</ele>
        <time>2010-11-14T09:47:24Z</time>
      </trkpt>
      <trkpt lat="44.14226" lon="5.02912">
        <ele>300.4</ele>
        <time>2010-11-14T09:47:25Z</time>
      </trkpt>
      <trkpt lat="44.1424" lon="5.02911">
        <ele>297.9</ele>
        <time>2010-11-14T09:47:35Z</time>
      </trkpt>
      <trkpt lat="44.14249" lon="5.0291">
        <ele>297.2</ele>
        <time>2010-11-14T09:47:40Z</time>
      </trkpt>
      <trkpt lat="44.14257" lon="5.02908">
        <ele>295.8</ele>
        <time>2010-11-14T09:47:45Z</time>
      </trkpt>
      <trkpt lat="44.14266" lon="5.02908">
        <ele>294</ele>
        <time>2010-11-14T09:47:51Z</time>
      </trkpt>
      <trkpt lat="44.14274" lon="5.02905">
        <ele>293.6</ele>
        <time>2010-11-14T09:47:56Z</time>
      </trkpt>
      <trkpt lat="44.14282" lon="5.02904">
        <ele>293.3</ele>
        <time>2010-11-14T09:48:00Z</time>
      </trkpt>
      <trkpt lat="44.14289" lon="5.02901">
        <ele>292.5</ele>
        <time>2010-11-14T09:48:03Z</time>
      </trkpt>
      <trkpt lat="44.14297" lon="5.029">
        <ele>292.5</ele>
        <time>2010-11-14T09:48:07Z</time>
      </trkpt>
      <trkpt lat="44.14305" lon="5.02898">
        <ele>291.2</ele>
        <time>2010-11-14T09:48:12Z</time>
      </trkpt>
      <trkpt lat="44.14313" lon="5.02901">
        <ele>289.4</ele>
        <time>2010-11-14T09:48:18Z</time>
      </trkpt>
      <trkpt lat="44.14321" lon="5.02897">
        <ele>288.6</ele>
        <time>2010-11-14T09:48:23Z</time>
      </trkpt>
      <trkpt lat="44.14328" lon="5.02901">
        <ele>287.9</ele>
        <time>2010-11-14T09:48:27Z</time>
      </trkpt>
      <trkpt lat="44.1433" lon="5.029">
        <ele>287.7</ele>
        <time>2010-11-14T09:48:28Z</time>
      </trkpt>
      <trkpt lat="44.14342" lon="5.029">
        <ele>287.6</ele>
        <time>2010-11-14T09:48:33Z</time>
      </trkpt>
      <trkpt lat="44.14348" lon="5.02902">
        <ele>286.7</ele>
        <time>2010-11-14T09:48:36Z</time>
      </trkpt>
      <trkpt lat="44.14357" lon="5.02901">
        <ele>286.3</ele>
        <time>2010-11-14T09:48:40Z</time>
      </trkpt>
      <trkpt lat="44.14365" lon="5.02899">
        <ele>285.9</ele>
        <time>2010-11-14T09:48:45Z</time>
      </trkpt>
      <trkpt lat="44.14373" lon="5.02893">
        <ele>285.7</ele>
        <time>2010-11-14T09:48:50Z</time>
      </trkpt>
      <trkpt lat="44.1438" lon="5.02887">
        <ele>285.3</ele>
        <time>2010-11-14T09:48:54Z</time>
      </trkpt>
      <trkpt lat="44.14388" lon="5.02883">
        <ele>285.2</ele>
        <time>2010-11-14T09:48:57Z</time>
      </trkpt>
      <trkpt lat="44.14397" lon="5.02884">
        <ele>285</ele>
        <time>2010-11-14T09:49:03Z</time>
      </trkpt>
      <trkpt lat="44.14405" lon="5.02882">
        <ele>284.4</ele>
        <time>2010-11-14T09:49:07Z</time>
      </trkpt>
      <trkpt lat="44.14412" lon="5.0288">
        <ele>284.2</ele>
        <time>2010-11-14T09:49:10Z</time>
      </trkpt>
      <trkpt lat="44.1442" lon="5.02881">
        <ele>284.3</ele>
        <time>2010-11-14T09:49:13Z</time>
      </trkpt>
      <trkpt lat="44.14428" lon="5.02879">
        <ele>284</ele>
        <time>2010-11-14T09:49:17Z</time>
      </trkpt>
      <trkpt lat="44.14435" lon="5.02875">
        <ele>284.3</ele>
        <time>2010-11-14T09:49:22Z</time>
      </trkpt>
      <trkpt lat="44.14444" lon="5.02876">
        <ele>283.7</ele>
        <time>2010-11-14T09:49:27Z</time>
      </trkpt>
      <trkpt lat="44.14451" lon="5.02875">
        <ele>283.9</ele>
        <time>2010-11-14T09:49:32Z</time>
      </trkpt>
      <trkpt lat="44.14453" lon="5.02876">
        <ele>283.9</ele>
        <time>2010-11-14T09:49:33Z</time>
      </trkpt>
      <trkpt lat="44.14466" lon="5.02881">
        <ele>284.4</ele>
        <time>2010-11-14T09:49:40Z</time>
      </trkpt>
      <trkpt lat="44.14472" lon="5.02886">
        <ele>283.9</ele>
        <time>2010-11-14T09:49:45Z</time>
      </trkpt>
      <trkpt lat="44.1448" lon="5.02893">
        <ele>284</ele>
        <time>2010-11-14T09:49:50Z</time>
      </trkpt>
      <trkpt lat="44.14486" lon="5.02898">
        <ele>283.9</ele>
        <time>2010-11-14T09:49:55Z</time>
      </trkpt>
      <trkpt lat="44.14494" lon="5.02901">
        <ele>283.3</ele>
        <time>2010-11-14T09:50:00Z</time>
      </trkpt>
      <trkpt lat="44.14501" lon="5.02904">
        <ele>283.7</ele>
        <time>2010-11-14T09:50:04Z</time>
      </trkpt>
      <trkpt lat="44.1451" lon="5.02907">
        <ele>283.9</ele>
        <time>2010-11-14T09:50:09Z</time>
      </trkpt>
      <trkpt lat="44.14518" lon="5.0291">
        <ele>283.5</ele>
        <time>2010-11-14T09:50:15Z</time>
      </trkpt>
      <trkpt lat="44.14526" lon="5.02912">
        <ele>282.9</ele>
        <time>2010-11-14T09:50:20Z</time>
      </trkpt>
      <trkpt lat="44.14534" lon="5.02913">
        <ele>282.7</ele>
        <time>2010-11-14T09:50:25Z</time>
      </trkpt>
      <trkpt lat="44.14542" lon="5.02915">
        <ele>282.8</ele>
        <time>2010-11-14T09:50:30Z</time>
      </trkpt>
      <trkpt lat="44.1455" lon="5.0292">
        <ele>282.4</ele>
        <time>2010-11-14T09:50:34Z</time>
      </trkpt>
      <trkpt lat="44.14551" lon="5.02921">
        <ele>282.2</ele>
        <time>2010-11-14T09:50:35Z</time>
      </trkpt>
      <trkpt lat="44.14556" lon="5.0294">
        <ele>281.3</ele>
        <time>2010-11-14T09:50:43Z</time>
      </trkpt>
      <trkpt lat="44.14556" lon="5.02952">
        <ele>279.9</ele>
        <time>2010-11-14T09:50:49Z</time>
      </trkpt>
      <trkpt lat="44.14558" lon="5.02964">
        <ele>278.6</ele>
        <time>2010-11-14T09:50:55Z</time>
      </trkpt>
      <trkpt lat="44.1456" lon="5.02974">
        <ele>277.3</ele>
        <time>2010-11-14T09:50:59Z</time>
      </trkpt>
      <trkpt lat="44.14562" lon="5.02986">
        <ele>275.9</ele>
        <time>2010-11-14T09:51:05Z</time>
      </trkpt>
      <trkpt lat="44.14563" lon="5.02997">
        <ele>274.4</ele>
        <time>2010-11-14T09:51:11Z</time>
      </trkpt>
      <trkpt lat="44.14566" lon="5.03009">
        <ele>273.2</ele>
        <time>2010-11-14T09:51:17Z</time>
      </trkpt>
      <trkpt lat="44.14567" lon="5.03018">
        <ele>271.7</ele>
        <time>2010-11-14T09:51:21Z</time>
      </trkpt>
      <trkpt lat="44.1457" lon="5.03027">
        <ele>270.3</ele>
        <time>2010-11-14T09:51:25Z</time>
      </trkpt>
      <trkpt lat="44.14571" lon="5.03038">
        <ele>268.9</ele>
        <time>2010-11-14T09:51:28Z</time>
      </trkpt>
      <trkpt lat="44.14575" lon="5.03048">
        <ele>266.5</ele>
        <time>2010-11-14T09:51:32Z</time>
      </trkpt>
      <trkpt lat="44.14578" lon="5.03059">
        <ele>265.1</ele>
        <time>2010-11-14T09:51:37Z</time>
      </trkpt>
      <trkpt lat="44.14579" lon="5.03062">
        <ele>265</ele>
        <time>2010-11-14T09:51:38Z</time>
      </trkpt>
      <trkpt lat="44.14584" lon="5.03079">
        <ele>263.8</ele>
        <time>2010-11-14T09:51:47Z</time>
      </trkpt>
      <trkpt lat="44.14587" lon="5.03091">
        <ele>262.9</ele>
        <time>2010-11-14T09:51:52Z</time>
      </trkpt>
      <trkpt lat="44.14591" lon="5.03102">
        <ele>262.6</ele>
        <time>2010-11-14T09:51:57Z</time>
      </trkpt>
      <trkpt lat="44.14594" lon="5.03111">
        <ele>262.4</ele>
        <time>2010-11-14T09:52:01Z</time>
      </trkpt>
      <trkpt lat="44.14598" lon="5.03121">
        <ele>262.3</ele>
        <time>2010-11-14T09:52:04Z</time>
      </trkpt>
      <trkpt lat="44.14601" lon="5.03131">
        <ele>261.6</ele>
        <time>2010-11-14T09:52:09Z</time>
      </trkpt>
      <trkpt lat="44.14601" lon="5.03142">
        <ele>260.9</ele>
        <time>2010-11-14T09:52:14Z</time>
      </trkpt>
      <trkpt lat="44.14602" lon="5.03153">
        <ele>259.6</ele>
        <time>2010-11-14T09:52:19Z</time>
      </trkpt>
      <trkpt lat="44.14602" lon="5.03163">
        <ele>259.3</ele>
        <time>2010-11-14T09:52:23Z</time>
      </trkpt>
      <trkpt lat="44.14604" lon="5.03173">
        <ele>258.3</ele>
        <time>2010-11-14T09:52:27Z</time>
      </trkpt>
      <trkpt lat="44.14605" lon="5.03184">
        <ele>257.6</ele>
        <time>2010-11-14T09:52:31Z</time>
      </trkpt>
      <trkpt lat="44.14608" lon="5.03196">
        <ele>256.7</ele>
        <time>2010-11-14T09:52:36Z</time>
      </trkpt>
      <trkpt lat="44.14609" lon="5.03208">
        <ele>257.1</ele>
        <time>2010-11-14T09:52:41Z</time>
      </trkpt>
      <trkpt lat="44.1461" lon="5.0321">
        <ele>257</ele>
        <time>2010-11-14T09:52:42Z</time>
      </trkpt>
      <trkpt lat="44.14611" lon="5.03229">
        <ele>254.7</ele>
        <time>2010-11-14T09:52:52Z</time>
      </trkpt>
      <trkpt lat="44.14614" lon="5.03241">
        <ele>253.8</ele>
        <time>2010-11-14T09:52:58Z</time>
      </trkpt>
      <trkpt lat="44.14618" lon="5.03251">
        <ele>253.5</ele>
        <time>2010-11-14T09:53:03Z</time>
      </trkpt>
      <trkpt lat="44.14624" lon="5.0326">
        <ele>251.9</ele>
        <time>2010-11-14T09:53:09Z</time>
      </trkpt>
      <trkpt lat="44.14629" lon="5.03268">
        <ele>250.9</ele>
        <time>2010-11-14T09:53:14Z</time>
      </trkpt>
      <trkpt lat="44.14633" lon="5.03277">
        <ele>250.2</ele>
        <time>2010-11-14T09:53:18Z</time>
      </trkpt>
      <trkpt lat="44.14638" lon="5.03286">
        <ele>249.6</ele>
        <time>2010-11-14T09:53:22Z</time>
      </trkpt>
      <trkpt lat="44.14642" lon="5.03295">
        <ele>247.9</ele>
        <time>2010-11-14T09:53:26Z</time>
      </trkpt>
      <trkpt lat="44.14645" lon="5.03306">
        <ele>246.6</ele>
        <time>2010-11-14T09:53:30Z</time>
      </trkpt>
      <trkpt lat="44.14647" lon="5.03316">
        <ele>245.5</ele>
        <time>2010-11-14T09:53:34Z</time>
      </trkpt>
      <trkpt lat="44.14651" lon="5.03326">
        <ele>243.7</ele>
        <time>2010-11-14T09:53:40Z</time>
      </trkpt>
      <trkpt lat="44.14654" lon="5.03335">
        <ele>242.3</ele>
        <time>2010-11-14T09:53:44Z</time>
      </trkpt>
      <trkpt lat="44.14654" lon="5.03338">
        <ele>241.9</ele>
        <time>2010-11-14T09:53:45Z</time>
      </trkpt>
      <trkpt lat="44.14656" lon="5.03359">
        <ele>239.4</ele>
        <time>2010-11-14T09:53:58Z</time>
      </trkpt>
      <trkpt lat="44.14657" lon="5.0337">
        <ele>237.7</ele>
        <time>2010-11-14T09:54:03Z</time>
      </trkpt>
      <trkpt lat="44.14653" lon="5.03381">
        <ele>237.2</ele>
        <time>2010-11-14T09:54:08Z</time>
      </trkpt>
      <trkpt lat="44.14655" lon="5.03392">
        <ele>236.4</ele>
        <time>2010-11-14T09:54:11Z</time>
      </trkpt>
      <trkpt lat="44.14656" lon="5.03404">
        <ele>235.9</ele>
        <time>2010-11-14T09:54:15Z</time>
      </trkpt>
      <trkpt lat="44.14658" lon="5.03415">
        <ele>235.2</ele>
        <time>2010-11-14T09:54:19Z</time>
      </trkpt>
      <trkpt lat="44.1466" lon="5.03425">
        <ele>235.7</ele>
        <time>2010-11-14T09:54:22Z</time>
      </trkpt>
      <trkpt lat="44.14662" lon="5.03434">
        <ele>235.1</ele>
        <time>2010-11-14T09:54:25Z</time>
      </trkpt>
      <trkpt lat="44.14664" lon="5.03444">
        <ele>234.4</ele>
        <time>2010-11-14T09:54:29Z</time>
      </trkpt>
      <trkpt lat="44.14662" lon="5.03454">
        <ele>233.2</ele>
        <time>2010-11-14T09:54:33Z</time>
      </trkpt>
      <trkpt lat="44.14662" lon="5.03466">
        <ele>232.6</ele>
        <time>2010-11-14T09:54:38Z</time>
      </trkpt>
      <trkpt lat="44.14662" lon="5.03477">
        <ele>232.1</ele>
        <time>2010-11-14T09:54:42Z</time>
      </trkpt>
      <trkpt lat="44.14662" lon="5.0349">
        <ele>231.6</ele>
        <time>2010-11-14T09:54:47Z</time>
      </trkpt>
      <trkpt lat="44.14661" lon="5.03491">
        <ele>231.5</ele>
        <time>2010-11-14T09:54:48Z</time>
      </trkpt>
      <trkpt lat="44.1466" lon="5.03512">
        <ele>232.1</ele>
        <time>2010-11-14T09:54:57Z</time>
      </trkpt>
      <trkpt lat="44.1466" lon="5.03523">
        <ele>231.5</ele>
        <time>2010-11-14T09:55:02Z</time>
      </trkpt>
      <trkpt lat="44.14659" lon="5.03534">
        <ele>231</ele>
        <time>2010-11-14T09:55:07Z</time>
      </trkpt>
      <trkpt lat="44.14662" lon="5.03544">
        <ele>230.5</ele>
        <time>2010-11-14T09:55:29Z</time>
      </trkpt>
      <trkpt lat="44.14662" lon="5.03556">
        <ele>230</ele>
        <time>2010-11-14T09:55:33Z</time>
      </trkpt>
      <trkpt lat="44.14662" lon="5.03568">
        <ele>229.4</ele>
        <time>2010-11-14T09:55:38Z</time>
      </trkpt>
      <trkpt lat="44.14664" lon="5.03578">
        <ele>230.1</ele>
        <time>2010-11-14T09:55:43Z</time>
      </trkpt>
      <trkpt lat="44.14665" lon="5.03588">
        <ele>229.6</ele>
        <time>2010-11-14T09:55:47Z</time>
      </trkpt>
      <trkpt lat="44.14667" lon="5.036">
        <ele>229.5</ele>
        <time>2010-11-14T09:55:52Z</time>
      </trkpt>
      <trkpt lat="44.14667" lon="5.03602">
        <ele>229.4</ele>
        <time>2010-11-14T09:55:53Z</time>
      </trkpt>
      <trkpt lat="44.14669" lon="5.03621">
        <ele>228.5</ele>
        <time>2010-11-14T09:55:59Z</time>
      </trkpt>
      <trkpt lat="44.1467" lon="5.03633">
        <ele>228</ele>
        <time>2010-11-14T09:56:03Z</time>
      </trkpt>
      <trkpt lat="44.14672" lon="5.03645">
        <ele>227.3</ele>
        <time>2010-11-14T09:56:08Z</time>
      </trkpt>
      <trkpt lat="44.14673" lon="5.03657">
        <ele>226.2</ele>
        <time>2010-11-14T09:56:13Z</time>
      </trkpt>
      <trkpt lat="44.14672" lon="5.03669">
        <ele>225.3</ele>
        <time>2010-11-14T09:56:18Z</time>
      </trkpt>
      <trkpt lat="44.14668" lon="5.03678">
        <ele>223.8</ele>
        <time>2010-11-14T09:56:23Z</time>
      </trkpt>
      <trkpt lat="44.14664" lon="5.03689">
        <ele>222.2</ele>
        <time>2010-11-14T09:56:28Z</time>
      </trkpt>
      <trkpt lat="44.1466" lon="5.03699">
        <ele>222.1</ele>
        <time>2010-11-14T09:56:32Z</time>
      </trkpt>
      <trkpt lat="44.14656" lon="5.03709">
        <ele>221.6</ele>
        <time>2010-11-14T09:56:36Z</time>
      </trkpt>
      <trkpt lat="44.14652" lon="5.03718">
        <ele>220.3</ele>
        <time>2010-11-14T09:56:40Z</time>
      </trkpt>
      <trkpt lat="44.14648" lon="5.03727">
        <ele>219.8</ele>
        <time>2010-11-14T09:56:44Z</time>
      </trkpt>
      <trkpt lat="44.14644" lon="5.03736">
        <ele>219.3</ele>
        <time>2010-11-14T09:56:49Z</time>
      </trkpt>
      <trkpt lat="44.1464" lon="5.03746">
        <ele>217.9</ele>
        <time>2010-11-14T09:56:54Z</time>
      </trkpt>
      <trkpt lat="44.14639" lon="5.03748">
        <ele>217.4</ele>
        <time>2010-11-14T09:56:55Z</time>
      </trkpt>
      <trkpt lat="44.1463" lon="5.03762">
        <ele>216.1</ele>
        <time>2010-11-14T09:57:04Z</time>
      </trkpt>
      <trkpt lat="44.14623" lon="5.03768">
        <ele>215.7</ele>
        <time>2010-11-14T09:57:09Z</time>
      </trkpt>
      <trkpt lat="44.14617" lon="5.03777">
        <ele>214.7</ele>
        <time>2010-11-14T09:57:14Z</time>
      </trkpt>
      <trkpt lat="44.14614" lon="5.03786">
        <ele>213.8</ele>
        <time>2010-11-14T09:57:17Z</time>
      </trkpt>
      <trkpt lat="44.14609" lon="5.03795">
        <ele>212.9</ele>
        <time>2010-11-14T09:57:21Z</time>
      </trkpt>
      <trkpt lat="44.14606" lon="5.03806">
        <ele>211.9</ele>
        <time>2010-11-14T09:57:25Z</time>
      </trkpt>
      <trkpt lat="44.14603" lon="5.03816">
        <ele>209.6</ele>
        <time>2010-11-14T09:57:29Z</time>
      </trkpt>
      <trkpt lat="44.14599" lon="5.03825">
        <ele>207.9</ele>
        <time>2010-11-14T09:57:34Z</time>
      </trkpt>
      <trkpt lat="44.14595" lon="5.03833">
        <ele>207.9</ele>
        <time>2010-11-14T09:57:38Z</time>
      </trkpt>
      <trkpt lat="44.1459" lon="5.03842">
        <ele>207.4</ele>
        <time>2010-11-14T09:57:43Z</time>
      </trkpt>
      <trkpt lat="44.14584" lon="5.03851">
        <ele>206.8</ele>
        <time>2010-11-14T09:57:48Z</time>
      </trkpt>
      <trkpt lat="44.1458" lon="5.03861">
        <ele>205.2</ele>
        <time>2010-11-14T09:57:53Z</time>
      </trkpt>
      <trkpt lat="44.14576" lon="5.03871">
        <ele>203.9</ele>
        <time>2010-11-14T09:57:57Z</time>
      </trkpt>
      <trkpt lat="44.14575" lon="5.03873">
        <ele>203.8</ele>
        <time>2010-11-14T09:57:58Z</time>
      </trkpt>
      <trkpt lat="44.14569" lon="5.0389">
        <ele>202.4</ele>
        <time>2010-11-14T09:58:06Z</time>
      </trkpt>
      <trkpt lat="44.14566" lon="5.039">
        <ele>202.8</ele>
        <time>2010-11-14T09:58:10Z</time>
      </trkpt>
      <trkpt lat="44.14562" lon="5.0391">
        <ele>202.9</ele>
        <time>2010-11-14T09:58:14Z</time>
      </trkpt>
      <trkpt lat="44.14561" lon="5.03922">
        <ele>201.5</ele>
        <time>2010-11-14T09:58:19Z</time>
      </trkpt>
      <trkpt lat="44.1456" lon="5.03932">
        <ele>200.4</ele>
        <time>2010-11-14T09:58:23Z</time>
      </trkpt>
      <trkpt lat="44.14559" lon="5.03943">
        <ele>200.5</ele>
        <time>2010-11-14T09:58:27Z</time>
      </trkpt>
      <trkpt lat="44.14557" lon="5.03954">
        <ele>199.9</ele>
        <time>2010-11-14T09:58:31Z</time>
      </trkpt>
      <trkpt lat="44.14555" lon="5.03964">
        <ele>199.9</ele>
        <time>2010-11-14T09:58:35Z</time>
      </trkpt>
      <trkpt lat="44.14551" lon="5.03974">
        <ele>199.6</ele>
        <time>2010-11-14T09:58:40Z</time>
      </trkpt>
      <trkpt lat="44.14548" lon="5.03984">
        <ele>199.1</ele>
        <time>2010-11-14T09:58:45Z</time>
      </trkpt>
      <trkpt lat="44.14545" lon="5.03994">
        <ele>198.8</ele>
        <time>2010-11-14T09:58:50Z</time>
      </trkpt>
      <trkpt lat="44.14539" lon="5.04004">
        <ele>198.4</ele>
        <time>2010-11-14T09:59:01Z</time>
      </trkpt>
      <trkpt lat="44.14538" lon="5.04006">
        <ele>198.1</ele>
        <time>2010-11-14T09:59:02Z</time>
      </trkpt>
      <trkpt lat="44.14526" lon="5.04021">
        <ele>197.5</ele>
        <time>2010-11-14T09:59:14Z</time>
      </trkpt>
      <trkpt lat="44.14517" lon="5.04022">
        <ele>196.2</ele>
        <time>2010-11-14T09:59:20Z</time>
      </trkpt>
      <trkpt lat="44.14509" lon="5.04018">
        <ele>195.4</ele>
        <time>2010-11-14T09:59:26Z</time>
      </trkpt>
      <trkpt lat="44.14501" lon="5.04017">
        <ele>194.1</ele>
        <time>2010-11-14T09:59:33Z</time>
      </trkpt>
      <trkpt lat="44.14493" lon="5.04016">
        <ele>193.2</ele>
        <time>2010-11-14T09:59:37Z</time>
      </trkpt>
      <trkpt lat="44.14485" lon="5.04016">
        <ele>192.5</ele>
        <time>2010-11-14T09:59:41Z</time>
      </trkpt>
      <trkpt lat="44.14477" lon="5.04019">
        <ele>192.2</ele>
        <time>2010-11-14T09:59:46Z</time>
      </trkpt>
      <trkpt lat="44.14469" lon="5.04023">
        <ele>191</ele>
        <time>2010-11-14T09:59:51Z</time>
      </trkpt>
      <trkpt lat="44.14462" lon="5.04029">
        <ele>190.3</ele>
        <time>2010-11-14T09:59:57Z</time>
      </trkpt>
      <trkpt lat="44.14454" lon="5.04033">
        <ele>189.4</ele>
        <time>2010-11-14T10:00:02Z</time>
      </trkpt>
      <trkpt lat="44.14452" lon="5.04035">
        <ele>189.2</ele>
        <time>2010-11-14T10:00:03Z</time>
      </trkpt>
      <trkpt lat="44.1444" lon="5.04045">
        <ele>187.9</ele>
        <time>2010-11-14T10:00:12Z</time>
      </trkpt>
      <trkpt lat="44.14434" lon="5.04052">
        <ele>185.6</ele>
        <time>2010-11-14T10:00:18Z</time>
      </trkpt>
      <trkpt lat="44.14426" lon="5.04057">
        <ele>184.3</ele>
        <time>2010-11-14T10:00:23Z</time>
      </trkpt>
      <trkpt lat="44.1442" lon="5.04061">
        <ele>182.8</ele>
        <time>2010-11-14T10:00:27Z</time>
      </trkpt>
      <trkpt lat="44.14413" lon="5.04067">
        <ele>181.4</ele>
        <time>2010-11-14T10:00:32Z</time>
      </trkpt>
      <trkpt lat="44.14405" lon="5.04071">
        <ele>180.2</ele>
        <time>2010-11-14T10:00:37Z</time>
      </trkpt>
      <trkpt lat="44.14398" lon="5.04075">
        <ele>179</ele>
        <time>2010-11-14T10:00:41Z</time>
      </trkpt>
      <trkpt lat="44.14392" lon="5.04083">
        <ele>178.4</ele>
        <time>2010-11-14T10:00:46Z</time>
      </trkpt>
      <trkpt lat="44.14387" lon="5.04091">
        <ele>177.1</ele>
        <time>2010-11-14T10:00:50Z</time>
      </trkpt>
      <trkpt lat="44.14383" lon="5.04101">
        <ele>176.3</ele>
        <time>2010-11-14T10:00:54Z</time>
      </trkpt>
      <trkpt lat="44.14379" lon="5.0411">
        <ele>175.9</ele>
        <time>2010-11-14T10:00:57Z</time>
      </trkpt>
      <trkpt lat="44.14375" lon="5.04119">
        <ele>175.8</ele>
        <time>2010-11-14T10:01:01Z</time>
      </trkpt>
      <trkpt lat="44.14372" lon="5.0413">
        <ele>174.9</ele>
        <time>2010-11-14T10:01:06Z</time>
      </trkpt>
      <trkpt lat="44.14372" lon="5.04132">
        <ele>174.7</ele>
        <time>2010-11-14T10:01:07Z</time>
      </trkpt>
      <trkpt lat="44.14385" lon="5.04139">
        <ele>175.5</ele>
        <time>2010-11-14T10:01:19Z</time>
      </trkpt>
      <trkpt lat="44.14394" lon="5.04137">
        <ele>175.8</ele>
        <time>2010-11-14T10:01:23Z</time>
      </trkpt>
      <trkpt lat="44.14401" lon="5.04134">
        <ele>176.4</ele>
        <time>2010-11-14T10:01:30Z</time>
      </trkpt>
      <trkpt lat="44.1441" lon="5.04134">
        <ele>176.9</ele>
        <time>2010-11-14T10:01:42Z</time>
      </trkpt>
      <trkpt lat="44.14417" lon="5.04127">
        <ele>176.9</ele>
        <time>2010-11-14T10:01:51Z</time>
      </trkpt>
      <trkpt lat="44.14411" lon="5.04136">
        <ele>176.8</ele>
        <time>2010-11-14T10:02:20Z</time>
      </trkpt>
      <trkpt lat="44.14412" lon="5.04138">
        <ele>176.8</ele>
        <time>2010-11-14T10:02:21Z</time>
      </trkpt>
      <trkpt lat="44.14419" lon="5.04157">
        <ele>176.4</ele>
        <time>2010-11-14T10:02:29Z</time>
      </trkpt>
      <trkpt lat="44.14427" lon="5.04157">
        <ele>176.9</ele>
        <time>2010-11-14T10:02:34Z</time>
      </trkpt>
      <trkpt lat="44.14435" lon="5.04163">
        <ele>176.6</ele>
        <time>2010-11-14T10:02:41Z</time>
      </trkpt>
      <trkpt lat="44.14444" lon="5.04163">
        <ele>176.4</ele>
        <time>2010-11-14T10:02:46Z</time>
      </trkpt>
      <trkpt lat="44.14452" lon="5.04162">
        <ele>176.7</ele>
        <time>2010-11-14T10:02:56Z</time>
      </trkpt>
      <trkpt lat="44.14457" lon="5.04172">
        <ele>176.9</ele>
        <time>2010-11-14T10:03:03Z</time>
      </trkpt>
      <trkpt lat="44.14464" lon="5.04164">
        <ele>176.5</ele>
        <time>2010-11-14T10:03:22Z</time>
      </trkpt>
      <trkpt lat="44.14464" lon="5.04164">
        <ele>176.5</ele>
        <time>2010-11-14T10:03:23Z</time>
      </trkpt>
      <trkpt lat="44.14452" lon="5.04154">
        <ele>176.9</ele>
        <time>2010-11-14T10:04:10Z</time>
      </trkpt>
      <trkpt lat="44.14445" lon="5.0415">
        <ele>176.1</ele>
        <time>2010-11-14T10:04:17Z</time>
      </trkpt>
      <trkpt lat="44.14437" lon="5.04148">
        <ele>175.4</ele>
        <time>2010-11-14T10:04:21Z</time>
      </trkpt>
      <trkpt lat="44.14429" lon="5.04143">
        <ele>175</ele>
        <time>2010-11-14T10:04:27Z</time>
      </trkpt>
      <trkpt lat="44.14427" lon="5.04142">
        <ele>175</ele>
        <time>2010-11-14T10:04:28Z</time>
      </trkpt>
      <trkpt lat="44.14413" lon="5.04138">
        <ele>176</ele>
        <time>2010-11-14T10:04:37Z</time>
      </trkpt>
      <trkpt lat="44.14404" lon="5.04132">
        <ele>177.2</ele>
        <time>2010-11-14T10:04:50Z</time>
      </trkpt>
      <trkpt lat="44.14414" lon="5.04125">
        <ele>178.4</ele>
        <time>2010-11-14T10:06:07Z</time>
      </trkpt>
      <trkpt lat="44.14414" lon="5.04124">
        <ele>178.5</ele>
        <time>2010-11-14T10:06:08Z</time>
      </trkpt>
      <trkpt lat="44.1441" lon="5.0414">
        <ele>180.4</ele>
        <time>2010-11-14T10:08:59Z</time>
      </trkpt>
      <trkpt lat="44.14411" lon="5.04142">
        <ele>180.4</ele>
        <time>2010-11-14T10:09:00Z</time>
      </trkpt>
      <trkpt lat="44.14429" lon="5.04141">
        <ele>180</ele>
        <time>2010-11-14T10:09:10Z</time>
      </trkpt>
      <trkpt lat="44.14436" lon="5.04146">
        <ele>180.4</ele>
        <time>2010-11-14T10:09:15Z</time>
      </trkpt>
      <trkpt lat="44.14443" lon="5.04153">
        <ele>180.7</ele>
        <time>2010-11-14T10:09:21Z</time>
      </trkpt>
      <trkpt lat="44.1445" lon="5.04159">
        <ele>180.9</ele>
        <time>2010-11-14T10:09:27Z</time>
      </trkpt>
      <trkpt lat="44.14457" lon="5.0416">
        <ele>181.1</ele>
        <time>2010-11-14T10:09:32Z</time>
      </trkpt>
      <trkpt lat="44.14465" lon="5.04164">
        <ele>181.1</ele>
        <time>2010-11-14T10:09:37Z</time>
      </trkpt>
      <trkpt lat="44.14473" lon="5.04167">
        <ele>180.9</ele>
        <time>2010-11-14T10:09:41Z</time>
      </trkpt>
      <trkpt lat="44.14479" lon="5.04175">
        <ele>180</ele>
        <time>2010-11-14T10:09:45Z</time>
      </trkpt>
      <trkpt lat="44.14486" lon="5.04179">
        <ele>180.8</ele>
        <time>2010-11-14T10:09:50Z</time>
      </trkpt>
      <trkpt lat="44.14495" lon="5.0418">
        <ele>181.5</ele>
        <time>2010-11-14T10:09:55Z</time>
      </trkpt>
      <trkpt lat="44.14504" lon="5.04181">
        <ele>181.9</ele>
        <time>2010-11-14T10:10:02Z</time>
      </trkpt>
      <trkpt lat="44.14505" lon="5.04183">
        <ele>182.2</ele>
        <time>2010-11-14T10:10:03Z</time>
      </trkpt>
      <trkpt lat="44.14512" lon="5.04198">
        <ele>182.1</ele>
        <time>2010-11-14T10:10:08Z</time>
      </trkpt>
      <trkpt lat="44.14521" lon="5.04201">
        <ele>182.2</ele>
        <time>2010-11-14T10:10:13Z</time>
      </trkpt>
      <trkpt lat="44.14529" lon="5.04202">
        <ele>182.3</ele>
        <time>2010-11-14T10:10:18Z</time>
      </trkpt>
      <trkpt lat="44.14535" lon="5.04207">
        <ele>182.1</ele>
        <time>2010-11-14T10:10:21Z</time>
      </trkpt>
      <trkpt lat="44.14538" lon="5.04215">
        <ele>182.1</ele>
        <time>2010-11-14T10:10:23Z</time>
      </trkpt>
      <trkpt lat="44.14546" lon="5.04227">
        <ele>182</ele>
        <time>2010-11-14T10:10:28Z</time>
      </trkpt>
      <trkpt lat="44.14558" lon="5.04227">
        <ele>182</ele>
        <time>2010-11-14T10:10:36Z</time>
      </trkpt>
      <trkpt lat="44.14566" lon="5.04228">
        <ele>183.8</ele>
        <time>2010-11-14T10:10:49Z</time>
      </trkpt>
      <trkpt lat="44.14571" lon="5.04224">
        <ele>183.8</ele>
        <time>2010-11-14T10:10:54Z</time>
      </trkpt>
      <trkpt lat="44.14577" lon="5.0422">
        <ele>183.8</ele>
        <time>2010-11-14T10:10:57Z</time>
      </trkpt>
      <trkpt lat="44.14583" lon="5.04226">
        <ele>185.1</ele>
        <time>2010-11-14T10:11:01Z</time>
      </trkpt>
      <trkpt lat="44.14591" lon="5.04232">
        <ele>185.9</ele>
        <time>2010-11-14T10:11:05Z</time>
      </trkpt>
      <trkpt lat="44.14593" lon="5.04234">
        <ele>186.1</ele>
        <time>2010-11-14T10:11:06Z</time>
      </trkpt>
      <trkpt lat="44.14594" lon="5.04253">
        <ele>194.1</ele>
        <time>2010-11-14T10:11:27Z</time>
      </trkpt>
      <trkpt lat="44.14595" lon="5.04263">
        <ele>195.2</ele>
        <time>2010-11-14T10:11:32Z</time>
      </trkpt>
      <trkpt lat="44.14598" lon="5.04274">
        <ele>196.9</ele>
        <time>2010-11-14T10:11:38Z</time>
      </trkpt>
      <trkpt lat="44.14604" lon="5.04282">
        <ele>198.6</ele>
        <time>2010-11-14T10:11:43Z</time>
      </trkpt>
      <trkpt lat="44.14608" lon="5.04291">
        <ele>200.2</ele>
        <time>2010-11-14T10:11:48Z</time>
      </trkpt>
      <trkpt lat="44.14613" lon="5.04301">
        <ele>201.7</ele>
        <time>2010-11-14T10:11:54Z</time>
      </trkpt>
      <trkpt lat="44.1462" lon="5.04302">
        <ele>202.9</ele>
        <time>2010-11-14T10:11:58Z</time>
      </trkpt>
      <trkpt lat="44.14628" lon="5.04307">
        <ele>204.5</ele>
        <time>2010-11-14T10:12:04Z</time>
      </trkpt>
      <trkpt lat="44.14626" lon="5.04318">
        <ele>206.3</ele>
        <time>2010-11-14T10:12:12Z</time>
      </trkpt>
      <trkpt lat="44.14625" lon="5.04319">
        <ele>206.4</ele>
        <time>2010-11-14T10:12:13Z</time>
      </trkpt>
      <trkpt lat="44.14612" lon="5.04329">
        <ele>208.6</ele>
        <time>2010-11-14T10:12:23Z</time>
      </trkpt>
      <trkpt lat="44.14606" lon="5.04336">
        <ele>209.2</ele>
        <time>2010-11-14T10:12:26Z</time>
      </trkpt>
      <trkpt lat="44.14599" lon="5.04339">
        <ele>210</ele>
        <time>2010-11-14T10:12:30Z</time>
      </trkpt>
      <trkpt lat="44.14592" lon="5.0434">
        <ele>212</ele>
        <time>2010-11-14T10:12:35Z</time>
      </trkpt>
      <trkpt lat="44.14586" lon="5.04349">
        <ele>213.3</ele>
        <time>2010-11-14T10:12:40Z</time>
      </trkpt>
      <trkpt lat="44.14594" lon="5.04352">
        <ele>215.1</ele>
        <time>2010-11-14T10:12:45Z</time>
      </trkpt>
      <trkpt lat="44.14601" lon="5.04349">
        <ele>216.4</ele>
        <time>2010-11-14T10:12:48Z</time>
      </trkpt>
      <trkpt lat="44.14609" lon="5.04353">
        <ele>218.3</ele>
        <time>2010-11-14T10:12:55Z</time>
      </trkpt>
      <trkpt lat="44.14609" lon="5.04362">
        <ele>219.5</ele>
        <time>2010-11-14T10:12:58Z</time>
      </trkpt>
      <trkpt lat="44.14611" lon="5.04373">
        <ele>220.4</ele>
        <time>2010-11-14T10:13:02Z</time>
      </trkpt>
      <trkpt lat="44.14613" lon="5.04383">
        <ele>221.2</ele>
        <time>2010-11-14T10:13:06Z</time>
      </trkpt>
      <trkpt lat="44.14617" lon="5.04397">
        <ele>222.4</ele>
        <time>2010-11-14T10:13:12Z</time>
      </trkpt>
      <trkpt lat="44.14621" lon="5.04407">
        <ele>223.9</ele>
        <time>2010-11-14T10:13:16Z</time>
      </trkpt>
      <trkpt lat="44.14622" lon="5.04408">
        <ele>224.4</ele>
        <time>2010-11-14T10:13:17Z</time>
      </trkpt>
      <trkpt lat="44.14635" lon="5.04427">
        <ele>227</ele>
        <time>2010-11-14T10:13:30Z</time>
      </trkpt>
      <trkpt lat="44.14638" lon="5.04435">
        <ele>228.1</ele>
        <time>2010-11-14T10:13:34Z</time>
      </trkpt>
      <trkpt lat="44.14643" lon="5.04445">
        <ele>228.8</ele>
        <time>2010-11-14T10:13:40Z</time>
      </trkpt>
      <trkpt lat="44.1465" lon="5.04451">
        <ele>230</ele>
        <time>2010-11-14T10:13:46Z</time>
      </trkpt>
      <trkpt lat="44.14657" lon="5.04456">
        <ele>230.8</ele>
        <time>2010-11-14T10:13:50Z</time>
      </trkpt>
      <trkpt lat="44.14664" lon="5.04457">
        <ele>231.3</ele>
        <time>2010-11-14T10:13:54Z</time>
      </trkpt>
      <trkpt lat="44.14673" lon="5.04458">
        <ele>231.6</ele>
        <time>2010-11-14T10:14:00Z</time>
      </trkpt>
      <trkpt lat="44.14679" lon="5.04467">
        <ele>232.2</ele>
        <time>2010-11-14T10:14:04Z</time>
      </trkpt>
      <trkpt lat="44.14683" lon="5.04475">
        <ele>233.2</ele>
        <time>2010-11-14T10:14:07Z</time>
      </trkpt>
      <trkpt lat="44.14689" lon="5.04487">
        <ele>235</ele>
        <time>2010-11-14T10:14:13Z</time>
      </trkpt>
      <trkpt lat="44.14693" lon="5.04496">
        <ele>236.9</ele>
        <time>2010-11-14T10:14:18Z</time>
      </trkpt>
      <trkpt lat="44.14695" lon="5.04498">
        <ele>237.2</ele>
        <time>2010-11-14T10:14:19Z</time>
      </trkpt>
      <trkpt lat="44.14707" lon="5.04508">
        <ele>238.1</ele>
        <time>2010-11-14T10:14:29Z</time>
      </trkpt>
      <trkpt lat="44.14715" lon="5.04513">
        <ele>239.2</ele>
        <time>2010-11-14T10:14:35Z</time>
      </trkpt>
      <trkpt lat="44.14722" lon="5.04522">
        <ele>240.2</ele>
        <time>2010-11-14T10:14:41Z</time>
      </trkpt>
      <trkpt lat="44.14728" lon="5.0453">
        <ele>241.9</ele>
        <time>2010-11-14T10:14:48Z</time>
      </trkpt>
      <trkpt lat="44.14734" lon="5.04539">
        <ele>244.4</ele>
        <time>2010-11-14T10:14:54Z</time>
      </trkpt>
      <trkpt lat="44.14738" lon="5.04549">
        <ele>245.5</ele>
        <time>2010-11-14T10:14:59Z</time>
      </trkpt>
      <trkpt lat="44.14741" lon="5.04559">
        <ele>246</ele>
        <time>2010-11-14T10:15:03Z</time>
      </trkpt>
      <trkpt lat="44.14748" lon="5.04565">
        <ele>245.9</ele>
        <time>2010-11-14T10:15:09Z</time>
      </trkpt>
      <trkpt lat="44.14754" lon="5.04572">
        <ele>245.9</ele>
        <time>2010-11-14T10:15:14Z</time>
      </trkpt>
      <trkpt lat="44.14757" lon="5.04583">
        <ele>245.9</ele>
        <time>2010-11-14T10:15:20Z</time>
      </trkpt>
      <trkpt lat="44.14758" lon="5.04585">
        <ele>245.9</ele>
        <time>2010-11-14T10:15:21Z</time>
      </trkpt>
      <trkpt lat="44.1477" lon="5.04594">
        <ele>246</ele>
        <time>2010-11-14T10:15:28Z</time>
      </trkpt>
      <trkpt lat="44.14776" lon="5.04602">
        <ele>245.8</ele>
        <time>2010-11-14T10:15:32Z</time>
      </trkpt>
      <trkpt lat="44.1478" lon="5.04612">
        <ele>245</ele>
        <time>2010-11-14T10:15:36Z</time>
      </trkpt>
      <trkpt lat="44.14785" lon="5.04622">
        <ele>245.1</ele>
        <time>2010-11-14T10:15:40Z</time>
      </trkpt>
      <trkpt lat="44.14787" lon="5.04632">
        <ele>245.8</ele>
        <time>2010-11-14T10:15:42Z</time>
      </trkpt>
      <trkpt lat="44.1479" lon="5.0464">
        <ele>246.1</ele>
        <time>2010-11-14T10:15:45Z</time>
      </trkpt>
      <trkpt lat="44.14793" lon="5.04649">
        <ele>246.5</ele>
        <time>2010-11-14T10:15:49Z</time>
      </trkpt>
      <trkpt lat="44.148" lon="5.04657">
        <ele>248.3</ele>
        <time>2010-11-14T10:15:55Z</time>
      </trkpt>
      <trkpt lat="44.14805" lon="5.04667">
        <ele>250.1</ele>
        <time>2010-11-14T10:16:02Z</time>
      </trkpt>
      <trkpt lat="44.14808" lon="5.04677">
        <ele>252.6</ele>
        <time>2010-11-14T10:16:09Z</time>
      </trkpt>
      <trkpt lat="44.14812" lon="5.04687">
        <ele>253.2</ele>
        <time>2010-11-14T10:16:17Z</time>
      </trkpt>
      <trkpt lat="44.14817" lon="5.04697">
        <ele>251.2</ele>
        <time>2010-11-14T10:16:25Z</time>
      </trkpt>
      <trkpt lat="44.14817" lon="5.04699">
        <ele>251.1</ele>
        <time>2010-11-14T10:16:26Z</time>
      </trkpt>
      <trkpt lat="44.1482" lon="5.04719">
        <ele>250.2</ele>
        <time>2010-11-14T10:16:32Z</time>
      </trkpt>
      <trkpt lat="44.14823" lon="5.0473">
        <ele>250.4</ele>
        <time>2010-11-14T10:16:36Z</time>
      </trkpt>
      <trkpt lat="44.14824" lon="5.04742">
        <ele>250.3</ele>
        <time>2010-11-14T10:16:42Z</time>
      </trkpt>
      <trkpt lat="44.14826" lon="5.04754">
        <ele>249.6</ele>
        <time>2010-11-14T10:16:49Z</time>
      </trkpt>
      <trkpt lat="44.14826" lon="5.04765">
        <ele>249.6</ele>
        <time>2010-11-14T10:16:56Z</time>
      </trkpt>
      <trkpt lat="44.14826" lon="5.04777">
        <ele>249.6</ele>
        <time>2010-11-14T10:17:01Z</time>
      </trkpt>
      <trkpt lat="44.14822" lon="5.04787">
        <ele>248.8</ele>
        <time>2010-11-14T10:17:07Z</time>
      </trkpt>
      <trkpt lat="44.14821" lon="5.04798">
        <ele>248.3</ele>
        <time>2010-11-14T10:17:13Z</time>
      </trkpt>
      <trkpt lat="44.14819" lon="5.0481">
        <ele>248.1</ele>
        <time>2010-11-14T10:17:17Z</time>
      </trkpt>
      <trkpt lat="44.14815" lon="5.04822">
        <ele>248.3</ele>
        <time>2010-11-14T10:17:22Z</time>
      </trkpt>
      <trkpt lat="44.14812" lon="5.04833">
        <ele>248.5</ele>
        <time>2010-11-14T10:17:29Z</time>
      </trkpt>
      <trkpt lat="44.14811" lon="5.04834">
        <ele>248.3</ele>
        <time>2010-11-14T10:17:30Z</time>
      </trkpt>
      <trkpt lat="44.148" lon="5.04847">
        <ele>245.6</ele>
        <time>2010-11-14T10:17:44Z</time>
      </trkpt>
      <trkpt lat="44.14793" lon="5.04855">
        <ele>243.4</ele>
        <time>2010-11-14T10:17:52Z</time>
      </trkpt>
      <trkpt lat="44.14785" lon="5.04861">
        <ele>241.5</ele>
        <time>2010-11-14T10:17:59Z</time>
      </trkpt>
      <trkpt lat="44.14778" lon="5.04868">
        <ele>239.9</ele>
        <time>2010-11-14T10:18:06Z</time>
      </trkpt>
      <trkpt lat="44.14774" lon="5.04879">
        <ele>238.6</ele>
        <time>2010-11-14T10:18:13Z</time>
      </trkpt>
      <trkpt lat="44.14771" lon="5.04888">
        <ele>237.3</ele>
        <time>2010-11-14T10:18:18Z</time>
      </trkpt>
      <trkpt lat="44.14772" lon="5.04899">
        <ele>235.4</ele>
        <time>2010-11-14T10:18:50Z</time>
      </trkpt>
      <trkpt lat="44.14772" lon="5.04901">
        <ele>235.2</ele>
        <time>2010-11-14T10:18:51Z</time>
      </trkpt>
      <trkpt lat="44.14764" lon="5.04921">
        <ele>229.3</ele>
        <time>2010-11-14T10:19:20Z</time>
      </trkpt>
      <trkpt lat="44.14761" lon="5.04933">
        <ele>225.8</ele>
        <time>2010-11-14T10:19:30Z</time>
      </trkpt>
      <trkpt lat="44.14755" lon="5.04942">
        <ele>221.6</ele>
        <time>2010-11-14T10:19:43Z</time>
      </trkpt>
      <trkpt lat="44.14748" lon="5.04948">
        <ele>218.4</ele>
        <time>2010-11-14T10:19:55Z</time>
      </trkpt>
      <trkpt lat="44.14747" lon="5.04949">
        <ele>217.9</ele>
        <time>2010-11-14T10:19:56Z</time>
      </trkpt>
      <trkpt lat="44.14735" lon="5.04963">
        <ele>209.3</ele>
        <time>2010-11-14T10:20:21Z</time>
      </trkpt>
      <trkpt lat="44.14728" lon="5.04969">
        <ele>205.9</ele>
        <time>2010-11-14T10:20:29Z</time>
      </trkpt>
      <trkpt lat="44.14722" lon="5.04977">
        <ele>203.4</ele>
        <time>2010-11-14T10:20:35Z</time>
      </trkpt>
      <trkpt lat="44.14714" lon="5.04979">
        <ele>201.3</ele>
        <time>2010-11-14T10:20:42Z</time>
      </trkpt>
      <trkpt lat="44.14706" lon="5.04977">
        <ele>199.8</ele>
        <time>2010-11-14T10:20:49Z</time>
      </trkpt>
      <trkpt lat="44.14702" lon="5.04966">
        <ele>199.4</ele>
        <time>2010-11-14T10:21:00Z</time>
      </trkpt>
      <trkpt lat="44.14702" lon="5.04966">
        <ele>199.7</ele>
        <time>2010-11-14T10:21:01Z</time>
      </trkpt>
      <trkpt lat="44.14686" lon="5.04968">
        <ele>198</ele>
        <time>2010-11-14T10:21:51Z</time>
      </trkpt>
      <trkpt lat="44.14677" lon="5.04966">
        <ele>196.5</ele>
        <time>2010-11-14T10:22:26Z</time>
      </trkpt>
      <trkpt lat="44.14676" lon="5.04966">
        <ele>196.5</ele>
        <time>2010-11-14T10:22:27Z</time>
      </trkpt>
      <trkpt lat="44.14662" lon="5.04961">
        <ele>194.8</ele>
        <time>2010-11-14T10:22:38Z</time>
      </trkpt>
      <trkpt lat="44.1466" lon="5.04951">
        <ele>194.1</ele>
        <time>2010-11-14T10:22:43Z</time>
      </trkpt>
      <trkpt lat="44.14658" lon="5.04941">
        <ele>194.5</ele>
        <time>2010-11-14T10:22:49Z</time>
      </trkpt>
      <trkpt lat="44.14654" lon="5.0493">
        <ele>194.5</ele>
        <time>2010-11-14T10:22:56Z</time>
      </trkpt>
      <trkpt lat="44.1465" lon="5.04919">
        <ele>194.6</ele>
        <time>2010-11-14T10:23:03Z</time>
      </trkpt>
      <trkpt lat="44.14654" lon="5.04909">
        <ele>195.3</ele>
        <time>2010-11-14T10:23:08Z</time>
      </trkpt>
      <trkpt lat="44.14659" lon="5.04898">
        <ele>196.7</ele>
        <time>2010-11-14T10:23:14Z</time>
      </trkpt>
      <trkpt lat="44.14659" lon="5.04887">
        <ele>198.5</ele>
        <time>2010-11-14T10:23:22Z</time>
      </trkpt>
      <trkpt lat="44.14655" lon="5.04898">
        <ele>197.1</ele>
        <time>2010-11-14T10:23:45Z</time>
      </trkpt>
      <trkpt lat="44.14654" lon="5.04898">
        <ele>196.9</ele>
        <time>2010-11-14T10:23:46Z</time>
      </trkpt>
      <trkpt lat="44.14651" lon="5.04898">
        <ele>195.2</ele>
        <time>2010-11-14T10:25:35Z</time>
      </trkpt>
      <trkpt lat="44.14651" lon="5.04901">
        <ele>194.8</ele>
        <time>2010-11-14T10:25:36Z</time>
      </trkpt>
      <trkpt lat="44.14645" lon="5.0492">
        <ele>193</ele>
        <time>2010-11-14T10:26:12Z</time>
      </trkpt>
      <trkpt lat="44.14641" lon="5.0493">
        <ele>191.5</ele>
        <time>2010-11-14T10:27:40Z</time>
      </trkpt>
      <trkpt lat="44.1464" lon="5.04931">
        <ele>191.4</ele>
        <time>2010-11-14T10:27:41Z</time>
      </trkpt>
      <trkpt lat="44.14639" lon="5.04952">
        <ele>189.5</ele>
        <time>2010-11-14T10:27:51Z</time>
      </trkpt>
      <trkpt lat="44.14641" lon="5.04963">
        <ele>188.5</ele>
        <time>2010-11-14T10:27:57Z</time>
      </trkpt>
      <trkpt lat="44.14642" lon="5.04974">
        <ele>187.3</ele>
        <time>2010-11-14T10:28:04Z</time>
      </trkpt>
      <trkpt lat="44.14644" lon="5.04985">
        <ele>186.3</ele>
        <time>2010-11-14T10:28:10Z</time>
      </trkpt>
      <trkpt lat="44.14649" lon="5.04994">
        <ele>185.8</ele>
        <time>2010-11-14T10:28:17Z</time>
      </trkpt>
      <trkpt lat="44.14656" lon="5.05002">
        <ele>184.6</ele>
        <time>2010-11-14T10:28:24Z</time>
      </trkpt>
      <trkpt lat="44.14662" lon="5.0501">
        <ele>182.6</ele>
        <time>2010-11-14T10:28:32Z</time>
      </trkpt>
      <trkpt lat="44.14668" lon="5.05019">
        <ele>180.2</ele>
        <time>2010-11-14T10:28:42Z</time>
      </trkpt>
      <trkpt lat="44.14669" lon="5.0502">
        <ele>179.8</ele>
        <time>2010-11-14T10:28:43Z</time>
      </trkpt>
      <trkpt lat="44.14678" lon="5.05035">
        <ele>176.5</ele>
        <time>2010-11-14T10:28:54Z</time>
      </trkpt>
      <trkpt lat="44.14686" lon="5.0504">
        <ele>174.3</ele>
        <time>2010-11-14T10:29:01Z</time>
      </trkpt>
      <trkpt lat="44.14693" lon="5.05042">
        <ele>172.3</ele>
        <time>2010-11-14T10:29:08Z</time>
      </trkpt>
      <trkpt lat="44.14694" lon="5.05053">
        <ele>169.6</ele>
        <time>2010-11-14T10:29:17Z</time>
      </trkpt>
      <trkpt lat="44.14695" lon="5.05064">
        <ele>168.6</ele>
        <time>2010-11-14T10:29:20Z</time>
      </trkpt>
      <trkpt lat="44.14688" lon="5.05073">
        <ele>167</ele>
        <time>2010-11-14T10:29:30Z</time>
      </trkpt>
      <trkpt lat="44.14679" lon="5.05082">
        <ele>168</ele>
        <time>2010-11-14T10:29:42Z</time>
      </trkpt>
      <trkpt lat="44.14679" lon="5.05084">
        <ele>168.2</ele>
        <time>2010-11-14T10:29:44Z</time>
      </trkpt>
      <trkpt lat="44.14679" lon="5.05105">
        <ele>172</ele>
        <time>2010-11-14T10:30:10Z</time>
      </trkpt>
      <trkpt lat="44.14664" lon="5.05109">
        <ele>172</ele>
        <time>2010-11-14T10:30:19Z</time>
      </trkpt>
      <trkpt lat="44.14646" lon="5.05105">
        <ele>174</ele>
        <time>2010-11-14T10:30:29Z</time>
      </trkpt>
      <trkpt lat="44.14639" lon="5.05101">
        <ele>175.2</ele>
        <time>2010-11-14T10:30:34Z</time>
      </trkpt>
      <trkpt lat="44.14637" lon="5.05112">
        <ele>178.8</ele>
        <time>2010-11-14T10:31:14Z</time>
      </trkpt>
      <trkpt lat="44.14639" lon="5.05113">
        <ele>178.8</ele>
        <time>2010-11-14T10:31:15Z</time>
      </trkpt>
      <trkpt lat="44.14656" lon="5.05124">
        <ele>179.9</ele>
        <time>2010-11-14T10:31:26Z</time>
      </trkpt>
      <trkpt lat="44.14664" lon="5.05127">
        <ele>181.7</ele>
        <time>2010-11-14T10:31:34Z</time>
      </trkpt>
      <trkpt lat="44.14672" lon="5.05132">
        <ele>183.2</ele>
        <time>2010-11-14T10:31:41Z</time>
      </trkpt>
      <trkpt lat="44.14679" lon="5.05139">
        <ele>183.1</ele>
        <time>2010-11-14T10:33:53Z</time>
      </trkpt>
      <trkpt lat="44.14681" lon="5.0514">
        <ele>183.2</ele>
        <time>2010-11-14T10:33:54Z</time>
      </trkpt>
      <trkpt lat="44.14695" lon="5.0513">
        <ele>183.3</ele>
        <time>2010-11-14T10:34:09Z</time>
      </trkpt>
      <trkpt lat="44.14702" lon="5.05122">
        <ele>183.2</ele>
        <time>2010-11-14T10:34:15Z</time>
      </trkpt>
      <trkpt lat="44.14695" lon="5.05117">
        <ele>182.3</ele>
        <time>2010-11-14T10:34:24Z</time>
      </trkpt>
      <trkpt lat="44.14686" lon="5.0512">
        <ele>182.3</ele>
        <time>2010-11-14T10:34:31Z</time>
      </trkpt>
      <trkpt lat="44.14678" lon="5.05122">
        <ele>181.8</ele>
        <time>2010-11-14T10:34:39Z</time>
      </trkpt>
      <trkpt lat="44.14671" lon="5.05131">
        <ele>180.6</ele>
        <time>2010-11-14T10:35:01Z</time>
      </trkpt>
      <trkpt lat="44.14671" lon="5.05131">
        <ele>180.7</ele>
        <time>2010-11-14T10:35:02Z</time>
      </trkpt>
      <trkpt lat="44.1468" lon="5.0513">
        <ele>181.1</ele>
        <time>2010-11-14T10:36:16Z</time>
      </trkpt>
      <trkpt lat="44.14677" lon="5.05126">
        <ele>181.1</ele>
        <time>2010-11-14T10:37:55Z</time>
      </trkpt>
      <trkpt lat="44.14677" lon="5.05127">
        <ele>181.1</ele>
        <time>2010-11-14T10:37:56Z</time>
      </trkpt>
      <trkpt lat="44.14678" lon="5.05124">
        <ele>181.4</ele>
        <time>2010-11-14T10:39:03Z</time>
      </trkpt>
      <trkpt lat="44.14677" lon="5.05123">
        <ele>181.2</ele>
        <time>2010-11-14T10:39:04Z</time>
      </trkpt>
      <trkpt lat="44.14662" lon="5.05124">
        <ele>180.8</ele>
        <time>2010-11-14T10:39:15Z</time>
      </trkpt>
      <trkpt lat="44.14654" lon="5.05129">
        <ele>181</ele>
        <time>2010-11-14T10:39:32Z</time>
      </trkpt>
      <trkpt lat="44.14646" lon="5.05123">
        <ele>179.4</ele>
        <time>2010-11-14T10:41:02Z</time>
      </trkpt>
      <trkpt lat="44.14645" lon="5.05122">
        <ele>179.4</ele>
        <time>2010-11-14T10:41:03Z</time>
      </trkpt>
      <trkpt lat="44.14632" lon="5.05114">
        <ele>177.7</ele>
        <time>2010-11-14T10:41:12Z</time>
      </trkpt>
      <trkpt lat="44.14625" lon="5.05109">
        <ele>177.9</ele>
        <time>2010-11-14T10:41:18Z</time>
      </trkpt>
      <trkpt lat="44.14617" lon="5.05105">
        <ele>177.1</ele>
        <time>2010-11-14T10:41:24Z</time>
      </trkpt>
      <trkpt lat="44.1461" lon="5.051">
        <ele>176.7</ele>
        <time>2010-11-14T10:41:29Z</time>
      </trkpt>
      <trkpt lat="44.14602" lon="5.05098">
        <ele>176.1</ele>
        <time>2010-11-14T10:41:35Z</time>
      </trkpt>
      <trkpt lat="44.14595" lon="5.05103">
        <ele>175.5</ele>
        <time>2010-11-14T10:41:39Z</time>
      </trkpt>
      <trkpt lat="44.14589" lon="5.05112">
        <ele>175.2</ele>
        <time>2010-11-14T10:41:44Z</time>
      </trkpt>
      <trkpt lat="44.14584" lon="5.0512">
        <ele>176.1</ele>
        <time>2010-11-14T10:41:48Z</time>
      </trkpt>
      <trkpt lat="44.1458" lon="5.05131">
        <ele>176.6</ele>
        <time>2010-11-14T10:41:53Z</time>
      </trkpt>
      <trkpt lat="44.14577" lon="5.05142">
        <ele>177.3</ele>
        <time>2010-11-14T10:41:59Z</time>
      </trkpt>
      <trkpt lat="44.14573" lon="5.05152">
        <ele>177.6</ele>
        <time>2010-11-14T10:42:04Z</time>
      </trkpt>
      <trkpt lat="44.14572" lon="5.05154">
        <ele>177.6</ele>
        <time>2010-11-14T10:42:05Z</time>
      </trkpt>
      <trkpt lat="44.14564" lon="5.0517">
        <ele>179.1</ele>
        <time>2010-11-14T10:42:14Z</time>
      </trkpt>
      <trkpt lat="44.14559" lon="5.05179">
        <ele>179.6</ele>
        <time>2010-11-14T10:42:19Z</time>
      </trkpt>
      <trkpt lat="44.14556" lon="5.05188">
        <ele>180.1</ele>
        <time>2010-11-14T10:42:24Z</time>
      </trkpt>
      <trkpt lat="44.14554" lon="5.052">
        <ele>180.4</ele>
        <time>2010-11-14T10:42:29Z</time>
      </trkpt>
      <trkpt lat="44.14562" lon="5.05205">
        <ele>180.1</ele>
        <time>2010-11-14T10:42:36Z</time>
      </trkpt>
      <trkpt lat="44.14571" lon="5.05206">
        <ele>179.9</ele>
        <time>2010-11-14T10:42:42Z</time>
      </trkpt>
      <trkpt lat="44.14579" lon="5.0521">
        <ele>180.1</ele>
        <time>2010-11-14T10:42:48Z</time>
      </trkpt>
      <trkpt lat="44.14587" lon="5.05217">
        <ele>179.6</ele>
        <time>2010-11-14T10:42:55Z</time>
      </trkpt>
      <trkpt lat="44.14593" lon="5.05225">
        <ele>178.9</ele>
        <time>2010-11-14T10:43:01Z</time>
      </trkpt>
      <trkpt lat="44.14599" lon="5.05234">
        <ele>178.1</ele>
        <time>2010-11-14T10:43:08Z</time>
      </trkpt>
      <trkpt lat="44.146" lon="5.05235">
        <ele>177.5</ele>
        <time>2010-11-14T10:43:09Z</time>
      </trkpt>
      <trkpt lat="44.14609" lon="5.05252">
        <ele>176.3</ele>
        <time>2010-11-14T10:43:20Z</time>
      </trkpt>
      <trkpt lat="44.14614" lon="5.05261">
        <ele>175.7</ele>
        <time>2010-11-14T10:43:26Z</time>
      </trkpt>
      <trkpt lat="44.1462" lon="5.0527">
        <ele>174</ele>
        <time>2010-11-14T10:43:33Z</time>
      </trkpt>
      <trkpt lat="44.14624" lon="5.05281">
        <ele>171.5</ele>
        <time>2010-11-14T10:43:43Z</time>
      </trkpt>
      <trkpt lat="44.14617" lon="5.05288">
        <ele>171.4</ele>
        <time>2010-11-14T10:43:47Z</time>
      </trkpt>
      <trkpt lat="44.14612" lon="5.05294">
        <ele>171.1</ele>
        <time>2010-11-14T10:43:50Z</time>
      </trkpt>
      <trkpt lat="44.14605" lon="5.05299">
        <ele>171.3</ele>
        <time>2010-11-14T10:43:53Z</time>
      </trkpt>
      <trkpt lat="44.14598" lon="5.05303">
        <ele>171.9</ele>
        <time>2010-11-14T10:43:56Z</time>
      </trkpt>
      <trkpt lat="44.1459" lon="5.05306">
        <ele>173.4</ele>
        <time>2010-11-14T10:44:00Z</time>
      </trkpt>
      <trkpt lat="44.14582" lon="5.05301">
        <ele>176.5</ele>
        <time>2010-11-14T10:44:04Z</time>
      </trkpt>
      <trkpt lat="44.14574" lon="5.05298">
        <ele>178.1</ele>
        <time>2010-11-14T10:44:09Z</time>
      </trkpt>
      <trkpt lat="44.14573" lon="5.05298">
        <ele>178.3</ele>
        <time>2010-11-14T10:44:10Z</time>
      </trkpt>
      <trkpt lat="44.14558" lon="5.05296">
        <ele>180.2</ele>
        <time>2010-11-14T10:44:20Z</time>
      </trkpt>
      <trkpt lat="44.1455" lon="5.053">
        <ele>181.8</ele>
        <time>2010-11-14T10:44:26Z</time>
      </trkpt>
      <trkpt lat="44.14543" lon="5.05303">
        <ele>182.1</ele>
        <time>2010-11-14T10:44:31Z</time>
      </trkpt>
      <trkpt lat="44.14537" lon="5.05313">
        <ele>182.8</ele>
        <time>2010-11-14T10:44:36Z</time>
      </trkpt>
      <trkpt lat="44.14535" lon="5.05324">
        <ele>183.6</ele>
        <time>2010-11-14T10:44:40Z</time>
      </trkpt>
      <trkpt lat="44.14535" lon="5.05336">
        <ele>184.7</ele>
        <time>2010-11-14T10:44:46Z</time>
      </trkpt>
      <trkpt lat="44.14534" lon="5.05348">
        <ele>185.9</ele>
        <time>2010-11-14T10:44:52Z</time>
      </trkpt>
      <trkpt lat="44.14533" lon="5.05359">
        <ele>187</ele>
        <time>2010-11-14T10:44:57Z</time>
      </trkpt>
      <trkpt lat="44.14531" lon="5.05369">
        <ele>188.3</ele>
        <time>2010-11-14T10:45:03Z</time>
      </trkpt>
      <trkpt lat="44.14529" lon="5.05381">
        <ele>189.9</ele>
        <time>2010-11-14T10:45:08Z</time>
      </trkpt>
      <trkpt lat="44.14529" lon="5.05392">
        <ele>191.3</ele>
        <time>2010-11-14T10:45:13Z</time>
      </trkpt>
      <trkpt lat="44.14529" lon="5.05394">
        <ele>191.5</ele>
        <time>2010-11-14T10:45:14Z</time>
      </trkpt>
      <trkpt lat="44.14531" lon="5.05416">
        <ele>194.2</ele>
        <time>2010-11-14T10:45:24Z</time>
      </trkpt>
      <trkpt lat="44.1453" lon="5.05426">
        <ele>195.8</ele>
        <time>2010-11-14T10:45:29Z</time>
      </trkpt>
      <trkpt lat="44.14529" lon="5.05434">
        <ele>197</ele>
        <time>2010-11-14T10:45:32Z</time>
      </trkpt>
      <trkpt lat="44.14529" lon="5.05447">
        <ele>198.2</ele>
        <time>2010-11-14T10:45:35Z</time>
      </trkpt>
      <trkpt lat="44.1453" lon="5.05457">
        <ele>199.7</ele>
        <time>2010-11-14T10:45:39Z</time>
      </trkpt>
      <trkpt lat="44.14531" lon="5.05469">
        <ele>201.6</ele>
        <time>2010-11-14T10:45:45Z</time>
      </trkpt>
      <trkpt lat="44.14529" lon="5.0548">
        <ele>203.5</ele>
        <time>2010-11-14T10:45:51Z</time>
      </trkpt>
      <trkpt lat="44.14527" lon="5.05492">
        <ele>205.5</ele>
        <time>2010-11-14T10:45:56Z</time>
      </trkpt>
      <trkpt lat="44.14529" lon="5.05503">
        <ele>207.6</ele>
        <time>2010-11-14T10:46:04Z</time>
      </trkpt>
      <trkpt lat="44.14535" lon="5.05511">
        <ele>208.6</ele>
        <time>2010-11-14T10:46:10Z</time>
      </trkpt>
      <trkpt lat="44.14544" lon="5.05521">
        <ele>209</ele>
        <time>2010-11-14T10:46:18Z</time>
      </trkpt>
      <trkpt lat="44.14545" lon="5.05523">
        <ele>210</ele>
        <time>2010-11-14T10:46:20Z</time>
      </trkpt>
      <trkpt lat="44.14554" lon="5.05538">
        <ele>210.4</ele>
        <time>2010-11-14T10:46:30Z</time>
      </trkpt>
      <trkpt lat="44.14551" lon="5.05549">
        <ele>210.6</ele>
        <time>2010-11-14T10:46:36Z</time>
      </trkpt>
      <trkpt lat="44.14545" lon="5.05558">
        <ele>211.6</ele>
        <time>2010-11-14T10:46:42Z</time>
      </trkpt>
      <trkpt lat="44.1454" lon="5.05565">
        <ele>213.2</ele>
        <time>2010-11-14T10:46:48Z</time>
      </trkpt>
      <trkpt lat="44.14532" lon="5.05569">
        <ele>214.8</ele>
        <time>2010-11-14T10:46:52Z</time>
      </trkpt>
      <trkpt lat="44.14524" lon="5.0557">
        <ele>216.2</ele>
        <time>2010-11-14T10:46:57Z</time>
      </trkpt>
      <trkpt lat="44.14516" lon="5.05572">
        <ele>217.9</ele>
        <time>2010-11-14T10:47:02Z</time>
      </trkpt>
      <trkpt lat="44.14509" lon="5.05579">
        <ele>220.4</ele>
        <time>2010-11-14T10:47:07Z</time>
      </trkpt>
      <trkpt lat="44.14503" lon="5.05586">
        <ele>222.5</ele>
        <time>2010-11-14T10:47:11Z</time>
      </trkpt>
      <trkpt lat="44.14498" lon="5.05596">
        <ele>224.2</ele>
        <time>2010-11-14T10:47:17Z</time>
      </trkpt>
      <trkpt lat="44.14496" lon="5.05608">
        <ele>226.4</ele>
        <time>2010-11-14T10:47:24Z</time>
      </trkpt>
      <trkpt lat="44.14496" lon="5.05612">
        <ele>226.5</ele>
        <time>2010-11-14T10:47:25Z</time>
      </trkpt>
      <trkpt lat="44.14495" lon="5.0563">
        <ele>228.2</ele>
        <time>2010-11-14T10:47:33Z</time>
      </trkpt>
      <trkpt lat="44.14496" lon="5.05642">
        <ele>229.4</ele>
        <time>2010-11-14T10:47:38Z</time>
      </trkpt>
      <trkpt lat="44.14498" lon="5.05653">
        <ele>230.9</ele>
        <time>2010-11-14T10:47:45Z</time>
      </trkpt>
      <trkpt lat="44.145" lon="5.05665">
        <ele>231.1</ele>
        <time>2010-11-14T10:47:50Z</time>
      </trkpt>
      <trkpt lat="44.145" lon="5.05677">
        <ele>231.2</ele>
        <time>2010-11-14T10:47:56Z</time>
      </trkpt>
      <trkpt lat="44.14499" lon="5.05688">
        <ele>232</ele>
        <time>2010-11-14T10:48:02Z</time>
      </trkpt>
      <trkpt lat="44.14499" lon="5.057">
        <ele>232.2</ele>
        <time>2010-11-14T10:48:09Z</time>
      </trkpt>
      <trkpt lat="44.145" lon="5.05712">
        <ele>232.2</ele>
        <time>2010-11-14T10:48:15Z</time>
      </trkpt>
      <trkpt lat="44.14502" lon="5.05722">
        <ele>232.3</ele>
        <time>2010-11-14T10:48:20Z</time>
      </trkpt>
      <trkpt lat="44.14502" lon="5.05733">
        <ele>232.7</ele>
        <time>2010-11-14T10:48:25Z</time>
      </trkpt>
      <trkpt lat="44.14501" lon="5.05736">
        <ele>232.8</ele>
        <time>2010-11-14T10:48:26Z</time>
      </trkpt>
      <trkpt lat="44.14501" lon="5.05755">
        <ele>233.7</ele>
        <time>2010-11-14T10:48:36Z</time>
      </trkpt>
      <trkpt lat="44.14503" lon="5.05766">
        <ele>233.6</ele>
        <time>2010-11-14T10:48:42Z</time>
      </trkpt>
      <trkpt lat="44.14504" lon="5.05777">
        <ele>233.5</ele>
        <time>2010-11-14T10:48:47Z</time>
      </trkpt>
      <trkpt lat="44.14504" lon="5.05788">
        <ele>233.6</ele>
        <time>2010-11-14T10:48:53Z</time>
      </trkpt>
      <trkpt lat="44.14505" lon="5.058">
        <ele>234.1</ele>
        <time>2010-11-14T10:48:59Z</time>
      </trkpt>
      <trkpt lat="44.14504" lon="5.05811">
        <ele>234.4</ele>
        <time>2010-11-14T10:49:04Z</time>
      </trkpt>
      <trkpt lat="44.14503" lon="5.05823">
        <ele>234.9</ele>
        <time>2010-11-14T10:49:10Z</time>
      </trkpt>
      <trkpt lat="44.14497" lon="5.05832">
        <ele>235.6</ele>
        <time>2010-11-14T10:49:15Z</time>
      </trkpt>
      <trkpt lat="44.14491" lon="5.05838">
        <ele>235.6</ele>
        <time>2010-11-14T10:49:21Z</time>
      </trkpt>
      <trkpt lat="44.14485" lon="5.05847">
        <ele>236</ele>
        <time>2010-11-14T10:49:26Z</time>
      </trkpt>
      <trkpt lat="44.14484" lon="5.05849">
        <ele>236.5</ele>
        <time>2010-11-14T10:49:27Z</time>
      </trkpt>
      <trkpt lat="44.14478" lon="5.05865">
        <ele>235.8</ele>
        <time>2010-11-14T10:49:36Z</time>
      </trkpt>
      <trkpt lat="44.14474" lon="5.05876">
        <ele>235.7</ele>
        <time>2010-11-14T10:49:41Z</time>
      </trkpt>
      <trkpt lat="44.14469" lon="5.05886">
        <ele>235.6</ele>
        <time>2010-11-14T10:49:47Z</time>
      </trkpt>
      <trkpt lat="44.14461" lon="5.05891">
        <ele>236.8</ele>
        <time>2010-11-14T10:49:53Z</time>
      </trkpt>
      <trkpt lat="44.14454" lon="5.05897">
        <ele>238</ele>
        <time>2010-11-14T10:49:59Z</time>
      </trkpt>
      <trkpt lat="44.14449" lon="5.05904">
        <ele>238.4</ele>
        <time>2010-11-14T10:50:04Z</time>
      </trkpt>
      <trkpt lat="44.14443" lon="5.05912">
        <ele>238.4</ele>
        <time>2010-11-14T10:50:10Z</time>
      </trkpt>
      <trkpt lat="44.14439" lon="5.05921">
        <ele>238</ele>
        <time>2010-11-14T10:50:15Z</time>
      </trkpt>
      <trkpt lat="44.14433" lon="5.0593">
        <ele>237.7</ele>
        <time>2010-11-14T10:50:21Z</time>
      </trkpt>
      <trkpt lat="44.14428" lon="5.05939">
        <ele>237.1</ele>
        <time>2010-11-14T10:50:26Z</time>
      </trkpt>
      <trkpt lat="44.14423" lon="5.05949">
        <ele>236.4</ele>
        <time>2010-11-14T10:50:32Z</time>
      </trkpt>
      <trkpt lat="44.14422" lon="5.05951">
        <ele>236.4</ele>
        <time>2010-11-14T10:50:33Z</time>
      </trkpt>
      <trkpt lat="44.14412" lon="5.05968">
        <ele>237</ele>
        <time>2010-11-14T10:50:44Z</time>
      </trkpt>
      <trkpt lat="44.14408" lon="5.05977">
        <ele>236.5</ele>
        <time>2010-11-14T10:50:49Z</time>
      </trkpt>
      <trkpt lat="44.14404" lon="5.05986">
        <ele>237.3</ele>
        <time>2010-11-14T10:50:54Z</time>
      </trkpt>
      <trkpt lat="44.144" lon="5.05996">
        <ele>237.6</ele>
        <time>2010-11-14T10:51:00Z</time>
      </trkpt>
      <trkpt lat="44.14395" lon="5.06005">
        <ele>237.6</ele>
        <time>2010-11-14T10:51:05Z</time>
      </trkpt>
      <trkpt lat="44.14388" lon="5.06012">
        <ele>237.6</ele>
        <time>2010-11-14T10:51:10Z</time>
      </trkpt>
      <trkpt lat="44.14383" lon="5.06017">
        <ele>237.6</ele>
        <time>2010-11-14T10:51:14Z</time>
      </trkpt>
      <trkpt lat="44.14376" lon="5.06022">
        <ele>238.5</ele>
        <time>2010-11-14T10:51:16Z</time>
      </trkpt>
      <trkpt lat="44.14372" lon="5.06024">
        <ele>239.2</ele>
        <time>2010-11-14T10:51:17Z</time>
      </trkpt>
      <trkpt lat="44.14367" lon="5.06026">
        <ele>240.1</ele>
        <time>2010-11-14T10:51:18Z</time>
      </trkpt>
      <trkpt lat="44.14358" lon="5.06027">
        <ele>241.1</ele>
        <time>2010-11-14T10:51:20Z</time>
      </trkpt>
      <trkpt lat="44.14354" lon="5.06027">
        <ele>241.3</ele>
        <time>2010-11-14T10:51:21Z</time>
      </trkpt>
      <trkpt lat="44.14349" lon="5.06027">
        <ele>241.7</ele>
        <time>2010-11-14T10:51:22Z</time>
      </trkpt>
      <trkpt lat="44.14344" lon="5.06026">
        <ele>242.3</ele>
        <time>2010-11-14T10:51:23Z</time>
      </trkpt>
      <trkpt lat="44.14339" lon="5.06024">
        <ele>243.1</ele>
        <time>2010-11-14T10:51:24Z</time>
      </trkpt>
      <trkpt lat="44.14334" lon="5.06022">
        <ele>243.5</ele>
        <time>2010-11-14T10:51:25Z</time>
      </trkpt>
      <trkpt lat="44.14329" lon="5.0602">
        <ele>244</ele>
        <time>2010-11-14T10:51:26Z</time>
      </trkpt>
      <trkpt lat="44.14323" lon="5.06018">
        <ele>244.3</ele>
        <time>2010-11-14T10:51:27Z</time>
      </trkpt>
      <trkpt lat="44.14317" lon="5.06017">
        <ele>244.9</ele>
        <time>2010-11-14T10:51:28Z</time>
      </trkpt>
      <trkpt lat="44.14311" lon="5.06024">
        <ele>245.5</ele>
        <time>2010-11-14T10:51:30Z</time>
      </trkpt>
      <trkpt lat="44.14314" lon="5.06035">
        <ele>246</ele>
        <time>2010-11-14T10:51:32Z</time>
      </trkpt>
      <trkpt lat="44.14314" lon="5.06042">
        <ele>246.5</ele>
        <time>2010-11-14T10:51:33Z</time>
      </trkpt>
      <trkpt lat="44.14315" lon="5.06051">
        <ele>246.8</ele>
        <time>2010-11-14T10:51:34Z</time>
      </trkpt>
      <trkpt lat="44.14315" lon="5.06059">
        <ele>247</ele>
        <time>2010-11-14T10:51:35Z</time>
      </trkpt>
      <trkpt lat="44.14315" lon="5.06066">
        <ele>247.8</ele>
        <time>2010-11-14T10:51:36Z</time>
      </trkpt>
      <trkpt lat="44.14315" lon="5.06072">
        <ele>248.5</ele>
        <time>2010-11-14T10:51:37Z</time>
      </trkpt>
      <trkpt lat="44.14312" lon="5.06083">
        <ele>249.7</ele>
        <time>2010-11-14T10:51:39Z</time>
      </trkpt>
      <trkpt lat="44.14307" lon="5.0609">
        <ele>250.2</ele>
        <time>2010-11-14T10:51:41Z</time>
      </trkpt>
      <trkpt lat="44.14299" lon="5.06094">
        <ele>250.5</ele>
        <time>2010-11-14T10:51:44Z</time>
      </trkpt>
      <trkpt lat="44.14293" lon="5.06103">
        <ele>250.1</ele>
        <time>2010-11-14T10:51:58Z</time>
      </trkpt>
      <trkpt lat="44.14298" lon="5.06111">
        <ele>250.6</ele>
        <time>2010-11-14T10:52:06Z</time>
      </trkpt>
      <trkpt lat="44.14307" lon="5.06114">
        <ele>251.7</ele>
        <time>2010-11-14T10:52:10Z</time>
      </trkpt>
      <trkpt lat="44.14314" lon="5.06117">
        <ele>252.4</ele>
        <time>2010-11-14T10:52:12Z</time>
      </trkpt>
      <trkpt lat="44.14323" lon="5.06117">
        <ele>253.8</ele>
        <time>2010-11-14T10:52:18Z</time>
      </trkpt>
      <trkpt lat="44.14331" lon="5.06116">
        <ele>255.2</ele>
        <time>2010-11-14T10:52:24Z</time>
      </trkpt>
      <trkpt lat="44.14339" lon="5.06113">
        <ele>256.2</ele>
        <time>2010-11-14T10:52:32Z</time>
      </trkpt>
      <trkpt lat="44.14348" lon="5.06112">
        <ele>256.6</ele>
        <time>2010-11-14T10:52:38Z</time>
      </trkpt>
      <trkpt lat="44.14349" lon="5.06113">
        <ele>256.8</ele>
        <time>2010-11-14T10:52:39Z</time>
      </trkpt>
      <trkpt lat="44.14363" lon="5.06114">
        <ele>258.5</ele>
        <time>2010-11-14T10:52:47Z</time>
      </trkpt>
      <trkpt lat="44.14371" lon="5.06118">
        <ele>258.6</ele>
        <time>2010-11-14T10:52:50Z</time>
      </trkpt>
      <trkpt lat="44.14379" lon="5.06123">
        <ele>259.2</ele>
        <time>2010-11-14T10:52:55Z</time>
      </trkpt>
      <trkpt lat="44.14387" lon="5.06128">
        <ele>259.7</ele>
        <time>2010-11-14T10:53:01Z</time>
      </trkpt>
      <trkpt lat="44.14394" lon="5.06132">
        <ele>260.2</ele>
        <time>2010-11-14T10:53:05Z</time>
      </trkpt>
      <trkpt lat="44.144" lon="5.06136">
        <ele>260.7</ele>
        <time>2010-11-14T10:53:08Z</time>
      </trkpt>
      <trkpt lat="44.14408" lon="5.0614">
        <ele>261.6</ele>
        <time>2010-11-14T10:53:12Z</time>
      </trkpt>
      <trkpt lat="44.14414" lon="5.06149">
        <ele>262.2</ele>
        <time>2010-11-14T10:53:18Z</time>
      </trkpt>
      <trkpt lat="44.14421" lon="5.06156">
        <ele>262.3</ele>
        <time>2010-11-14T10:53:23Z</time>
      </trkpt>
      <trkpt lat="44.14428" lon="5.06162">
        <ele>263.2</ele>
        <time>2010-11-14T10:53:29Z</time>
      </trkpt>
      <trkpt lat="44.14435" lon="5.06169">
        <ele>263.8</ele>
        <time>2010-11-14T10:53:33Z</time>
      </trkpt>
      <trkpt lat="44.14442" lon="5.06177">
        <ele>264.1</ele>
        <time>2010-11-14T10:53:38Z</time>
      </trkpt>
      <trkpt lat="44.14448" lon="5.06182">
        <ele>264.6</ele>
        <time>2010-11-14T10:53:42Z</time>
      </trkpt>
      <trkpt lat="44.14449" lon="5.06184">
        <ele>264.7</ele>
        <time>2010-11-14T10:53:43Z</time>
      </trkpt>
      <trkpt lat="44.14463" lon="5.06193">
        <ele>265.1</ele>
        <time>2010-11-14T10:53:52Z</time>
      </trkpt>
      <trkpt lat="44.14469" lon="5.06201">
        <ele>265.6</ele>
        <time>2010-11-14T10:53:57Z</time>
      </trkpt>
      <trkpt lat="44.14472" lon="5.06213">
        <ele>265.4</ele>
        <time>2010-11-14T10:54:02Z</time>
      </trkpt>
      <trkpt lat="44.14472" lon="5.06225">
        <ele>265.8</ele>
        <time>2010-11-14T10:54:07Z</time>
      </trkpt>
      <trkpt lat="44.1447" lon="5.06235">
        <ele>266</ele>
        <time>2010-11-14T10:54:11Z</time>
      </trkpt>
      <trkpt lat="44.14472" lon="5.06247">
        <ele>266.4</ele>
        <time>2010-11-14T10:54:16Z</time>
      </trkpt>
      <trkpt lat="44.14475" lon="5.06256">
        <ele>266.5</ele>
        <time>2010-11-14T10:54:21Z</time>
      </trkpt>
      <trkpt lat="44.14475" lon="5.06268">
        <ele>267.3</ele>
        <time>2010-11-14T10:54:27Z</time>
      </trkpt>
      <trkpt lat="44.14478" lon="5.06278">
        <ele>268</ele>
        <time>2010-11-14T10:54:33Z</time>
      </trkpt>
      <trkpt lat="44.14482" lon="5.06289">
        <ele>268.7</ele>
        <time>2010-11-14T10:54:38Z</time>
      </trkpt>
      <trkpt lat="44.14481" lon="5.06299">
        <ele>269.5</ele>
        <time>2010-11-14T10:54:42Z</time>
      </trkpt>
      <trkpt lat="44.14479" lon="5.06311">
        <ele>270.2</ele>
        <time>2010-11-14T10:54:47Z</time>
      </trkpt>
      <trkpt lat="44.14479" lon="5.06313">
        <ele>270.3</ele>
        <time>2010-11-14T10:54:48Z</time>
      </trkpt>
      <trkpt lat="44.14477" lon="5.06333">
        <ele>272.3</ele>
        <time>2010-11-14T10:55:01Z</time>
      </trkpt>
      <trkpt lat="44.14482" lon="5.06344">
        <ele>273.5</ele>
        <time>2010-11-14T10:55:06Z</time>
      </trkpt>
      <trkpt lat="44.14489" lon="5.06351">
        <ele>274.1</ele>
        <time>2010-11-14T10:55:10Z</time>
      </trkpt>
      <trkpt lat="44.14496" lon="5.06359">
        <ele>274.5</ele>
        <time>2010-11-14T10:55:14Z</time>
      </trkpt>
      <trkpt lat="44.145" lon="5.06368">
        <ele>275.4</ele>
        <time>2010-11-14T10:55:20Z</time>
      </trkpt>
      <trkpt lat="44.14505" lon="5.06378">
        <ele>276.4</ele>
        <time>2010-11-14T10:55:26Z</time>
      </trkpt>
      <trkpt lat="44.14511" lon="5.06385">
        <ele>276.5</ele>
        <time>2010-11-14T10:55:30Z</time>
      </trkpt>
      <trkpt lat="44.14516" lon="5.06392">
        <ele>276.8</ele>
        <time>2010-11-14T10:55:34Z</time>
      </trkpt>
      <trkpt lat="44.14523" lon="5.06401">
        <ele>277</ele>
        <time>2010-11-14T10:55:39Z</time>
      </trkpt>
      <trkpt lat="44.14529" lon="5.06409">
        <ele>276.9</ele>
        <time>2010-11-14T10:55:44Z</time>
      </trkpt>
      <trkpt lat="44.14534" lon="5.06418">
        <ele>277.1</ele>
        <time>2010-11-14T10:55:49Z</time>
      </trkpt>
      <trkpt lat="44.14535" lon="5.0642">
        <ele>276.9</ele>
        <time>2010-11-14T10:55:50Z</time>
      </trkpt>
      <trkpt lat="44.1452" lon="5.06411">
        <ele>279</ele>
        <time>2010-11-14T10:56:10Z</time>
      </trkpt>
      <trkpt lat="44.14514" lon="5.06402">
        <ele>279.1</ele>
        <time>2010-11-14T10:56:16Z</time>
      </trkpt>
      <trkpt lat="44.14508" lon="5.06394">
        <ele>279</ele>
        <time>2010-11-14T10:56:21Z</time>
      </trkpt>
      <trkpt lat="44.14501" lon="5.06386">
        <ele>279.7</ele>
        <time>2010-11-14T10:56:26Z</time>
      </trkpt>
      <trkpt lat="44.14495" lon="5.06379">
        <ele>280.3</ele>
        <time>2010-11-14T10:56:30Z</time>
      </trkpt>
      <trkpt lat="44.14489" lon="5.06373">
        <ele>281.4</ele>
        <time>2010-11-14T10:56:34Z</time>
      </trkpt>
      <trkpt lat="44.14485" lon="5.06365">
        <ele>282.3</ele>
        <time>2010-11-14T10:56:37Z</time>
      </trkpt>
      <trkpt lat="44.14478" lon="5.06358">
        <ele>282.7</ele>
        <time>2010-11-14T10:56:42Z</time>
      </trkpt>
      <trkpt lat="44.14471" lon="5.06351">
        <ele>283.4</ele>
        <time>2010-11-14T10:56:47Z</time>
      </trkpt>
      <trkpt lat="44.14464" lon="5.06344">
        <ele>283.8</ele>
        <time>2010-11-14T10:56:53Z</time>
      </trkpt>
      <trkpt lat="44.14464" lon="5.06343">
        <ele>284</ele>
        <time>2010-11-14T10:56:54Z</time>
      </trkpt>
      <trkpt lat="44.14453" lon="5.06328">
        <ele>285</ele>
        <time>2010-11-14T10:57:04Z</time>
      </trkpt>
      <trkpt lat="44.14447" lon="5.0632">
        <ele>286.2</ele>
        <time>2010-11-14T10:57:11Z</time>
      </trkpt>
      <trkpt lat="44.14441" lon="5.0631">
        <ele>287</ele>
        <time>2010-11-14T10:57:16Z</time>
      </trkpt>
      <trkpt lat="44.14438" lon="5.063">
        <ele>287.8</ele>
        <time>2010-11-14T10:57:21Z</time>
      </trkpt>
      <trkpt lat="44.14433" lon="5.0629">
        <ele>288.9</ele>
        <time>2010-11-14T10:57:27Z</time>
      </trkpt>
      <trkpt lat="44.14427" lon="5.06282">
        <ele>289.4</ele>
        <time>2010-11-14T10:57:34Z</time>
      </trkpt>
      <trkpt lat="44.14421" lon="5.06274">
        <ele>289.4</ele>
        <time>2010-11-14T10:57:41Z</time>
      </trkpt>
      <trkpt lat="44.14416" lon="5.06264">
        <ele>289.1</ele>
        <time>2010-11-14T10:57:48Z</time>
      </trkpt>
      <trkpt lat="44.14412" lon="5.06253">
        <ele>289.5</ele>
        <time>2010-11-14T10:57:54Z</time>
      </trkpt>
      <trkpt lat="44.14411" lon="5.06252">
        <ele>289.5</ele>
        <time>2010-11-14T10:57:55Z</time>
      </trkpt>
      <trkpt lat="44.14402" lon="5.06236">
        <ele>290.5</ele>
        <time>2010-11-14T10:58:05Z</time>
      </trkpt>
      <trkpt lat="44.14396" lon="5.06229">
        <ele>291.7</ele>
        <time>2010-11-14T10:58:10Z</time>
      </trkpt>
      <trkpt lat="44.1439" lon="5.0622">
        <ele>292.5</ele>
        <time>2010-11-14T10:58:16Z</time>
      </trkpt>
      <trkpt lat="44.14383" lon="5.06214">
        <ele>292.9</ele>
        <time>2010-11-14T10:58:21Z</time>
      </trkpt>
      <trkpt lat="44.14376" lon="5.06206">
        <ele>293.4</ele>
        <time>2010-11-14T10:58:26Z</time>
      </trkpt>
      <trkpt lat="44.14367" lon="5.06203">
        <ele>293.9</ele>
        <time>2010-11-14T10:58:33Z</time>
      </trkpt>
      <trkpt lat="44.14359" lon="5.06208">
        <ele>293.7</ele>
        <time>2010-11-14T10:58:39Z</time>
      </trkpt>
      <trkpt lat="44.14352" lon="5.0621">
        <ele>295.1</ele>
        <time>2010-11-14T10:58:44Z</time>
      </trkpt>
      <trkpt lat="44.14344" lon="5.06212">
        <ele>297.2</ele>
        <time>2010-11-14T10:58:48Z</time>
      </trkpt>
      <trkpt lat="44.14336" lon="5.06217">
        <ele>298.2</ele>
        <time>2010-11-14T10:58:54Z</time>
      </trkpt>
      <trkpt lat="44.14329" lon="5.0622">
        <ele>298.8</ele>
        <time>2010-11-14T10:58:58Z</time>
      </trkpt>
      <trkpt lat="44.14327" lon="5.06221">
        <ele>299</ele>
        <time>2010-11-14T10:58:59Z</time>
      </trkpt>
      <trkpt lat="44.14315" lon="5.06221">
        <ele>300</ele>
        <time>2010-11-14T10:59:04Z</time>
      </trkpt>
      <trkpt lat="44.14307" lon="5.06223">
        <ele>300.7</ele>
        <time>2010-11-14T10:59:09Z</time>
      </trkpt>
      <trkpt lat="44.14299" lon="5.06228">
        <ele>301</ele>
        <time>2010-11-14T10:59:15Z</time>
      </trkpt>
      <trkpt lat="44.14292" lon="5.06233">
        <ele>301.3</ele>
        <time>2010-11-14T10:59:22Z</time>
      </trkpt>
      <trkpt lat="44.14285" lon="5.0624">
        <ele>301.9</ele>
        <time>2010-11-14T10:59:27Z</time>
      </trkpt>
      <trkpt lat="44.14279" lon="5.06247">
        <ele>302.6</ele>
        <time>2010-11-14T10:59:32Z</time>
      </trkpt>
      <trkpt lat="44.14277" lon="5.06258">
        <ele>302.6</ele>
        <time>2010-11-14T10:59:38Z</time>
      </trkpt>
      <trkpt lat="44.14275" lon="5.06269">
        <ele>303.2</ele>
        <time>2010-11-14T10:59:43Z</time>
      </trkpt>
      <trkpt lat="44.14272" lon="5.0628">
        <ele>304.2</ele>
        <time>2010-11-14T10:59:48Z</time>
      </trkpt>
      <trkpt lat="44.14269" lon="5.06291">
        <ele>304.6</ele>
        <time>2010-11-14T10:59:54Z</time>
      </trkpt>
      <trkpt lat="44.14264" lon="5.06301">
        <ele>304.5</ele>
        <time>2010-11-14T10:59:59Z</time>
      </trkpt>
      <trkpt lat="44.14263" lon="5.06303">
        <ele>304.6</ele>
        <time>2010-11-14T11:00:00Z</time>
      </trkpt>
      <trkpt lat="44.1425" lon="5.06309">
        <ele>306.3</ele>
        <time>2010-11-14T11:00:10Z</time>
      </trkpt>
      <trkpt lat="44.14242" lon="5.06307">
        <ele>306.5</ele>
        <time>2010-11-14T11:00:15Z</time>
      </trkpt>
      <trkpt lat="44.14234" lon="5.06303">
        <ele>306.2</ele>
        <time>2010-11-14T11:00:21Z</time>
      </trkpt>
      <trkpt lat="44.14227" lon="5.063">
        <ele>306.4</ele>
        <time>2010-11-14T11:00:25Z</time>
      </trkpt>
      <trkpt lat="44.1422" lon="5.06295">
        <ele>307.6</ele>
        <time>2010-11-14T11:00:32Z</time>
      </trkpt>
      <trkpt lat="44.14214" lon="5.06291">
        <ele>307.9</ele>
        <time>2010-11-14T11:00:36Z</time>
      </trkpt>
      <trkpt lat="44.14207" lon="5.06287">
        <ele>308.4</ele>
        <time>2010-11-14T11:00:39Z</time>
      </trkpt>
      <trkpt lat="44.142" lon="5.06283">
        <ele>308.9</ele>
        <time>2010-11-14T11:00:43Z</time>
      </trkpt>
      <trkpt lat="44.14193" lon="5.06278">
        <ele>309.5</ele>
        <time>2010-11-14T11:00:48Z</time>
      </trkpt>
      <trkpt lat="44.14185" lon="5.06274">
        <ele>309.9</ele>
        <time>2010-11-14T11:00:53Z</time>
      </trkpt>
      <trkpt lat="44.14178" lon="5.06266">
        <ele>310.2</ele>
        <time>2010-11-14T11:00:59Z</time>
      </trkpt>
      <trkpt lat="44.14173" lon="5.06256">
        <ele>310.5</ele>
        <time>2010-11-14T11:01:04Z</time>
      </trkpt>
      <trkpt lat="44.14172" lon="5.06254">
        <ele>310.8</ele>
        <time>2010-11-14T11:01:05Z</time>
      </trkpt>
      <trkpt lat="44.14166" lon="5.06238">
        <ele>311.9</ele>
        <time>2010-11-14T11:01:14Z</time>
      </trkpt>
      <trkpt lat="44.14161" lon="5.06227">
        <ele>313</ele>
        <time>2010-11-14T11:01:20Z</time>
      </trkpt>
      <trkpt lat="44.14159" lon="5.06216">
        <ele>312.8</ele>
        <time>2010-11-14T11:01:24Z</time>
      </trkpt>
      <trkpt lat="44.14154" lon="5.06206">
        <ele>313.2</ele>
        <time>2010-11-14T11:01:28Z</time>
      </trkpt>
      <trkpt lat="44.1415" lon="5.06195">
        <ele>313.8</ele>
        <time>2010-11-14T11:01:32Z</time>
      </trkpt>
      <trkpt lat="44.1415" lon="5.06184">
        <ele>315</ele>
        <time>2010-11-14T11:01:37Z</time>
      </trkpt>
      <trkpt lat="44.14155" lon="5.06175">
        <ele>316.8</ele>
        <time>2010-11-14T11:01:42Z</time>
      </trkpt>
      <trkpt lat="44.14162" lon="5.06171">
        <ele>317.7</ele>
        <time>2010-11-14T11:01:45Z</time>
      </trkpt>
      <trkpt lat="44.14169" lon="5.06164">
        <ele>317.4</ele>
        <time>2010-11-14T11:01:49Z</time>
      </trkpt>
      <trkpt lat="44.14167" lon="5.06153">
        <ele>316.9</ele>
        <time>2010-11-14T11:01:55Z</time>
      </trkpt>
      <trkpt lat="44.14159" lon="5.06149">
        <ele>316.3</ele>
        <time>2010-11-14T11:02:01Z</time>
      </trkpt>
      <trkpt lat="44.14151" lon="5.06146">
        <ele>315.3</ele>
        <time>2010-11-14T11:02:07Z</time>
      </trkpt>
      <trkpt lat="44.1415" lon="5.06146">
        <ele>314.8</ele>
        <time>2010-11-14T11:02:08Z</time>
      </trkpt>
      <trkpt lat="44.14139" lon="5.06134">
        <ele>312.5</ele>
        <time>2010-11-14T11:02:16Z</time>
      </trkpt>
      <trkpt lat="44.14133" lon="5.06128">
        <ele>312.3</ele>
        <time>2010-11-14T11:02:19Z</time>
      </trkpt>
      <trkpt lat="44.14127" lon="5.0612">
        <ele>312</ele>
        <time>2010-11-14T11:02:23Z</time>
      </trkpt>
      <trkpt lat="44.14123" lon="5.0611">
        <ele>312.3</ele>
        <time>2010-11-14T11:02:28Z</time>
      </trkpt>
      <trkpt lat="44.14123" lon="5.06099">
        <ele>312.5</ele>
        <time>2010-11-14T11:02:53Z</time>
      </trkpt>
      <trkpt lat="44.14118" lon="5.0609">
        <ele>313.1</ele>
        <time>2010-11-14T11:02:59Z</time>
      </trkpt>
      <trkpt lat="44.14113" lon="5.0608">
        <ele>314.1</ele>
        <time>2010-11-14T11:03:06Z</time>
      </trkpt>
      <trkpt lat="44.14107" lon="5.06071">
        <ele>314.1</ele>
        <time>2010-11-14T11:03:11Z</time>
      </trkpt>
      <trkpt lat="44.14107" lon="5.0607">
        <ele>314.5</ele>
        <time>2010-11-14T11:03:12Z</time>
      </trkpt>
      <trkpt lat="44.14095" lon="5.06059">
        <ele>316.1</ele>
        <time>2010-11-14T11:03:18Z</time>
      </trkpt>
      <trkpt lat="44.14089" lon="5.06052">
        <ele>317.6</ele>
        <time>2010-11-14T11:03:23Z</time>
      </trkpt>
      <trkpt lat="44.14082" lon="5.06044">
        <ele>318.7</ele>
        <time>2010-11-14T11:03:28Z</time>
      </trkpt>
      <trkpt lat="44.14075" lon="5.06039">
        <ele>320.1</ele>
        <time>2010-11-14T11:03:33Z</time>
      </trkpt>
      <trkpt lat="44.14069" lon="5.06033">
        <ele>321.5</ele>
        <time>2010-11-14T11:03:40Z</time>
      </trkpt>
      <trkpt lat="44.14063" lon="5.06027">
        <ele>322.5</ele>
        <time>2010-11-14T11:03:44Z</time>
      </trkpt>
      <trkpt lat="44.14056" lon="5.06021">
        <ele>323.9</ele>
        <time>2010-11-14T11:03:48Z</time>
      </trkpt>
      <trkpt lat="44.14053" lon="5.0601">
        <ele>325.6</ele>
        <time>2010-11-14T11:03:53Z</time>
      </trkpt>
      <trkpt lat="44.14048" lon="5.06">
        <ele>326.6</ele>
        <time>2010-11-14T11:03:57Z</time>
      </trkpt>
      <trkpt lat="44.14042" lon="5.05993">
        <ele>328.2</ele>
        <time>2010-11-14T11:04:02Z</time>
      </trkpt>
      <trkpt lat="44.14036" lon="5.05986">
        <ele>329.1</ele>
        <time>2010-11-14T11:04:06Z</time>
      </trkpt>
      <trkpt lat="44.14031" lon="5.05977">
        <ele>331.1</ele>
        <time>2010-11-14T11:04:13Z</time>
      </trkpt>
      <trkpt lat="44.14029" lon="5.05976">
        <ele>331.8</ele>
        <time>2010-11-14T11:04:14Z</time>
      </trkpt>
      <trkpt lat="44.14017" lon="5.05966">
        <ele>333.8</ele>
        <time>2010-11-14T11:04:21Z</time>
      </trkpt>
      <trkpt lat="44.14009" lon="5.05961">
        <ele>334.3</ele>
        <time>2010-11-14T11:04:25Z</time>
      </trkpt>
      <trkpt lat="44.14002" lon="5.05956">
        <ele>334.6</ele>
        <time>2010-11-14T11:04:29Z</time>
      </trkpt>
      <trkpt lat="44.13995" lon="5.05952">
        <ele>335</ele>
        <time>2010-11-14T11:04:33Z</time>
      </trkpt>
      <trkpt lat="44.13986" lon="5.05947">
        <ele>335.1</ele>
        <time>2010-11-14T11:04:37Z</time>
      </trkpt>
      <trkpt lat="44.1398" lon="5.05942">
        <ele>335.1</ele>
        <time>2010-11-14T11:04:42Z</time>
      </trkpt>
      <trkpt lat="44.13975" lon="5.05932">
        <ele>334.7</ele>
        <time>2010-11-14T11:04:45Z</time>
      </trkpt>
      <trkpt lat="44.13974" lon="5.0592">
        <ele>335.3</ele>
        <time>2010-11-14T11:04:51Z</time>
      </trkpt>
      <trkpt lat="44.13977" lon="5.0591">
        <ele>336.2</ele>
        <time>2010-11-14T11:04:57Z</time>
      </trkpt>
      <trkpt lat="44.13983" lon="5.05903">
        <ele>336.5</ele>
        <time>2010-11-14T11:05:01Z</time>
      </trkpt>
      <trkpt lat="44.13986" lon="5.05892">
        <ele>338.2</ele>
        <time>2010-11-14T11:05:07Z</time>
      </trkpt>
      <trkpt lat="44.1399" lon="5.05881">
        <ele>339.3</ele>
        <time>2010-11-14T11:05:12Z</time>
      </trkpt>
      <trkpt lat="44.13991" lon="5.0587">
        <ele>339.1</ele>
        <time>2010-11-14T11:05:18Z</time>
      </trkpt>
      <trkpt lat="44.13991" lon="5.05868">
        <ele>339.4</ele>
        <time>2010-11-14T11:05:19Z</time>
      </trkpt>
      <trkpt lat="44.13992" lon="5.05849">
        <ele>341.7</ele>
        <time>2010-11-14T11:05:28Z</time>
      </trkpt>
      <trkpt lat="44.13997" lon="5.05839">
        <ele>342.9</ele>
        <time>2010-11-14T11:05:33Z</time>
      </trkpt>
      <trkpt lat="44.14" lon="5.0583">
        <ele>343.4</ele>
        <time>2010-11-14T11:05:37Z</time>
      </trkpt>
      <trkpt lat="44.14004" lon="5.0582">
        <ele>343.8</ele>
        <time>2010-11-14T11:05:42Z</time>
      </trkpt>
      <trkpt lat="44.1401" lon="5.05814">
        <ele>344.9</ele>
        <time>2010-11-14T11:05:47Z</time>
      </trkpt>
      <trkpt lat="44.14017" lon="5.05812">
        <ele>345.2</ele>
        <time>2010-11-14T11:05:50Z</time>
      </trkpt>
      <trkpt lat="44.14023" lon="5.05806">
        <ele>346.3</ele>
        <time>2010-11-14T11:05:54Z</time>
      </trkpt>
      <trkpt lat="44.14032" lon="5.05804">
        <ele>348.3</ele>
        <time>2010-11-14T11:05:58Z</time>
      </trkpt>
      <trkpt lat="44.14039" lon="5.05798">
        <ele>349.6</ele>
        <time>2010-11-14T11:06:03Z</time>
      </trkpt>
      <trkpt lat="44.14044" lon="5.05789">
        <ele>351.2</ele>
        <time>2010-11-14T11:06:11Z</time>
      </trkpt>
      <trkpt lat="44.1405" lon="5.05781">
        <ele>352.8</ele>
        <time>2010-11-14T11:06:16Z</time>
      </trkpt>
      <trkpt lat="44.14054" lon="5.05771">
        <ele>354.2</ele>
        <time>2010-11-14T11:06:21Z</time>
      </trkpt>
      <trkpt lat="44.14054" lon="5.05769">
        <ele>354.4</ele>
        <time>2010-11-14T11:06:22Z</time>
      </trkpt>
      <trkpt lat="44.14051" lon="5.0575">
        <ele>355.1</ele>
        <time>2010-11-14T11:06:31Z</time>
      </trkpt>
      <trkpt lat="44.14047" lon="5.0574">
        <ele>355.3</ele>
        <time>2010-11-14T11:06:36Z</time>
      </trkpt>
      <trkpt lat="44.14043" lon="5.05731">
        <ele>354.9</ele>
        <time>2010-11-14T11:06:42Z</time>
      </trkpt>
      <trkpt lat="44.14038" lon="5.05722">
        <ele>354.6</ele>
        <time>2010-11-14T11:06:47Z</time>
      </trkpt>
      <trkpt lat="44.14034" lon="5.05714">
        <ele>354</ele>
        <time>2010-11-14T11:06:51Z</time>
      </trkpt>
      <trkpt lat="44.14028" lon="5.05705">
        <ele>353</ele>
        <time>2010-11-14T11:07:00Z</time>
      </trkpt>
      <trkpt lat="44.14022" lon="5.05698">
        <ele>352.5</ele>
        <time>2010-11-14T11:07:06Z</time>
      </trkpt>
      <trkpt lat="44.14016" lon="5.05692">
        <ele>352.2</ele>
        <time>2010-11-14T11:07:10Z</time>
      </trkpt>
      <trkpt lat="44.14008" lon="5.05684">
        <ele>351.5</ele>
        <time>2010-11-14T11:07:15Z</time>
      </trkpt>
      <trkpt lat="44.14001" lon="5.05677">
        <ele>351.7</ele>
        <time>2010-11-14T11:07:21Z</time>
      </trkpt>
      <trkpt lat="44.13994" lon="5.05674">
        <ele>352</ele>
        <time>2010-11-14T11:07:26Z</time>
      </trkpt>
      <trkpt lat="44.13993" lon="5.05673">
        <ele>352</ele>
        <time>2010-11-14T11:07:27Z</time>
      </trkpt>
      <trkpt lat="44.13979" lon="5.05666">
        <ele>351.9</ele>
        <time>2010-11-14T11:07:36Z</time>
      </trkpt>
      <trkpt lat="44.13971" lon="5.05662">
        <ele>352.5</ele>
        <time>2010-11-14T11:07:42Z</time>
      </trkpt>
      <trkpt lat="44.13963" lon="5.05658">
        <ele>353.1</ele>
        <time>2010-11-14T11:07:46Z</time>
      </trkpt>
      <trkpt lat="44.13957" lon="5.05654">
        <ele>353.8</ele>
        <time>2010-11-14T11:07:50Z</time>
      </trkpt>
      <trkpt lat="44.13948" lon="5.05651">
        <ele>354.4</ele>
        <time>2010-11-14T11:07:54Z</time>
      </trkpt>
      <trkpt lat="44.1394" lon="5.05648">
        <ele>355</ele>
        <time>2010-11-14T11:07:59Z</time>
      </trkpt>
      <trkpt lat="44.13932" lon="5.05643">
        <ele>355.3</ele>
        <time>2010-11-14T11:08:06Z</time>
      </trkpt>
      <trkpt lat="44.13924" lon="5.0564">
        <ele>353.8</ele>
        <time>2010-11-14T11:08:12Z</time>
      </trkpt>
      <trkpt lat="44.13917" lon="5.05639">
        <ele>353.7</ele>
        <time>2010-11-14T11:08:17Z</time>
      </trkpt>
      <trkpt lat="44.13908" lon="5.05636">
        <ele>354.2</ele>
        <time>2010-11-14T11:08:23Z</time>
      </trkpt>
      <trkpt lat="44.13901" lon="5.05633">
        <ele>354.7</ele>
        <time>2010-11-14T11:08:27Z</time>
      </trkpt>
      <trkpt lat="44.139" lon="5.05632">
        <ele>354.8</ele>
        <time>2010-11-14T11:08:28Z</time>
      </trkpt>
      <trkpt lat="44.13885" lon="5.05629">
        <ele>354.1</ele>
        <time>2010-11-14T11:08:36Z</time>
      </trkpt>
      <trkpt lat="44.13877" lon="5.05628">
        <ele>354.3</ele>
        <time>2010-11-14T11:08:42Z</time>
      </trkpt>
      <trkpt lat="44.13869" lon="5.05622">
        <ele>353.1</ele>
        <time>2010-11-14T11:08:50Z</time>
      </trkpt>
      <trkpt lat="44.13864" lon="5.05614">
        <ele>352</ele>
        <time>2010-11-14T11:08:55Z</time>
      </trkpt>
      <trkpt lat="44.13857" lon="5.05608">
        <ele>351.4</ele>
        <time>2010-11-14T11:09:01Z</time>
      </trkpt>
      <trkpt lat="44.1385" lon="5.05603">
        <ele>351.6</ele>
        <time>2010-11-14T11:09:06Z</time>
      </trkpt>
      <trkpt lat="44.13843" lon="5.05598">
        <ele>351</ele>
        <time>2010-11-14T11:09:11Z</time>
      </trkpt>
      <trkpt lat="44.13835" lon="5.05593">
        <ele>351.3</ele>
        <time>2010-11-14T11:09:16Z</time>
      </trkpt>
      <trkpt lat="44.13828" lon="5.05588">
        <ele>352.1</ele>
        <time>2010-11-14T11:09:21Z</time>
      </trkpt>
      <trkpt lat="44.13822" lon="5.05583">
        <ele>353.6</ele>
        <time>2010-11-14T11:09:25Z</time>
      </trkpt>
      <trkpt lat="44.13815" lon="5.05576">
        <ele>353.7</ele>
        <time>2010-11-14T11:09:29Z</time>
      </trkpt>
      <trkpt lat="44.13814" lon="5.05575">
        <ele>353.6</ele>
        <time>2010-11-14T11:09:30Z</time>
      </trkpt>
      <trkpt lat="44.138" lon="5.05568">
        <ele>353.9</ele>
        <time>2010-11-14T11:09:38Z</time>
      </trkpt>
      <trkpt lat="44.13792" lon="5.05568">
        <ele>355</ele>
        <time>2010-11-14T11:09:44Z</time>
      </trkpt>
      <trkpt lat="44.13784" lon="5.05567">
        <ele>354.5</ele>
        <time>2010-11-14T11:09:49Z</time>
      </trkpt>
      <trkpt lat="44.13776" lon="5.05564">
        <ele>353.4</ele>
        <time>2010-11-14T11:09:53Z</time>
      </trkpt>
      <trkpt lat="44.13768" lon="5.05564">
        <ele>351.7</ele>
        <time>2010-11-14T11:09:58Z</time>
      </trkpt>
      <trkpt lat="44.1376" lon="5.05562">
        <ele>350.1</ele>
        <time>2010-11-14T11:10:02Z</time>
      </trkpt>
      <trkpt lat="44.13752" lon="5.05561">
        <ele>348.9</ele>
        <time>2010-11-14T11:10:06Z</time>
      </trkpt>
      <trkpt lat="44.13744" lon="5.05561">
        <ele>348.2</ele>
        <time>2010-11-14T11:10:11Z</time>
      </trkpt>
      <trkpt lat="44.13735" lon="5.05561">
        <ele>346.7</ele>
        <time>2010-11-14T11:10:17Z</time>
      </trkpt>
      <trkpt lat="44.13727" lon="5.05561">
        <ele>345.3</ele>
        <time>2010-11-14T11:10:22Z</time>
      </trkpt>
      <trkpt lat="44.13719" lon="5.05565">
        <ele>344.6</ele>
        <time>2010-11-14T11:10:28Z</time>
      </trkpt>
      <trkpt lat="44.13711" lon="5.05568">
        <ele>343.3</ele>
        <time>2010-11-14T11:10:34Z</time>
      </trkpt>
      <trkpt lat="44.13709" lon="5.05569">
        <ele>342.9</ele>
        <time>2010-11-14T11:10:35Z</time>
      </trkpt>
      <trkpt lat="44.13696" lon="5.05578">
        <ele>339.9</ele>
        <time>2010-11-14T11:10:44Z</time>
      </trkpt>
      <trkpt lat="44.13689" lon="5.05583">
        <ele>338.4</ele>
        <time>2010-11-14T11:10:49Z</time>
      </trkpt>
      <trkpt lat="44.13682" lon="5.05586">
        <ele>336.3</ele>
        <time>2010-11-14T11:10:56Z</time>
      </trkpt>
      <trkpt lat="44.13673" lon="5.05585">
        <ele>333.2</ele>
        <time>2010-11-14T11:11:04Z</time>
      </trkpt>
      <trkpt lat="44.13665" lon="5.05583">
        <ele>332</ele>
        <time>2010-11-14T11:11:08Z</time>
      </trkpt>
      <trkpt lat="44.13657" lon="5.05583">
        <ele>330.2</ele>
        <time>2010-11-14T11:11:14Z</time>
      </trkpt>
      <trkpt lat="44.1365" lon="5.05583">
        <ele>329.9</ele>
        <time>2010-11-14T11:11:18Z</time>
      </trkpt>
      <trkpt lat="44.13643" lon="5.05584">
        <ele>328.4</ele>
        <time>2010-11-14T11:11:21Z</time>
      </trkpt>
      <trkpt lat="44.13635" lon="5.05586">
        <ele>327.5</ele>
        <time>2010-11-14T11:11:24Z</time>
      </trkpt>
      <trkpt lat="44.13626" lon="5.05589">
        <ele>326.7</ele>
        <time>2010-11-14T11:11:29Z</time>
      </trkpt>
      <trkpt lat="44.1362" lon="5.05595">
        <ele>324.4</ele>
        <time>2010-11-14T11:11:37Z</time>
      </trkpt>
      <trkpt lat="44.13618" lon="5.05595">
        <ele>324.3</ele>
        <time>2010-11-14T11:11:38Z</time>
      </trkpt>
      <trkpt lat="44.13603" lon="5.05599">
        <ele>321.3</ele>
        <time>2010-11-14T11:11:48Z</time>
      </trkpt>
      <trkpt lat="44.13595" lon="5.05603">
        <ele>320.3</ele>
        <time>2010-11-14T11:11:53Z</time>
      </trkpt>
      <trkpt lat="44.13587" lon="5.05604">
        <ele>320</ele>
        <time>2010-11-14T11:11:58Z</time>
      </trkpt>
      <trkpt lat="44.13579" lon="5.05605">
        <ele>319</ele>
        <time>2010-11-14T11:12:03Z</time>
      </trkpt>
      <trkpt lat="44.13572" lon="5.05607">
        <ele>317.8</ele>
        <time>2010-11-14T11:12:07Z</time>
      </trkpt>
      <trkpt lat="44.13563" lon="5.05607">
        <ele>317</ele>
        <time>2010-11-14T11:12:11Z</time>
      </trkpt>
      <trkpt lat="44.13556" lon="5.05609">
        <ele>315.2</ele>
        <time>2010-11-14T11:12:15Z</time>
      </trkpt>
      <trkpt lat="44.13548" lon="5.05611">
        <ele>314</ele>
        <time>2010-11-14T11:12:20Z</time>
      </trkpt>
      <trkpt lat="44.13539" lon="5.05613">
        <ele>313.5</ele>
        <time>2010-11-14T11:12:26Z</time>
      </trkpt>
      <trkpt lat="44.13531" lon="5.05613">
        <ele>311.1</ele>
        <time>2010-11-14T11:12:31Z</time>
      </trkpt>
      <trkpt lat="44.13523" lon="5.05615">
        <ele>309.6</ele>
        <time>2010-11-14T11:12:36Z</time>
      </trkpt>
      <trkpt lat="44.13516" lon="5.05618">
        <ele>308.7</ele>
        <time>2010-11-14T11:12:41Z</time>
      </trkpt>
      <trkpt lat="44.13514" lon="5.05618">
        <ele>308.1</ele>
        <time>2010-11-14T11:12:42Z</time>
      </trkpt>
      <trkpt lat="44.135" lon="5.05621">
        <ele>308.2</ele>
        <time>2010-11-14T11:12:51Z</time>
      </trkpt>
      <trkpt lat="44.13492" lon="5.05621">
        <ele>306.4</ele>
        <time>2010-11-14T11:12:56Z</time>
      </trkpt>
      <trkpt lat="44.13484" lon="5.0562">
        <ele>305.7</ele>
        <time>2010-11-14T11:13:01Z</time>
      </trkpt>
      <trkpt lat="44.13477" lon="5.05617">
        <ele>306.3</ele>
        <time>2010-11-14T11:13:05Z</time>
      </trkpt>
      <trkpt lat="44.13469" lon="5.05614">
        <ele>305.6</ele>
        <time>2010-11-14T11:13:10Z</time>
      </trkpt>
      <trkpt lat="44.13462" lon="5.05612">
        <ele>305.5</ele>
        <time>2010-11-14T11:13:14Z</time>
      </trkpt>
      <trkpt lat="44.13453" lon="5.05612">
        <ele>304.7</ele>
        <time>2010-11-14T11:13:18Z</time>
      </trkpt>
      <trkpt lat="44.13445" lon="5.05614">
        <ele>303.3</ele>
        <time>2010-11-14T11:13:22Z</time>
      </trkpt>
      <trkpt lat="44.13438" lon="5.05615">
        <ele>303</ele>
        <time>2010-11-14T11:13:26Z</time>
      </trkpt>
      <trkpt lat="44.13429" lon="5.05617">
        <ele>301.5</ele>
        <time>2010-11-14T11:13:31Z</time>
      </trkpt>
      <trkpt lat="44.13421" lon="5.05619">
        <ele>300.8</ele>
        <time>2010-11-14T11:13:36Z</time>
      </trkpt>
      <trkpt lat="44.13413" lon="5.05621">
        <ele>300.2</ele>
        <time>2010-11-14T11:13:41Z</time>
      </trkpt>
      <trkpt lat="44.13405" lon="5.05623">
        <ele>299.8</ele>
        <time>2010-11-14T11:13:46Z</time>
      </trkpt>
      <trkpt lat="44.13404" lon="5.05623">
        <ele>299.7</ele>
        <time>2010-11-14T11:13:47Z</time>
      </trkpt>
      <trkpt lat="44.13398" lon="5.0564">
        <ele>298.7</ele>
        <time>2010-11-14T11:13:55Z</time>
      </trkpt>
      <trkpt lat="44.13397" lon="5.05652">
        <ele>300.2</ele>
        <time>2010-11-14T11:15:13Z</time>
      </trkpt>
      <trkpt lat="44.13396" lon="5.05653">
        <ele>300.1</ele>
        <time>2010-11-14T11:15:14Z</time>
      </trkpt>
      <trkpt lat="44.13406" lon="5.05673">
        <ele>300.4</ele>
        <time>2010-11-14T11:15:29Z</time>
      </trkpt>
      <trkpt lat="44.13403" lon="5.05684">
        <ele>300.1</ele>
        <time>2010-11-14T11:15:34Z</time>
      </trkpt>
      <trkpt lat="44.134" lon="5.05694">
        <ele>300.3</ele>
        <time>2010-11-14T11:15:38Z</time>
      </trkpt>
      <trkpt lat="44.13397" lon="5.05705">
        <ele>299.6</ele>
        <time>2010-11-14T11:15:42Z</time>
      </trkpt>
      <trkpt lat="44.13394" lon="5.05716">
        <ele>299.4</ele>
        <time>2010-11-14T11:15:47Z</time>
      </trkpt>
      <trkpt lat="44.13392" lon="5.05728">
        <ele>299.2</ele>
        <time>2010-11-14T11:15:51Z</time>
      </trkpt>
      <trkpt lat="44.13393" lon="5.0574">
        <ele>299.6</ele>
        <time>2010-11-14T11:15:55Z</time>
      </trkpt>
      <trkpt lat="44.13393" lon="5.05749">
        <ele>299.2</ele>
        <time>2010-11-14T11:15:58Z</time>
      </trkpt>
      <trkpt lat="44.13394" lon="5.0576">
        <ele>298.4</ele>
        <time>2010-11-14T11:16:01Z</time>
      </trkpt>
      <trkpt lat="44.13395" lon="5.0577">
        <ele>298.5</ele>
        <time>2010-11-14T11:16:04Z</time>
      </trkpt>
      <trkpt lat="44.13397" lon="5.05781">
        <ele>297.8</ele>
        <time>2010-11-14T11:16:08Z</time>
      </trkpt>
      <trkpt lat="44.13399" lon="5.05791">
        <ele>297.5</ele>
        <time>2010-11-14T11:16:11Z</time>
      </trkpt>
      <trkpt lat="44.13401" lon="5.05798">
        <ele>297.1</ele>
        <time>2010-11-14T11:16:13Z</time>
      </trkpt>
      <trkpt lat="44.13405" lon="5.05807">
        <ele>296.6</ele>
        <time>2010-11-14T11:16:15Z</time>
      </trkpt>
      <trkpt lat="44.13406" lon="5.05811">
        <ele>295.6</ele>
        <time>2010-11-14T11:16:16Z</time>
      </trkpt>
      <trkpt lat="44.13409" lon="5.05824">
        <ele>295.2</ele>
        <time>2010-11-14T11:16:19Z</time>
      </trkpt>
      <trkpt lat="44.1341" lon="5.05834">
        <ele>294.4</ele>
        <time>2010-11-14T11:16:21Z</time>
      </trkpt>
      <trkpt lat="44.13409" lon="5.05843">
        <ele>293.5</ele>
        <time>2010-11-14T11:16:23Z</time>
      </trkpt>
      <trkpt lat="44.13408" lon="5.05855">
        <ele>293.4</ele>
        <time>2010-11-14T11:16:26Z</time>
      </trkpt>
      <trkpt lat="44.13406" lon="5.05867">
        <ele>293.6</ele>
        <time>2010-11-14T11:16:29Z</time>
      </trkpt>
      <trkpt lat="44.13404" lon="5.05878">
        <ele>293.3</ele>
        <time>2010-11-14T11:16:32Z</time>
      </trkpt>
      <trkpt lat="44.13401" lon="5.05889">
        <ele>291.8</ele>
        <time>2010-11-14T11:16:40Z</time>
      </trkpt>
      <trkpt lat="44.13396" lon="5.05899">
        <ele>291</ele>
        <time>2010-11-14T11:16:44Z</time>
      </trkpt>
      <trkpt lat="44.13389" lon="5.05907">
        <ele>290</ele>
        <time>2010-11-14T11:16:49Z</time>
      </trkpt>
      <trkpt lat="44.13382" lon="5.05913">
        <ele>288.6</ele>
        <time>2010-11-14T11:16:56Z</time>
      </trkpt>
      <trkpt lat="44.13374" lon="5.05914">
        <ele>286.5</ele>
        <time>2010-11-14T11:17:03Z</time>
      </trkpt>
      <trkpt lat="44.13367" lon="5.05911">
        <ele>284.8</ele>
        <time>2010-11-14T11:17:08Z</time>
      </trkpt>
      <trkpt lat="44.13359" lon="5.05909">
        <ele>284.2</ele>
        <time>2010-11-14T11:17:11Z</time>
      </trkpt>
      <trkpt lat="44.13352" lon="5.0591">
        <ele>282.9</ele>
        <time>2010-11-14T11:17:15Z</time>
      </trkpt>
      <trkpt lat="44.13345" lon="5.05918">
        <ele>281.7</ele>
        <time>2010-11-14T11:17:20Z</time>
      </trkpt>
      <trkpt lat="44.13343" lon="5.0592">
        <ele>281.4</ele>
        <time>2010-11-14T11:17:21Z</time>
      </trkpt>
      <trkpt lat="44.13333" lon="5.05931">
        <ele>280.5</ele>
        <time>2010-11-14T11:17:29Z</time>
      </trkpt>
      <trkpt lat="44.13326" lon="5.05939">
        <ele>279.2</ele>
        <time>2010-11-14T11:17:34Z</time>
      </trkpt>
      <trkpt lat="44.13318" lon="5.05946">
        <ele>278.4</ele>
        <time>2010-11-14T11:17:39Z</time>
      </trkpt>
      <trkpt lat="44.13315" lon="5.05957">
        <ele>276.8</ele>
        <time>2010-11-14T11:17:49Z</time>
      </trkpt>
      <trkpt lat="44.13318" lon="5.05968">
        <ele>277</ele>
        <time>2010-11-14T11:17:55Z</time>
      </trkpt>
      <trkpt lat="44.1332" lon="5.05978">
        <ele>277.8</ele>
        <time>2010-11-14T11:17:59Z</time>
      </trkpt>
      <trkpt lat="44.13322" lon="5.05988">
        <ele>279</ele>
        <time>2010-11-14T11:18:03Z</time>
      </trkpt>
      <trkpt lat="44.13324" lon="5.05999">
        <ele>279.4</ele>
        <time>2010-11-14T11:18:07Z</time>
      </trkpt>
      <trkpt lat="44.13325" lon="5.06009">
        <ele>280.1</ele>
        <time>2010-11-14T11:18:11Z</time>
      </trkpt>
      <trkpt lat="44.13328" lon="5.06019">
        <ele>281.2</ele>
        <time>2010-11-14T11:18:15Z</time>
      </trkpt>
      <trkpt lat="44.13332" lon="5.0603">
        <ele>281.5</ele>
        <time>2010-11-14T11:18:20Z</time>
      </trkpt>
      <trkpt lat="44.13337" lon="5.06039">
        <ele>282.5</ele>
        <time>2010-11-14T11:18:24Z</time>
      </trkpt>
      <trkpt lat="44.13337" lon="5.0604">
        <ele>282.7</ele>
        <time>2010-11-14T11:18:25Z</time>
      </trkpt>
      <trkpt lat="44.1335" lon="5.06052">
        <ele>284</ele>
        <time>2010-11-14T11:18:33Z</time>
      </trkpt>
      <trkpt lat="44.13358" lon="5.06055">
        <ele>286.9</ele>
        <time>2010-11-14T11:18:42Z</time>
      </trkpt>
      <trkpt lat="44.13366" lon="5.06054">
        <ele>287.1</ele>
        <time>2010-11-14T11:18:46Z</time>
      </trkpt>
      <trkpt lat="44.13373" lon="5.06054">
        <ele>287.5</ele>
        <time>2010-11-14T11:18:50Z</time>
      </trkpt>
      <trkpt lat="44.1338" lon="5.06059">
        <ele>288.4</ele>
        <time>2010-11-14T11:18:53Z</time>
      </trkpt>
      <trkpt lat="44.1338" lon="5.0607">
        <ele>288.7</ele>
        <time>2010-11-14T11:18:56Z</time>
      </trkpt>
      <trkpt lat="44.13378" lon="5.06078">
        <ele>288.7</ele>
        <time>2010-11-14T11:18:58Z</time>
      </trkpt>
      <trkpt lat="44.13376" lon="5.06088">
        <ele>289.4</ele>
        <time>2010-11-14T11:19:00Z</time>
      </trkpt>
      <trkpt lat="44.13374" lon="5.06098">
        <ele>289.5</ele>
        <time>2010-11-14T11:19:02Z</time>
      </trkpt>
      <trkpt lat="44.13372" lon="5.06109">
        <ele>289.5</ele>
        <time>2010-11-14T11:19:04Z</time>
      </trkpt>
      <trkpt lat="44.1337" lon="5.06118">
        <ele>289.7</ele>
        <time>2010-11-14T11:19:06Z</time>
      </trkpt>
      <trkpt lat="44.13368" lon="5.06129">
        <ele>290</ele>
        <time>2010-11-14T11:19:08Z</time>
      </trkpt>
      <trkpt lat="44.13367" lon="5.06135">
        <ele>290.1</ele>
        <time>2010-11-14T11:19:09Z</time>
      </trkpt>
      <trkpt lat="44.13363" lon="5.06146">
        <ele>290.6</ele>
        <time>2010-11-14T11:19:11Z</time>
      </trkpt>
      <trkpt lat="44.13361" lon="5.06157">
        <ele>291</ele>
        <time>2010-11-14T11:19:13Z</time>
      </trkpt>
      <trkpt lat="44.13361" lon="5.06167">
        <ele>291.3</ele>
        <time>2010-11-14T11:19:15Z</time>
      </trkpt>
      <trkpt lat="44.13359" lon="5.06177">
        <ele>292.1</ele>
        <time>2010-11-14T11:19:17Z</time>
      </trkpt>
      <trkpt lat="44.13357" lon="5.06187">
        <ele>292.3</ele>
        <time>2010-11-14T11:19:19Z</time>
      </trkpt>
      <trkpt lat="44.13352" lon="5.06197">
        <ele>292.6</ele>
        <time>2010-11-14T11:19:21Z</time>
      </trkpt>
      <trkpt lat="44.1335" lon="5.06208">
        <ele>293.7</ele>
        <time>2010-11-14T11:19:23Z</time>
      </trkpt>
      <trkpt lat="44.13348" lon="5.06217">
        <ele>293.5</ele>
        <time>2010-11-14T11:19:25Z</time>
      </trkpt>
      <trkpt lat="44.13347" lon="5.06222">
        <ele>294.1</ele>
        <time>2010-11-14T11:19:26Z</time>
      </trkpt>
      <trkpt lat="44.13342" lon="5.06233">
        <ele>295</ele>
        <time>2010-11-14T11:19:29Z</time>
      </trkpt>
      <trkpt lat="44.13339" lon="5.06242">
        <ele>295.6</ele>
        <time>2010-11-14T11:19:31Z</time>
      </trkpt>
      <trkpt lat="44.13335" lon="5.06251">
        <ele>295.7</ele>
        <time>2010-11-14T11:19:33Z</time>
      </trkpt>
      <trkpt lat="44.13332" lon="5.0626">
        <ele>295.6</ele>
        <time>2010-11-14T11:19:35Z</time>
      </trkpt>
      <trkpt lat="44.13328" lon="5.06269">
        <ele>296.1</ele>
        <time>2010-11-14T11:19:37Z</time>
      </trkpt>
      <trkpt lat="44.13326" lon="5.06275">
        <ele>295.9</ele>
        <time>2010-11-14T11:19:38Z</time>
      </trkpt>
      <trkpt lat="44.13323" lon="5.06281">
        <ele>295.5</ele>
        <time>2010-11-14T11:19:39Z</time>
      </trkpt>
      <trkpt lat="44.1332" lon="5.06286">
        <ele>295.2</ele>
        <time>2010-11-14T11:19:40Z</time>
      </trkpt>
      <trkpt lat="44.13318" lon="5.06292">
        <ele>294.9</ele>
        <time>2010-11-14T11:19:41Z</time>
      </trkpt>
      <trkpt lat="44.13316" lon="5.06298">
        <ele>295</ele>
        <time>2010-11-14T11:19:42Z</time>
      </trkpt>
      <trkpt lat="44.13313" lon="5.06303">
        <ele>295.1</ele>
        <time>2010-11-14T11:19:43Z</time>
      </trkpt>
      <trkpt lat="44.13309" lon="5.06314">
        <ele>294.3</ele>
        <time>2010-11-14T11:19:45Z</time>
      </trkpt>
      <trkpt lat="44.13306" lon="5.06319">
        <ele>293.4</ele>
        <time>2010-11-14T11:19:46Z</time>
      </trkpt>
      <trkpt lat="44.13303" lon="5.06324">
        <ele>293.2</ele>
        <time>2010-11-14T11:19:47Z</time>
      </trkpt>
      <trkpt lat="44.13301" lon="5.0633">
        <ele>293.4</ele>
        <time>2010-11-14T11:19:48Z</time>
      </trkpt>
      <trkpt lat="44.13299" lon="5.06342">
        <ele>294.2</ele>
        <time>2010-11-14T11:19:50Z</time>
      </trkpt>
      <trkpt lat="44.13298" lon="5.06353">
        <ele>295.2</ele>
        <time>2010-11-14T11:19:52Z</time>
      </trkpt>
      <trkpt lat="44.13296" lon="5.06364">
        <ele>296.6</ele>
        <time>2010-11-14T11:19:54Z</time>
      </trkpt>
      <trkpt lat="44.13296" lon="5.0637">
        <ele>297</ele>
        <time>2010-11-14T11:19:55Z</time>
      </trkpt>
      <trkpt lat="44.13295" lon="5.06376">
        <ele>297.5</ele>
        <time>2010-11-14T11:19:56Z</time>
      </trkpt>
      <trkpt lat="44.13294" lon="5.06382">
        <ele>297.9</ele>
        <time>2010-11-14T11:19:57Z</time>
      </trkpt>
      <trkpt lat="44.13293" lon="5.06389">
        <ele>297.7</ele>
        <time>2010-11-14T11:19:58Z</time>
      </trkpt>
      <trkpt lat="44.13291" lon="5.06395">
        <ele>297.3</ele>
        <time>2010-11-14T11:19:59Z</time>
      </trkpt>
      <trkpt lat="44.13289" lon="5.06402">
        <ele>297</ele>
        <time>2010-11-14T11:20:00Z</time>
      </trkpt>
      <trkpt lat="44.13287" lon="5.06409">
        <ele>296.3</ele>
        <time>2010-11-14T11:20:01Z</time>
      </trkpt>
      <trkpt lat="44.13286" lon="5.06415">
        <ele>297.2</ele>
        <time>2010-11-14T11:20:02Z</time>
      </trkpt>
      <trkpt lat="44.13284" lon="5.06423">
        <ele>297.8</ele>
        <time>2010-11-14T11:20:03Z</time>
      </trkpt>
      <trkpt lat="44.13282" lon="5.06434">
        <ele>298.6</ele>
        <time>2010-11-14T11:20:05Z</time>
      </trkpt>
      <trkpt lat="44.13279" lon="5.06443">
        <ele>299.1</ele>
        <time>2010-11-14T11:20:07Z</time>
      </trkpt>
      <trkpt lat="44.13275" lon="5.06452">
        <ele>299.9</ele>
        <time>2010-11-14T11:20:09Z</time>
      </trkpt>
      <trkpt lat="44.13274" lon="5.06462">
        <ele>300.8</ele>
        <time>2010-11-14T11:20:11Z</time>
      </trkpt>
      <trkpt lat="44.13271" lon="5.06468">
        <ele>300.7</ele>
        <time>2010-11-14T11:20:12Z</time>
      </trkpt>
      <trkpt lat="44.1327" lon="5.06474">
        <ele>300.6</ele>
        <time>2010-11-14T11:20:13Z</time>
      </trkpt>
      <trkpt lat="44.13268" lon="5.0648">
        <ele>300.1</ele>
        <time>2010-11-14T11:20:14Z</time>
      </trkpt>
      <trkpt lat="44.13266" lon="5.06487">
        <ele>300.1</ele>
        <time>2010-11-14T11:20:15Z</time>
      </trkpt>
      <trkpt lat="44.13265" lon="5.06496">
        <ele>299.6</ele>
        <time>2010-11-14T11:20:17Z</time>
      </trkpt>
      <trkpt lat="44.13263" lon="5.06507">
        <ele>299.8</ele>
        <time>2010-11-14T11:20:22Z</time>
      </trkpt>
      <trkpt lat="44.1326" lon="5.06518">
        <ele>299.3</ele>
        <time>2010-11-14T11:20:27Z</time>
      </trkpt>
      <trkpt lat="44.13261" lon="5.0652">
        <ele>299.3</ele>
        <time>2010-11-14T11:20:28Z</time>
      </trkpt>
      <trkpt lat="44.13254" lon="5.0654">
        <ele>296.3</ele>
        <time>2010-11-14T11:20:38Z</time>
      </trkpt>
      <trkpt lat="44.13252" lon="5.06552">
        <ele>295.3</ele>
        <time>2010-11-14T11:20:44Z</time>
      </trkpt>
      <trkpt lat="44.1325" lon="5.06562">
        <ele>294.5</ele>
        <time>2010-11-14T11:20:48Z</time>
      </trkpt>
      <trkpt lat="44.13246" lon="5.06572">
        <ele>293.1</ele>
        <time>2010-11-14T11:20:52Z</time>
      </trkpt>
      <trkpt lat="44.13243" lon="5.06581">
        <ele>291.9</ele>
        <time>2010-11-14T11:20:56Z</time>
      </trkpt>
      <trkpt lat="44.13239" lon="5.06591">
        <ele>292.1</ele>
        <time>2010-11-14T11:21:00Z</time>
      </trkpt>
      <trkpt lat="44.13235" lon="5.06602">
        <ele>291.3</ele>
        <time>2010-11-14T11:21:05Z</time>
      </trkpt>
      <trkpt lat="44.13231" lon="5.06611">
        <ele>290.9</ele>
        <time>2010-11-14T11:21:10Z</time>
      </trkpt>
      <trkpt lat="44.13227" lon="5.06621">
        <ele>291.2</ele>
        <time>2010-11-14T11:21:15Z</time>
      </trkpt>
      <trkpt lat="44.13223" lon="5.06631">
        <ele>290.3</ele>
        <time>2010-11-14T11:21:20Z</time>
      </trkpt>
      <trkpt lat="44.13218" lon="5.0664">
        <ele>289.7</ele>
        <time>2010-11-14T11:21:24Z</time>
      </trkpt>
      <trkpt lat="44.13213" lon="5.06649">
        <ele>288.4</ele>
        <time>2010-11-14T11:21:29Z</time>
      </trkpt>
      <trkpt lat="44.13212" lon="5.06651">
        <ele>288.4</ele>
        <time>2010-11-14T11:21:30Z</time>
      </trkpt>
      <trkpt lat="44.13205" lon="5.06671">
        <ele>287.9</ele>
        <time>2010-11-14T11:21:39Z</time>
      </trkpt>
      <trkpt lat="44.13202" lon="5.06682">
        <ele>286.6</ele>
        <time>2010-11-14T11:21:44Z</time>
      </trkpt>
      <trkpt lat="44.13199" lon="5.06692">
        <ele>285.8</ele>
        <time>2010-11-14T11:21:49Z</time>
      </trkpt>
      <trkpt lat="44.13194" lon="5.06701">
        <ele>285.4</ele>
        <time>2010-11-14T11:21:54Z</time>
      </trkpt>
      <trkpt lat="44.1319" lon="5.0671">
        <ele>284.3</ele>
        <time>2010-11-14T11:21:59Z</time>
      </trkpt>
      <trkpt lat="44.13186" lon="5.0672">
        <ele>283.8</ele>
        <time>2010-11-14T11:22:03Z</time>
      </trkpt>
      <trkpt lat="44.13181" lon="5.06729">
        <ele>284.9</ele>
        <time>2010-11-14T11:22:07Z</time>
      </trkpt>
      <trkpt lat="44.13177" lon="5.06738">
        <ele>285.1</ele>
        <time>2010-11-14T11:22:11Z</time>
      </trkpt>
      <trkpt lat="44.13174" lon="5.06748">
        <ele>284.8</ele>
        <time>2010-11-14T11:22:15Z</time>
      </trkpt>
      <trkpt lat="44.13169" lon="5.06759">
        <ele>283.6</ele>
        <time>2010-11-14T11:22:20Z</time>
      </trkpt>
      <trkpt lat="44.13163" lon="5.06766">
        <ele>283</ele>
        <time>2010-11-14T11:22:24Z</time>
      </trkpt>
      <trkpt lat="44.13157" lon="5.06772">
        <ele>281.6</ele>
        <time>2010-11-14T11:22:29Z</time>
      </trkpt>
      <trkpt lat="44.1315" lon="5.06765">
        <ele>279.8</ele>
        <time>2010-11-14T11:22:37Z</time>
      </trkpt>
      <trkpt lat="44.13149" lon="5.06763">
        <ele>279.9</ele>
        <time>2010-11-14T11:22:38Z</time>
      </trkpt>
      <trkpt lat="44.13145" lon="5.06742">
        <ele>279</ele>
        <time>2010-11-14T11:22:49Z</time>
      </trkpt>
      <trkpt lat="44.13142" lon="5.06734">
        <ele>277.9</ele>
        <time>2010-11-14T11:22:52Z</time>
      </trkpt>
      <trkpt lat="44.13137" lon="5.06724">
        <ele>277.6</ele>
        <time>2010-11-14T11:22:55Z</time>
      </trkpt>
      <trkpt lat="44.13131" lon="5.06716">
        <ele>277.1</ele>
        <time>2010-11-14T11:22:59Z</time>
      </trkpt>
      <trkpt lat="44.13125" lon="5.0671">
        <ele>276</ele>
        <time>2010-11-14T11:23:03Z</time>
      </trkpt>
      <trkpt lat="44.13119" lon="5.06704">
        <ele>274</ele>
        <time>2010-11-14T11:23:07Z</time>
      </trkpt>
      <trkpt lat="44.13118" lon="5.06692">
        <ele>273.8</ele>
        <time>2010-11-14T11:23:13Z</time>
      </trkpt>
      <trkpt lat="44.13118" lon="5.0668">
        <ele>272.4</ele>
        <time>2010-11-14T11:23:18Z</time>
      </trkpt>
      <trkpt lat="44.13113" lon="5.0667">
        <ele>271.6</ele>
        <time>2010-11-14T11:23:22Z</time>
      </trkpt>
      <trkpt lat="44.13108" lon="5.06662">
        <ele>270.3</ele>
        <time>2010-11-14T11:23:26Z</time>
      </trkpt>
      <trkpt lat="44.13102" lon="5.06655">
        <ele>268.9</ele>
        <time>2010-11-14T11:23:30Z</time>
      </trkpt>
      <trkpt lat="44.13095" lon="5.06649">
        <ele>268.4</ele>
        <time>2010-11-14T11:23:35Z</time>
      </trkpt>
      <trkpt lat="44.13089" lon="5.06643">
        <ele>266.6</ele>
        <time>2010-11-14T11:23:40Z</time>
      </trkpt>
      <trkpt lat="44.13087" lon="5.06642">
        <ele>266</ele>
        <time>2010-11-14T11:23:41Z</time>
      </trkpt>
      <trkpt lat="44.13076" lon="5.06633">
        <ele>264.7</ele>
        <time>2010-11-14T11:23:47Z</time>
      </trkpt>
      <trkpt lat="44.13069" lon="5.06629">
        <ele>263.9</ele>
        <time>2010-11-14T11:23:52Z</time>
      </trkpt>
      <trkpt lat="44.13061" lon="5.06626">
        <ele>262.4</ele>
        <time>2010-11-14T11:23:56Z</time>
      </trkpt>
      <trkpt lat="44.13054" lon="5.06622">
        <ele>261.2</ele>
        <time>2010-11-14T11:24:01Z</time>
      </trkpt>
      <trkpt lat="44.13045" lon="5.06626">
        <ele>260.3</ele>
        <time>2010-11-14T11:24:07Z</time>
      </trkpt>
      <trkpt lat="44.13045" lon="5.06638">
        <ele>259.4</ele>
        <time>2010-11-14T11:24:13Z</time>
      </trkpt>
      <trkpt lat="44.13044" lon="5.0665">
        <ele>259.1</ele>
        <time>2010-11-14T11:24:19Z</time>
      </trkpt>
      <trkpt lat="44.13037" lon="5.06654">
        <ele>258.5</ele>
        <time>2010-11-14T11:24:25Z</time>
      </trkpt>
      <trkpt lat="44.1303" lon="5.06657">
        <ele>259.4</ele>
        <time>2010-11-14T11:24:30Z</time>
      </trkpt>
      <trkpt lat="44.13023" lon="5.0666">
        <ele>260.2</ele>
        <time>2010-11-14T11:24:34Z</time>
      </trkpt>
      <trkpt lat="44.13015" lon="5.06663">
        <ele>260.7</ele>
        <time>2010-11-14T11:24:38Z</time>
      </trkpt>
      <trkpt lat="44.13007" lon="5.06669">
        <ele>261.1</ele>
        <time>2010-11-14T11:24:44Z</time>
      </trkpt>
      <trkpt lat="44.13006" lon="5.0667">
        <ele>261.1</ele>
        <time>2010-11-14T11:24:45Z</time>
      </trkpt>
      <trkpt lat="44.12993" lon="5.06679">
        <ele>261.9</ele>
        <time>2010-11-14T11:24:54Z</time>
      </trkpt>
      <trkpt lat="44.12985" lon="5.06683">
        <ele>262.2</ele>
        <time>2010-11-14T11:24:59Z</time>
      </trkpt>
      <trkpt lat="44.12977" lon="5.06688">
        <ele>262.2</ele>
        <time>2010-11-14T11:25:04Z</time>
      </trkpt>
      <trkpt lat="44.12969" lon="5.06692">
        <ele>262.6</ele>
        <time>2010-11-14T11:25:10Z</time>
      </trkpt>
      <trkpt lat="44.12962" lon="5.06697">
        <ele>262.9</ele>
        <time>2010-11-14T11:25:15Z</time>
      </trkpt>
      <trkpt lat="44.12954" lon="5.067">
        <ele>263.3</ele>
        <time>2010-11-14T11:25:20Z</time>
      </trkpt>
      <trkpt lat="44.12946" lon="5.06704">
        <ele>263.7</ele>
        <time>2010-11-14T11:25:26Z</time>
      </trkpt>
      <trkpt lat="44.12937" lon="5.06707">
        <ele>264.4</ele>
        <time>2010-11-14T11:25:31Z</time>
      </trkpt>
      <trkpt lat="44.12929" lon="5.06708">
        <ele>264.2</ele>
        <time>2010-11-14T11:25:37Z</time>
      </trkpt>
      <trkpt lat="44.12921" lon="5.06711">
        <ele>263.9</ele>
        <time>2010-11-14T11:25:42Z</time>
      </trkpt>
      <trkpt lat="44.12913" lon="5.06714">
        <ele>264.1</ele>
        <time>2010-11-14T11:25:46Z</time>
      </trkpt>
      <trkpt lat="44.12911" lon="5.06715">
        <ele>263.9</ele>
        <time>2010-11-14T11:25:47Z</time>
      </trkpt>
      <trkpt lat="44.12899" lon="5.06722">
        <ele>263.7</ele>
        <time>2010-11-14T11:25:54Z</time>
      </trkpt>
      <trkpt lat="44.12893" lon="5.06729">
        <ele>264.3</ele>
        <time>2010-11-14T11:25:58Z</time>
      </trkpt>
      <trkpt lat="44.12887" lon="5.06737">
        <ele>263.5</ele>
        <time>2010-11-14T11:26:03Z</time>
      </trkpt>
      <trkpt lat="44.12879" lon="5.06743">
        <ele>263</ele>
        <time>2010-11-14T11:26:08Z</time>
      </trkpt>
      <trkpt lat="44.12873" lon="5.06747">
        <ele>263.2</ele>
        <time>2010-11-14T11:26:12Z</time>
      </trkpt>
      <trkpt lat="44.12867" lon="5.06754">
        <ele>262.8</ele>
        <time>2010-11-14T11:26:16Z</time>
      </trkpt>
      <trkpt lat="44.12862" lon="5.0676">
        <ele>262.4</ele>
        <time>2010-11-14T11:26:20Z</time>
      </trkpt>
      <trkpt lat="44.12856" lon="5.06768">
        <ele>261.3</ele>
        <time>2010-11-14T11:26:24Z</time>
      </trkpt>
      <trkpt lat="44.12854" lon="5.06778">
        <ele>260.5</ele>
        <time>2010-11-14T11:26:28Z</time>
      </trkpt>
      <trkpt lat="44.12852" lon="5.0679">
        <ele>260</ele>
        <time>2010-11-14T11:26:33Z</time>
      </trkpt>
      <trkpt lat="44.12849" lon="5.068">
        <ele>258.6</ele>
        <time>2010-11-14T11:26:38Z</time>
      </trkpt>
      <trkpt lat="44.12848" lon="5.06811">
        <ele>257.2</ele>
        <time>2010-11-14T11:26:43Z</time>
      </trkpt>
      <trkpt lat="44.12847" lon="5.06821">
        <ele>256.6</ele>
        <time>2010-11-14T11:26:47Z</time>
      </trkpt>
      <trkpt lat="44.12846" lon="5.06824">
        <ele>256.2</ele>
        <time>2010-11-14T11:26:48Z</time>
      </trkpt>
      <trkpt lat="44.12846" lon="5.06843">
        <ele>254.4</ele>
        <time>2010-11-14T11:26:55Z</time>
      </trkpt>
      <trkpt lat="44.12847" lon="5.06854">
        <ele>254</ele>
        <time>2010-11-14T11:26:59Z</time>
      </trkpt>
      <trkpt lat="44.12848" lon="5.06865">
        <ele>254.6</ele>
        <time>2010-11-14T11:27:03Z</time>
      </trkpt>
      <trkpt lat="44.12848" lon="5.06875">
        <ele>254.6</ele>
        <time>2010-11-14T11:27:07Z</time>
      </trkpt>
      <trkpt lat="44.12849" lon="5.06886">
        <ele>253</ele>
        <time>2010-11-14T11:27:12Z</time>
      </trkpt>
      <trkpt lat="44.1285" lon="5.06898">
        <ele>253.2</ele>
        <time>2010-11-14T11:27:17Z</time>
      </trkpt>
      <trkpt lat="44.12851" lon="5.06909">
        <ele>252.6</ele>
        <time>2010-11-14T11:27:22Z</time>
      </trkpt>
      <trkpt lat="44.12851" lon="5.06921">
        <ele>253.4</ele>
        <time>2010-11-14T11:27:27Z</time>
      </trkpt>
      <trkpt lat="44.12852" lon="5.06932">
        <ele>253.2</ele>
        <time>2010-11-14T11:27:31Z</time>
      </trkpt>
      <trkpt lat="44.12853" lon="5.06943">
        <ele>252.7</ele>
        <time>2010-11-14T11:27:36Z</time>
      </trkpt>
      <trkpt lat="44.12853" lon="5.06953">
        <ele>252.6</ele>
        <time>2010-11-14T11:27:40Z</time>
      </trkpt>
      <trkpt lat="44.12853" lon="5.06965">
        <ele>253.2</ele>
        <time>2010-11-14T11:27:46Z</time>
      </trkpt>
      <trkpt lat="44.12853" lon="5.06978">
        <ele>253.1</ele>
        <time>2010-11-14T11:27:51Z</time>
      </trkpt>
      <trkpt lat="44.12853" lon="5.0698">
        <ele>253.1</ele>
        <time>2010-11-14T11:27:52Z</time>
      </trkpt>
      <trkpt lat="44.12855" lon="5.07002">
        <ele>252.7</ele>
        <time>2010-11-14T11:28:02Z</time>
      </trkpt>
      <trkpt lat="44.12853" lon="5.07013">
        <ele>252.5</ele>
        <time>2010-11-14T11:28:21Z</time>
      </trkpt>
      <trkpt lat="44.12851" lon="5.07025">
        <ele>251.2</ele>
        <time>2010-11-14T11:28:35Z</time>
      </trkpt>
      <trkpt lat="44.12849" lon="5.07036">
        <ele>250.5</ele>
        <time>2010-11-14T11:28:50Z</time>
      </trkpt>
      <trkpt lat="44.12843" lon="5.07046">
        <ele>249.6</ele>
        <time>2010-11-14T11:28:56Z</time>
      </trkpt>
      <trkpt lat="44.12842" lon="5.07046">
        <ele>248.9</ele>
        <time>2010-11-14T11:28:57Z</time>
      </trkpt>
      <trkpt lat="44.12835" lon="5.07066">
        <ele>244.8</ele>
        <time>2010-11-14T11:29:10Z</time>
      </trkpt>
      <trkpt lat="44.12835" lon="5.07078">
        <ele>244.4</ele>
        <time>2010-11-14T11:29:15Z</time>
      </trkpt>
      <trkpt lat="44.12836" lon="5.0709">
        <ele>244.6</ele>
        <time>2010-11-14T11:29:21Z</time>
      </trkpt>
      <trkpt lat="44.12834" lon="5.07099">
        <ele>243.7</ele>
        <time>2010-11-14T11:29:24Z</time>
      </trkpt>
      <trkpt lat="44.12833" lon="5.07111">
        <ele>244.1</ele>
        <time>2010-11-14T11:29:29Z</time>
      </trkpt>
      <trkpt lat="44.12839" lon="5.07119">
        <ele>244.3</ele>
        <time>2010-11-14T11:29:34Z</time>
      </trkpt>
      <trkpt lat="44.12842" lon="5.07128">
        <ele>244.6</ele>
        <time>2010-11-14T11:29:38Z</time>
      </trkpt>
      <trkpt lat="44.12844" lon="5.07139">
        <ele>245.3</ele>
        <time>2010-11-14T11:29:42Z</time>
      </trkpt>
      <trkpt lat="44.12842" lon="5.07152">
        <ele>245.3</ele>
        <time>2010-11-14T11:29:48Z</time>
      </trkpt>
      <trkpt lat="44.12844" lon="5.07163">
        <ele>246.2</ele>
        <time>2010-11-14T11:29:54Z</time>
      </trkpt>
      <trkpt lat="44.12846" lon="5.07174">
        <ele>247.6</ele>
        <time>2010-11-14T11:29:58Z</time>
      </trkpt>
      <trkpt lat="44.12847" lon="5.07176">
        <ele>247.9</ele>
        <time>2010-11-14T11:29:59Z</time>
      </trkpt>
      <trkpt lat="44.12854" lon="5.07191">
        <ele>249.1</ele>
        <time>2010-11-14T11:30:06Z</time>
      </trkpt>
      <trkpt lat="44.12861" lon="5.07195">
        <ele>250.3</ele>
        <time>2010-11-14T11:30:10Z</time>
      </trkpt>
      <trkpt lat="44.12868" lon="5.07198">
        <ele>251.7</ele>
        <time>2010-11-14T11:30:14Z</time>
      </trkpt>
      <trkpt lat="44.12875" lon="5.07205">
        <ele>253.2</ele>
        <time>2010-11-14T11:30:20Z</time>
      </trkpt>
      <trkpt lat="44.12883" lon="5.0721">
        <ele>254.6</ele>
        <time>2010-11-14T11:30:26Z</time>
      </trkpt>
      <trkpt lat="44.12892" lon="5.07213">
        <ele>255.5</ele>
        <time>2010-11-14T11:30:31Z</time>
      </trkpt>
      <trkpt lat="44.12898" lon="5.0722">
        <ele>256.7</ele>
        <time>2010-11-14T11:30:37Z</time>
      </trkpt>
      <trkpt lat="44.12902" lon="5.0723">
        <ele>257.2</ele>
        <time>2010-11-14T11:30:47Z</time>
      </trkpt>
      <trkpt lat="44.12904" lon="5.07242">
        <ele>256.2</ele>
        <time>2010-11-14T11:30:54Z</time>
      </trkpt>
      <trkpt lat="44.12902" lon="5.07254">
        <ele>253.9</ele>
        <time>2010-11-14T11:31:04Z</time>
      </trkpt>
      <trkpt lat="44.12901" lon="5.07255">
        <ele>253.7</ele>
        <time>2010-11-14T11:31:05Z</time>
      </trkpt>
      <trkpt lat="44.12892" lon="5.0727">
        <ele>251.5</ele>
        <time>2010-11-14T11:31:13Z</time>
      </trkpt>
      <trkpt lat="44.12895" lon="5.07282">
        <ele>250.4</ele>
        <time>2010-11-14T11:31:20Z</time>
      </trkpt>
      <trkpt lat="44.12889" lon="5.07291">
        <ele>249.7</ele>
        <time>2010-11-14T11:31:24Z</time>
      </trkpt>
      <trkpt lat="44.12884" lon="5.073">
        <ele>248.8</ele>
        <time>2010-11-14T11:31:28Z</time>
      </trkpt>
      <trkpt lat="44.12881" lon="5.07311">
        <ele>248.3</ele>
        <time>2010-11-14T11:31:33Z</time>
      </trkpt>
      <trkpt lat="44.12879" lon="5.0732">
        <ele>247.8</ele>
        <time>2010-11-14T11:31:37Z</time>
      </trkpt>
      <trkpt lat="44.12877" lon="5.07332">
        <ele>248.4</ele>
        <time>2010-11-14T11:31:42Z</time>
      </trkpt>
      <trkpt lat="44.12875" lon="5.07343">
        <ele>249.1</ele>
        <time>2010-11-14T11:31:48Z</time>
      </trkpt>
      <trkpt lat="44.12872" lon="5.07354">
        <ele>250.2</ele>
        <time>2010-11-14T11:31:54Z</time>
      </trkpt>
      <trkpt lat="44.12868" lon="5.07364">
        <ele>250.6</ele>
        <time>2010-11-14T11:31:59Z</time>
      </trkpt>
      <trkpt lat="44.12866" lon="5.07375">
        <ele>250.5</ele>
        <time>2010-11-14T11:32:05Z</time>
      </trkpt>
      <trkpt lat="44.12865" lon="5.07377">
        <ele>250.6</ele>
        <time>2010-11-14T11:32:06Z</time>
      </trkpt>
      <trkpt lat="44.12862" lon="5.07398">
        <ele>250.8</ele>
        <time>2010-11-14T11:32:15Z</time>
      </trkpt>
      <trkpt lat="44.12859" lon="5.07408">
        <ele>250.5</ele>
        <time>2010-11-14T11:32:20Z</time>
      </trkpt>
      <trkpt lat="44.12857" lon="5.07418">
        <ele>250.3</ele>
        <time>2010-11-14T11:32:25Z</time>
      </trkpt>
      <trkpt lat="44.12854" lon="5.07428">
        <ele>249.7</ele>
        <time>2010-11-14T11:32:30Z</time>
      </trkpt>
      <trkpt lat="44.12849" lon="5.07436">
        <ele>249.4</ele>
        <time>2010-11-14T11:32:34Z</time>
      </trkpt>
      <trkpt lat="44.12848" lon="5.07449">
        <ele>248.9</ele>
        <time>2010-11-14T11:32:43Z</time>
      </trkpt>
      <trkpt lat="44.12854" lon="5.07458">
        <ele>248.9</ele>
        <time>2010-11-14T11:33:18Z</time>
      </trkpt>
      <trkpt lat="44.12854" lon="5.07458">
        <ele>248.9</ele>
        <time>2010-11-14T11:33:19Z</time>
      </trkpt>
      <trkpt lat="44.12857" lon="5.0748">
        <ele>250.7</ele>
        <time>2010-11-14T11:33:46Z</time>
      </trkpt>
      <trkpt lat="44.12857" lon="5.07492">
        <ele>250.9</ele>
        <time>2010-11-14T11:33:51Z</time>
      </trkpt>
      <trkpt lat="44.12858" lon="5.07503">
        <ele>251.6</ele>
        <time>2010-11-14T11:33:56Z</time>
      </trkpt>
      <trkpt lat="44.12859" lon="5.07514">
        <ele>251.2</ele>
        <time>2010-11-14T11:34:01Z</time>
      </trkpt>
      <trkpt lat="44.12861" lon="5.07525">
        <ele>251.1</ele>
        <time>2010-11-14T11:34:06Z</time>
      </trkpt>
      <trkpt lat="44.12864" lon="5.07536">
        <ele>251.8</ele>
        <time>2010-11-14T11:34:12Z</time>
      </trkpt>
      <trkpt lat="44.12867" lon="5.07547">
        <ele>252.2</ele>
        <time>2010-11-14T11:34:17Z</time>
      </trkpt>
      <trkpt lat="44.12868" lon="5.07559">
        <ele>252.7</ele>
        <time>2010-11-14T11:34:23Z</time>
      </trkpt>
      <trkpt lat="44.12869" lon="5.07561">
        <ele>252.9</ele>
        <time>2010-11-14T11:34:24Z</time>
      </trkpt>
      <trkpt lat="44.12873" lon="5.07582">
        <ele>253.5</ele>
        <time>2010-11-14T11:34:35Z</time>
      </trkpt>
      <trkpt lat="44.12876" lon="5.07594">
        <ele>253.5</ele>
        <time>2010-11-14T11:34:41Z</time>
      </trkpt>
      <trkpt lat="44.12878" lon="5.07604">
        <ele>253.9</ele>
        <time>2010-11-14T11:34:47Z</time>
      </trkpt>
      <trkpt lat="44.12879" lon="5.07615">
        <ele>254.1</ele>
        <time>2010-11-14T11:34:52Z</time>
      </trkpt>
      <trkpt lat="44.1288" lon="5.07626">
        <ele>254.2</ele>
        <time>2010-11-14T11:34:56Z</time>
      </trkpt>
      <trkpt lat="44.1288" lon="5.07637">
        <ele>254.6</ele>
        <time>2010-11-14T11:35:01Z</time>
      </trkpt>
      <trkpt lat="44.12881" lon="5.07649">
        <ele>254.6</ele>
        <time>2010-11-14T11:35:07Z</time>
      </trkpt>
      <trkpt lat="44.12882" lon="5.07662">
        <ele>254.7</ele>
        <time>2010-11-14T11:35:13Z</time>
      </trkpt>
      <trkpt lat="44.12883" lon="5.07672">
        <ele>254</ele>
        <time>2010-11-14T11:35:18Z</time>
      </trkpt>
      <trkpt lat="44.12884" lon="5.07683">
        <ele>254.1</ele>
        <time>2010-11-14T11:35:23Z</time>
      </trkpt>
      <trkpt lat="44.12886" lon="5.07694">
        <ele>254</ele>
        <time>2010-11-14T11:35:28Z</time>
      </trkpt>
      <trkpt lat="44.12886" lon="5.07696">
        <ele>254.3</ele>
        <time>2010-11-14T11:35:29Z</time>
      </trkpt>
      <trkpt lat="44.12889" lon="5.07718">
        <ele>254.4</ele>
        <time>2010-11-14T11:35:39Z</time>
      </trkpt>
      <trkpt lat="44.12889" lon="5.07729">
        <ele>254.6</ele>
        <time>2010-11-14T11:35:44Z</time>
      </trkpt>
      <trkpt lat="44.12888" lon="5.07741">
        <ele>255.9</ele>
        <time>2010-11-14T11:35:49Z</time>
      </trkpt>
      <trkpt lat="44.12888" lon="5.07754">
        <ele>254.3</ele>
        <time>2010-11-14T11:35:55Z</time>
      </trkpt>
      <trkpt lat="44.12887" lon="5.07764">
        <ele>254</ele>
        <time>2010-11-14T11:36:00Z</time>
      </trkpt>
      <trkpt lat="44.12886" lon="5.07776">
        <ele>255</ele>
        <time>2010-11-14T11:36:05Z</time>
      </trkpt>
      <trkpt lat="44.12886" lon="5.07789">
        <ele>254.8</ele>
        <time>2010-11-14T11:36:11Z</time>
      </trkpt>
      <trkpt lat="44.12885" lon="5.078">
        <ele>254.7</ele>
        <time>2010-11-14T11:36:16Z</time>
      </trkpt>
      <trkpt lat="44.12884" lon="5.07812">
        <ele>254.4</ele>
        <time>2010-11-14T11:36:21Z</time>
      </trkpt>
      <trkpt lat="44.12882" lon="5.07822">
        <ele>254.1</ele>
        <time>2010-11-14T11:36:25Z</time>
      </trkpt>
      <trkpt lat="44.12882" lon="5.07832">
        <ele>254.4</ele>
        <time>2010-11-14T11:36:30Z</time>
      </trkpt>
      <trkpt lat="44.12882" lon="5.07835">
        <ele>254.6</ele>
        <time>2010-11-14T11:36:31Z</time>
      </trkpt>
      <trkpt lat="44.1288" lon="5.07855">
        <ele>254.9</ele>
        <time>2010-11-14T11:36:40Z</time>
      </trkpt>
      <trkpt lat="44.12879" lon="5.07866">
        <ele>254.2</ele>
        <time>2010-11-14T11:36:46Z</time>
      </trkpt>
      <trkpt lat="44.12876" lon="5.07876">
        <ele>254.8</ele>
        <time>2010-11-14T11:36:51Z</time>
      </trkpt>
      <trkpt lat="44.12875" lon="5.07886">
        <ele>254.7</ele>
        <time>2010-11-14T11:36:55Z</time>
      </trkpt>
      <trkpt lat="44.12874" lon="5.07898">
        <ele>254.3</ele>
        <time>2010-11-14T11:37:00Z</time>
      </trkpt>
      <trkpt lat="44.12877" lon="5.07909">
        <ele>253.4</ele>
        <time>2010-11-14T11:37:04Z</time>
      </trkpt>
      <trkpt lat="44.12881" lon="5.07918">
        <ele>253.1</ele>
        <time>2010-11-14T11:37:09Z</time>
      </trkpt>
      <trkpt lat="44.12884" lon="5.07927">
        <ele>252.5</ele>
        <time>2010-11-14T11:37:14Z</time>
      </trkpt>
      <trkpt lat="44.12885" lon="5.07939">
        <ele>251.9</ele>
        <time>2010-11-14T11:37:19Z</time>
      </trkpt>
      <trkpt lat="44.12885" lon="5.0795">
        <ele>250.8</ele>
        <time>2010-11-14T11:37:24Z</time>
      </trkpt>
      <trkpt lat="44.12882" lon="5.0796">
        <ele>249.9</ele>
        <time>2010-11-14T11:37:29Z</time>
      </trkpt>
      <trkpt lat="44.12876" lon="5.07969">
        <ele>248.3</ele>
        <time>2010-11-14T11:37:38Z</time>
      </trkpt>
      <trkpt lat="44.12875" lon="5.0797">
        <ele>248</ele>
        <time>2010-11-14T11:37:39Z</time>
      </trkpt>
      <trkpt lat="44.12865" lon="5.07986">
        <ele>245.6</ele>
        <time>2010-11-14T11:37:46Z</time>
      </trkpt>
      <trkpt lat="44.12864" lon="5.07997">
        <ele>244.4</ele>
        <time>2010-11-14T11:37:50Z</time>
      </trkpt>
      <trkpt lat="44.12865" lon="5.08009">
        <ele>243.5</ele>
        <time>2010-11-14T11:37:56Z</time>
      </trkpt>
      <trkpt lat="44.12861" lon="5.0802">
        <ele>242.9</ele>
        <time>2010-11-14T11:38:01Z</time>
      </trkpt>
      <trkpt lat="44.12861" lon="5.08032">
        <ele>242.9</ele>
        <time>2010-11-14T11:38:07Z</time>
      </trkpt>
      <trkpt lat="44.1286" lon="5.08043">
        <ele>243</ele>
        <time>2010-11-14T11:38:11Z</time>
      </trkpt>
      <trkpt lat="44.12859" lon="5.08054">
        <ele>242.5</ele>
        <time>2010-11-14T11:38:15Z</time>
      </trkpt>
      <trkpt lat="44.12855" lon="5.08065">
        <ele>242.4</ele>
        <time>2010-11-14T11:38:20Z</time>
      </trkpt>
      <trkpt lat="44.12855" lon="5.08077">
        <ele>241.7</ele>
        <time>2010-11-14T11:38:25Z</time>
      </trkpt>
      <trkpt lat="44.12855" lon="5.08088">
        <ele>241.8</ele>
        <time>2010-11-14T11:38:29Z</time>
      </trkpt>
      <trkpt lat="44.12853" lon="5.081">
        <ele>242</ele>
        <time>2010-11-14T11:38:34Z</time>
      </trkpt>
      <trkpt lat="44.12851" lon="5.08111">
        <ele>241.3</ele>
        <time>2010-11-14T11:38:41Z</time>
      </trkpt>
      <trkpt lat="44.1285" lon="5.08113">
        <ele>241.2</ele>
        <time>2010-11-14T11:38:42Z</time>
      </trkpt>
      <trkpt lat="44.12853" lon="5.08133">
        <ele>239.4</ele>
        <time>2010-11-14T11:38:50Z</time>
      </trkpt>
      <trkpt lat="44.12854" lon="5.08145">
        <ele>239.3</ele>
        <time>2010-11-14T11:38:55Z</time>
      </trkpt>
      <trkpt lat="44.12848" lon="5.08153">
        <ele>238.2</ele>
        <time>2010-11-14T11:39:04Z</time>
      </trkpt>
      <trkpt lat="44.12839" lon="5.08154">
        <ele>236.7</ele>
        <time>2010-11-14T11:39:10Z</time>
      </trkpt>
      <trkpt lat="44.12831" lon="5.08156">
        <ele>234.8</ele>
        <time>2010-11-14T11:39:16Z</time>
      </trkpt>
      <trkpt lat="44.12823" lon="5.08157">
        <ele>235.5</ele>
        <time>2010-11-14T11:39:21Z</time>
      </trkpt>
      <trkpt lat="44.12814" lon="5.08157">
        <ele>233.1</ele>
        <time>2010-11-14T11:39:26Z</time>
      </trkpt>
      <trkpt lat="44.12807" lon="5.08157">
        <ele>231.5</ele>
        <time>2010-11-14T11:39:31Z</time>
      </trkpt>
      <trkpt lat="44.12799" lon="5.08157">
        <ele>230.9</ele>
        <time>2010-11-14T11:39:36Z</time>
      </trkpt>
      <trkpt lat="44.12791" lon="5.08157">
        <ele>229.4</ele>
        <time>2010-11-14T11:39:41Z</time>
      </trkpt>
      <trkpt lat="44.12782" lon="5.08157">
        <ele>228</ele>
        <time>2010-11-14T11:39:46Z</time>
      </trkpt>
      <trkpt lat="44.1278" lon="5.08157">
        <ele>228</ele>
        <time>2010-11-14T11:39:47Z</time>
      </trkpt>
      <trkpt lat="44.12765" lon="5.08157">
        <ele>227</ele>
        <time>2010-11-14T11:39:56Z</time>
      </trkpt>
      <trkpt lat="44.12758" lon="5.08152">
        <ele>224.5</ele>
        <time>2010-11-14T11:40:02Z</time>
      </trkpt>
      <trkpt lat="44.12752" lon="5.08145">
        <ele>223.4</ele>
        <time>2010-11-14T11:40:07Z</time>
      </trkpt>
      <trkpt lat="44.12745" lon="5.08142">
        <ele>222.5</ele>
        <time>2010-11-14T11:40:11Z</time>
      </trkpt>
      <trkpt lat="44.12738" lon="5.08138">
        <ele>222.7</ele>
        <time>2010-11-14T11:40:15Z</time>
      </trkpt>
      <trkpt lat="44.1273" lon="5.08135">
        <ele>221.4</ele>
        <time>2010-11-14T11:40:19Z</time>
      </trkpt>
      <trkpt lat="44.12722" lon="5.08132">
        <ele>219.9</ele>
        <time>2010-11-14T11:40:24Z</time>
      </trkpt>
      <trkpt lat="44.12713" lon="5.08132">
        <ele>219.2</ele>
        <time>2010-11-14T11:40:29Z</time>
      </trkpt>
      <trkpt lat="44.12706" lon="5.08131">
        <ele>217.5</ele>
        <time>2010-11-14T11:40:33Z</time>
      </trkpt>
      <trkpt lat="44.12698" lon="5.08128">
        <ele>216.5</ele>
        <time>2010-11-14T11:40:37Z</time>
      </trkpt>
      <trkpt lat="44.12689" lon="5.08128">
        <ele>214.7</ele>
        <time>2010-11-14T11:40:43Z</time>
      </trkpt>
      <trkpt lat="44.12682" lon="5.08134">
        <ele>213.9</ele>
        <time>2010-11-14T11:40:47Z</time>
      </trkpt>
      <trkpt lat="44.12681" lon="5.08136">
        <ele>213.4</ele>
        <time>2010-11-14T11:40:48Z</time>
      </trkpt>
      <trkpt lat="44.12667" lon="5.08143">
        <ele>210.4</ele>
        <time>2010-11-14T11:41:00Z</time>
      </trkpt>
      <trkpt lat="44.12661" lon="5.08138">
        <ele>209.6</ele>
        <time>2010-11-14T11:41:05Z</time>
      </trkpt>
      <trkpt lat="44.12654" lon="5.08133">
        <ele>208.9</ele>
        <time>2010-11-14T11:41:09Z</time>
      </trkpt>
      <trkpt lat="44.12647" lon="5.08126">
        <ele>208.3</ele>
        <time>2010-11-14T11:41:14Z</time>
      </trkpt>
      <trkpt lat="44.1264" lon="5.0812">
        <ele>207.9</ele>
        <time>2010-11-14T11:41:18Z</time>
      </trkpt>
      <trkpt lat="44.12632" lon="5.08114">
        <ele>207</ele>
        <time>2010-11-14T11:41:24Z</time>
      </trkpt>
      <trkpt lat="44.12626" lon="5.08106">
        <ele>206.5</ele>
        <time>2010-11-14T11:41:37Z</time>
      </trkpt>
      <trkpt lat="44.12619" lon="5.081">
        <ele>205.1</ele>
        <time>2010-11-14T11:42:04Z</time>
      </trkpt>
      <trkpt lat="44.12618" lon="5.08099">
        <ele>205</ele>
        <time>2010-11-14T11:42:05Z</time>
      </trkpt>
      <trkpt lat="44.12605" lon="5.08088">
        <ele>204.6</ele>
        <time>2010-11-14T11:42:11Z</time>
      </trkpt>
      <trkpt lat="44.12598" lon="5.08082">
        <ele>203.7</ele>
        <time>2010-11-14T11:42:18Z</time>
      </trkpt>
      <trkpt lat="44.12591" lon="5.08075">
        <ele>203.1</ele>
        <time>2010-11-14T11:42:28Z</time>
      </trkpt>
      <trkpt lat="44.12585" lon="5.08067">
        <ele>202.9</ele>
        <time>2010-11-14T11:42:36Z</time>
      </trkpt>
      <trkpt lat="44.12578" lon="5.08063">
        <ele>202</ele>
        <time>2010-11-14T11:42:45Z</time>
      </trkpt>
      <trkpt lat="44.1257" lon="5.08063">
        <ele>200.8</ele>
        <time>2010-11-14T11:42:51Z</time>
      </trkpt>
      <trkpt lat="44.12564" lon="5.08071">
        <ele>201.3</ele>
        <time>2010-11-14T11:42:59Z</time>
      </trkpt>
      <trkpt lat="44.12571" lon="5.08079">
        <ele>201.6</ele>
        <time>2010-11-14T11:43:07Z</time>
      </trkpt>
      <trkpt lat="44.12572" lon="5.08079">
        <ele>201.5</ele>
        <time>2010-11-14T11:43:08Z</time>
      </trkpt>
      <trkpt lat="44.12576" lon="5.08093">
        <ele>201.4</ele>
        <time>2010-11-14T11:44:24Z</time>
      </trkpt>
      <trkpt lat="44.12576" lon="5.08095">
        <ele>201.4</ele>
        <time>2010-11-14T11:44:25Z</time>
      </trkpt>
      <trkpt lat="44.12576" lon="5.08086">
        <ele>201.3</ele>
        <time>2010-11-14T11:45:34Z</time>
      </trkpt>
      <trkpt lat="44.12575" lon="5.08086">
        <ele>201.3</ele>
        <time>2010-11-14T11:45:35Z</time>
      </trkpt>
      <trkpt lat="44.12584" lon="5.08092">
        <ele>202</ele>
        <time>2010-11-14T11:46:55Z</time>
      </trkpt>
      <trkpt lat="44.12576" lon="5.08088">
        <ele>201</ele>
        <time>2010-11-14T11:47:28Z</time>
      </trkpt>
      <trkpt lat="44.12558" lon="5.08082">
        <ele>192.2</ele>
        <time>2010-11-14T13:26:01Z</time>
      </trkpt>
      <trkpt lat="44.12558" lon="5.08082">
        <ele>192</ele>
        <time>2010-11-14T13:26:02Z</time>
      </trkpt>
      <trkpt lat="44.1256" lon="5.0807">
        <ele>192.9</ele>
        <time>2010-11-14T13:28:31Z</time>
      </trkpt>
      <trkpt lat="44.12547" lon="5.08057">
        <ele>192.7</ele>
        <time>2010-11-14T13:29:04Z</time>
      </trkpt>
      <trkpt lat="44.1254" lon="5.08065">
        <ele>191.2</ele>
        <time>2010-11-14T13:29:30Z</time>
      </trkpt>
      <trkpt lat="44.12535" lon="5.08058">
        <ele>190</ele>
        <time>2010-11-14T13:32:25Z</time>
      </trkpt>
      <trkpt lat="44.12533" lon="5.08057">
        <ele>190.1</ele>
        <time>2010-11-14T13:32:26Z</time>
      </trkpt>
      <trkpt lat="44.1252" lon="5.08049">
        <ele>189.1</ele>
        <time>2010-11-14T13:32:37Z</time>
      </trkpt>
      <trkpt lat="44.12513" lon="5.0804">
        <ele>188.9</ele>
        <time>2010-11-14T13:32:43Z</time>
      </trkpt>
      <trkpt lat="44.12508" lon="5.0803">
        <ele>188.2</ele>
        <time>2010-11-14T13:32:48Z</time>
      </trkpt>
      <trkpt lat="44.12504" lon="5.08021">
        <ele>187.8</ele>
        <time>2010-11-14T13:32:52Z</time>
      </trkpt>
      <trkpt lat="44.12497" lon="5.08015">
        <ele>187.2</ele>
        <time>2010-11-14T13:32:57Z</time>
      </trkpt>
      <trkpt lat="44.1249" lon="5.0801">
        <ele>186.7</ele>
        <time>2010-11-14T13:33:02Z</time>
      </trkpt>
      <trkpt lat="44.12482" lon="5.08006">
        <ele>184.4</ele>
        <time>2010-11-14T13:33:10Z</time>
      </trkpt>
      <trkpt lat="44.12476" lon="5.07999">
        <ele>184.9</ele>
        <time>2010-11-14T13:33:16Z</time>
      </trkpt>
      <trkpt lat="44.1247" lon="5.07992">
        <ele>184.2</ele>
        <time>2010-11-14T13:33:23Z</time>
      </trkpt>
      <trkpt lat="44.12462" lon="5.07986">
        <ele>184.7</ele>
        <time>2010-11-14T13:33:29Z</time>
      </trkpt>
      <trkpt lat="44.12462" lon="5.07986">
        <ele>184.5</ele>
        <time>2010-11-14T13:33:30Z</time>
      </trkpt>
      <trkpt lat="44.1245" lon="5.07971">
        <ele>183</ele>
        <time>2010-11-14T13:33:44Z</time>
      </trkpt>
      <trkpt lat="44.12443" lon="5.07964">
        <ele>182.5</ele>
        <time>2010-11-14T13:33:50Z</time>
      </trkpt>
      <trkpt lat="44.12436" lon="5.07957">
        <ele>182.7</ele>
        <time>2010-11-14T13:33:55Z</time>
      </trkpt>
      <trkpt lat="44.12429" lon="5.07951">
        <ele>183.4</ele>
        <time>2010-11-14T13:34:00Z</time>
      </trkpt>
      <trkpt lat="44.12422" lon="5.07944">
        <ele>182.9</ele>
        <time>2010-11-14T13:34:06Z</time>
      </trkpt>
      <trkpt lat="44.12415" lon="5.07939">
        <ele>183.2</ele>
        <time>2010-11-14T13:34:12Z</time>
      </trkpt>
      <trkpt lat="44.12407" lon="5.07937">
        <ele>183.4</ele>
        <time>2010-11-14T13:34:18Z</time>
      </trkpt>
      <trkpt lat="44.124" lon="5.07942">
        <ele>182.1</ele>
        <time>2010-11-14T13:34:24Z</time>
      </trkpt>
      <trkpt lat="44.12394" lon="5.0795">
        <ele>182.1</ele>
        <time>2010-11-14T13:34:30Z</time>
      </trkpt>
      <trkpt lat="44.12393" lon="5.07951">
        <ele>182.2</ele>
        <time>2010-11-14T13:34:31Z</time>
      </trkpt>
      <trkpt lat="44.12382" lon="5.07968">
        <ele>182.2</ele>
        <time>2010-11-14T13:34:45Z</time>
      </trkpt>
      <trkpt lat="44.12376" lon="5.07976">
        <ele>182.8</ele>
        <time>2010-11-14T13:35:09Z</time>
      </trkpt>
      <trkpt lat="44.12371" lon="5.07984">
        <ele>182.1</ele>
        <time>2010-11-14T13:35:26Z</time>
      </trkpt>
      <trkpt lat="44.12363" lon="5.07989">
        <ele>181.3</ele>
        <time>2010-11-14T13:35:31Z</time>
      </trkpt>
      <trkpt lat="44.12362" lon="5.07991">
        <ele>181.5</ele>
        <time>2010-11-14T13:35:32Z</time>
      </trkpt>
      <trkpt lat="44.12349" lon="5.08001">
        <ele>182.6</ele>
        <time>2010-11-14T13:35:43Z</time>
      </trkpt>
      <trkpt lat="44.12341" lon="5.07996">
        <ele>182.1</ele>
        <time>2010-11-14T13:35:48Z</time>
      </trkpt>
      <trkpt lat="44.12337" lon="5.07986">
        <ele>181.2</ele>
        <time>2010-11-14T13:35:53Z</time>
      </trkpt>
      <trkpt lat="44.12334" lon="5.07975">
        <ele>180.1</ele>
        <time>2010-11-14T13:35:58Z</time>
      </trkpt>
      <trkpt lat="44.1233" lon="5.07965">
        <ele>179.7</ele>
        <time>2010-11-14T13:36:03Z</time>
      </trkpt>
      <trkpt lat="44.12326" lon="5.07954">
        <ele>180.4</ele>
        <time>2010-11-14T13:36:24Z</time>
      </trkpt>
      <trkpt lat="44.12326" lon="5.07942">
        <ele>179.6</ele>
        <time>2010-11-14T13:36:43Z</time>
      </trkpt>
      <trkpt lat="44.12325" lon="5.07941">
        <ele>179.6</ele>
        <time>2010-11-14T13:36:44Z</time>
      </trkpt>
      <trkpt lat="44.12322" lon="5.0792">
        <ele>178.6</ele>
        <time>2010-11-14T13:36:55Z</time>
      </trkpt>
      <trkpt lat="44.1232" lon="5.07909">
        <ele>177.4</ele>
        <time>2010-11-14T13:37:01Z</time>
      </trkpt>
      <trkpt lat="44.12318" lon="5.07898">
        <ele>177.6</ele>
        <time>2010-11-14T13:37:07Z</time>
      </trkpt>
      <trkpt lat="44.12316" lon="5.07886">
        <ele>177.6</ele>
        <time>2010-11-14T13:37:12Z</time>
      </trkpt>
      <trkpt lat="44.12314" lon="5.07875">
        <ele>177.1</ele>
        <time>2010-11-14T13:37:17Z</time>
      </trkpt>
      <trkpt lat="44.12313" lon="5.07863">
        <ele>177.1</ele>
        <time>2010-11-14T13:37:23Z</time>
      </trkpt>
      <trkpt lat="44.12312" lon="5.07853">
        <ele>177</ele>
        <time>2010-11-14T13:37:28Z</time>
      </trkpt>
      <trkpt lat="44.12309" lon="5.07842">
        <ele>176.1</ele>
        <time>2010-11-14T13:37:34Z</time>
      </trkpt>
      <trkpt lat="44.12306" lon="5.07831">
        <ele>176</ele>
        <time>2010-11-14T13:37:40Z</time>
      </trkpt>
      <trkpt lat="44.12305" lon="5.07821">
        <ele>176.2</ele>
        <time>2010-11-14T13:37:45Z</time>
      </trkpt>
      <trkpt lat="44.12305" lon="5.07818">
        <ele>176.3</ele>
        <time>2010-11-14T13:37:46Z</time>
      </trkpt>
      <trkpt lat="44.12302" lon="5.07799">
        <ele>176.2</ele>
        <time>2010-11-14T13:37:54Z</time>
      </trkpt>
      <trkpt lat="44.12301" lon="5.07789">
        <ele>175.5</ele>
        <time>2010-11-14T13:37:59Z</time>
      </trkpt>
      <trkpt lat="44.123" lon="5.07777">
        <ele>175.1</ele>
        <time>2010-11-14T13:38:04Z</time>
      </trkpt>
      <trkpt lat="44.12299" lon="5.07765">
        <ele>174.9</ele>
        <time>2010-11-14T13:38:10Z</time>
      </trkpt>
      <trkpt lat="44.12298" lon="5.07753">
        <ele>174.5</ele>
        <time>2010-11-14T13:38:16Z</time>
      </trkpt>
      <trkpt lat="44.12298" lon="5.07742">
        <ele>173.9</ele>
        <time>2010-11-14T13:38:21Z</time>
      </trkpt>
      <trkpt lat="44.123" lon="5.07731">
        <ele>173.9</ele>
        <time>2010-11-14T13:38:26Z</time>
      </trkpt>
      <trkpt lat="44.12301" lon="5.0772">
        <ele>173.7</ele>
        <time>2010-11-14T13:38:31Z</time>
      </trkpt>
      <trkpt lat="44.12299" lon="5.0771">
        <ele>173.8</ele>
        <time>2010-11-14T13:38:36Z</time>
      </trkpt>
      <trkpt lat="44.12298" lon="5.07698">
        <ele>173.8</ele>
        <time>2010-11-14T13:38:41Z</time>
      </trkpt>
      <trkpt lat="44.12297" lon="5.07686">
        <ele>173.3</ele>
        <time>2010-11-14T13:38:46Z</time>
      </trkpt>
      <trkpt lat="44.12297" lon="5.07684">
        <ele>173.2</ele>
        <time>2010-11-14T13:38:47Z</time>
      </trkpt>
      <trkpt lat="44.12295" lon="5.07662">
        <ele>173.1</ele>
        <time>2010-11-14T13:38:59Z</time>
      </trkpt>
      <trkpt lat="44.12293" lon="5.07652">
        <ele>173.3</ele>
        <time>2010-11-14T13:39:05Z</time>
      </trkpt>
      <trkpt lat="44.12292" lon="5.07641">
        <ele>172.7</ele>
        <time>2010-11-14T13:39:10Z</time>
      </trkpt>
      <trkpt lat="44.12291" lon="5.07629">
        <ele>173.2</ele>
        <time>2010-11-14T13:39:16Z</time>
      </trkpt>
      <trkpt lat="44.1229" lon="5.07617">
        <ele>173.4</ele>
        <time>2010-11-14T13:39:22Z</time>
      </trkpt>
      <trkpt lat="44.12288" lon="5.07606">
        <ele>174</ele>
        <time>2010-11-14T13:39:27Z</time>
      </trkpt>
      <trkpt lat="44.12288" lon="5.07595">
        <ele>173.5</ele>
        <time>2010-11-14T13:39:33Z</time>
      </trkpt>
      <trkpt lat="44.12287" lon="5.07584">
        <ele>173.4</ele>
        <time>2010-11-14T13:39:38Z</time>
      </trkpt>
      <trkpt lat="44.12285" lon="5.07573">
        <ele>173.3</ele>
        <time>2010-11-14T13:39:43Z</time>
      </trkpt>
      <trkpt lat="44.12283" lon="5.07563">
        <ele>172.7</ele>
        <time>2010-11-14T13:39:48Z</time>
      </trkpt>
      <trkpt lat="44.12283" lon="5.07561">
        <ele>172.7</ele>
        <time>2010-11-14T13:39:49Z</time>
      </trkpt>
      <trkpt lat="44.1228" lon="5.07541">
        <ele>172.9</ele>
        <time>2010-11-14T13:40:00Z</time>
      </trkpt>
      <trkpt lat="44.12276" lon="5.07531">
        <ele>172.4</ele>
        <time>2010-11-14T13:40:04Z</time>
      </trkpt>
      <trkpt lat="44.12272" lon="5.07521">
        <ele>171.9</ele>
        <time>2010-11-14T13:40:10Z</time>
      </trkpt>
      <trkpt lat="44.12264" lon="5.07516">
        <ele>171.8</ele>
        <time>2010-11-14T13:40:15Z</time>
      </trkpt>
      <trkpt lat="44.12256" lon="5.07515">
        <ele>171.1</ele>
        <time>2010-11-14T13:40:21Z</time>
      </trkpt>
      <trkpt lat="44.12247" lon="5.07519">
        <ele>170.4</ele>
        <time>2010-11-14T13:40:27Z</time>
      </trkpt>
      <trkpt lat="44.1224" lon="5.07522">
        <ele>170.7</ele>
        <time>2010-11-14T13:40:32Z</time>
      </trkpt>
      <trkpt lat="44.12233" lon="5.07526">
        <ele>169.6</ele>
        <time>2010-11-14T13:40:36Z</time>
      </trkpt>
      <trkpt lat="44.12225" lon="5.07529">
        <ele>169.1</ele>
        <time>2010-11-14T13:40:42Z</time>
      </trkpt>
      <trkpt lat="44.12217" lon="5.07533">
        <ele>169.2</ele>
        <time>2010-11-14T13:40:47Z</time>
      </trkpt>
      <trkpt lat="44.12208" lon="5.07535">
        <ele>169.5</ele>
        <time>2010-11-14T13:40:53Z</time>
      </trkpt>
      <trkpt lat="44.12207" lon="5.07536">
        <ele>169.7</ele>
        <time>2010-11-14T13:40:54Z</time>
      </trkpt>
      <trkpt lat="44.12193" lon="5.07546">
        <ele>170.1</ele>
        <time>2010-11-14T13:41:03Z</time>
      </trkpt>
      <trkpt lat="44.1219" lon="5.07557">
        <ele>170.1</ele>
        <time>2010-11-14T13:41:09Z</time>
      </trkpt>
      <trkpt lat="44.1219" lon="5.07569">
        <ele>167.9</ele>
        <time>2010-11-14T13:41:15Z</time>
      </trkpt>
      <trkpt lat="44.12189" lon="5.07581">
        <ele>170.9</ele>
        <time>2010-11-14T13:41:21Z</time>
      </trkpt>
      <trkpt lat="44.12188" lon="5.07591">
        <ele>172.9</ele>
        <time>2010-11-14T13:41:26Z</time>
      </trkpt>
      <trkpt lat="44.12188" lon="5.07603">
        <ele>171.9</ele>
        <time>2010-11-14T13:41:31Z</time>
      </trkpt>
      <trkpt lat="44.12187" lon="5.07615">
        <ele>172.3</ele>
        <time>2010-11-14T13:41:36Z</time>
      </trkpt>
      <trkpt lat="44.12185" lon="5.07625">
        <ele>171.9</ele>
        <time>2010-11-14T13:41:41Z</time>
      </trkpt>
      <trkpt lat="44.12179" lon="5.07632">
        <ele>171.1</ele>
        <time>2010-11-14T13:41:46Z</time>
      </trkpt>
      <trkpt lat="44.12171" lon="5.07636">
        <ele>170.4</ele>
        <time>2010-11-14T13:41:51Z</time>
      </trkpt>
      <trkpt lat="44.12163" lon="5.0764">
        <ele>170.9</ele>
        <time>2010-11-14T13:41:57Z</time>
      </trkpt>
      <trkpt lat="44.12161" lon="5.07641">
        <ele>171.2</ele>
        <time>2010-11-14T13:41:58Z</time>
      </trkpt>
      <trkpt lat="44.12147" lon="5.07648">
        <ele>170.6</ele>
        <time>2010-11-14T13:42:08Z</time>
      </trkpt>
      <trkpt lat="44.1214" lon="5.07651">
        <ele>170.9</ele>
        <time>2010-11-14T13:42:13Z</time>
      </trkpt>
      <trkpt lat="44.12133" lon="5.07655">
        <ele>170.7</ele>
        <time>2010-11-14T13:42:18Z</time>
      </trkpt>
      <trkpt lat="44.12125" lon="5.0766">
        <ele>170.6</ele>
        <time>2010-11-14T13:42:23Z</time>
      </trkpt>
      <trkpt lat="44.12117" lon="5.07664">
        <ele>171.2</ele>
        <time>2010-11-14T13:42:28Z</time>
      </trkpt>
      <trkpt lat="44.12109" lon="5.07669">
        <ele>170.5</ele>
        <time>2010-11-14T13:42:33Z</time>
      </trkpt>
      <trkpt lat="44.12101" lon="5.07675">
        <ele>170.1</ele>
        <time>2010-11-14T13:42:38Z</time>
      </trkpt>
      <trkpt lat="44.12094" lon="5.07681">
        <ele>168.9</ele>
        <time>2010-11-14T13:42:43Z</time>
      </trkpt>
      <trkpt lat="44.12087" lon="5.07687">
        <ele>169.7</ele>
        <time>2010-11-14T13:42:48Z</time>
      </trkpt>
      <trkpt lat="44.1208" lon="5.0769">
        <ele>169.5</ele>
        <time>2010-11-14T13:42:53Z</time>
      </trkpt>
      <trkpt lat="44.12071" lon="5.07691">
        <ele>169.8</ele>
        <time>2010-11-14T13:42:58Z</time>
      </trkpt>
      <trkpt lat="44.1207" lon="5.07691">
        <ele>169.9</ele>
        <time>2010-11-14T13:42:59Z</time>
      </trkpt>
      <trkpt lat="44.12056" lon="5.07692">
        <ele>169.7</ele>
        <time>2010-11-14T13:43:07Z</time>
      </trkpt>
      <trkpt lat="44.12048" lon="5.07693">
        <ele>170.3</ele>
        <time>2010-11-14T13:43:12Z</time>
      </trkpt>
      <trkpt lat="44.1204" lon="5.07693">
        <ele>171.4</ele>
        <time>2010-11-14T13:43:17Z</time>
      </trkpt>
      <trkpt lat="44.12032" lon="5.07693">
        <ele>169.4</ele>
        <time>2010-11-14T13:43:21Z</time>
      </trkpt>
      <trkpt lat="44.12026" lon="5.07696">
        <ele>168.6</ele>
        <time>2010-11-14T13:43:25Z</time>
      </trkpt>
      <trkpt lat="44.12017" lon="5.07697">
        <ele>168.1</ele>
        <time>2010-11-14T13:43:29Z</time>
      </trkpt>
      <trkpt lat="44.12009" lon="5.07696">
        <ele>168</ele>
        <time>2010-11-14T13:43:34Z</time>
      </trkpt>
      <trkpt lat="44.12001" lon="5.07696">
        <ele>167.7</ele>
        <time>2010-11-14T13:43:39Z</time>
      </trkpt>
      <trkpt lat="44.11993" lon="5.07695">
        <ele>168.3</ele>
        <time>2010-11-14T13:43:44Z</time>
      </trkpt>
      <trkpt lat="44.11986" lon="5.07692">
        <ele>167.9</ele>
        <time>2010-11-14T13:43:48Z</time>
      </trkpt>
      <trkpt lat="44.11978" lon="5.07689">
        <ele>168</ele>
        <time>2010-11-14T13:43:52Z</time>
      </trkpt>
      <trkpt lat="44.1197" lon="5.07685">
        <ele>168.1</ele>
        <time>2010-11-14T13:43:57Z</time>
      </trkpt>
      <trkpt lat="44.11962" lon="5.0768">
        <ele>167.7</ele>
        <time>2010-11-14T13:44:02Z</time>
      </trkpt>
      <trkpt lat="44.1196" lon="5.07679">
        <ele>167.9</ele>
        <time>2010-11-14T13:44:03Z</time>
      </trkpt>
      <trkpt lat="44.11947" lon="5.0767">
        <ele>167.9</ele>
        <time>2010-11-14T13:44:11Z</time>
      </trkpt>
      <trkpt lat="44.1194" lon="5.07665">
        <ele>167.6</ele>
        <time>2010-11-14T13:44:16Z</time>
      </trkpt>
      <trkpt lat="44.11933" lon="5.07659">
        <ele>166.4</ele>
        <time>2010-11-14T13:44:21Z</time>
      </trkpt>
      <trkpt lat="44.11926" lon="5.07654">
        <ele>166.9</ele>
        <time>2010-11-14T13:44:27Z</time>
      </trkpt>
      <trkpt lat="44.11918" lon="5.07648">
        <ele>166.9</ele>
        <time>2010-11-14T13:44:32Z</time>
      </trkpt>
      <trkpt lat="44.1191" lon="5.07645">
        <ele>166.8</ele>
        <time>2010-11-14T13:44:37Z</time>
      </trkpt>
      <trkpt lat="44.11904" lon="5.07639">
        <ele>166.4</ele>
        <time>2010-11-14T13:44:42Z</time>
      </trkpt>
      <trkpt lat="44.11904" lon="5.07628">
        <ele>166.5</ele>
        <time>2010-11-14T13:44:47Z</time>
      </trkpt>
      <trkpt lat="44.11907" lon="5.07616">
        <ele>166.9</ele>
        <time>2010-11-14T13:44:53Z</time>
      </trkpt>
      <trkpt lat="44.11907" lon="5.07606">
        <ele>168.6</ele>
        <time>2010-11-14T13:44:58Z</time>
      </trkpt>
      <trkpt lat="44.11907" lon="5.07596">
        <ele>167.3</ele>
        <time>2010-11-14T13:45:02Z</time>
      </trkpt>
      <trkpt lat="44.11906" lon="5.07584">
        <ele>167.1</ele>
        <time>2010-11-14T13:45:07Z</time>
      </trkpt>
      <trkpt lat="44.11905" lon="5.07582">
        <ele>167.1</ele>
        <time>2010-11-14T13:45:08Z</time>
      </trkpt>
      <trkpt lat="44.11902" lon="5.07562">
        <ele>166.2</ele>
        <time>2010-11-14T13:45:18Z</time>
      </trkpt>
      <trkpt lat="44.119" lon="5.07551">
        <ele>166.3</ele>
        <time>2010-11-14T13:45:24Z</time>
      </trkpt>
      <trkpt lat="44.11897" lon="5.0754">
        <ele>166.3</ele>
        <time>2010-11-14T13:45:30Z</time>
      </trkpt>
      <trkpt lat="44.11893" lon="5.0753">
        <ele>165.9</ele>
        <time>2010-11-14T13:45:35Z</time>
      </trkpt>
      <trkpt lat="44.11892" lon="5.07519">
        <ele>166.2</ele>
        <time>2010-11-14T13:45:40Z</time>
      </trkpt>
      <trkpt lat="44.11894" lon="5.07509">
        <ele>166.5</ele>
        <time>2010-11-14T13:45:45Z</time>
      </trkpt>
      <trkpt lat="44.11898" lon="5.07499">
        <ele>165.9</ele>
        <time>2010-11-14T13:45:50Z</time>
      </trkpt>
      <trkpt lat="44.11903" lon="5.07492">
        <ele>165.4</ele>
        <time>2010-11-14T13:45:55Z</time>
      </trkpt>
      <trkpt lat="44.11908" lon="5.07484">
        <ele>165.3</ele>
        <time>2010-11-14T13:46:00Z</time>
      </trkpt>
      <trkpt lat="44.11912" lon="5.07474">
        <ele>165.6</ele>
        <time>2010-11-14T13:46:05Z</time>
      </trkpt>
      <trkpt lat="44.11915" lon="5.07464">
        <ele>165.7</ele>
        <time>2010-11-14T13:46:10Z</time>
      </trkpt>
      <trkpt lat="44.11915" lon="5.07462">
        <ele>165.6</ele>
        <time>2010-11-14T13:46:11Z</time>
      </trkpt>
      <trkpt lat="44.11917" lon="5.07443">
        <ele>165.2</ele>
        <time>2010-11-14T13:46:20Z</time>
      </trkpt>
      <trkpt lat="44.11919" lon="5.07431">
        <ele>165.5</ele>
        <time>2010-11-14T13:46:26Z</time>
      </trkpt>
      <trkpt lat="44.11921" lon="5.0742">
        <ele>165.5</ele>
        <time>2010-11-14T13:46:31Z</time>
      </trkpt>
      <trkpt lat="44.11924" lon="5.0741">
        <ele>165.6</ele>
        <time>2010-11-14T13:46:36Z</time>
      </trkpt>
      <trkpt lat="44.11928" lon="5.074">
        <ele>165.9</ele>
        <time>2010-11-14T13:46:42Z</time>
      </trkpt>
      <trkpt lat="44.11935" lon="5.07393">
        <ele>165.1</ele>
        <time>2010-11-14T13:46:47Z</time>
      </trkpt>
      <trkpt lat="44.11942" lon="5.07388">
        <ele>165.4</ele>
        <time>2010-11-14T13:46:51Z</time>
      </trkpt>
      <trkpt lat="44.11947" lon="5.0738">
        <ele>165.1</ele>
        <time>2010-11-14T13:46:56Z</time>
      </trkpt>
      <trkpt lat="44.11952" lon="5.0737">
        <ele>164.7</ele>
        <time>2010-11-14T13:47:01Z</time>
      </trkpt>
      <trkpt lat="44.11954" lon="5.07359">
        <ele>165.2</ele>
        <time>2010-11-14T13:47:07Z</time>
      </trkpt>
      <trkpt lat="44.11954" lon="5.07348">
        <ele>165.2</ele>
        <time>2010-11-14T13:47:12Z</time>
      </trkpt>
      <trkpt lat="44.11954" lon="5.07346">
        <ele>165</ele>
        <time>2010-11-14T13:47:13Z</time>
      </trkpt>
      <trkpt lat="44.11955" lon="5.07327">
        <ele>164.8</ele>
        <time>2010-11-14T13:47:22Z</time>
      </trkpt>
      <trkpt lat="44.11955" lon="5.07316">
        <ele>165</ele>
        <time>2010-11-14T13:47:27Z</time>
      </trkpt>
      <trkpt lat="44.11955" lon="5.07305">
        <ele>164.7</ele>
        <time>2010-11-14T13:47:32Z</time>
      </trkpt>
      <trkpt lat="44.11955" lon="5.07294">
        <ele>164.6</ele>
        <time>2010-11-14T13:47:37Z</time>
      </trkpt>
      <trkpt lat="44.11955" lon="5.07283">
        <ele>164.1</ele>
        <time>2010-11-14T13:47:42Z</time>
      </trkpt>
      <trkpt lat="44.11954" lon="5.07273">
        <ele>163.5</ele>
        <time>2010-11-14T13:47:47Z</time>
      </trkpt>
      <trkpt lat="44.11955" lon="5.07261">
        <ele>165.5</ele>
        <time>2010-11-14T13:47:53Z</time>
      </trkpt>
      <trkpt lat="44.11954" lon="5.07248">
        <ele>166</ele>
        <time>2010-11-14T13:48:01Z</time>
      </trkpt>
      <trkpt lat="44.11954" lon="5.07236">
        <ele>166</ele>
        <time>2010-11-14T13:48:08Z</time>
      </trkpt>
      <trkpt lat="44.11954" lon="5.07224">
        <ele>165.8</ele>
        <time>2010-11-14T13:48:15Z</time>
      </trkpt>
      <trkpt lat="44.11955" lon="5.07222">
        <ele>165.9</ele>
        <time>2010-11-14T13:48:16Z</time>
      </trkpt>
      <trkpt lat="44.11956" lon="5.07201">
        <ele>166.5</ele>
        <time>2010-11-14T13:48:27Z</time>
      </trkpt>
      <trkpt lat="44.11957" lon="5.07189">
        <ele>166.4</ele>
        <time>2010-11-14T13:48:33Z</time>
      </trkpt>
      <trkpt lat="44.11958" lon="5.07177">
        <ele>167</ele>
        <time>2010-11-14T13:48:39Z</time>
      </trkpt>
      <trkpt lat="44.11957" lon="5.07165">
        <ele>167.3</ele>
        <time>2010-11-14T13:48:45Z</time>
      </trkpt>
      <trkpt lat="44.11956" lon="5.07153">
        <ele>167.2</ele>
        <time>2010-11-14T13:48:51Z</time>
      </trkpt>
      <trkpt lat="44.11955" lon="5.07142">
        <ele>167</ele>
        <time>2010-11-14T13:48:56Z</time>
      </trkpt>
      <trkpt lat="44.11955" lon="5.07132">
        <ele>167.3</ele>
        <time>2010-11-14T13:49:01Z</time>
      </trkpt>
      <trkpt lat="44.11954" lon="5.0712">
        <ele>167.1</ele>
        <time>2010-11-14T13:49:07Z</time>
      </trkpt>
      <trkpt lat="44.11952" lon="5.0711">
        <ele>167</ele>
        <time>2010-11-14T13:49:12Z</time>
      </trkpt>
      <trkpt lat="44.1195" lon="5.07099">
        <ele>167</ele>
        <time>2010-11-14T13:49:17Z</time>
      </trkpt>
      <trkpt lat="44.1195" lon="5.07097">
        <ele>167.2</ele>
        <time>2010-11-14T13:49:18Z</time>
      </trkpt>
      <trkpt lat="44.11939" lon="5.07081">
        <ele>167</ele>
        <time>2010-11-14T13:49:32Z</time>
      </trkpt>
      <trkpt lat="44.11942" lon="5.0707">
        <ele>166.7</ele>
        <time>2010-11-14T13:49:39Z</time>
      </trkpt>
      <trkpt lat="44.11946" lon="5.07058">
        <ele>166.8</ele>
        <time>2010-11-14T13:49:45Z</time>
      </trkpt>
      <trkpt lat="44.11948" lon="5.07047">
        <ele>167.2</ele>
        <time>2010-11-14T13:49:51Z</time>
      </trkpt>
      <trkpt lat="44.11951" lon="5.07035">
        <ele>167</ele>
        <time>2010-11-14T13:49:57Z</time>
      </trkpt>
      <trkpt lat="44.11953" lon="5.07024">
        <ele>166.8</ele>
        <time>2010-11-14T13:50:02Z</time>
      </trkpt>
      <trkpt lat="44.11955" lon="5.07013">
        <ele>167.4</ele>
        <time>2010-11-14T13:50:08Z</time>
      </trkpt>
      <trkpt lat="44.11957" lon="5.07003">
        <ele>167.5</ele>
        <time>2010-11-14T13:50:13Z</time>
      </trkpt>
      <trkpt lat="44.1196" lon="5.06993">
        <ele>167.2</ele>
        <time>2010-11-14T13:50:17Z</time>
      </trkpt>
      <trkpt lat="44.11962" lon="5.06983">
        <ele>167</ele>
        <time>2010-11-14T13:50:22Z</time>
      </trkpt>
      <trkpt lat="44.11962" lon="5.06981">
        <ele>166.9</ele>
        <time>2010-11-14T13:50:23Z</time>
      </trkpt>
      <trkpt lat="44.11967" lon="5.0696">
        <ele>167.3</ele>
        <time>2010-11-14T13:50:33Z</time>
      </trkpt>
      <trkpt lat="44.11969" lon="5.06949">
        <ele>168.3</ele>
        <time>2010-11-14T13:50:38Z</time>
      </trkpt>
      <trkpt lat="44.11971" lon="5.06939">
        <ele>168.4</ele>
        <time>2010-11-14T13:50:43Z</time>
      </trkpt>
      <trkpt lat="44.11972" lon="5.06929">
        <ele>169.1</ele>
        <time>2010-11-14T13:50:47Z</time>
      </trkpt>
      <trkpt lat="44.11972" lon="5.06918">
        <ele>170.2</ele>
        <time>2010-11-14T13:50:52Z</time>
      </trkpt>
      <trkpt lat="44.11974" lon="5.06907">
        <ele>170.3</ele>
        <time>2010-11-14T13:50:57Z</time>
      </trkpt>
      <trkpt lat="44.11976" lon="5.06897">
        <ele>170.5</ele>
        <time>2010-11-14T13:51:02Z</time>
      </trkpt>
      <trkpt lat="44.11978" lon="5.06885">
        <ele>170.7</ele>
        <time>2010-11-14T13:51:06Z</time>
      </trkpt>
      <trkpt lat="44.11978" lon="5.06874">
        <ele>170.3</ele>
        <time>2010-11-14T13:51:11Z</time>
      </trkpt>
      <trkpt lat="44.11981" lon="5.06864">
        <ele>169.8</ele>
        <time>2010-11-14T13:51:15Z</time>
      </trkpt>
      <trkpt lat="44.11984" lon="5.06852">
        <ele>169.9</ele>
        <time>2010-11-14T13:51:19Z</time>
      </trkpt>
      <trkpt lat="44.11988" lon="5.06841">
        <ele>170.3</ele>
        <time>2010-11-14T13:51:23Z</time>
      </trkpt>
      <trkpt lat="44.11989" lon="5.06839">
        <ele>170.2</ele>
        <time>2010-11-14T13:51:24Z</time>
      </trkpt>
      <trkpt lat="44.1198" lon="5.06825">
        <ele>169.4</ele>
        <time>2010-11-14T13:51:34Z</time>
      </trkpt>
      <trkpt lat="44.11973" lon="5.0682">
        <ele>169.3</ele>
        <time>2010-11-14T13:51:39Z</time>
      </trkpt>
      <trkpt lat="44.11966" lon="5.06814">
        <ele>169.3</ele>
        <time>2010-11-14T13:51:44Z</time>
      </trkpt>
      <trkpt lat="44.11959" lon="5.06809">
        <ele>169.8</ele>
        <time>2010-11-14T13:51:49Z</time>
      </trkpt>
      <trkpt lat="44.11952" lon="5.06803">
        <ele>171.5</ele>
        <time>2010-11-14T13:51:55Z</time>
      </trkpt>
      <trkpt lat="44.11944" lon="5.06798">
        <ele>171</ele>
        <time>2010-11-14T13:52:00Z</time>
      </trkpt>
      <trkpt lat="44.11936" lon="5.06793">
        <ele>171.2</ele>
        <time>2010-11-14T13:52:05Z</time>
      </trkpt>
      <trkpt lat="44.1193" lon="5.06786">
        <ele>169.7</ele>
        <time>2010-11-14T13:52:11Z</time>
      </trkpt>
      <trkpt lat="44.11926" lon="5.06774">
        <ele>170.4</ele>
        <time>2010-11-14T13:52:16Z</time>
      </trkpt>
      <trkpt lat="44.11918" lon="5.0677">
        <ele>172.5</ele>
        <time>2010-11-14T13:52:22Z</time>
      </trkpt>
      <trkpt lat="44.11909" lon="5.0677">
        <ele>172.8</ele>
        <time>2010-11-14T13:52:29Z</time>
      </trkpt>
      <trkpt lat="44.11907" lon="5.0677">
        <ele>173</ele>
        <time>2010-11-14T13:52:30Z</time>
      </trkpt>
      <trkpt lat="44.11893" lon="5.0677">
        <ele>173.1</ele>
        <time>2010-11-14T13:52:39Z</time>
      </trkpt>
      <trkpt lat="44.11884" lon="5.0677">
        <ele>173.1</ele>
        <time>2010-11-14T13:52:44Z</time>
      </trkpt>
      <trkpt lat="44.11877" lon="5.06771">
        <ele>173.2</ele>
        <time>2010-11-14T13:52:49Z</time>
      </trkpt>
      <trkpt lat="44.11869" lon="5.06772">
        <ele>173.3</ele>
        <time>2010-11-14T13:52:54Z</time>
      </trkpt>
      <trkpt lat="44.11861" lon="5.06772">
        <ele>173.8</ele>
        <time>2010-11-14T13:52:59Z</time>
      </trkpt>
      <trkpt lat="44.11853" lon="5.06773">
        <ele>173.7</ele>
        <time>2010-11-14T13:53:04Z</time>
      </trkpt>
      <trkpt lat="44.11846" lon="5.06773">
        <ele>173</ele>
        <time>2010-11-14T13:53:09Z</time>
      </trkpt>
      <trkpt lat="44.11837" lon="5.06774">
        <ele>174.4</ele>
        <time>2010-11-14T13:53:15Z</time>
      </trkpt>
      <trkpt lat="44.11829" lon="5.06775">
        <ele>174.3</ele>
        <time>2010-11-14T13:53:20Z</time>
      </trkpt>
      <trkpt lat="44.11821" lon="5.06776">
        <ele>173.7</ele>
        <time>2010-11-14T13:53:25Z</time>
      </trkpt>
      <trkpt lat="44.11813" lon="5.06777">
        <ele>173.5</ele>
        <time>2010-11-14T13:53:30Z</time>
      </trkpt>
      <trkpt lat="44.11811" lon="5.06776">
        <ele>173.6</ele>
        <time>2010-11-14T13:53:31Z</time>
      </trkpt>
      <trkpt lat="44.11796" lon="5.06775">
        <ele>178.6</ele>
        <time>2010-11-14T13:53:40Z</time>
      </trkpt>
      <trkpt lat="44.1179" lon="5.06774">
        <ele>178.8</ele>
        <time>2010-11-14T13:53:43Z</time>
      </trkpt>
      <trkpt lat="44.11783" lon="5.06768">
        <ele>179.3</ele>
        <time>2010-11-14T13:53:46Z</time>
      </trkpt>
      <trkpt lat="44.11781" lon="5.06757">
        <ele>180.1</ele>
        <time>2010-11-14T13:53:51Z</time>
      </trkpt>
      <trkpt lat="44.11781" lon="5.06746">
        <ele>180.5</ele>
        <time>2010-11-14T13:53:57Z</time>
      </trkpt>
      <trkpt lat="44.11782" lon="5.06735">
        <ele>181.1</ele>
        <time>2010-11-14T13:54:03Z</time>
      </trkpt>
      <trkpt lat="44.11784" lon="5.06723">
        <ele>180.7</ele>
        <time>2010-11-14T13:54:09Z</time>
      </trkpt>
      <trkpt lat="44.11784" lon="5.06711">
        <ele>180.8</ele>
        <time>2010-11-14T13:54:15Z</time>
      </trkpt>
      <trkpt lat="44.11785" lon="5.067">
        <ele>180.9</ele>
        <time>2010-11-14T13:54:21Z</time>
      </trkpt>
      <trkpt lat="44.11783" lon="5.06689">
        <ele>181</ele>
        <time>2010-11-14T13:54:26Z</time>
      </trkpt>
      <trkpt lat="44.11781" lon="5.06678">
        <ele>181.5</ele>
        <time>2010-11-14T13:54:32Z</time>
      </trkpt>
      <trkpt lat="44.1178" lon="5.06675">
        <ele>181.9</ele>
        <time>2010-11-14T13:54:33Z</time>
      </trkpt>
      <trkpt lat="44.11774" lon="5.06657">
        <ele>183.4</ele>
        <time>2010-11-14T13:54:43Z</time>
      </trkpt>
      <trkpt lat="44.1177" lon="5.06647">
        <ele>183.7</ele>
        <time>2010-11-14T13:54:49Z</time>
      </trkpt>
      <trkpt lat="44.11765" lon="5.06638">
        <ele>184.3</ele>
        <time>2010-11-14T13:54:54Z</time>
      </trkpt>
      <trkpt lat="44.11761" lon="5.06629">
        <ele>184.9</ele>
        <time>2010-11-14T13:54:59Z</time>
      </trkpt>
      <trkpt lat="44.11757" lon="5.06618">
        <ele>185.9</ele>
        <time>2010-11-14T13:55:06Z</time>
      </trkpt>
      <trkpt lat="44.11753" lon="5.06608">
        <ele>186.3</ele>
        <time>2010-11-14T13:55:13Z</time>
      </trkpt>
      <trkpt lat="44.11749" lon="5.06597">
        <ele>186.2</ele>
        <time>2010-11-14T13:55:19Z</time>
      </trkpt>
      <trkpt lat="44.11744" lon="5.06588">
        <ele>186.9</ele>
        <time>2010-11-14T13:55:26Z</time>
      </trkpt>
      <trkpt lat="44.11742" lon="5.06577">
        <ele>188.4</ele>
        <time>2010-11-14T13:55:31Z</time>
      </trkpt>
      <trkpt lat="44.1174" lon="5.06566">
        <ele>188.8</ele>
        <time>2010-11-14T13:55:37Z</time>
      </trkpt>
      <trkpt lat="44.11741" lon="5.06564">
        <ele>188.6</ele>
        <time>2010-11-14T13:55:38Z</time>
      </trkpt>
      <trkpt lat="44.1173" lon="5.06549">
        <ele>188.7</ele>
        <time>2010-11-14T13:55:45Z</time>
      </trkpt>
      <trkpt lat="44.11722" lon="5.06545">
        <ele>189.5</ele>
        <time>2010-11-14T13:55:50Z</time>
      </trkpt>
      <trkpt lat="44.11715" lon="5.0654">
        <ele>189.6</ele>
        <time>2010-11-14T13:55:54Z</time>
      </trkpt>
      <trkpt lat="44.11707" lon="5.06535">
        <ele>190.5</ele>
        <time>2010-11-14T13:55:59Z</time>
      </trkpt>
      <trkpt lat="44.117" lon="5.06529">
        <ele>190.4</ele>
        <time>2010-11-14T13:56:04Z</time>
      </trkpt>
      <trkpt lat="44.11692" lon="5.06523">
        <ele>190.8</ele>
        <time>2010-11-14T13:56:09Z</time>
      </trkpt>
      <trkpt lat="44.11686" lon="5.06514">
        <ele>191.5</ele>
        <time>2010-11-14T13:56:16Z</time>
      </trkpt>
      <trkpt lat="44.11684" lon="5.06505">
        <ele>192.9</ele>
        <time>2010-11-14T13:56:20Z</time>
      </trkpt>
      <trkpt lat="44.11681" lon="5.06496">
        <ele>193.3</ele>
        <time>2010-11-14T13:56:23Z</time>
      </trkpt>
      <trkpt lat="44.11677" lon="5.06487">
        <ele>193.8</ele>
        <time>2010-11-14T13:56:28Z</time>
      </trkpt>
      <trkpt lat="44.11674" lon="5.06477">
        <ele>193.6</ele>
        <time>2010-11-14T13:56:33Z</time>
      </trkpt>
      <trkpt lat="44.11671" lon="5.06466">
        <ele>193.2</ele>
        <time>2010-11-14T13:56:39Z</time>
      </trkpt>
      <trkpt lat="44.1167" lon="5.06465">
        <ele>193.1</ele>
        <time>2010-11-14T13:56:40Z</time>
      </trkpt>
      <trkpt lat="44.11663" lon="5.06449">
        <ele>190.9</ele>
        <time>2010-11-14T13:56:50Z</time>
      </trkpt>
      <trkpt lat="44.11658" lon="5.06439">
        <ele>190.2</ele>
        <time>2010-11-14T13:56:55Z</time>
      </trkpt>
      <trkpt lat="44.11653" lon="5.0643">
        <ele>189.5</ele>
        <time>2010-11-14T13:57:01Z</time>
      </trkpt>
      <trkpt lat="44.11648" lon="5.0642">
        <ele>188.6</ele>
        <time>2010-11-14T13:57:07Z</time>
      </trkpt>
      <trkpt lat="44.11643" lon="5.0641">
        <ele>187.1</ele>
        <time>2010-11-14T13:57:12Z</time>
      </trkpt>
      <trkpt lat="44.11636" lon="5.06406">
        <ele>186.5</ele>
        <time>2010-11-14T13:57:18Z</time>
      </trkpt>
      <trkpt lat="44.11627" lon="5.06408">
        <ele>185.8</ele>
        <time>2010-11-14T13:57:22Z</time>
      </trkpt>
      <trkpt lat="44.1162" lon="5.06411">
        <ele>185.5</ele>
        <time>2010-11-14T13:57:25Z</time>
      </trkpt>
      <trkpt lat="44.11612" lon="5.06414">
        <ele>183.9</ele>
        <time>2010-11-14T13:57:29Z</time>
      </trkpt>
      <trkpt lat="44.11604" lon="5.06419">
        <ele>182.3</ele>
        <time>2010-11-14T13:57:36Z</time>
      </trkpt>
      <trkpt lat="44.11597" lon="5.06422">
        <ele>182</ele>
        <time>2010-11-14T13:57:42Z</time>
      </trkpt>
      <trkpt lat="44.11595" lon="5.06424">
        <ele>181.7</ele>
        <time>2010-11-14T13:57:43Z</time>
      </trkpt>
      <trkpt lat="44.11581" lon="5.06427">
        <ele>180.1</ele>
        <time>2010-11-14T13:57:52Z</time>
      </trkpt>
      <trkpt lat="44.11572" lon="5.06429">
        <ele>180.4</ele>
        <time>2010-11-14T13:57:57Z</time>
      </trkpt>
      <trkpt lat="44.11564" lon="5.06432">
        <ele>179.5</ele>
        <time>2010-11-14T13:58:02Z</time>
      </trkpt>
      <trkpt lat="44.11556" lon="5.06435">
        <ele>179.2</ele>
        <time>2010-11-14T13:58:07Z</time>
      </trkpt>
      <trkpt lat="44.11548" lon="5.06436">
        <ele>180.1</ele>
        <time>2010-11-14T13:58:13Z</time>
      </trkpt>
      <trkpt lat="44.11541" lon="5.06439">
        <ele>180.7</ele>
        <time>2010-11-14T13:58:18Z</time>
      </trkpt>
      <trkpt lat="44.11533" lon="5.06444">
        <ele>179.8</ele>
        <time>2010-11-14T13:58:23Z</time>
      </trkpt>
      <trkpt lat="44.11525" lon="5.06449">
        <ele>180.2</ele>
        <time>2010-11-14T13:58:28Z</time>
      </trkpt>
      <trkpt lat="44.11518" lon="5.06453">
        <ele>180.3</ele>
        <time>2010-11-14T13:58:33Z</time>
      </trkpt>
      <trkpt lat="44.1151" lon="5.06459">
        <ele>179.9</ele>
        <time>2010-11-14T13:58:38Z</time>
      </trkpt>
      <trkpt lat="44.11503" lon="5.06465">
        <ele>179.8</ele>
        <time>2010-11-14T13:58:43Z</time>
      </trkpt>
      <trkpt lat="44.11501" lon="5.06465">
        <ele>179.6</ele>
        <time>2010-11-14T13:58:44Z</time>
      </trkpt>
      <trkpt lat="44.11487" lon="5.0647">
        <ele>178.8</ele>
        <time>2010-11-14T13:58:52Z</time>
      </trkpt>
      <trkpt lat="44.11479" lon="5.06473">
        <ele>178.1</ele>
        <time>2010-11-14T13:58:57Z</time>
      </trkpt>
      <trkpt lat="44.11471" lon="5.06475">
        <ele>178.2</ele>
        <time>2010-11-14T13:59:02Z</time>
      </trkpt>
      <trkpt lat="44.11463" lon="5.06475">
        <ele>177.3</ele>
        <time>2010-11-14T13:59:07Z</time>
      </trkpt>
      <trkpt lat="44.11454" lon="5.06475">
        <ele>176.5</ele>
        <time>2010-11-14T13:59:12Z</time>
      </trkpt>
      <trkpt lat="44.11447" lon="5.06478">
        <ele>175.7</ele>
        <time>2010-11-14T13:59:17Z</time>
      </trkpt>
      <trkpt lat="44.11439" lon="5.06482">
        <ele>175.9</ele>
        <time>2010-11-14T13:59:22Z</time>
      </trkpt>
      <trkpt lat="44.11431" lon="5.06487">
        <ele>174.8</ele>
        <time>2010-11-14T13:59:27Z</time>
      </trkpt>
      <trkpt lat="44.11423" lon="5.06492">
        <ele>174.7</ele>
        <time>2010-11-14T13:59:31Z</time>
      </trkpt>
      <trkpt lat="44.11416" lon="5.06497">
        <ele>174.3</ele>
        <time>2010-11-14T13:59:37Z</time>
      </trkpt>
      <trkpt lat="44.11409" lon="5.06502">
        <ele>174.3</ele>
        <time>2010-11-14T13:59:42Z</time>
      </trkpt>
      <trkpt lat="44.11402" lon="5.06508">
        <ele>173.3</ele>
        <time>2010-11-14T13:59:48Z</time>
      </trkpt>
      <trkpt lat="44.11401" lon="5.06508">
        <ele>173.3</ele>
        <time>2010-11-14T13:59:49Z</time>
      </trkpt>
      <trkpt lat="44.11387" lon="5.06519">
        <ele>173.6</ele>
        <time>2010-11-14T14:00:01Z</time>
      </trkpt>
      <trkpt lat="44.1138" lon="5.06524">
        <ele>173.5</ele>
        <time>2010-11-14T14:00:06Z</time>
      </trkpt>
      <trkpt lat="44.11373" lon="5.0653">
        <ele>173.5</ele>
        <time>2010-11-14T14:00:11Z</time>
      </trkpt>
      <trkpt lat="44.11366" lon="5.06534">
        <ele>173.2</ele>
        <time>2010-11-14T14:00:16Z</time>
      </trkpt>
      <trkpt lat="44.11358" lon="5.06539">
        <ele>172.4</ele>
        <time>2010-11-14T14:00:22Z</time>
      </trkpt>
      <trkpt lat="44.1135" lon="5.06545">
        <ele>172.4</ele>
        <time>2010-11-14T14:00:28Z</time>
      </trkpt>
      <trkpt lat="44.11343" lon="5.06549">
        <ele>172.1</ele>
        <time>2010-11-14T14:00:33Z</time>
      </trkpt>
      <trkpt lat="44.11335" lon="5.06552">
        <ele>171.9</ele>
        <time>2010-11-14T14:00:39Z</time>
      </trkpt>
      <trkpt lat="44.11328" lon="5.06558">
        <ele>171.5</ele>
        <time>2010-11-14T14:00:44Z</time>
      </trkpt>
      <trkpt lat="44.11321" lon="5.06563">
        <ele>171.9</ele>
        <time>2010-11-14T14:00:49Z</time>
      </trkpt>
      <trkpt lat="44.1132" lon="5.06563">
        <ele>171.9</ele>
        <time>2010-11-14T14:00:50Z</time>
      </trkpt>
      <trkpt lat="44.11306" lon="5.0657">
        <ele>172.1</ele>
        <time>2010-11-14T14:01:02Z</time>
      </trkpt>
      <trkpt lat="44.11297" lon="5.06566">
        <ele>171.4</ele>
        <time>2010-11-14T14:01:07Z</time>
      </trkpt>
      <trkpt lat="44.1129" lon="5.06559">
        <ele>170.2</ele>
        <time>2010-11-14T14:01:13Z</time>
      </trkpt>
      <trkpt lat="44.11285" lon="5.06549">
        <ele>169.2</ele>
        <time>2010-11-14T14:01:19Z</time>
      </trkpt>
      <trkpt lat="44.11282" lon="5.06539">
        <ele>168.5</ele>
        <time>2010-11-14T14:01:25Z</time>
      </trkpt>
      <trkpt lat="44.11277" lon="5.06531">
        <ele>167.7</ele>
        <time>2010-11-14T14:01:30Z</time>
      </trkpt>
      <trkpt lat="44.11273" lon="5.06522">
        <ele>166.6</ele>
        <time>2010-11-14T14:01:35Z</time>
      </trkpt>
      <trkpt lat="44.11269" lon="5.06511">
        <ele>166.1</ele>
        <time>2010-11-14T14:01:40Z</time>
      </trkpt>
      <trkpt lat="44.11264" lon="5.06502">
        <ele>165.1</ele>
        <time>2010-11-14T14:01:46Z</time>
      </trkpt>
      <trkpt lat="44.1126" lon="5.06492">
        <ele>164.2</ele>
        <time>2010-11-14T14:01:52Z</time>
      </trkpt>
      <trkpt lat="44.1126" lon="5.0649">
        <ele>164.3</ele>
        <time>2010-11-14T14:01:53Z</time>
      </trkpt>
      <trkpt lat="44.11254" lon="5.06471">
        <ele>163.2</ele>
        <time>2010-11-14T14:02:04Z</time>
      </trkpt>
      <trkpt lat="44.1125" lon="5.06461">
        <ele>162</ele>
        <time>2010-11-14T14:02:10Z</time>
      </trkpt>
      <trkpt lat="44.11246" lon="5.06451">
        <ele>161.2</ele>
        <time>2010-11-14T14:02:17Z</time>
      </trkpt>
      <trkpt lat="44.11242" lon="5.06441">
        <ele>160.1</ele>
        <time>2010-11-14T14:02:23Z</time>
      </trkpt>
      <trkpt lat="44.11238" lon="5.06431">
        <ele>159.3</ele>
        <time>2010-11-14T14:02:29Z</time>
      </trkpt>
      <trkpt lat="44.11233" lon="5.06422">
        <ele>158.6</ele>
        <time>2010-11-14T14:02:35Z</time>
      </trkpt>
      <trkpt lat="44.11229" lon="5.06413">
        <ele>157</ele>
        <time>2010-11-14T14:02:43Z</time>
      </trkpt>
      <trkpt lat="44.11231" lon="5.06401">
        <ele>155.9</ele>
        <time>2010-11-14T14:02:48Z</time>
      </trkpt>
      <trkpt lat="44.11235" lon="5.06392">
        <ele>155.5</ele>
        <time>2010-11-14T14:02:52Z</time>
      </trkpt>
      <trkpt lat="44.1124" lon="5.06383">
        <ele>155.1</ele>
        <time>2010-11-14T14:02:57Z</time>
      </trkpt>
      <trkpt lat="44.11241" lon="5.06382">
        <ele>155.2</ele>
        <time>2010-11-14T14:02:58Z</time>
      </trkpt>
      <trkpt lat="44.11248" lon="5.06363">
        <ele>153.9</ele>
        <time>2010-11-14T14:03:08Z</time>
      </trkpt>
      <trkpt lat="44.11253" lon="5.06355">
        <ele>153.3</ele>
        <time>2010-11-14T14:03:13Z</time>
      </trkpt>
      <trkpt lat="44.11258" lon="5.06345">
        <ele>153.3</ele>
        <time>2010-11-14T14:03:19Z</time>
      </trkpt>
      <trkpt lat="44.1126" lon="5.06333">
        <ele>153.4</ele>
        <time>2010-11-14T14:03:25Z</time>
      </trkpt>
      <trkpt lat="44.11255" lon="5.06323">
        <ele>151.5</ele>
        <time>2010-11-14T14:03:34Z</time>
      </trkpt>
      <trkpt lat="44.11247" lon="5.06323">
        <ele>151.8</ele>
        <time>2010-11-14T14:03:42Z</time>
      </trkpt>
      <trkpt lat="44.11239" lon="5.06324">
        <ele>151.4</ele>
        <time>2010-11-14T14:03:49Z</time>
      </trkpt>
      <trkpt lat="44.11231" lon="5.06326">
        <ele>151</ele>
        <time>2010-11-14T14:03:54Z</time>
      </trkpt>
      <trkpt lat="44.11223" lon="5.06328">
        <ele>150.6</ele>
        <time>2010-11-14T14:04:00Z</time>
      </trkpt>
      <trkpt lat="44.11222" lon="5.06329">
        <ele>150.5</ele>
        <time>2010-11-14T14:04:01Z</time>
      </trkpt>
      <trkpt lat="44.11206" lon="5.06331">
        <ele>150.2</ele>
        <time>2010-11-14T14:04:11Z</time>
      </trkpt>
      <trkpt lat="44.11197" lon="5.06332">
        <ele>149.7</ele>
        <time>2010-11-14T14:04:17Z</time>
      </trkpt>
      <trkpt lat="44.11189" lon="5.06331">
        <ele>149.9</ele>
        <time>2010-11-14T14:04:22Z</time>
      </trkpt>
      <trkpt lat="44.11182" lon="5.06336">
        <ele>149.4</ele>
        <time>2010-11-14T14:04:27Z</time>
      </trkpt>
      <trkpt lat="44.11174" lon="5.06343">
        <ele>149.3</ele>
        <time>2010-11-14T14:04:32Z</time>
      </trkpt>
      <trkpt lat="44.11167" lon="5.06347">
        <ele>148.9</ele>
        <time>2010-11-14T14:04:38Z</time>
      </trkpt>
      <trkpt lat="44.11158" lon="5.06351">
        <ele>149.4</ele>
        <time>2010-11-14T14:04:44Z</time>
      </trkpt>
      <trkpt lat="44.11151" lon="5.06354">
        <ele>149.8</ele>
        <time>2010-11-14T14:04:50Z</time>
      </trkpt>
      <trkpt lat="44.11143" lon="5.06359">
        <ele>150</ele>
        <time>2010-11-14T14:04:56Z</time>
      </trkpt>
      <trkpt lat="44.11135" lon="5.06364">
        <ele>150.1</ele>
        <time>2010-11-14T14:05:02Z</time>
      </trkpt>
      <trkpt lat="44.11133" lon="5.06365">
        <ele>150.1</ele>
        <time>2010-11-14T14:05:03Z</time>
      </trkpt>
      <trkpt lat="44.11121" lon="5.06376">
        <ele>151.4</ele>
        <time>2010-11-14T14:05:13Z</time>
      </trkpt>
      <trkpt lat="44.11113" lon="5.0638">
        <ele>151.4</ele>
        <time>2010-11-14T14:05:19Z</time>
      </trkpt>
      <trkpt lat="44.11105" lon="5.06384">
        <ele>152</ele>
        <time>2010-11-14T14:05:25Z</time>
      </trkpt>
      <trkpt lat="44.11097" lon="5.06387">
        <ele>152.2</ele>
        <time>2010-11-14T14:05:30Z</time>
      </trkpt>
      <trkpt lat="44.11089" lon="5.06385">
        <ele>151.7</ele>
        <time>2010-11-14T14:05:35Z</time>
      </trkpt>
      <trkpt lat="44.11083" lon="5.06379">
        <ele>151.3</ele>
        <time>2010-11-14T14:05:39Z</time>
      </trkpt>
      <trkpt lat="44.11077" lon="5.06372">
        <ele>151.5</ele>
        <time>2010-11-14T14:05:43Z</time>
      </trkpt>
      <trkpt lat="44.11073" lon="5.06361">
        <ele>150.8</ele>
        <time>2010-11-14T14:05:49Z</time>
      </trkpt>
      <trkpt lat="44.11066" lon="5.06355">
        <ele>149.9</ele>
        <time>2010-11-14T14:05:56Z</time>
      </trkpt>
      <trkpt lat="44.11057" lon="5.06358">
        <ele>150.8</ele>
        <time>2010-11-14T14:06:02Z</time>
      </trkpt>
      <trkpt lat="44.1105" lon="5.06362">
        <ele>150.9</ele>
        <time>2010-11-14T14:06:07Z</time>
      </trkpt>
      <trkpt lat="44.11048" lon="5.06363">
        <ele>150.8</ele>
        <time>2010-11-14T14:06:08Z</time>
      </trkpt>
      <trkpt lat="44.11035" lon="5.06372">
        <ele>151.2</ele>
        <time>2010-11-14T14:06:18Z</time>
      </trkpt>
      <trkpt lat="44.11028" lon="5.06376">
        <ele>151.6</ele>
        <time>2010-11-14T14:06:23Z</time>
      </trkpt>
      <trkpt lat="44.1102" lon="5.06381">
        <ele>150.9</ele>
        <time>2010-11-14T14:06:28Z</time>
      </trkpt>
      <trkpt lat="44.11013" lon="5.06384">
        <ele>150.4</ele>
        <time>2010-11-14T14:06:33Z</time>
      </trkpt>
      <trkpt lat="44.11006" lon="5.06388">
        <ele>150.7</ele>
        <time>2010-11-14T14:06:38Z</time>
      </trkpt>
      <trkpt lat="44.10998" lon="5.06392">
        <ele>150</ele>
        <time>2010-11-14T14:06:43Z</time>
      </trkpt>
      <trkpt lat="44.1099" lon="5.06395">
        <ele>150.2</ele>
        <time>2010-11-14T14:06:49Z</time>
      </trkpt>
      <trkpt lat="44.10982" lon="5.06397">
        <ele>149.9</ele>
        <time>2010-11-14T14:06:54Z</time>
      </trkpt>
      <trkpt lat="44.10975" lon="5.06402">
        <ele>150.6</ele>
        <time>2010-11-14T14:06:59Z</time>
      </trkpt>
      <trkpt lat="44.10967" lon="5.06406">
        <ele>149.8</ele>
        <time>2010-11-14T14:07:05Z</time>
      </trkpt>
      <trkpt lat="44.10959" lon="5.06408">
        <ele>149.7</ele>
        <time>2010-11-14T14:07:10Z</time>
      </trkpt>
      <trkpt lat="44.10957" lon="5.06409">
        <ele>149.8</ele>
        <time>2010-11-14T14:07:11Z</time>
      </trkpt>
      <trkpt lat="44.10943" lon="5.06416">
        <ele>148.2</ele>
        <time>2010-11-14T14:07:20Z</time>
      </trkpt>
      <trkpt lat="44.10935" lon="5.06419">
        <ele>148.7</ele>
        <time>2010-11-14T14:07:25Z</time>
      </trkpt>
      <trkpt lat="44.10926" lon="5.06422">
        <ele>148.4</ele>
        <time>2010-11-14T14:07:30Z</time>
      </trkpt>
      <trkpt lat="44.10917" lon="5.06423">
        <ele>147.5</ele>
        <time>2010-11-14T14:07:35Z</time>
      </trkpt>
      <trkpt lat="44.1091" lon="5.06426">
        <ele>147.1</ele>
        <time>2010-11-14T14:07:40Z</time>
      </trkpt>
      <trkpt lat="44.10903" lon="5.06428">
        <ele>147.5</ele>
        <time>2010-11-14T14:07:44Z</time>
      </trkpt>
      <trkpt lat="44.10894" lon="5.0643">
        <ele>148</ele>
        <time>2010-11-14T14:07:49Z</time>
      </trkpt>
      <trkpt lat="44.10886" lon="5.0643">
        <ele>147.7</ele>
        <time>2010-11-14T14:07:55Z</time>
      </trkpt>
      <trkpt lat="44.10882" lon="5.0642">
        <ele>147.4</ele>
        <time>2010-11-14T14:08:00Z</time>
      </trkpt>
      <trkpt lat="44.1088" lon="5.0641">
        <ele>146.4</ele>
        <time>2010-11-14T14:08:05Z</time>
      </trkpt>
      <trkpt lat="44.10877" lon="5.06398">
        <ele>146.3</ele>
        <time>2010-11-14T14:08:10Z</time>
      </trkpt>
      <trkpt lat="44.10874" lon="5.06387">
        <ele>144.9</ele>
        <time>2010-11-14T14:08:15Z</time>
      </trkpt>
      <trkpt lat="44.10873" lon="5.06385">
        <ele>144.6</ele>
        <time>2010-11-14T14:08:16Z</time>
      </trkpt>
      <trkpt lat="44.10867" lon="5.06367">
        <ele>143.6</ele>
        <time>2010-11-14T14:08:24Z</time>
      </trkpt>
      <trkpt lat="44.10865" lon="5.06357">
        <ele>143.2</ele>
        <time>2010-11-14T14:08:29Z</time>
      </trkpt>
      <trkpt lat="44.10862" lon="5.06346">
        <ele>142.5</ele>
        <time>2010-11-14T14:08:34Z</time>
      </trkpt>
      <trkpt lat="44.1086" lon="5.06336">
        <ele>141.5</ele>
        <time>2010-11-14T14:08:39Z</time>
      </trkpt>
      <trkpt lat="44.10856" lon="5.06325">
        <ele>140.9</ele>
        <time>2010-11-14T14:08:44Z</time>
      </trkpt>
      <trkpt lat="44.10854" lon="5.06314">
        <ele>140.4</ele>
        <time>2010-11-14T14:08:50Z</time>
      </trkpt>
      <trkpt lat="44.10852" lon="5.06303">
        <ele>139.7</ele>
        <time>2010-11-14T14:08:55Z</time>
      </trkpt>
      <trkpt lat="44.1085" lon="5.06292">
        <ele>139.9</ele>
        <time>2010-11-14T14:09:00Z</time>
      </trkpt>
      <trkpt lat="44.10852" lon="5.06281">
        <ele>139</ele>
        <time>2010-11-14T14:09:06Z</time>
      </trkpt>
      <trkpt lat="44.10858" lon="5.06271">
        <ele>139.3</ele>
        <time>2010-11-14T14:09:12Z</time>
      </trkpt>
      <trkpt lat="44.10861" lon="5.06259">
        <ele>139.5</ele>
        <time>2010-11-14T14:09:18Z</time>
      </trkpt>
      <trkpt lat="44.1086" lon="5.06257">
        <ele>139.6</ele>
        <time>2010-11-14T14:09:19Z</time>
      </trkpt>
      <trkpt lat="44.10867" lon="5.06242">
        <ele>139</ele>
        <time>2010-11-14T14:09:28Z</time>
      </trkpt>
      <trkpt lat="44.10873" lon="5.06233">
        <ele>139.1</ele>
        <time>2010-11-14T14:09:34Z</time>
      </trkpt>
      <trkpt lat="44.10879" lon="5.06226">
        <ele>139.2</ele>
        <time>2010-11-14T14:09:40Z</time>
      </trkpt>
      <trkpt lat="44.10887" lon="5.0622">
        <ele>139</ele>
        <time>2010-11-14T14:09:45Z</time>
      </trkpt>
      <trkpt lat="44.10895" lon="5.06214">
        <ele>139</ele>
        <time>2010-11-14T14:09:50Z</time>
      </trkpt>
      <trkpt lat="44.10901" lon="5.06206">
        <ele>138.7</ele>
        <time>2010-11-14T14:09:55Z</time>
      </trkpt>
      <trkpt lat="44.10897" lon="5.06196">
        <ele>137.8</ele>
        <time>2010-11-14T14:10:01Z</time>
      </trkpt>
      <trkpt lat="44.10892" lon="5.06186">
        <ele>137.3</ele>
        <time>2010-11-14T14:10:06Z</time>
      </trkpt>
      <trkpt lat="44.10886" lon="5.0618">
        <ele>137</ele>
        <time>2010-11-14T14:10:13Z</time>
      </trkpt>
      <trkpt lat="44.10881" lon="5.06173">
        <ele>136.9</ele>
        <time>2010-11-14T14:10:19Z</time>
      </trkpt>
      <trkpt lat="44.1088" lon="5.06171">
        <ele>136.7</ele>
        <time>2010-11-14T14:10:20Z</time>
      </trkpt>
      <trkpt lat="44.10867" lon="5.06159">
        <ele>135.7</ele>
        <time>2010-11-14T14:10:47Z</time>
      </trkpt>
      <trkpt lat="44.1086" lon="5.06153">
        <ele>134.7</ele>
        <time>2010-11-14T14:11:12Z</time>
      </trkpt>
      <trkpt lat="44.10851" lon="5.0615">
        <ele>135</ele>
        <time>2010-11-14T14:11:27Z</time>
      </trkpt>
      <trkpt lat="44.1085" lon="5.06151">
        <ele>134.9</ele>
        <time>2010-11-14T14:11:28Z</time>
      </trkpt>
      <trkpt lat="44.10835" lon="5.06155">
        <ele>133.7</ele>
        <time>2010-11-14T14:11:41Z</time>
      </trkpt>
      <trkpt lat="44.10827" lon="5.06156">
        <ele>134.1</ele>
        <time>2010-11-14T14:11:48Z</time>
      </trkpt>
      <trkpt lat="44.10819" lon="5.06158">
        <ele>133.4</ele>
        <time>2010-11-14T14:12:01Z</time>
      </trkpt>
      <trkpt lat="44.10812" lon="5.06166">
        <ele>133</ele>
        <time>2010-11-14T14:12:12Z</time>
      </trkpt>
      <trkpt lat="44.10805" lon="5.06171">
        <ele>133.3</ele>
        <time>2010-11-14T14:12:19Z</time>
      </trkpt>
      <trkpt lat="44.10799" lon="5.06178">
        <ele>132.9</ele>
        <time>2010-11-14T14:12:24Z</time>
      </trkpt>
      <trkpt lat="44.10793" lon="5.06185">
        <ele>133</ele>
        <time>2010-11-14T14:12:30Z</time>
      </trkpt>
      <trkpt lat="44.10792" lon="5.06186">
        <ele>133</ele>
        <time>2010-11-14T14:12:31Z</time>
      </trkpt>
      <trkpt lat="44.10782" lon="5.06202">
        <ele>132.3</ele>
        <time>2010-11-14T14:12:41Z</time>
      </trkpt>
      <trkpt lat="44.10776" lon="5.06211">
        <ele>132.5</ele>
        <time>2010-11-14T14:12:48Z</time>
      </trkpt>
      <trkpt lat="44.10768" lon="5.06217">
        <ele>133.3</ele>
        <time>2010-11-14T14:12:59Z</time>
      </trkpt>
      <trkpt lat="44.10763" lon="5.06227">
        <ele>132.6</ele>
        <time>2010-11-14T14:13:15Z</time>
      </trkpt>
      <trkpt lat="44.10755" lon="5.06231">
        <ele>132.3</ele>
        <time>2010-11-14T14:13:25Z</time>
      </trkpt>
      <trkpt lat="44.10748" lon="5.06224">
        <ele>130.3</ele>
        <time>2010-11-14T14:13:33Z</time>
      </trkpt>
      <trkpt lat="44.10747" lon="5.06221">
        <ele>130</ele>
        <time>2010-11-14T14:13:34Z</time>
      </trkpt>
      <trkpt lat="44.10738" lon="5.06205">
        <ele>129.2</ele>
        <time>2010-11-14T14:13:42Z</time>
      </trkpt>
      <trkpt lat="44.10735" lon="5.06196">
        <ele>128.1</ele>
        <time>2010-11-14T14:13:47Z</time>
      </trkpt>
      <trkpt lat="44.10731" lon="5.06187">
        <ele>127.6</ele>
        <time>2010-11-14T14:13:51Z</time>
      </trkpt>
      <trkpt lat="44.10728" lon="5.06176">
        <ele>127.7</ele>
        <time>2010-11-14T14:13:56Z</time>
      </trkpt>
      <trkpt lat="44.1073" lon="5.06164">
        <ele>127.8</ele>
        <time>2010-11-14T14:14:02Z</time>
      </trkpt>
      <trkpt lat="44.10731" lon="5.06152">
        <ele>127.1</ele>
        <time>2010-11-14T14:14:08Z</time>
      </trkpt>
      <trkpt lat="44.10735" lon="5.0614">
        <ele>126.4</ele>
        <time>2010-11-14T14:14:13Z</time>
      </trkpt>
      <trkpt lat="44.10737" lon="5.0613">
        <ele>125.9</ele>
        <time>2010-11-14T14:14:18Z</time>
      </trkpt>
      <trkpt lat="44.10739" lon="5.06118">
        <ele>125.1</ele>
        <time>2010-11-14T14:14:24Z</time>
      </trkpt>
      <trkpt lat="44.10739" lon="5.06105">
        <ele>125.2</ele>
        <time>2010-11-14T14:14:29Z</time>
      </trkpt>
      <trkpt lat="44.1074" lon="5.06093">
        <ele>125.1</ele>
        <time>2010-11-14T14:14:34Z</time>
      </trkpt>
      <trkpt lat="44.10739" lon="5.06091">
        <ele>125.1</ele>
        <time>2010-11-14T14:14:35Z</time>
      </trkpt>
      <trkpt lat="44.10738" lon="5.0607">
        <ele>124.8</ele>
        <time>2010-11-14T14:14:44Z</time>
      </trkpt>
      <trkpt lat="44.10735" lon="5.06058">
        <ele>124.5</ele>
        <time>2010-11-14T14:14:49Z</time>
      </trkpt>
      <trkpt lat="44.10734" lon="5.06047">
        <ele>124.1</ele>
        <time>2010-11-14T14:14:54Z</time>
      </trkpt>
      <trkpt lat="44.1073" lon="5.06036">
        <ele>123.5</ele>
        <time>2010-11-14T14:14:58Z</time>
      </trkpt>
      <trkpt lat="44.10727" lon="5.06025">
        <ele>123.3</ele>
        <time>2010-11-14T14:15:03Z</time>
      </trkpt>
      <trkpt lat="44.10724" lon="5.06015">
        <ele>122.9</ele>
        <time>2010-11-14T14:15:08Z</time>
      </trkpt>
      <trkpt lat="44.10721" lon="5.06004">
        <ele>122.4</ele>
        <time>2010-11-14T14:15:13Z</time>
      </trkpt>
      <trkpt lat="44.10718" lon="5.05994">
        <ele>121.7</ele>
        <time>2010-11-14T14:15:17Z</time>
      </trkpt>
      <trkpt lat="44.10714" lon="5.05983">
        <ele>121.3</ele>
        <time>2010-11-14T14:15:22Z</time>
      </trkpt>
      <trkpt lat="44.10711" lon="5.05973">
        <ele>120.8</ele>
        <time>2010-11-14T14:15:28Z</time>
      </trkpt>
      <trkpt lat="44.10708" lon="5.05964">
        <ele>120.2</ele>
        <time>2010-11-14T14:15:33Z</time>
      </trkpt>
      <trkpt lat="44.10705" lon="5.05953">
        <ele>120</ele>
        <time>2010-11-14T14:15:38Z</time>
      </trkpt>
      <trkpt lat="44.10705" lon="5.0595">
        <ele>120.1</ele>
        <time>2010-11-14T14:15:39Z</time>
      </trkpt>
      <trkpt lat="44.10704" lon="5.05931">
        <ele>120.1</ele>
        <time>2010-11-14T14:15:48Z</time>
      </trkpt>
      <trkpt lat="44.10702" lon="5.0592">
        <ele>119.2</ele>
        <time>2010-11-14T14:15:53Z</time>
      </trkpt>
      <trkpt lat="44.107" lon="5.0591">
        <ele>118.7</ele>
        <time>2010-11-14T14:15:58Z</time>
      </trkpt>
      <trkpt lat="44.10696" lon="5.059">
        <ele>119</ele>
        <time>2010-11-14T14:16:03Z</time>
      </trkpt>
      <trkpt lat="44.10689" lon="5.05893">
        <ele>118.2</ele>
        <time>2010-11-14T14:16:08Z</time>
      </trkpt>
      <trkpt lat="44.10681" lon="5.05893">
        <ele>118.6</ele>
        <time>2010-11-14T14:16:14Z</time>
      </trkpt>
      <trkpt lat="44.10672" lon="5.05894">
        <ele>117.8</ele>
        <time>2010-11-14T14:16:20Z</time>
      </trkpt>
      <trkpt lat="44.10664" lon="5.05897">
        <ele>116.9</ele>
        <time>2010-11-14T14:16:25Z</time>
      </trkpt>
      <trkpt lat="44.10657" lon="5.05896">
        <ele>117.2</ele>
        <time>2010-11-14T14:16:30Z</time>
      </trkpt>
      <trkpt lat="44.10652" lon="5.05886">
        <ele>116.8</ele>
        <time>2010-11-14T14:16:35Z</time>
      </trkpt>
      <trkpt lat="44.10649" lon="5.05875">
        <ele>116.4</ele>
        <time>2010-11-14T14:16:40Z</time>
      </trkpt>
      <trkpt lat="44.10648" lon="5.05873">
        <ele>116.4</ele>
        <time>2010-11-14T14:16:41Z</time>
      </trkpt>
      <trkpt lat="44.10646" lon="5.05854">
        <ele>115.9</ele>
        <time>2010-11-14T14:16:50Z</time>
      </trkpt>
      <trkpt lat="44.10645" lon="5.05842">
        <ele>115.5</ele>
        <time>2010-11-14T14:16:56Z</time>
      </trkpt>
      <trkpt lat="44.10643" lon="5.05831">
        <ele>115.6</ele>
        <time>2010-11-14T14:17:01Z</time>
      </trkpt>
      <trkpt lat="44.10643" lon="5.0582">
        <ele>114.7</ele>
        <time>2010-11-14T14:17:06Z</time>
      </trkpt>
      <trkpt lat="44.10641" lon="5.05808">
        <ele>114.6</ele>
        <time>2010-11-14T14:17:11Z</time>
      </trkpt>
      <trkpt lat="44.10641" lon="5.05796">
        <ele>113.8</ele>
        <time>2010-11-14T14:17:17Z</time>
      </trkpt>
      <trkpt lat="44.10641" lon="5.05785">
        <ele>113.4</ele>
        <time>2010-11-14T14:17:22Z</time>
      </trkpt>
      <trkpt lat="44.1064" lon="5.05774">
        <ele>112.7</ele>
        <time>2010-11-14T14:17:27Z</time>
      </trkpt>
      <trkpt lat="44.10639" lon="5.05763">
        <ele>112.6</ele>
        <time>2010-11-14T14:17:32Z</time>
      </trkpt>
      <trkpt lat="44.10638" lon="5.05752">
        <ele>112.5</ele>
        <time>2010-11-14T14:17:37Z</time>
      </trkpt>
      <trkpt lat="44.10636" lon="5.05742">
        <ele>112.6</ele>
        <time>2010-11-14T14:17:41Z</time>
      </trkpt>
      <trkpt lat="44.10635" lon="5.05739">
        <ele>112.4</ele>
        <time>2010-11-14T14:17:42Z</time>
      </trkpt>
      <trkpt lat="44.10635" lon="5.05719">
        <ele>113.1</ele>
        <time>2010-11-14T14:17:52Z</time>
      </trkpt>
      <trkpt lat="44.10634" lon="5.05707">
        <ele>113.5</ele>
        <time>2010-11-14T14:17:57Z</time>
      </trkpt>
      <trkpt lat="44.10632" lon="5.05696">
        <ele>113.9</ele>
        <time>2010-11-14T14:18:03Z</time>
      </trkpt>
      <trkpt lat="44.10626" lon="5.05688">
        <ele>113.3</ele>
        <time>2010-11-14T14:18:08Z</time>
      </trkpt>
      <trkpt lat="44.1062" lon="5.0568">
        <ele>113.2</ele>
        <time>2010-11-14T14:18:13Z</time>
      </trkpt>
      <trkpt lat="44.10615" lon="5.05673">
        <ele>112.9</ele>
        <time>2010-11-14T14:18:17Z</time>
      </trkpt>
      <trkpt lat="44.1061" lon="5.05665">
        <ele>112.7</ele>
        <time>2010-11-14T14:18:22Z</time>
      </trkpt>
      <trkpt lat="44.10605" lon="5.05657">
        <ele>111.7</ele>
        <time>2010-11-14T14:18:27Z</time>
      </trkpt>
      <trkpt lat="44.10599" lon="5.05648">
        <ele>111.4</ele>
        <time>2010-11-14T14:18:32Z</time>
      </trkpt>
      <trkpt lat="44.10594" lon="5.05638">
        <ele>110.2</ele>
        <time>2010-11-14T14:18:38Z</time>
      </trkpt>
      <trkpt lat="44.1059" lon="5.05628">
        <ele>109.9</ele>
        <time>2010-11-14T14:18:43Z</time>
      </trkpt>
      <trkpt lat="44.1059" lon="5.05626">
        <ele>109.7</ele>
        <time>2010-11-14T14:18:44Z</time>
      </trkpt>
      <trkpt lat="44.10591" lon="5.05607">
        <ele>108.8</ele>
        <time>2010-11-14T14:18:53Z</time>
      </trkpt>
      <trkpt lat="44.10594" lon="5.05595">
        <ele>108.7</ele>
        <time>2010-11-14T14:18:59Z</time>
      </trkpt>
      <trkpt lat="44.10595" lon="5.05584">
        <ele>108.4</ele>
        <time>2010-11-14T14:19:04Z</time>
      </trkpt>
      <trkpt lat="44.10597" lon="5.05574">
        <ele>108.4</ele>
        <time>2010-11-14T14:19:09Z</time>
      </trkpt>
      <trkpt lat="44.10599" lon="5.05564">
        <ele>107.8</ele>
        <time>2010-11-14T14:19:14Z</time>
      </trkpt>
      <trkpt lat="44.106" lon="5.05553">
        <ele>108</ele>
        <time>2010-11-14T14:19:19Z</time>
      </trkpt>
      <trkpt lat="44.10603" lon="5.05542">
        <ele>107.9</ele>
        <time>2010-11-14T14:19:24Z</time>
      </trkpt>
      <trkpt lat="44.10603" lon="5.0553">
        <ele>108.3</ele>
        <time>2010-11-14T14:19:30Z</time>
      </trkpt>
      <trkpt lat="44.10597" lon="5.05522">
        <ele>108</ele>
        <time>2010-11-14T14:19:38Z</time>
      </trkpt>
      <trkpt lat="44.10588" lon="5.05522">
        <ele>108</ele>
        <time>2010-11-14T14:19:44Z</time>
      </trkpt>
      <trkpt lat="44.10587" lon="5.05522">
        <ele>107.8</ele>
        <time>2010-11-14T14:19:45Z</time>
      </trkpt>
      <trkpt lat="44.10572" lon="5.05518">
        <ele>107.6</ele>
        <time>2010-11-14T14:19:54Z</time>
      </trkpt>
      <trkpt lat="44.10564" lon="5.05514">
        <ele>107.3</ele>
        <time>2010-11-14T14:20:00Z</time>
      </trkpt>
      <trkpt lat="44.10557" lon="5.05509">
        <ele>107.4</ele>
        <time>2010-11-14T14:20:05Z</time>
      </trkpt>
      <trkpt lat="44.1055" lon="5.05504">
        <ele>107.2</ele>
        <time>2010-11-14T14:20:09Z</time>
      </trkpt>
      <trkpt lat="44.10543" lon="5.055">
        <ele>106.3</ele>
        <time>2010-11-14T14:20:14Z</time>
      </trkpt>
      <trkpt lat="44.10535" lon="5.05495">
        <ele>106</ele>
        <time>2010-11-14T14:20:18Z</time>
      </trkpt>
      <trkpt lat="44.10527" lon="5.0549">
        <ele>105.8</ele>
        <time>2010-11-14T14:20:24Z</time>
      </trkpt>
      <trkpt lat="44.10521" lon="5.05486">
        <ele>105.9</ele>
        <time>2010-11-14T14:20:30Z</time>
      </trkpt>
      <trkpt lat="44.10512" lon="5.05481">
        <ele>105.3</ele>
        <time>2010-11-14T14:20:36Z</time>
      </trkpt>
      <trkpt lat="44.10506" lon="5.05477">
        <ele>104.9</ele>
        <time>2010-11-14T14:20:40Z</time>
      </trkpt>
      <trkpt lat="44.10498" lon="5.05473">
        <ele>104.6</ele>
        <time>2010-11-14T14:20:44Z</time>
      </trkpt>
      <trkpt lat="44.1049" lon="5.05468">
        <ele>104.8</ele>
        <time>2010-11-14T14:20:48Z</time>
      </trkpt>
      <trkpt lat="44.10488" lon="5.05468">
        <ele>104.5</ele>
        <time>2010-11-14T14:20:49Z</time>
      </trkpt>
      <trkpt lat="44.10475" lon="5.05455">
        <ele>103.5</ele>
        <time>2010-11-14T14:21:02Z</time>
      </trkpt>
      <trkpt lat="44.10468" lon="5.05452">
        <ele>103.3</ele>
        <time>2010-11-14T14:21:05Z</time>
      </trkpt>
      <trkpt lat="44.10461" lon="5.05447">
        <ele>103.2</ele>
        <time>2010-11-14T14:21:09Z</time>
      </trkpt>
      <trkpt lat="44.10454" lon="5.05442">
        <ele>103.1</ele>
        <time>2010-11-14T14:21:14Z</time>
      </trkpt>
      <trkpt lat="44.10446" lon="5.05436">
        <ele>102.8</ele>
        <time>2010-11-14T14:21:18Z</time>
      </trkpt>
      <trkpt lat="44.10438" lon="5.05432">
        <ele>102.6</ele>
        <time>2010-11-14T14:21:22Z</time>
      </trkpt>
      <trkpt lat="44.10431" lon="5.05428">
        <ele>103.1</ele>
        <time>2010-11-14T14:21:26Z</time>
      </trkpt>
      <trkpt lat="44.10423" lon="5.05425">
        <ele>102.9</ele>
        <time>2010-11-14T14:21:32Z</time>
      </trkpt>
      <trkpt lat="44.10415" lon="5.05422">
        <ele>103.2</ele>
        <time>2010-11-14T14:21:38Z</time>
      </trkpt>
      <trkpt lat="44.10408" lon="5.05419">
        <ele>103.5</ele>
        <time>2010-11-14T14:21:42Z</time>
      </trkpt>
      <trkpt lat="44.104" lon="5.05415">
        <ele>104</ele>
        <time>2010-11-14T14:21:48Z</time>
      </trkpt>
      <trkpt lat="44.10393" lon="5.05411">
        <ele>102.6</ele>
        <time>2010-11-14T14:21:53Z</time>
      </trkpt>
      <trkpt lat="44.10392" lon="5.0541">
        <ele>102.6</ele>
        <time>2010-11-14T14:21:54Z</time>
      </trkpt>
      <trkpt lat="44.10393" lon="5.05392">
        <ele>102.6</ele>
        <time>2010-11-14T14:22:04Z</time>
      </trkpt>
      <trkpt lat="44.10396" lon="5.05381">
        <ele>102.2</ele>
        <time>2010-11-14T14:22:09Z</time>
      </trkpt>
      <trkpt lat="44.10401" lon="5.0537">
        <ele>102.4</ele>
        <time>2010-11-14T14:22:14Z</time>
      </trkpt>
      <trkpt lat="44.10405" lon="5.0536">
        <ele>102.6</ele>
        <time>2010-11-14T14:22:19Z</time>
      </trkpt>
      <trkpt lat="44.10408" lon="5.0535">
        <ele>102</ele>
        <time>2010-11-14T14:22:25Z</time>
      </trkpt>
      <trkpt lat="44.10412" lon="5.05341">
        <ele>101.7</ele>
        <time>2010-11-14T14:22:30Z</time>
      </trkpt>
      <trkpt lat="44.10417" lon="5.05331">
        <ele>102.2</ele>
        <time>2010-11-14T14:22:35Z</time>
      </trkpt>
      <trkpt lat="44.10419" lon="5.05321">
        <ele>102.3</ele>
        <time>2010-11-14T14:22:40Z</time>
      </trkpt>
      <trkpt lat="44.10421" lon="5.05312">
        <ele>102.3</ele>
        <time>2010-11-14T14:22:44Z</time>
      </trkpt>
      <trkpt lat="44.10425" lon="5.05306">
        <ele>102.3</ele>
        <time>2010-11-14T14:22:46Z</time>
      </trkpt>
      <trkpt lat="44.1043" lon="5.05299">
        <ele>101.9</ele>
        <time>2010-11-14T14:22:48Z</time>
      </trkpt>
      <trkpt lat="44.10437" lon="5.05291">
        <ele>101.5</ele>
        <time>2010-11-14T14:22:50Z</time>
      </trkpt>
      <trkpt lat="44.10442" lon="5.05283">
        <ele>101.4</ele>
        <time>2010-11-14T14:22:52Z</time>
      </trkpt>
      <trkpt lat="44.10448" lon="5.05274">
        <ele>101.4</ele>
        <time>2010-11-14T14:22:54Z</time>
      </trkpt>
      <trkpt lat="44.1045" lon="5.0527">
        <ele>101.5</ele>
        <time>2010-11-14T14:22:55Z</time>
      </trkpt>
      <trkpt lat="44.10454" lon="5.05256">
        <ele>101.3</ele>
        <time>2010-11-14T14:22:59Z</time>
      </trkpt>
      <trkpt lat="44.10454" lon="5.05247">
        <ele>101.4</ele>
        <time>2010-11-14T14:23:02Z</time>
      </trkpt>
      <trkpt lat="44.10457" lon="5.05236">
        <ele>101.4</ele>
        <time>2010-11-14T14:23:05Z</time>
      </trkpt>
      <trkpt lat="44.1046" lon="5.05227">
        <ele>101.7</ele>
        <time>2010-11-14T14:23:09Z</time>
      </trkpt>
      <trkpt lat="44.10464" lon="5.05215">
        <ele>101.5</ele>
        <time>2010-11-14T14:23:14Z</time>
      </trkpt>
      <trkpt lat="44.10469" lon="5.05207">
        <ele>101.8</ele>
        <time>2010-11-14T14:23:19Z</time>
      </trkpt>
      <trkpt lat="44.10474" lon="5.05199">
        <ele>101.9</ele>
        <time>2010-11-14T14:23:25Z</time>
      </trkpt>
      <trkpt lat="44.1048" lon="5.05191">
        <ele>102.3</ele>
        <time>2010-11-14T14:23:30Z</time>
      </trkpt>
      <trkpt lat="44.10485" lon="5.05183">
        <ele>102.3</ele>
        <time>2010-11-14T14:23:36Z</time>
      </trkpt>
      <trkpt lat="44.10491" lon="5.05174">
        <ele>102.1</ele>
        <time>2010-11-14T14:23:41Z</time>
      </trkpt>
      <trkpt lat="44.10497" lon="5.05165">
        <ele>102.4</ele>
        <time>2010-11-14T14:23:46Z</time>
      </trkpt>
      <trkpt lat="44.10503" lon="5.05158">
        <ele>102.5</ele>
        <time>2010-11-14T14:23:50Z</time>
      </trkpt>
      <trkpt lat="44.10506" lon="5.05149">
        <ele>102.9</ele>
        <time>2010-11-14T14:23:55Z</time>
      </trkpt>
      <trkpt lat="44.10507" lon="5.05147">
        <ele>102.9</ele>
        <time>2010-11-14T14:23:56Z</time>
      </trkpt>
      <trkpt lat="44.10517" lon="5.05133">
        <ele>102.8</ele>
        <time>2010-11-14T14:24:04Z</time>
      </trkpt>
      <trkpt lat="44.10522" lon="5.05124">
        <ele>103</ele>
        <time>2010-11-14T14:24:09Z</time>
      </trkpt>
      <trkpt lat="44.10526" lon="5.05116">
        <ele>103.5</ele>
        <time>2010-11-14T14:24:13Z</time>
      </trkpt>
      <trkpt lat="44.10531" lon="5.05107">
        <ele>103.3</ele>
        <time>2010-11-14T14:24:16Z</time>
      </trkpt>
      <trkpt lat="44.10536" lon="5.05097">
        <ele>103.2</ele>
        <time>2010-11-14T14:24:20Z</time>
      </trkpt>
      <trkpt lat="44.10539" lon="5.05087">
        <ele>102.8</ele>
        <time>2010-11-14T14:24:24Z</time>
      </trkpt>
      <trkpt lat="44.10541" lon="5.05075">
        <ele>102.9</ele>
        <time>2010-11-14T14:24:29Z</time>
      </trkpt>
      <trkpt lat="44.10542" lon="5.05065">
        <ele>103.1</ele>
        <time>2010-11-14T14:24:35Z</time>
      </trkpt>
      <trkpt lat="44.10543" lon="5.05055">
        <ele>103.5</ele>
        <time>2010-11-14T14:24:40Z</time>
      </trkpt>
      <trkpt lat="44.10541" lon="5.05043">
        <ele>103.8</ele>
        <time>2010-11-14T14:24:44Z</time>
      </trkpt>
      <trkpt lat="44.1054" lon="5.05032">
        <ele>103.9</ele>
        <time>2010-11-14T14:24:49Z</time>
      </trkpt>
      <trkpt lat="44.10538" lon="5.05022">
        <ele>103.8</ele>
        <time>2010-11-14T14:24:53Z</time>
      </trkpt>
      <trkpt lat="44.10539" lon="5.05011">
        <ele>103.6</ele>
        <time>2010-11-14T14:24:58Z</time>
      </trkpt>
      <trkpt lat="44.10539" lon="5.05009">
        <ele>103.6</ele>
        <time>2010-11-14T14:24:59Z</time>
      </trkpt>
      <trkpt lat="44.10541" lon="5.0499">
        <ele>103.4</ele>
        <time>2010-11-14T14:25:07Z</time>
      </trkpt>
      <trkpt lat="44.10542" lon="5.04979">
        <ele>103.7</ele>
        <time>2010-11-14T14:25:12Z</time>
      </trkpt>
      <trkpt lat="44.10543" lon="5.0497">
        <ele>103.5</ele>
        <time>2010-11-14T14:25:17Z</time>
      </trkpt>
      <trkpt lat="44.10543" lon="5.04959">
        <ele>103.3</ele>
        <time>2010-11-14T14:25:19Z</time>
      </trkpt>
      <trkpt lat="44.10542" lon="5.04953">
        <ele>103.3</ele>
        <time>2010-11-14T14:25:20Z</time>
      </trkpt>
      <trkpt lat="44.10542" lon="5.04946">
        <ele>103.6</ele>
        <time>2010-11-14T14:25:21Z</time>
      </trkpt>
      <trkpt lat="44.10542" lon="5.04938">
        <ele>103.7</ele>
        <time>2010-11-14T14:25:22Z</time>
      </trkpt>
      <trkpt lat="44.10543" lon="5.04932">
        <ele>103.7</ele>
        <time>2010-11-14T14:25:23Z</time>
      </trkpt>
      <trkpt lat="44.10542" lon="5.04925">
        <ele>103.7</ele>
        <time>2010-11-14T14:25:24Z</time>
      </trkpt>
      <trkpt lat="44.10542" lon="5.04918">
        <ele>103.5</ele>
        <time>2010-11-14T14:25:25Z</time>
      </trkpt>
      <trkpt lat="44.10541" lon="5.04911">
        <ele>103.4</ele>
        <time>2010-11-14T14:25:26Z</time>
      </trkpt>
      <trkpt lat="44.10539" lon="5.04904">
        <ele>103.3</ele>
        <time>2010-11-14T14:25:27Z</time>
      </trkpt>
      <trkpt lat="44.10539" lon="5.04892">
        <ele>103.4</ele>
        <time>2010-11-14T14:25:29Z</time>
      </trkpt>
      <trkpt lat="44.1054" lon="5.0488">
        <ele>103.2</ele>
        <time>2010-11-14T14:25:31Z</time>
      </trkpt>
      <trkpt lat="44.1054" lon="5.04869">
        <ele>103.2</ele>
        <time>2010-11-14T14:25:33Z</time>
      </trkpt>
      <trkpt lat="44.10539" lon="5.04859">
        <ele>103.1</ele>
        <time>2010-11-14T14:25:35Z</time>
      </trkpt>
      <trkpt lat="44.1054" lon="5.04848">
        <ele>102.8</ele>
        <time>2010-11-14T14:25:37Z</time>
      </trkpt>
      <trkpt lat="44.10539" lon="5.04838">
        <ele>102.7</ele>
        <time>2010-11-14T14:25:39Z</time>
      </trkpt>
      <trkpt lat="44.10533" lon="5.0483">
        <ele>102.5</ele>
        <time>2010-11-14T14:25:41Z</time>
      </trkpt>
      <trkpt lat="44.10525" lon="5.04826">
        <ele>102.6</ele>
        <time>2010-11-14T14:25:43Z</time>
      </trkpt>
      <trkpt lat="44.10517" lon="5.04822">
        <ele>102.4</ele>
        <time>2010-11-14T14:25:45Z</time>
      </trkpt>
      <trkpt lat="44.10509" lon="5.0482">
        <ele>102.4</ele>
        <time>2010-11-14T14:25:50Z</time>
      </trkpt>
      <trkpt lat="44.10501" lon="5.04816">
        <ele>102.4</ele>
        <time>2010-11-14T14:25:53Z</time>
      </trkpt>
      <trkpt lat="44.10494" lon="5.04812">
        <ele>102.2</ele>
        <time>2010-11-14T14:25:55Z</time>
      </trkpt>
      <trkpt lat="44.10489" lon="5.0481">
        <ele>102.2</ele>
        <time>2010-11-14T14:25:56Z</time>
      </trkpt>
      <trkpt lat="44.10481" lon="5.04806">
        <ele>101.9</ele>
        <time>2010-11-14T14:25:58Z</time>
      </trkpt>
      <trkpt lat="44.10476" lon="5.04802">
        <ele>101.7</ele>
        <time>2010-11-14T14:25:59Z</time>
      </trkpt>
      <trkpt lat="44.1047" lon="5.04797">
        <ele>101.8</ele>
        <time>2010-11-14T14:26:00Z</time>
      </trkpt>
      <trkpt lat="44.10466" lon="5.04791">
        <ele>101.9</ele>
        <time>2010-11-14T14:26:01Z</time>
      </trkpt>
      <trkpt lat="44.10461" lon="5.04785">
        <ele>101.7</ele>
        <time>2010-11-14T14:26:02Z</time>
      </trkpt>
      <trkpt lat="44.10457" lon="5.04779">
        <ele>101.8</ele>
        <time>2010-11-14T14:26:03Z</time>
      </trkpt>
      <trkpt lat="44.10452" lon="5.04774">
        <ele>101.8</ele>
        <time>2010-11-14T14:26:04Z</time>
      </trkpt>
      <trkpt lat="44.10448" lon="5.04768">
        <ele>102.4</ele>
        <time>2010-11-14T14:26:05Z</time>
      </trkpt>
      <trkpt lat="44.10444" lon="5.04763">
        <ele>102.8</ele>
        <time>2010-11-14T14:26:06Z</time>
      </trkpt>
      <trkpt lat="44.10439" lon="5.04758">
        <ele>103.2</ele>
        <time>2010-11-14T14:26:07Z</time>
      </trkpt>
      <trkpt lat="44.10434" lon="5.04753">
        <ele>103.4</ele>
        <time>2010-11-14T14:26:08Z</time>
      </trkpt>
      <trkpt lat="44.1043" lon="5.04747">
        <ele>103.5</ele>
        <time>2010-11-14T14:26:09Z</time>
      </trkpt>
      <trkpt lat="44.10425" lon="5.04741">
        <ele>104.1</ele>
        <time>2010-11-14T14:26:11Z</time>
      </trkpt>
      <trkpt lat="44.1042" lon="5.04735">
        <ele>103.5</ele>
        <time>2010-11-14T14:26:13Z</time>
      </trkpt>
      <trkpt lat="44.10414" lon="5.04729">
        <ele>103.6</ele>
        <time>2010-11-14T14:26:15Z</time>
      </trkpt>
      <trkpt lat="44.10411" lon="5.04725">
        <ele>103.4</ele>
        <time>2010-11-14T14:26:16Z</time>
      </trkpt>
      <trkpt lat="44.10408" lon="5.0472">
        <ele>103.4</ele>
        <time>2010-11-14T14:26:17Z</time>
      </trkpt>
      <trkpt lat="44.10404" lon="5.04716">
        <ele>103.2</ele>
        <time>2010-11-14T14:26:18Z</time>
      </trkpt>
      <trkpt lat="44.10398" lon="5.04709">
        <ele>103.1</ele>
        <time>2010-11-14T14:26:20Z</time>
      </trkpt>
      <trkpt lat="44.10393" lon="5.04703">
        <ele>103.1</ele>
        <time>2010-11-14T14:26:22Z</time>
      </trkpt>
      <trkpt lat="44.10389" lon="5.04696">
        <ele>103.2</ele>
        <time>2010-11-14T14:26:24Z</time>
      </trkpt>
      <trkpt lat="44.10386" lon="5.04687">
        <ele>102.7</ele>
        <time>2010-11-14T14:26:26Z</time>
      </trkpt>
      <trkpt lat="44.10384" lon="5.04677">
        <ele>103</ele>
        <time>2010-11-14T14:26:28Z</time>
      </trkpt>
      <trkpt lat="44.10384" lon="5.04666">
        <ele>103.3</ele>
        <time>2010-11-14T14:26:30Z</time>
      </trkpt>
      <trkpt lat="44.10384" lon="5.04656">
        <ele>103.3</ele>
        <time>2010-11-14T14:26:32Z</time>
      </trkpt>
      <trkpt lat="44.10384" lon="5.04646">
        <ele>103.9</ele>
        <time>2010-11-14T14:26:34Z</time>
      </trkpt>
      <trkpt lat="44.10384" lon="5.04641">
        <ele>103.9</ele>
        <time>2010-11-14T14:26:35Z</time>
      </trkpt>
      <trkpt lat="44.10385" lon="5.04634">
        <ele>104</ele>
        <time>2010-11-14T14:26:36Z</time>
      </trkpt>
      <trkpt lat="44.10385" lon="5.04627">
        <ele>103.8</ele>
        <time>2010-11-14T14:26:37Z</time>
      </trkpt>
      <trkpt lat="44.10385" lon="5.04617">
        <ele>103.6</ele>
        <time>2010-11-14T14:26:39Z</time>
      </trkpt>
      <trkpt lat="44.10385" lon="5.04604">
        <ele>103.6</ele>
        <time>2010-11-14T14:26:42Z</time>
      </trkpt>
      <trkpt lat="44.10387" lon="5.04595">
        <ele>103.6</ele>
        <time>2010-11-14T14:26:44Z</time>
      </trkpt>
      <trkpt lat="44.1039" lon="5.04583">
        <ele>103.7</ele>
        <time>2010-11-14T14:26:46Z</time>
      </trkpt>
      <trkpt lat="44.10391" lon="5.04577">
        <ele>103.9</ele>
        <time>2010-11-14T14:26:47Z</time>
      </trkpt>
      <trkpt lat="44.10393" lon="5.0457">
        <ele>103.9</ele>
        <time>2010-11-14T14:26:48Z</time>
      </trkpt>
      <trkpt lat="44.10394" lon="5.04563">
        <ele>103.6</ele>
        <time>2010-11-14T14:26:49Z</time>
      </trkpt>
      <trkpt lat="44.10397" lon="5.04552">
        <ele>103.4</ele>
        <time>2010-11-14T14:26:51Z</time>
      </trkpt>
      <trkpt lat="44.10399" lon="5.04542">
        <ele>103.4</ele>
        <time>2010-11-14T14:26:53Z</time>
      </trkpt>
      <trkpt lat="44.10401" lon="5.0453">
        <ele>103.8</ele>
        <time>2010-11-14T14:26:55Z</time>
      </trkpt>
      <trkpt lat="44.10403" lon="5.0452">
        <ele>103.4</ele>
        <time>2010-11-14T14:26:58Z</time>
      </trkpt>
      <trkpt lat="44.10405" lon="5.04508">
        <ele>103.2</ele>
        <time>2010-11-14T14:27:03Z</time>
      </trkpt>
      <trkpt lat="44.10406" lon="5.04506">
        <ele>103.2</ele>
        <time>2010-11-14T14:27:03Z</time>
      </trkpt>
      <trkpt lat="44.1041" lon="5.04486">
        <ele>103.2</ele>
        <time>2010-11-14T14:27:15Z</time>
      </trkpt>
      <trkpt lat="44.10412" lon="5.04474">
        <ele>102.8</ele>
        <time>2010-11-14T14:27:21Z</time>
      </trkpt>
      <trkpt lat="44.10414" lon="5.04462">
        <ele>102.5</ele>
        <time>2010-11-14T14:27:27Z</time>
      </trkpt>
      <trkpt lat="44.10416" lon="5.04452">
        <ele>103.1</ele>
        <time>2010-11-14T14:27:32Z</time>
      </trkpt>
      <trkpt lat="44.10419" lon="5.04442">
        <ele>103</ele>
        <time>2010-11-14T14:27:37Z</time>
      </trkpt>
      <trkpt lat="44.1042" lon="5.0443">
        <ele>103</ele>
        <time>2010-11-14T14:27:42Z</time>
      </trkpt>
      <trkpt lat="44.10421" lon="5.04421">
        <ele>102.7</ele>
        <time>2010-11-14T14:27:44Z</time>
      </trkpt>
      <trkpt lat="44.10422" lon="5.04415">
        <ele>102.8</ele>
        <time>2010-11-14T14:27:45Z</time>
      </trkpt>
      <trkpt lat="44.10424" lon="5.04409">
        <ele>102.9</ele>
        <time>2010-11-14T14:27:46Z</time>
      </trkpt>
      <trkpt lat="44.10425" lon="5.04402">
        <ele>102.8</ele>
        <time>2010-11-14T14:27:47Z</time>
      </trkpt>
      <trkpt lat="44.10428" lon="5.04392">
        <ele>102.9</ele>
        <time>2010-11-14T14:27:49Z</time>
      </trkpt>
      <trkpt lat="44.1043" lon="5.04382">
        <ele>102.9</ele>
        <time>2010-11-14T14:27:51Z</time>
      </trkpt>
      <trkpt lat="44.10432" lon="5.04372">
        <ele>102.8</ele>
        <time>2010-11-14T14:27:53Z</time>
      </trkpt>
      <trkpt lat="44.10434" lon="5.04362">
        <ele>102.8</ele>
        <time>2010-11-14T14:27:55Z</time>
      </trkpt>
      <trkpt lat="44.10436" lon="5.04356">
        <ele>102.7</ele>
        <time>2010-11-14T14:27:56Z</time>
      </trkpt>
      <trkpt lat="44.10437" lon="5.0435">
        <ele>102.9</ele>
        <time>2010-11-14T14:27:57Z</time>
      </trkpt>
      <trkpt lat="44.10438" lon="5.04342">
        <ele>102.5</ele>
        <time>2010-11-14T14:27:58Z</time>
      </trkpt>
      <trkpt lat="44.1044" lon="5.04335">
        <ele>102.2</ele>
        <time>2010-11-14T14:27:59Z</time>
      </trkpt>
      <trkpt lat="44.10441" lon="5.04328">
        <ele>102.1</ele>
        <time>2010-11-14T14:28:00Z</time>
      </trkpt>
      <trkpt lat="44.10442" lon="5.04321">
        <ele>102.3</ele>
        <time>2010-11-14T14:28:01Z</time>
      </trkpt>
      <trkpt lat="44.10443" lon="5.04314">
        <ele>102.4</ele>
        <time>2010-11-14T14:28:02Z</time>
      </trkpt>
      <trkpt lat="44.10444" lon="5.04308">
        <ele>102.6</ele>
        <time>2010-11-14T14:28:03Z</time>
      </trkpt>
      <trkpt lat="44.10445" lon="5.04301">
        <ele>102.5</ele>
        <time>2010-11-14T14:28:04Z</time>
      </trkpt>
      <trkpt lat="44.10446" lon="5.04295">
        <ele>102.6</ele>
        <time>2010-11-14T14:28:05Z</time>
      </trkpt>
      <trkpt lat="44.10448" lon="5.04288">
        <ele>102.6</ele>
        <time>2010-11-14T14:28:06Z</time>
      </trkpt>
      <trkpt lat="44.10449" lon="5.04281">
        <ele>102.7</ele>
        <time>2010-11-14T14:28:07Z</time>
      </trkpt>
      <trkpt lat="44.1045" lon="5.04275">
        <ele>103</ele>
        <time>2010-11-14T14:28:08Z</time>
      </trkpt>
      <trkpt lat="44.10451" lon="5.04268">
        <ele>102.9</ele>
        <time>2010-11-14T14:28:09Z</time>
      </trkpt>
      <trkpt lat="44.10455" lon="5.04257">
        <ele>103.2</ele>
        <time>2010-11-14T14:28:11Z</time>
      </trkpt>
      <trkpt lat="44.10459" lon="5.04249">
        <ele>103</ele>
        <time>2010-11-14T14:28:13Z</time>
      </trkpt>
      <trkpt lat="44.10466" lon="5.04242">
        <ele>103.4</ele>
        <time>2010-11-14T14:28:16Z</time>
      </trkpt>
      <trkpt lat="44.10473" lon="5.04238">
        <ele>103.4</ele>
        <time>2010-11-14T14:28:19Z</time>
      </trkpt>
      <trkpt lat="44.1048" lon="5.04232">
        <ele>103.3</ele>
        <time>2010-11-14T14:28:23Z</time>
      </trkpt>
      <trkpt lat="44.10488" lon="5.04227">
        <ele>103.1</ele>
        <time>2010-11-14T14:28:28Z</time>
      </trkpt>
      <trkpt lat="44.10495" lon="5.0422">
        <ele>102.8</ele>
        <time>2010-11-14T14:28:34Z</time>
      </trkpt>
      <trkpt lat="44.10502" lon="5.04214">
        <ele>102.6</ele>
        <time>2010-11-14T14:28:40Z</time>
      </trkpt>
      <trkpt lat="44.10509" lon="5.04207">
        <ele>102.6</ele>
        <time>2010-11-14T14:28:46Z</time>
      </trkpt>
      <trkpt lat="44.10516" lon="5.04201">
        <ele>102.7</ele>
        <time>2010-11-14T14:28:52Z</time>
      </trkpt>
      <trkpt lat="44.10524" lon="5.04196">
        <ele>102.4</ele>
        <time>2010-11-14T14:28:57Z</time>
      </trkpt>
      <trkpt lat="44.1053" lon="5.04192">
        <ele>102.5</ele>
        <time>2010-11-14T14:29:01Z</time>
      </trkpt>
      <trkpt lat="44.10538" lon="5.04187">
        <ele>102.5</ele>
        <time>2010-11-14T14:29:06Z</time>
      </trkpt>
      <trkpt lat="44.1054" lon="5.04185">
        <ele>102.2</ele>
        <time>2010-11-14T14:29:07Z</time>
      </trkpt>
      <trkpt lat="44.10553" lon="5.04177">
        <ele>102.1</ele>
        <time>2010-11-14T14:29:15Z</time>
      </trkpt>
      <trkpt lat="44.1056" lon="5.04171">
        <ele>102.2</ele>
        <time>2010-11-14T14:29:20Z</time>
      </trkpt>
      <trkpt lat="44.10567" lon="5.04165">
        <ele>102.1</ele>
        <time>2010-11-14T14:29:26Z</time>
      </trkpt>
      <trkpt lat="44.10574" lon="5.04157">
        <ele>101.6</ele>
        <time>2010-11-14T14:29:32Z</time>
      </trkpt>
      <trkpt lat="44.10581" lon="5.04149">
        <ele>102</ele>
        <time>2010-11-14T14:29:38Z</time>
      </trkpt>
      <trkpt lat="44.10588" lon="5.04142">
        <ele>102.7</ele>
        <time>2010-11-14T14:29:44Z</time>
      </trkpt>
      <trkpt lat="44.10594" lon="5.04138">
        <ele>102.8</ele>
        <time>2010-11-14T14:29:48Z</time>
      </trkpt>
      <trkpt lat="44.10602" lon="5.04133">
        <ele>103.3</ele>
        <time>2010-11-14T14:29:52Z</time>
      </trkpt>
      <trkpt lat="44.10609" lon="5.04127">
        <ele>103.5</ele>
        <time>2010-11-14T14:29:57Z</time>
      </trkpt>
      <trkpt lat="44.10616" lon="5.0412">
        <ele>102.9</ele>
        <time>2010-11-14T14:30:03Z</time>
      </trkpt>
      <trkpt lat="44.10622" lon="5.04113">
        <ele>103.4</ele>
        <time>2010-11-14T14:30:08Z</time>
      </trkpt>
      <trkpt lat="44.10624" lon="5.04111">
        <ele>103.4</ele>
        <time>2010-11-14T14:30:09Z</time>
      </trkpt>
      <trkpt lat="44.10635" lon="5.041">
        <ele>102.6</ele>
        <time>2010-11-14T14:30:17Z</time>
      </trkpt>
      <trkpt lat="44.10641" lon="5.04094">
        <ele>102.2</ele>
        <time>2010-11-14T14:30:24Z</time>
      </trkpt>
      <trkpt lat="44.10648" lon="5.04087">
        <ele>103.1</ele>
        <time>2010-11-14T14:30:29Z</time>
      </trkpt>
      <trkpt lat="44.10654" lon="5.04079">
        <ele>103.5</ele>
        <time>2010-11-14T14:30:34Z</time>
      </trkpt>
      <trkpt lat="44.1066" lon="5.04073">
        <ele>103.7</ele>
        <time>2010-11-14T14:30:39Z</time>
      </trkpt>
      <trkpt lat="44.10665" lon="5.04064">
        <ele>103.1</ele>
        <time>2010-11-14T14:30:45Z</time>
      </trkpt>
      <trkpt lat="44.1067" lon="5.04056">
        <ele>102.9</ele>
        <time>2010-11-14T14:30:54Z</time>
      </trkpt>
      <trkpt lat="44.10678" lon="5.04052">
        <ele>102.5</ele>
        <time>2010-11-14T14:30:58Z</time>
      </trkpt>
      <trkpt lat="44.10685" lon="5.04046">
        <ele>102.2</ele>
        <time>2010-11-14T14:31:02Z</time>
      </trkpt>
      <trkpt lat="44.10692" lon="5.04043">
        <ele>102.1</ele>
        <time>2010-11-14T14:31:05Z</time>
      </trkpt>
      <trkpt lat="44.107" lon="5.04037">
        <ele>102.1</ele>
        <time>2010-11-14T14:31:10Z</time>
      </trkpt>
      <trkpt lat="44.10701" lon="5.04036">
        <ele>102.1</ele>
        <time>2010-11-14T14:31:11Z</time>
      </trkpt>
      <trkpt lat="44.10715" lon="5.0403">
        <ele>101.6</ele>
        <time>2010-11-14T14:31:20Z</time>
      </trkpt>
      <trkpt lat="44.10723" lon="5.04027">
        <ele>101.7</ele>
        <time>2010-11-14T14:31:25Z</time>
      </trkpt>
      <trkpt lat="44.10731" lon="5.04024">
        <ele>101.7</ele>
        <time>2010-11-14T14:31:29Z</time>
      </trkpt>
      <trkpt lat="44.10739" lon="5.04022">
        <ele>101.5</ele>
        <time>2010-11-14T14:31:34Z</time>
      </trkpt>
      <trkpt lat="44.10746" lon="5.04017">
        <ele>101.3</ele>
        <time>2010-11-14T14:31:39Z</time>
      </trkpt>
      <trkpt lat="44.10754" lon="5.04014">
        <ele>101.5</ele>
        <time>2010-11-14T14:31:44Z</time>
      </trkpt>
      <trkpt lat="44.10761" lon="5.04009">
        <ele>101.7</ele>
        <time>2010-11-14T14:31:49Z</time>
      </trkpt>
      <trkpt lat="44.10766" lon="5.04002">
        <ele>101.8</ele>
        <time>2010-11-14T14:31:53Z</time>
      </trkpt>
      <trkpt lat="44.1077" lon="5.03994">
        <ele>102.8</ele>
        <time>2010-11-14T14:31:57Z</time>
      </trkpt>
      <trkpt lat="44.10773" lon="5.03983">
        <ele>103.1</ele>
        <time>2010-11-14T14:32:01Z</time>
      </trkpt>
      <trkpt lat="44.10775" lon="5.03972">
        <ele>103</ele>
        <time>2010-11-14T14:32:06Z</time>
      </trkpt>
      <trkpt lat="44.10774" lon="5.03962">
        <ele>103</ele>
        <time>2010-11-14T14:32:10Z</time>
      </trkpt>
      <trkpt lat="44.10773" lon="5.03951">
        <ele>102.8</ele>
        <time>2010-11-14T14:32:15Z</time>
      </trkpt>
      <trkpt lat="44.10774" lon="5.03948">
        <ele>102.8</ele>
        <time>2010-11-14T14:32:16Z</time>
      </trkpt>
      <trkpt lat="44.10771" lon="5.03927">
        <ele>102.6</ele>
        <time>2010-11-14T14:32:24Z</time>
      </trkpt>
      <trkpt lat="44.10768" lon="5.03917">
        <ele>101.9</ele>
        <time>2010-11-14T14:32:29Z</time>
      </trkpt>
      <trkpt lat="44.10764" lon="5.03907">
        <ele>102.5</ele>
        <time>2010-11-14T14:32:33Z</time>
      </trkpt>
      <trkpt lat="44.10759" lon="5.03899">
        <ele>102.8</ele>
        <time>2010-11-14T14:32:36Z</time>
      </trkpt>
      <trkpt lat="44.10758" lon="5.03889">
        <ele>103</ele>
        <time>2010-11-14T14:32:40Z</time>
      </trkpt>
      <trkpt lat="44.10755" lon="5.03878">
        <ele>102.9</ele>
        <time>2010-11-14T14:32:45Z</time>
      </trkpt>
      <trkpt lat="44.10754" lon="5.03866">
        <ele>103.2</ele>
        <time>2010-11-14T14:32:50Z</time>
      </trkpt>
      <trkpt lat="44.10749" lon="5.03855">
        <ele>103.6</ele>
        <time>2010-11-14T14:32:56Z</time>
      </trkpt>
      <trkpt lat="44.10743" lon="5.03852">
        <ele>103.1</ele>
        <time>2010-11-14T14:33:00Z</time>
      </trkpt>
      <trkpt lat="44.10735" lon="5.03852">
        <ele>102.3</ele>
        <time>2010-11-14T14:33:07Z</time>
      </trkpt>
      <trkpt lat="44.10728" lon="5.03852">
        <ele>102.4</ele>
        <time>2010-11-14T14:33:15Z</time>
      </trkpt>
      <trkpt lat="44.1072" lon="5.03853">
        <ele>102.6</ele>
        <time>2010-11-14T14:33:20Z</time>
      </trkpt>
      <trkpt lat="44.10717" lon="5.03854">
        <ele>102.7</ele>
        <time>2010-11-14T14:33:21Z</time>
      </trkpt>
      <trkpt lat="44.10706" lon="5.03855">
        <ele>102.3</ele>
        <time>2010-11-14T14:33:27Z</time>
      </trkpt>
      <trkpt lat="44.10697" lon="5.03855">
        <ele>102.1</ele>
        <time>2010-11-14T14:33:32Z</time>
      </trkpt>
      <trkpt lat="44.1069" lon="5.03856">
        <ele>101.9</ele>
        <time>2010-11-14T14:33:37Z</time>
      </trkpt>
      <trkpt lat="44.10682" lon="5.03857">
        <ele>101.4</ele>
        <time>2010-11-14T14:33:42Z</time>
      </trkpt>
      <trkpt lat="44.10675" lon="5.03855">
        <ele>100.7</ele>
        <time>2010-11-14T14:33:46Z</time>
      </trkpt>
      <trkpt lat="44.10667" lon="5.03853">
        <ele>100.4</ele>
        <time>2010-11-14T14:33:49Z</time>
      </trkpt>
      <trkpt lat="44.10658" lon="5.03851">
        <ele>100.9</ele>
        <time>2010-11-14T14:33:53Z</time>
      </trkpt>
      <trkpt lat="44.10651" lon="5.03851">
        <ele>101.6</ele>
        <time>2010-11-14T14:33:57Z</time>
      </trkpt>
      <trkpt lat="44.10643" lon="5.03849">
        <ele>101.3</ele>
        <time>2010-11-14T14:34:00Z</time>
      </trkpt>
      <trkpt lat="44.10635" lon="5.03847">
        <ele>101.3</ele>
        <time>2010-11-14T14:34:04Z</time>
      </trkpt>
      <trkpt lat="44.10627" lon="5.03845">
        <ele>101.9</ele>
        <time>2010-11-14T14:34:08Z</time>
      </trkpt>
      <trkpt lat="44.10618" lon="5.03843">
        <ele>101.8</ele>
        <time>2010-11-14T14:34:12Z</time>
      </trkpt>
      <trkpt lat="44.1061" lon="5.03841">
        <ele>101.8</ele>
        <time>2010-11-14T14:34:16Z</time>
      </trkpt>
      <trkpt lat="44.10603" lon="5.03841">
        <ele>101.5</ele>
        <time>2010-11-14T14:34:20Z</time>
      </trkpt>
      <trkpt lat="44.10595" lon="5.03837">
        <ele>101.8</ele>
        <time>2010-11-14T14:34:25Z</time>
      </trkpt>
      <trkpt lat="44.10593" lon="5.03836">
        <ele>101.7</ele>
        <time>2010-11-14T14:34:26Z</time>
      </trkpt>
      <trkpt lat="44.10578" lon="5.03831">
        <ele>101.6</ele>
        <time>2010-11-14T14:34:35Z</time>
      </trkpt>
      <trkpt lat="44.1057" lon="5.03829">
        <ele>102</ele>
        <time>2010-11-14T14:34:40Z</time>
      </trkpt>
      <trkpt lat="44.10561" lon="5.03826">
        <ele>102.5</ele>
        <time>2010-11-14T14:34:45Z</time>
      </trkpt>
      <trkpt lat="44.10553" lon="5.03825">
        <ele>102.9</ele>
        <time>2010-11-14T14:34:52Z</time>
      </trkpt>
      <trkpt lat="44.10545" lon="5.03821">
        <ele>102.5</ele>
        <time>2010-11-14T14:34:57Z</time>
      </trkpt>
      <trkpt lat="44.10538" lon="5.03818">
        <ele>103.1</ele>
        <time>2010-11-14T14:35:00Z</time>
      </trkpt>
      <trkpt lat="44.10531" lon="5.03814">
        <ele>102.8</ele>
        <time>2010-11-14T14:35:04Z</time>
      </trkpt>
      <trkpt lat="44.10523" lon="5.03808">
        <ele>102.8</ele>
        <time>2010-11-14T14:35:09Z</time>
      </trkpt>
      <trkpt lat="44.10516" lon="5.03803">
        <ele>102.9</ele>
        <time>2010-11-14T14:35:13Z</time>
      </trkpt>
      <trkpt lat="44.10508" lon="5.03798">
        <ele>103.1</ele>
        <time>2010-11-14T14:35:17Z</time>
      </trkpt>
      <trkpt lat="44.10501" lon="5.03794">
        <ele>102.6</ele>
        <time>2010-11-14T14:35:21Z</time>
      </trkpt>
      <trkpt lat="44.10494" lon="5.03789">
        <ele>102.6</ele>
        <time>2010-11-14T14:35:25Z</time>
      </trkpt>
      <trkpt lat="44.10486" lon="5.03784">
        <ele>102.3</ele>
        <time>2010-11-14T14:35:32Z</time>
      </trkpt>
      <trkpt lat="44.10485" lon="5.03784">
        <ele>102.4</ele>
        <time>2010-11-14T14:35:33Z</time>
      </trkpt>
      <trkpt lat="44.1047" lon="5.03775">
        <ele>102.1</ele>
        <time>2010-11-14T14:35:43Z</time>
      </trkpt>
      <trkpt lat="44.10462" lon="5.0377">
        <ele>101.8</ele>
        <time>2010-11-14T14:35:49Z</time>
      </trkpt>
      <trkpt lat="44.10455" lon="5.03768">
        <ele>102.2</ele>
        <time>2010-11-14T14:35:55Z</time>
      </trkpt>
      <trkpt lat="44.10448" lon="5.03762">
        <ele>102.3</ele>
        <time>2010-11-14T14:35:58Z</time>
      </trkpt>
      <trkpt lat="44.10441" lon="5.03756">
        <ele>102.3</ele>
        <time>2010-11-14T14:36:02Z</time>
      </trkpt>
      <trkpt lat="44.10435" lon="5.0375">
        <ele>102.7</ele>
        <time>2010-11-14T14:36:06Z</time>
      </trkpt>
      <trkpt lat="44.10428" lon="5.03745">
        <ele>102.4</ele>
        <time>2010-11-14T14:36:11Z</time>
      </trkpt>
      <trkpt lat="44.10422" lon="5.0374">
        <ele>102.4</ele>
        <time>2010-11-14T14:36:14Z</time>
      </trkpt>
      <trkpt lat="44.10416" lon="5.03737">
        <ele>102.3</ele>
        <time>2010-11-14T14:36:16Z</time>
      </trkpt>
      <trkpt lat="44.10409" lon="5.0373">
        <ele>102.3</ele>
        <time>2010-11-14T14:36:19Z</time>
      </trkpt>
      <trkpt lat="44.10404" lon="5.03724">
        <ele>102.2</ele>
        <time>2010-11-14T14:36:23Z</time>
      </trkpt>
      <trkpt lat="44.10397" lon="5.0372">
        <ele>102.7</ele>
        <time>2010-11-14T14:36:26Z</time>
      </trkpt>
      <trkpt lat="44.10389" lon="5.03715">
        <ele>102.2</ele>
        <time>2010-11-14T14:36:36Z</time>
      </trkpt>
      <trkpt lat="44.10388" lon="5.03715">
        <ele>102.4</ele>
        <time>2010-11-14T14:36:37Z</time>
      </trkpt>
      <trkpt lat="44.10374" lon="5.03708">
        <ele>103.2</ele>
        <time>2010-11-14T14:36:48Z</time>
      </trkpt>
      <trkpt lat="44.10366" lon="5.03706">
        <ele>102.9</ele>
        <time>2010-11-14T14:36:54Z</time>
      </trkpt>
      <trkpt lat="44.10358" lon="5.03702">
        <ele>103.4</ele>
        <time>2010-11-14T14:36:59Z</time>
      </trkpt>
      <trkpt lat="44.1035" lon="5.03698">
        <ele>103.4</ele>
        <time>2010-11-14T14:37:04Z</time>
      </trkpt>
      <trkpt lat="44.10344" lon="5.03693">
        <ele>103.7</ele>
        <time>2010-11-14T14:37:09Z</time>
      </trkpt>
      <trkpt lat="44.10337" lon="5.03688">
        <ele>103.2</ele>
        <time>2010-11-14T14:37:13Z</time>
      </trkpt>
      <trkpt lat="44.1033" lon="5.03682">
        <ele>102.8</ele>
        <time>2010-11-14T14:37:18Z</time>
      </trkpt>
      <trkpt lat="44.10324" lon="5.03673">
        <ele>102.8</ele>
        <time>2010-11-14T14:37:24Z</time>
      </trkpt>
      <trkpt lat="44.10318" lon="5.03666">
        <ele>103.4</ele>
        <time>2010-11-14T14:37:28Z</time>
      </trkpt>
      <trkpt lat="44.10312" lon="5.03659">
        <ele>103.5</ele>
        <time>2010-11-14T14:37:33Z</time>
      </trkpt>
      <trkpt lat="44.10305" lon="5.03651">
        <ele>103.5</ele>
        <time>2010-11-14T14:37:37Z</time>
      </trkpt>
      <trkpt lat="44.10305" lon="5.0365">
        <ele>103.5</ele>
        <time>2010-11-14T14:37:38Z</time>
      </trkpt>
      <trkpt lat="44.10293" lon="5.03634">
        <ele>103</ele>
        <time>2010-11-14T14:37:48Z</time>
      </trkpt>
      <trkpt lat="44.10288" lon="5.03627">
        <ele>103</ele>
        <time>2010-11-14T14:37:53Z</time>
      </trkpt>
      <trkpt lat="44.10282" lon="5.03619">
        <ele>103</ele>
        <time>2010-11-14T14:37:57Z</time>
      </trkpt>
      <trkpt lat="44.10277" lon="5.03611">
        <ele>102.8</ele>
        <time>2010-11-14T14:38:01Z</time>
      </trkpt>
      <trkpt lat="44.10274" lon="5.036">
        <ele>102.9</ele>
        <time>2010-11-14T14:38:06Z</time>
      </trkpt>
      <trkpt lat="44.1027" lon="5.03589">
        <ele>102.8</ele>
        <time>2010-11-14T14:38:11Z</time>
      </trkpt>
      <trkpt lat="44.10266" lon="5.03579">
        <ele>103.3</ele>
        <time>2010-11-14T14:38:17Z</time>
      </trkpt>
      <trkpt lat="44.10263" lon="5.03568">
        <ele>103.4</ele>
        <time>2010-11-14T14:38:23Z</time>
      </trkpt>
      <trkpt lat="44.1026" lon="5.03558">
        <ele>103.1</ele>
        <time>2010-11-14T14:38:29Z</time>
      </trkpt>
      <trkpt lat="44.10255" lon="5.03549">
        <ele>102.5</ele>
        <time>2010-11-14T14:38:34Z</time>
      </trkpt>
      <trkpt lat="44.10252" lon="5.03537">
        <ele>102.6</ele>
        <time>2010-11-14T14:38:42Z</time>
      </trkpt>
      <trkpt lat="44.10251" lon="5.03535">
        <ele>102.8</ele>
        <time>2010-11-14T14:38:43Z</time>
      </trkpt>
      <trkpt lat="44.10246" lon="5.03517">
        <ele>103.2</ele>
        <time>2010-11-14T14:38:52Z</time>
      </trkpt>
      <trkpt lat="44.10244" lon="5.03505">
        <ele>103.7</ele>
        <time>2010-11-14T14:38:58Z</time>
      </trkpt>
      <trkpt lat="44.10245" lon="5.03494">
        <ele>104</ele>
        <time>2010-11-14T14:39:03Z</time>
      </trkpt>
      <trkpt lat="44.10246" lon="5.03482">
        <ele>104.5</ele>
        <time>2010-11-14T14:39:06Z</time>
      </trkpt>
      <trkpt lat="44.10247" lon="5.03472">
        <ele>104.5</ele>
        <time>2010-11-14T14:39:09Z</time>
      </trkpt>
      <trkpt lat="44.1025" lon="5.03463">
        <ele>104.6</ele>
        <time>2010-11-14T14:39:13Z</time>
      </trkpt>
      <trkpt lat="44.10255" lon="5.03455">
        <ele>103.8</ele>
        <time>2010-11-14T14:39:16Z</time>
      </trkpt>
      <trkpt lat="44.10259" lon="5.03448">
        <ele>103.4</ele>
        <time>2010-11-14T14:39:18Z</time>
      </trkpt>
      <trkpt lat="44.10265" lon="5.03439">
        <ele>102.8</ele>
        <time>2010-11-14T14:39:22Z</time>
      </trkpt>
      <trkpt lat="44.10271" lon="5.03432">
        <ele>103.3</ele>
        <time>2010-11-14T14:39:27Z</time>
      </trkpt>
      <trkpt lat="44.10276" lon="5.03422">
        <ele>103</ele>
        <time>2010-11-14T14:39:32Z</time>
      </trkpt>
      <trkpt lat="44.10281" lon="5.03414">
        <ele>102.7</ele>
        <time>2010-11-14T14:39:36Z</time>
      </trkpt>
      <trkpt lat="44.10287" lon="5.03405">
        <ele>102.7</ele>
        <time>2010-11-14T14:39:41Z</time>
      </trkpt>
      <trkpt lat="44.10294" lon="5.03398">
        <ele>102.6</ele>
        <time>2010-11-14T14:39:45Z</time>
      </trkpt>
      <trkpt lat="44.10295" lon="5.03396">
        <ele>102.5</ele>
        <time>2010-11-14T14:39:46Z</time>
      </trkpt>
      <trkpt lat="44.10304" lon="5.03379">
        <ele>103.1</ele>
        <time>2010-11-14T14:39:55Z</time>
      </trkpt>
      <trkpt lat="44.10309" lon="5.03369">
        <ele>103.4</ele>
        <time>2010-11-14T14:40:00Z</time>
      </trkpt>
      <trkpt lat="44.10313" lon="5.03359">
        <ele>103.7</ele>
        <time>2010-11-14T14:40:05Z</time>
      </trkpt>
      <trkpt lat="44.10317" lon="5.03349">
        <ele>103.7</ele>
        <time>2010-11-14T14:40:09Z</time>
      </trkpt>
      <trkpt lat="44.10321" lon="5.03339">
        <ele>102.8</ele>
        <time>2010-11-14T14:40:14Z</time>
      </trkpt>
      <trkpt lat="44.10323" lon="5.03327">
        <ele>103.3</ele>
        <time>2010-11-14T14:40:20Z</time>
      </trkpt>
      <trkpt lat="44.10325" lon="5.03315">
        <ele>104.5</ele>
        <time>2010-11-14T14:40:25Z</time>
      </trkpt>
      <trkpt lat="44.10328" lon="5.03306">
        <ele>104.5</ele>
        <time>2010-11-14T14:40:29Z</time>
      </trkpt>
      <trkpt lat="44.1033" lon="5.03295">
        <ele>104.2</ele>
        <time>2010-11-14T14:40:34Z</time>
      </trkpt>
      <trkpt lat="44.10334" lon="5.03286">
        <ele>103.7</ele>
        <time>2010-11-14T14:40:39Z</time>
      </trkpt>
      <trkpt lat="44.1034" lon="5.0328">
        <ele>103.6</ele>
        <time>2010-11-14T14:40:42Z</time>
      </trkpt>
      <trkpt lat="44.10345" lon="5.03271">
        <ele>103.2</ele>
        <time>2010-11-14T14:40:47Z</time>
      </trkpt>
      <trkpt lat="44.10346" lon="5.03269">
        <ele>103.1</ele>
        <time>2010-11-14T14:40:48Z</time>
      </trkpt>
      <trkpt lat="44.10358" lon="5.03258">
        <ele>103.1</ele>
        <time>2010-11-14T14:40:56Z</time>
      </trkpt>
      <trkpt lat="44.10365" lon="5.03253">
        <ele>103.1</ele>
        <time>2010-11-14T14:41:00Z</time>
      </trkpt>
      <trkpt lat="44.10372" lon="5.03245">
        <ele>103.1</ele>
        <time>2010-11-14T14:41:06Z</time>
      </trkpt>
      <trkpt lat="44.10379" lon="5.03239">
        <ele>103.2</ele>
        <time>2010-11-14T14:41:11Z</time>
      </trkpt>
      <trkpt lat="44.10386" lon="5.03233">
        <ele>102.9</ele>
        <time>2010-11-14T14:41:16Z</time>
      </trkpt>
      <trkpt lat="44.10393" lon="5.03228">
        <ele>102.9</ele>
        <time>2010-11-14T14:41:20Z</time>
      </trkpt>
      <trkpt lat="44.104" lon="5.03222">
        <ele>102.5</ele>
        <time>2010-11-14T14:41:24Z</time>
      </trkpt>
      <trkpt lat="44.10406" lon="5.03215">
        <ele>102.2</ele>
        <time>2010-11-14T14:41:28Z</time>
      </trkpt>
      <trkpt lat="44.10412" lon="5.03208">
        <ele>102.6</ele>
        <time>2010-11-14T14:41:33Z</time>
      </trkpt>
      <trkpt lat="44.10418" lon="5.032">
        <ele>102.5</ele>
        <time>2010-11-14T14:41:38Z</time>
      </trkpt>
      <trkpt lat="44.10422" lon="5.0319">
        <ele>102.8</ele>
        <time>2010-11-14T14:41:45Z</time>
      </trkpt>
      <trkpt lat="44.10428" lon="5.03184">
        <ele>102.3</ele>
        <time>2010-11-14T14:41:50Z</time>
      </trkpt>
      <trkpt lat="44.1043" lon="5.03183">
        <ele>102.4</ele>
        <time>2010-11-14T14:41:51Z</time>
      </trkpt>
      <trkpt lat="44.10443" lon="5.03171">
        <ele>102.7</ele>
        <time>2010-11-14T14:41:59Z</time>
      </trkpt>
      <trkpt lat="44.1045" lon="5.03166">
        <ele>102.3</ele>
        <time>2010-11-14T14:42:03Z</time>
      </trkpt>
      <trkpt lat="44.10457" lon="5.0316">
        <ele>102.1</ele>
        <time>2010-11-14T14:42:08Z</time>
      </trkpt>
      <trkpt lat="44.10464" lon="5.03154">
        <ele>102.5</ele>
        <time>2010-11-14T14:42:13Z</time>
      </trkpt>
      <trkpt lat="44.10468" lon="5.03146">
        <ele>103</ele>
        <time>2010-11-14T14:42:18Z</time>
      </trkpt>
      <trkpt lat="44.10473" lon="5.0314">
        <ele>103</ele>
        <time>2010-11-14T14:42:21Z</time>
      </trkpt>
      <trkpt lat="44.10477" lon="5.0313">
        <ele>102.8</ele>
        <time>2010-11-14T14:42:24Z</time>
      </trkpt>
      <trkpt lat="44.1048" lon="5.03122">
        <ele>102.6</ele>
        <time>2010-11-14T14:42:26Z</time>
      </trkpt>
      <trkpt lat="44.10483" lon="5.03112">
        <ele>103</ele>
        <time>2010-11-14T14:42:29Z</time>
      </trkpt>
      <trkpt lat="44.10485" lon="5.031">
        <ele>103</ele>
        <time>2010-11-14T14:42:33Z</time>
      </trkpt>
      <trkpt lat="44.10487" lon="5.03088">
        <ele>102.4</ele>
        <time>2010-11-14T14:42:39Z</time>
      </trkpt>
      <trkpt lat="44.10485" lon="5.03076">
        <ele>102.8</ele>
        <time>2010-11-14T14:42:44Z</time>
      </trkpt>
      <trkpt lat="44.10482" lon="5.03066">
        <ele>103.1</ele>
        <time>2010-11-14T14:42:48Z</time>
      </trkpt>
      <trkpt lat="44.10478" lon="5.03056">
        <ele>103</ele>
        <time>2010-11-14T14:42:52Z</time>
      </trkpt>
      <trkpt lat="44.10477" lon="5.03054">
        <ele>103</ele>
        <time>2010-11-14T14:42:53Z</time>
      </trkpt>
      <trkpt lat="44.1047" lon="5.0304">
        <ele>103.2</ele>
        <time>2010-11-14T14:42:59Z</time>
      </trkpt>
      <trkpt lat="44.10464" lon="5.03031">
        <ele>103</ele>
        <time>2010-11-14T14:43:03Z</time>
      </trkpt>
      <trkpt lat="44.10458" lon="5.03024">
        <ele>102.9</ele>
        <time>2010-11-14T14:43:09Z</time>
      </trkpt>
      <trkpt lat="44.1045" lon="5.03022">
        <ele>102.6</ele>
        <time>2010-11-14T14:43:14Z</time>
      </trkpt>
      <trkpt lat="44.10442" lon="5.0302">
        <ele>102.6</ele>
        <time>2010-11-14T14:43:18Z</time>
      </trkpt>
      <trkpt lat="44.10433" lon="5.03019">
        <ele>101.8</ele>
        <time>2010-11-14T14:43:24Z</time>
      </trkpt>
      <trkpt lat="44.10426" lon="5.0302">
        <ele>102.3</ele>
        <time>2010-11-14T14:43:32Z</time>
      </trkpt>
      <trkpt lat="44.10417" lon="5.03017">
        <ele>102.2</ele>
        <time>2010-11-14T14:43:37Z</time>
      </trkpt>
      <trkpt lat="44.1041" lon="5.03014">
        <ele>102.3</ele>
        <time>2010-11-14T14:43:41Z</time>
      </trkpt>
      <trkpt lat="44.10402" lon="5.0301">
        <ele>102.2</ele>
        <time>2010-11-14T14:43:46Z</time>
      </trkpt>
      <trkpt lat="44.10395" lon="5.03006">
        <ele>103.2</ele>
        <time>2010-11-14T14:43:50Z</time>
      </trkpt>
      <trkpt lat="44.10389" lon="5.03001">
        <ele>103.3</ele>
        <time>2010-11-14T14:43:53Z</time>
      </trkpt>
      <trkpt lat="44.10388" lon="5.02999">
        <ele>103.4</ele>
        <time>2010-11-14T14:43:54Z</time>
      </trkpt>
      <trkpt lat="44.10379" lon="5.02986">
        <ele>103.5</ele>
        <time>2010-11-14T14:44:02Z</time>
      </trkpt>
      <trkpt lat="44.10375" lon="5.02975">
        <ele>103.5</ele>
        <time>2010-11-14T14:44:06Z</time>
      </trkpt>
      <trkpt lat="44.10372" lon="5.02964">
        <ele>103.1</ele>
        <time>2010-11-14T14:44:11Z</time>
      </trkpt>
      <trkpt lat="44.10371" lon="5.02954">
        <ele>102.9</ele>
        <time>2010-11-14T14:44:16Z</time>
      </trkpt>
      <trkpt lat="44.10368" lon="5.02943">
        <ele>103.3</ele>
        <time>2010-11-14T14:44:21Z</time>
      </trkpt>
      <trkpt lat="44.10364" lon="5.02932">
        <ele>103.3</ele>
        <time>2010-11-14T14:44:27Z</time>
      </trkpt>
      <trkpt lat="44.10364" lon="5.02921">
        <ele>103.2</ele>
        <time>2010-11-14T14:44:33Z</time>
      </trkpt>
      <trkpt lat="44.10363" lon="5.0291">
        <ele>102.9</ele>
        <time>2010-11-14T14:44:38Z</time>
      </trkpt>
      <trkpt lat="44.10361" lon="5.02898">
        <ele>103.4</ele>
        <time>2010-11-14T14:44:44Z</time>
      </trkpt>
      <trkpt lat="44.10363" lon="5.02888">
        <ele>103.3</ele>
        <time>2010-11-14T14:44:48Z</time>
      </trkpt>
      <trkpt lat="44.10365" lon="5.02877">
        <ele>103.3</ele>
        <time>2010-11-14T14:44:52Z</time>
      </trkpt>
      <trkpt lat="44.10368" lon="5.02865">
        <ele>103.1</ele>
        <time>2010-11-14T14:44:56Z</time>
      </trkpt>
      <trkpt lat="44.10369" lon="5.02863">
        <ele>103.1</ele>
        <time>2010-11-14T14:44:57Z</time>
      </trkpt>
      <trkpt lat="44.10371" lon="5.02844">
        <ele>103.3</ele>
        <time>2010-11-14T14:45:05Z</time>
      </trkpt>
      <trkpt lat="44.10374" lon="5.02832">
        <ele>102.9</ele>
        <time>2010-11-14T14:45:10Z</time>
      </trkpt>
      <trkpt lat="44.10375" lon="5.02822">
        <ele>102.8</ele>
        <time>2010-11-14T14:45:15Z</time>
      </trkpt>
      <trkpt lat="44.10377" lon="5.02811">
        <ele>103.2</ele>
        <time>2010-11-14T14:45:20Z</time>
      </trkpt>
      <trkpt lat="44.10382" lon="5.02801">
        <ele>103.1</ele>
        <time>2010-11-14T14:45:25Z</time>
      </trkpt>
      <trkpt lat="44.10386" lon="5.02791">
        <ele>102.4</ele>
        <time>2010-11-14T14:45:31Z</time>
      </trkpt>
      <trkpt lat="44.10389" lon="5.02781">
        <ele>102.6</ele>
        <time>2010-11-14T14:45:36Z</time>
      </trkpt>
      <trkpt lat="44.10393" lon="5.02771">
        <ele>102.5</ele>
        <time>2010-11-14T14:45:41Z</time>
      </trkpt>
      <trkpt lat="44.10398" lon="5.02762">
        <ele>102.4</ele>
        <time>2010-11-14T14:45:46Z</time>
      </trkpt>
      <trkpt lat="44.10403" lon="5.02751">
        <ele>102.8</ele>
        <time>2010-11-14T14:45:52Z</time>
      </trkpt>
      <trkpt lat="44.10408" lon="5.02743">
        <ele>103</ele>
        <time>2010-11-14T14:45:56Z</time>
      </trkpt>
      <trkpt lat="44.1041" lon="5.02732">
        <ele>103.2</ele>
        <time>2010-11-14T14:46:02Z</time>
      </trkpt>
      <trkpt lat="44.1041" lon="5.0273">
        <ele>103.4</ele>
        <time>2010-11-14T14:46:03Z</time>
      </trkpt>
      <trkpt lat="44.10417" lon="5.02713">
        <ele>103.6</ele>
        <time>2010-11-14T14:46:10Z</time>
      </trkpt>
      <trkpt lat="44.10421" lon="5.02702">
        <ele>103.7</ele>
        <time>2010-11-14T14:46:15Z</time>
      </trkpt>
      <trkpt lat="44.10422" lon="5.02691">
        <ele>103</ele>
        <time>2010-11-14T14:46:20Z</time>
      </trkpt>
      <trkpt lat="44.10422" lon="5.02679">
        <ele>103.8</ele>
        <time>2010-11-14T14:46:24Z</time>
      </trkpt>
      <trkpt lat="44.10419" lon="5.02668">
        <ele>103.7</ele>
        <time>2010-11-14T14:46:29Z</time>
      </trkpt>
      <trkpt lat="44.10417" lon="5.02657">
        <ele>103.5</ele>
        <time>2010-11-14T14:46:35Z</time>
      </trkpt>
      <trkpt lat="44.10413" lon="5.02647">
        <ele>102.5</ele>
        <time>2010-11-14T14:46:39Z</time>
      </trkpt>
      <trkpt lat="44.10412" lon="5.02636">
        <ele>102.6</ele>
        <time>2010-11-14T14:46:44Z</time>
      </trkpt>
      <trkpt lat="44.10409" lon="5.02626">
        <ele>102.6</ele>
        <time>2010-11-14T14:46:48Z</time>
      </trkpt>
      <trkpt lat="44.10407" lon="5.02615">
        <ele>102.4</ele>
        <time>2010-11-14T14:46:53Z</time>
      </trkpt>
      <trkpt lat="44.10404" lon="5.02604">
        <ele>102.4</ele>
        <time>2010-11-14T14:47:01Z</time>
      </trkpt>
      <trkpt lat="44.10399" lon="5.02603">
        <ele>102.2</ele>
        <time>2010-11-14T14:47:03Z</time>
      </trkpt>
      <trkpt lat="44.10395" lon="5.02602">
        <ele>102.6</ele>
        <time>2010-11-14T14:47:04Z</time>
      </trkpt>
      <trkpt lat="44.10386" lon="5.02599">
        <ele>102.6</ele>
        <time>2010-11-14T14:47:06Z</time>
      </trkpt>
      <trkpt lat="44.10378" lon="5.02598">
        <ele>102.5</ele>
        <time>2010-11-14T14:47:08Z</time>
      </trkpt>
      <trkpt lat="44.1037" lon="5.02595">
        <ele>102.3</ele>
        <time>2010-11-14T14:47:11Z</time>
      </trkpt>
      <trkpt lat="44.10361" lon="5.02592">
        <ele>102.4</ele>
        <time>2010-11-14T14:47:14Z</time>
      </trkpt>
      <trkpt lat="44.10354" lon="5.02587">
        <ele>102.3</ele>
        <time>2010-11-14T14:47:19Z</time>
      </trkpt>
      <trkpt lat="44.10346" lon="5.02582">
        <ele>102.9</ele>
        <time>2010-11-14T14:47:25Z</time>
      </trkpt>
      <trkpt lat="44.10339" lon="5.02575">
        <ele>102.6</ele>
        <time>2010-11-14T14:47:33Z</time>
      </trkpt>
      <trkpt lat="44.10332" lon="5.02569">
        <ele>102.9</ele>
        <time>2010-11-14T14:47:47Z</time>
      </trkpt>
      <trkpt lat="44.10331" lon="5.02557">
        <ele>102.8</ele>
        <time>2010-11-14T14:48:37Z</time>
      </trkpt>
      <trkpt lat="44.10331" lon="5.02556">
        <ele>102.6</ele>
        <time>2010-11-14T14:48:38Z</time>
      </trkpt>
      <trkpt lat="44.10329" lon="5.02535">
        <ele>103</ele>
        <time>2010-11-14T14:48:46Z</time>
      </trkpt>
      <trkpt lat="44.1033" lon="5.02527">
        <ele>103.7</ele>
        <time>2010-11-14T14:48:49Z</time>
      </trkpt>
      <trkpt lat="44.1033" lon="5.02516">
        <ele>103.6</ele>
        <time>2010-11-14T14:48:52Z</time>
      </trkpt>
      <trkpt lat="44.10332" lon="5.02505">
        <ele>103.2</ele>
        <time>2010-11-14T14:48:58Z</time>
      </trkpt>
      <trkpt lat="44.10332" lon="5.02492">
        <ele>103</ele>
        <time>2010-11-14T14:49:04Z</time>
      </trkpt>
      <trkpt lat="44.10332" lon="5.02481">
        <ele>103</ele>
        <time>2010-11-14T14:49:09Z</time>
      </trkpt>
      <trkpt lat="44.10332" lon="5.02471">
        <ele>102.9</ele>
        <time>2010-11-14T14:49:14Z</time>
      </trkpt>
      <trkpt lat="44.10333" lon="5.02459">
        <ele>102.8</ele>
        <time>2010-11-14T14:49:19Z</time>
      </trkpt>
      <trkpt lat="44.10334" lon="5.02449">
        <ele>102.5</ele>
        <time>2010-11-14T14:49:24Z</time>
      </trkpt>
      <trkpt lat="44.10335" lon="5.02438">
        <ele>102.3</ele>
        <time>2010-11-14T14:49:29Z</time>
      </trkpt>
      <trkpt lat="44.10337" lon="5.02426">
        <ele>102.6</ele>
        <time>2010-11-14T14:49:35Z</time>
      </trkpt>
      <trkpt lat="44.10337" lon="5.02414">
        <ele>102.8</ele>
        <time>2010-11-14T14:49:40Z</time>
      </trkpt>
      <trkpt lat="44.10338" lon="5.02412">
        <ele>103</ele>
        <time>2010-11-14T14:49:41Z</time>
      </trkpt>
      <trkpt lat="44.10339" lon="5.02392">
        <ele>103.2</ele>
        <time>2010-11-14T14:49:50Z</time>
      </trkpt>
      <trkpt lat="44.10339" lon="5.0238">
        <ele>103.4</ele>
        <time>2010-11-14T14:49:55Z</time>
      </trkpt>
      <trkpt lat="44.1034" lon="5.02368">
        <ele>103.8</ele>
        <time>2010-11-14T14:50:01Z</time>
      </trkpt>
      <trkpt lat="44.10344" lon="5.02357">
        <ele>103.7</ele>
        <time>2010-11-14T14:50:06Z</time>
      </trkpt>
      <trkpt lat="44.10346" lon="5.02346">
        <ele>102.8</ele>
        <time>2010-11-14T14:50:12Z</time>
      </trkpt>
      <trkpt lat="44.10348" lon="5.02334">
        <ele>102.7</ele>
        <time>2010-11-14T14:50:17Z</time>
      </trkpt>
      <trkpt lat="44.10347" lon="5.02322">
        <ele>102.7</ele>
        <time>2010-11-14T14:50:22Z</time>
      </trkpt>
      <trkpt lat="44.10344" lon="5.02311">
        <ele>102.9</ele>
        <time>2010-11-14T14:50:27Z</time>
      </trkpt>
      <trkpt lat="44.10341" lon="5.02301">
        <ele>102.9</ele>
        <time>2010-11-14T14:50:31Z</time>
      </trkpt>
      <trkpt lat="44.10337" lon="5.02292">
        <ele>102.9</ele>
        <time>2010-11-14T14:50:36Z</time>
      </trkpt>
      <trkpt lat="44.10334" lon="5.0228">
        <ele>103.2</ele>
        <time>2010-11-14T14:50:42Z</time>
      </trkpt>
      <trkpt lat="44.10333" lon="5.02278">
        <ele>103</ele>
        <time>2010-11-14T14:50:43Z</time>
      </trkpt>
      <trkpt lat="44.10326" lon="5.0226">
        <ele>102.7</ele>
        <time>2010-11-14T14:50:50Z</time>
      </trkpt>
      <trkpt lat="44.10327" lon="5.02248">
        <ele>102.7</ele>
        <time>2010-11-14T14:50:56Z</time>
      </trkpt>
      <trkpt lat="44.10329" lon="5.02237">
        <ele>102.1</ele>
        <time>2010-11-14T14:51:02Z</time>
      </trkpt>
      <trkpt lat="44.10335" lon="5.0223">
        <ele>102.4</ele>
        <time>2010-11-14T14:51:06Z</time>
      </trkpt>
      <trkpt lat="44.10339" lon="5.02221">
        <ele>102.6</ele>
        <time>2010-11-14T14:51:11Z</time>
      </trkpt>
      <trkpt lat="44.10342" lon="5.0221">
        <ele>102.3</ele>
        <time>2010-11-14T14:51:16Z</time>
      </trkpt>
      <trkpt lat="44.10346" lon="5.02201">
        <ele>102.1</ele>
        <time>2010-11-14T14:51:20Z</time>
      </trkpt>
      <trkpt lat="44.10351" lon="5.02193">
        <ele>102.6</ele>
        <time>2010-11-14T14:51:24Z</time>
      </trkpt>
      <trkpt lat="44.10358" lon="5.02184">
        <ele>102.7</ele>
        <time>2010-11-14T14:51:29Z</time>
      </trkpt>
      <trkpt lat="44.10365" lon="5.02178">
        <ele>102.2</ele>
        <time>2010-11-14T14:51:34Z</time>
      </trkpt>
      <trkpt lat="44.10372" lon="5.02171">
        <ele>102.6</ele>
        <time>2010-11-14T14:51:39Z</time>
      </trkpt>
      <trkpt lat="44.10378" lon="5.02165">
        <ele>102.9</ele>
        <time>2010-11-14T14:51:43Z</time>
      </trkpt>
      <trkpt lat="44.1038" lon="5.02164">
        <ele>103.1</ele>
        <time>2010-11-14T14:51:44Z</time>
      </trkpt>
      <trkpt lat="44.10392" lon="5.02151">
        <ele>102.7</ele>
        <time>2010-11-14T14:51:53Z</time>
      </trkpt>
      <trkpt lat="44.10399" lon="5.02145">
        <ele>102.7</ele>
        <time>2010-11-14T14:51:58Z</time>
      </trkpt>
      <trkpt lat="44.10405" lon="5.02138">
        <ele>102.7</ele>
        <time>2010-11-14T14:52:03Z</time>
      </trkpt>
      <trkpt lat="44.10412" lon="5.02132">
        <ele>102.6</ele>
        <time>2010-11-14T14:52:08Z</time>
      </trkpt>
      <trkpt lat="44.10419" lon="5.02127">
        <ele>102.1</ele>
        <time>2010-11-14T14:52:13Z</time>
      </trkpt>
      <trkpt lat="44.10426" lon="5.0212">
        <ele>102.3</ele>
        <time>2010-11-14T14:52:19Z</time>
      </trkpt>
      <trkpt lat="44.10433" lon="5.02112">
        <ele>102.8</ele>
        <time>2010-11-14T14:52:25Z</time>
      </trkpt>
      <trkpt lat="44.10438" lon="5.02106">
        <ele>102.4</ele>
        <time>2010-11-14T14:52:29Z</time>
      </trkpt>
      <trkpt lat="44.10445" lon="5.021">
        <ele>102.1</ele>
        <time>2010-11-14T14:52:33Z</time>
      </trkpt>
      <trkpt lat="44.10452" lon="5.02092">
        <ele>102.5</ele>
        <time>2010-11-14T14:52:38Z</time>
      </trkpt>
      <trkpt lat="44.10459" lon="5.02085">
        <ele>102.7</ele>
        <time>2010-11-14T14:52:42Z</time>
      </trkpt>
      <trkpt lat="44.10466" lon="5.02078">
        <ele>102.9</ele>
        <time>2010-11-14T14:52:47Z</time>
      </trkpt>
      <trkpt lat="44.10467" lon="5.02077">
        <ele>102.9</ele>
        <time>2010-11-14T14:52:48Z</time>
      </trkpt>
      <trkpt lat="44.10476" lon="5.02061">
        <ele>102.4</ele>
        <time>2010-11-14T14:52:57Z</time>
      </trkpt>
      <trkpt lat="44.10481" lon="5.0205">
        <ele>103.3</ele>
        <time>2010-11-14T14:53:04Z</time>
      </trkpt>
      <trkpt lat="44.10486" lon="5.02042">
        <ele>103.2</ele>
        <time>2010-11-14T14:53:08Z</time>
      </trkpt>
      <trkpt lat="44.10491" lon="5.02033">
        <ele>102.8</ele>
        <time>2010-11-14T14:53:13Z</time>
      </trkpt>
      <trkpt lat="44.10491" lon="5.0202">
        <ele>103.2</ele>
        <time>2010-11-14T14:53:19Z</time>
      </trkpt>
      <trkpt lat="44.10488" lon="5.02009">
        <ele>103.6</ele>
        <time>2010-11-14T14:53:24Z</time>
      </trkpt>
      <trkpt lat="44.10483" lon="5.02">
        <ele>103.3</ele>
        <time>2010-11-14T14:53:29Z</time>
      </trkpt>
      <trkpt lat="44.10479" lon="5.01991">
        <ele>102.9</ele>
        <time>2010-11-14T14:53:33Z</time>
      </trkpt>
      <trkpt lat="44.10473" lon="5.01982">
        <ele>102.5</ele>
        <time>2010-11-14T14:53:39Z</time>
      </trkpt>
      <trkpt lat="44.10468" lon="5.01973">
        <ele>102.7</ele>
        <time>2010-11-14T14:53:45Z</time>
      </trkpt>
      <trkpt lat="44.10464" lon="5.01963">
        <ele>102.7</ele>
        <time>2010-11-14T14:53:50Z</time>
      </trkpt>
      <trkpt lat="44.10463" lon="5.01961">
        <ele>102.8</ele>
        <time>2010-11-14T14:53:51Z</time>
      </trkpt>
      <trkpt lat="44.10455" lon="5.01946">
        <ele>102.7</ele>
        <time>2010-11-14T14:53:59Z</time>
      </trkpt>
      <trkpt lat="44.1045" lon="5.01936">
        <ele>102.3</ele>
        <time>2010-11-14T14:54:04Z</time>
      </trkpt>
      <trkpt lat="44.10447" lon="5.01927">
        <ele>102.4</ele>
        <time>2010-11-14T14:54:09Z</time>
      </trkpt>
      <trkpt lat="44.10444" lon="5.01918">
        <ele>102.8</ele>
        <time>2010-11-14T14:54:13Z</time>
      </trkpt>
      <trkpt lat="44.10442" lon="5.01908">
        <ele>102.9</ele>
        <time>2010-11-14T14:54:17Z</time>
      </trkpt>
      <trkpt lat="44.10438" lon="5.01898">
        <ele>103</ele>
        <time>2010-11-14T14:54:21Z</time>
      </trkpt>
      <trkpt lat="44.10436" lon="5.01889">
        <ele>103</ele>
        <time>2010-11-14T14:54:25Z</time>
      </trkpt>
      <trkpt lat="44.10433" lon="5.01879">
        <ele>102.7</ele>
        <time>2010-11-14T14:54:29Z</time>
      </trkpt>
      <trkpt lat="44.10431" lon="5.01868">
        <ele>102.2</ele>
        <time>2010-11-14T14:54:34Z</time>
      </trkpt>
      <trkpt lat="44.10429" lon="5.01857">
        <ele>102.7</ele>
        <time>2010-11-14T14:54:38Z</time>
      </trkpt>
      <trkpt lat="44.1043" lon="5.01847">
        <ele>102.8</ele>
        <time>2010-11-14T14:54:42Z</time>
      </trkpt>
      <trkpt lat="44.1043" lon="5.01837">
        <ele>102</ele>
        <time>2010-11-14T14:54:46Z</time>
      </trkpt>
      <trkpt lat="44.10435" lon="5.01827">
        <ele>102.4</ele>
        <time>2010-11-14T14:54:52Z</time>
      </trkpt>
      <trkpt lat="44.10436" lon="5.01825">
        <ele>102.4</ele>
        <time>2010-11-14T14:54:53Z</time>
      </trkpt>
      <trkpt lat="44.10445" lon="5.01812">
        <ele>102.4</ele>
        <time>2010-11-14T14:55:01Z</time>
      </trkpt>
      <trkpt lat="44.10452" lon="5.01804">
        <ele>102.6</ele>
        <time>2010-11-14T14:55:05Z</time>
      </trkpt>
      <trkpt lat="44.10458" lon="5.01796">
        <ele>102.9</ele>
        <time>2010-11-14T14:55:10Z</time>
      </trkpt>
      <trkpt lat="44.10463" lon="5.01787">
        <ele>102.3</ele>
        <time>2010-11-14T14:55:15Z</time>
      </trkpt>
      <trkpt lat="44.10468" lon="5.0178">
        <ele>101.8</ele>
        <time>2010-11-14T14:55:19Z</time>
      </trkpt>
      <trkpt lat="44.10473" lon="5.01772">
        <ele>102</ele>
        <time>2010-11-14T14:55:23Z</time>
      </trkpt>
      <trkpt lat="44.1048" lon="5.01763">
        <ele>101.9</ele>
        <time>2010-11-14T14:55:28Z</time>
      </trkpt>
      <trkpt lat="44.10486" lon="5.01756">
        <ele>101.6</ele>
        <time>2010-11-14T14:55:32Z</time>
      </trkpt>
      <trkpt lat="44.10492" lon="5.0175">
        <ele>102.8</ele>
        <time>2010-11-14T14:55:37Z</time>
      </trkpt>
      <trkpt lat="44.10499" lon="5.01746">
        <ele>103</ele>
        <time>2010-11-14T14:55:41Z</time>
      </trkpt>
      <trkpt lat="44.10508" lon="5.01745">
        <ele>102.2</ele>
        <time>2010-11-14T14:55:48Z</time>
      </trkpt>
      <trkpt lat="44.10516" lon="5.01748">
        <ele>102.5</ele>
        <time>2010-11-14T14:55:52Z</time>
      </trkpt>
      <trkpt lat="44.10523" lon="5.01755">
        <ele>102.8</ele>
        <time>2010-11-14T14:55:57Z</time>
      </trkpt>
      <trkpt lat="44.10524" lon="5.01756">
        <ele>102.9</ele>
        <time>2010-11-14T14:55:58Z</time>
      </trkpt>
      <trkpt lat="44.10534" lon="5.0177">
        <ele>102.4</ele>
        <time>2010-11-14T14:56:07Z</time>
      </trkpt>
      <trkpt lat="44.1054" lon="5.01779">
        <ele>102.5</ele>
        <time>2010-11-14T14:56:12Z</time>
      </trkpt>
      <trkpt lat="44.10545" lon="5.01786">
        <ele>102.8</ele>
        <time>2010-11-14T14:56:16Z</time>
      </trkpt>
      <trkpt lat="44.10551" lon="5.01795">
        <ele>103.2</ele>
        <time>2010-11-14T14:56:21Z</time>
      </trkpt>
      <trkpt lat="44.10557" lon="5.01803">
        <ele>102.6</ele>
        <time>2010-11-14T14:56:26Z</time>
      </trkpt>
      <trkpt lat="44.10562" lon="5.01812">
        <ele>102.3</ele>
        <time>2010-11-14T14:56:32Z</time>
      </trkpt>
      <trkpt lat="44.10569" lon="5.01818">
        <ele>102.3</ele>
        <time>2010-11-14T14:56:37Z</time>
      </trkpt>
      <trkpt lat="44.10576" lon="5.01825">
        <ele>102.3</ele>
        <time>2010-11-14T14:56:42Z</time>
      </trkpt>
      <trkpt lat="44.1058" lon="5.01833">
        <ele>102.4</ele>
        <time>2010-11-14T14:56:46Z</time>
      </trkpt>
      <trkpt lat="44.10584" lon="5.01842">
        <ele>102.4</ele>
        <time>2010-11-14T14:56:50Z</time>
      </trkpt>
      <trkpt lat="44.10591" lon="5.01847">
        <ele>102.6</ele>
        <time>2010-11-14T14:56:55Z</time>
      </trkpt>
      <trkpt lat="44.10598" lon="5.01854">
        <ele>102.6</ele>
        <time>2010-11-14T14:57:00Z</time>
      </trkpt>
      <trkpt lat="44.106" lon="5.01856">
        <ele>102.8</ele>
        <time>2010-11-14T14:57:01Z</time>
      </trkpt>
      <trkpt lat="44.10612" lon="5.01867">
        <ele>102.7</ele>
        <time>2010-11-14T14:57:10Z</time>
      </trkpt>
      <trkpt lat="44.10619" lon="5.01874">
        <ele>102.3</ele>
        <time>2010-11-14T14:57:14Z</time>
      </trkpt>
      <trkpt lat="44.10626" lon="5.01881">
        <ele>101.6</ele>
        <time>2010-11-14T14:57:19Z</time>
      </trkpt>
      <trkpt lat="44.10633" lon="5.01888">
        <ele>101.9</ele>
        <time>2010-11-14T14:57:24Z</time>
      </trkpt>
      <trkpt lat="44.1064" lon="5.01895">
        <ele>101.6</ele>
        <time>2010-11-14T14:57:29Z</time>
      </trkpt>
      <trkpt lat="44.10646" lon="5.01901">
        <ele>101.3</ele>
        <time>2010-11-14T14:57:34Z</time>
      </trkpt>
      <trkpt lat="44.10653" lon="5.01906">
        <ele>101.6</ele>
        <time>2010-11-14T14:57:38Z</time>
      </trkpt>
      <trkpt lat="44.1066" lon="5.01911">
        <ele>101.2</ele>
        <time>2010-11-14T14:57:43Z</time>
      </trkpt>
      <trkpt lat="44.10668" lon="5.01917">
        <ele>101.8</ele>
        <time>2010-11-14T14:57:48Z</time>
      </trkpt>
      <trkpt lat="44.10675" lon="5.01922">
        <ele>101.9</ele>
        <time>2010-11-14T14:57:52Z</time>
      </trkpt>
      <trkpt lat="44.10681" lon="5.01928">
        <ele>102.4</ele>
        <time>2010-11-14T14:57:56Z</time>
      </trkpt>
      <trkpt lat="44.10687" lon="5.01936">
        <ele>101.9</ele>
        <time>2010-11-14T14:58:01Z</time>
      </trkpt>
      <trkpt lat="44.10688" lon="5.01938">
        <ele>101.9</ele>
        <time>2010-11-14T14:58:02Z</time>
      </trkpt>
      <trkpt lat="44.10699" lon="5.01953">
        <ele>102.3</ele>
        <time>2010-11-14T14:58:11Z</time>
      </trkpt>
      <trkpt lat="44.10703" lon="5.01963">
        <ele>103.2</ele>
        <time>2010-11-14T14:58:16Z</time>
      </trkpt>
      <trkpt lat="44.10707" lon="5.01973">
        <ele>102.6</ele>
        <time>2010-11-14T14:58:24Z</time>
      </trkpt>
      <trkpt lat="44.10715" lon="5.01972">
        <ele>101.6</ele>
        <time>2010-11-14T14:58:30Z</time>
      </trkpt>
      <trkpt lat="44.10722" lon="5.0197">
        <ele>100.8</ele>
        <time>2010-11-14T14:58:33Z</time>
      </trkpt>
      <trkpt lat="44.1073" lon="5.01967">
        <ele>99.6</ele>
        <time>2010-11-14T14:58:37Z</time>
      </trkpt>
      <trkpt lat="44.10738" lon="5.01963">
        <ele>99.1</ele>
        <time>2010-11-14T14:58:41Z</time>
      </trkpt>
      <trkpt lat="44.10746" lon="5.01959">
        <ele>98.2</ele>
        <time>2010-11-14T14:58:46Z</time>
      </trkpt>
      <trkpt lat="44.10754" lon="5.01956">
        <ele>97.4</ele>
        <time>2010-11-14T14:58:51Z</time>
      </trkpt>
      <trkpt lat="44.10763" lon="5.01955">
        <ele>96.4</ele>
        <time>2010-11-14T14:58:57Z</time>
      </trkpt>
      <trkpt lat="44.10771" lon="5.01955">
        <ele>95.8</ele>
        <time>2010-11-14T14:59:02Z</time>
      </trkpt>
      <trkpt lat="44.10773" lon="5.01955">
        <ele>95.8</ele>
        <time>2010-11-14T14:59:03Z</time>
      </trkpt>
      <trkpt lat="44.10788" lon="5.01954">
        <ele>94</ele>
        <time>2010-11-14T14:59:14Z</time>
      </trkpt>
      <trkpt lat="44.10796" lon="5.01955">
        <ele>92.9</ele>
        <time>2010-11-14T14:59:19Z</time>
      </trkpt>
      <trkpt lat="44.10803" lon="5.01954">
        <ele>92.4</ele>
        <time>2010-11-14T14:59:23Z</time>
      </trkpt>
      <trkpt lat="44.10812" lon="5.01955">
        <ele>92</ele>
        <time>2010-11-14T14:59:27Z</time>
      </trkpt>
      <trkpt lat="44.10819" lon="5.01953">
        <ele>90.9</ele>
        <time>2010-11-14T14:59:32Z</time>
      </trkpt>
      <trkpt lat="44.10828" lon="5.01952">
        <ele>90.4</ele>
        <time>2010-11-14T14:59:36Z</time>
      </trkpt>
      <trkpt lat="44.10836" lon="5.01952">
        <ele>89.8</ele>
        <time>2010-11-14T14:59:41Z</time>
      </trkpt>
      <trkpt lat="44.10842" lon="5.0195">
        <ele>89.7</ele>
        <time>2010-11-14T14:59:44Z</time>
      </trkpt>
      <trkpt lat="44.10851" lon="5.01951">
        <ele>89.4</ele>
        <time>2010-11-14T14:59:48Z</time>
      </trkpt>
      <trkpt lat="44.1086" lon="5.01952">
        <ele>89.3</ele>
        <time>2010-11-14T14:59:53Z</time>
      </trkpt>
      <trkpt lat="44.10869" lon="5.01951">
        <ele>88.6</ele>
        <time>2010-11-14T14:59:59Z</time>
      </trkpt>
      <trkpt lat="44.10877" lon="5.01952">
        <ele>88.3</ele>
        <time>2010-11-14T15:00:05Z</time>
      </trkpt>
      <trkpt lat="44.10878" lon="5.01952">
        <ele>88.1</ele>
        <time>2010-11-14T15:00:06Z</time>
      </trkpt>
      <trkpt lat="44.10893" lon="5.0195">
        <ele>86.9</ele>
        <time>2010-11-14T15:00:14Z</time>
      </trkpt>
      <trkpt lat="44.109" lon="5.01949">
        <ele>86.9</ele>
        <time>2010-11-14T15:00:19Z</time>
      </trkpt>
      <trkpt lat="44.10908" lon="5.01949">
        <ele>86.2</ele>
        <time>2010-11-14T15:00:24Z</time>
      </trkpt>
      <trkpt lat="44.10916" lon="5.01952">
        <ele>86.1</ele>
        <time>2010-11-14T15:00:29Z</time>
      </trkpt>
      <trkpt lat="44.10924" lon="5.01954">
        <ele>85.8</ele>
        <time>2010-11-14T15:00:33Z</time>
      </trkpt>
      <trkpt lat="44.10932" lon="5.01954">
        <ele>85.9</ele>
        <time>2010-11-14T15:00:37Z</time>
      </trkpt>
      <trkpt lat="44.1094" lon="5.01954">
        <ele>85.8</ele>
        <time>2010-11-14T15:00:42Z</time>
      </trkpt>
      <trkpt lat="44.10948" lon="5.01955">
        <ele>85.8</ele>
        <time>2010-11-14T15:00:46Z</time>
      </trkpt>
      <trkpt lat="44.10956" lon="5.01956">
        <ele>85.8</ele>
        <time>2010-11-14T15:00:50Z</time>
      </trkpt>
      <trkpt lat="44.10964" lon="5.01957">
        <ele>85.5</ele>
        <time>2010-11-14T15:00:54Z</time>
      </trkpt>
      <trkpt lat="44.10972" lon="5.01957">
        <ele>85.4</ele>
        <time>2010-11-14T15:00:59Z</time>
      </trkpt>
      <trkpt lat="44.1098" lon="5.01957">
        <ele>85.1</ele>
        <time>2010-11-14T15:01:04Z</time>
      </trkpt>
      <trkpt lat="44.10988" lon="5.01958">
        <ele>85.2</ele>
        <time>2010-11-14T15:01:09Z</time>
      </trkpt>
      <trkpt lat="44.10989" lon="5.01958">
        <ele>85.1</ele>
        <time>2010-11-14T15:01:10Z</time>
      </trkpt>
      <trkpt lat="44.11004" lon="5.01958">
        <ele>84.7</ele>
        <time>2010-11-14T15:01:19Z</time>
      </trkpt>
      <trkpt lat="44.11012" lon="5.01959">
        <ele>83.7</ele>
        <time>2010-11-14T15:01:24Z</time>
      </trkpt>
      <trkpt lat="44.1102" lon="5.01958">
        <ele>83.6</ele>
        <time>2010-11-14T15:01:29Z</time>
      </trkpt>
      <trkpt lat="44.11029" lon="5.01957">
        <ele>84.5</ele>
        <time>2010-11-14T15:01:34Z</time>
      </trkpt>
      <trkpt lat="44.11036" lon="5.01957">
        <ele>84.6</ele>
        <time>2010-11-14T15:01:38Z</time>
      </trkpt>
      <trkpt lat="44.11044" lon="5.01957">
        <ele>83.6</ele>
        <time>2010-11-14T15:01:43Z</time>
      </trkpt>
      <trkpt lat="44.11052" lon="5.01956">
        <ele>83.3</ele>
        <time>2010-11-14T15:01:48Z</time>
      </trkpt>
      <trkpt lat="44.1106" lon="5.01956">
        <ele>83.3</ele>
        <time>2010-11-14T15:01:53Z</time>
      </trkpt>
      <trkpt lat="44.11069" lon="5.01956">
        <ele>83.6</ele>
        <time>2010-11-14T15:01:58Z</time>
      </trkpt>
      <trkpt lat="44.11077" lon="5.01956">
        <ele>83.4</ele>
        <time>2010-11-14T15:02:03Z</time>
      </trkpt>
      <trkpt lat="44.11085" lon="5.01954">
        <ele>84</ele>
        <time>2010-11-14T15:02:09Z</time>
      </trkpt>
      <trkpt lat="44.11092" lon="5.01955">
        <ele>84.2</ele>
        <time>2010-11-14T15:02:13Z</time>
      </trkpt>
      <trkpt lat="44.11094" lon="5.01955">
        <ele>84.3</ele>
        <time>2010-11-14T15:02:14Z</time>
      </trkpt>
      <trkpt lat="44.11108" lon="5.01954">
        <ele>83.9</ele>
        <time>2010-11-14T15:02:22Z</time>
      </trkpt>
      <trkpt lat="44.11117" lon="5.01955">
        <ele>83.7</ele>
        <time>2010-11-14T15:02:28Z</time>
      </trkpt>
      <trkpt lat="44.11124" lon="5.01955">
        <ele>84.1</ele>
        <time>2010-11-14T15:02:32Z</time>
      </trkpt>
      <trkpt lat="44.11133" lon="5.01954">
        <ele>84.1</ele>
        <time>2010-11-14T15:02:36Z</time>
      </trkpt>
      <trkpt lat="44.11141" lon="5.01953">
        <ele>83.9</ele>
        <time>2010-11-14T15:02:41Z</time>
      </trkpt>
      <trkpt lat="44.11149" lon="5.01952">
        <ele>84.2</ele>
        <time>2010-11-14T15:02:46Z</time>
      </trkpt>
      <trkpt lat="44.11157" lon="5.01952">
        <ele>84.1</ele>
        <time>2010-11-14T15:02:51Z</time>
      </trkpt>
      <trkpt lat="44.11165" lon="5.01952">
        <ele>83.8</ele>
        <time>2010-11-14T15:02:56Z</time>
      </trkpt>
      <trkpt lat="44.11173" lon="5.01951">
        <ele>83.8</ele>
        <time>2010-11-14T15:03:01Z</time>
      </trkpt>
      <trkpt lat="44.11181" lon="5.01949">
        <ele>83.9</ele>
        <time>2010-11-14T15:03:06Z</time>
      </trkpt>
      <trkpt lat="44.11189" lon="5.01949">
        <ele>83.7</ele>
        <time>2010-11-14T15:03:10Z</time>
      </trkpt>
      <trkpt lat="44.11198" lon="5.01947">
        <ele>83.2</ele>
        <time>2010-11-14T15:03:15Z</time>
      </trkpt>
      <trkpt lat="44.11199" lon="5.01947">
        <ele>83.2</ele>
        <time>2010-11-14T15:03:16Z</time>
      </trkpt>
      <trkpt lat="44.11214" lon="5.01945">
        <ele>83.8</ele>
        <time>2010-11-14T15:03:26Z</time>
      </trkpt>
      <trkpt lat="44.11221" lon="5.01942">
        <ele>83.6</ele>
        <time>2010-11-14T15:03:31Z</time>
      </trkpt>
      <trkpt lat="44.1123" lon="5.01941">
        <ele>83.1</ele>
        <time>2010-11-14T15:03:36Z</time>
      </trkpt>
      <trkpt lat="44.11238" lon="5.01939">
        <ele>83.3</ele>
        <time>2010-11-14T15:03:41Z</time>
      </trkpt>
      <trkpt lat="44.11246" lon="5.01939">
        <ele>83.5</ele>
        <time>2010-11-14T15:03:46Z</time>
      </trkpt>
      <trkpt lat="44.11255" lon="5.01937">
        <ele>83.8</ele>
        <time>2010-11-14T15:03:51Z</time>
      </trkpt>
      <trkpt lat="44.11262" lon="5.01938">
        <ele>83.7</ele>
        <time>2010-11-14T15:03:55Z</time>
      </trkpt>
      <trkpt lat="44.11269" lon="5.01936">
        <ele>83.7</ele>
        <time>2010-11-14T15:03:59Z</time>
      </trkpt>
      <trkpt lat="44.11277" lon="5.01934">
        <ele>84.5</ele>
        <time>2010-11-14T15:04:03Z</time>
      </trkpt>
      <trkpt lat="44.11284" lon="5.01931">
        <ele>85.2</ele>
        <time>2010-11-14T15:04:08Z</time>
      </trkpt>
      <trkpt lat="44.11292" lon="5.01928">
        <ele>85.7</ele>
        <time>2010-11-14T15:04:13Z</time>
      </trkpt>
      <trkpt lat="44.113" lon="5.01925">
        <ele>86.7</ele>
        <time>2010-11-14T15:04:17Z</time>
      </trkpt>
      <trkpt lat="44.11302" lon="5.01925">
        <ele>87</ele>
        <time>2010-11-14T15:04:18Z</time>
      </trkpt>
      <trkpt lat="44.11314" lon="5.01917">
        <ele>88.7</ele>
        <time>2010-11-14T15:04:26Z</time>
      </trkpt>
      <trkpt lat="44.1132" lon="5.01911">
        <ele>87.4</ele>
        <time>2010-11-14T15:04:31Z</time>
      </trkpt>
      <trkpt lat="44.11328" lon="5.01905">
        <ele>85.7</ele>
        <time>2010-11-14T15:04:37Z</time>
      </trkpt>
      <trkpt lat="44.11335" lon="5.01899">
        <ele>85.5</ele>
        <time>2010-11-14T15:04:42Z</time>
      </trkpt>
      <trkpt lat="44.11342" lon="5.01893">
        <ele>85.3</ele>
        <time>2010-11-14T15:04:47Z</time>
      </trkpt>
      <trkpt lat="44.11348" lon="5.01886">
        <ele>84.2</ele>
        <time>2010-11-14T15:04:52Z</time>
      </trkpt>
      <trkpt lat="44.11351" lon="5.01875">
        <ele>85</ele>
        <time>2010-11-14T15:04:57Z</time>
      </trkpt>
      <trkpt lat="44.11347" lon="5.01868">
        <ele>84.9</ele>
        <time>2010-11-14T15:05:00Z</time>
      </trkpt>
      <trkpt lat="44.11341" lon="5.0186">
        <ele>85.3</ele>
        <time>2010-11-14T15:05:04Z</time>
      </trkpt>
      <trkpt lat="44.11334" lon="5.01853">
        <ele>84.8</ele>
        <time>2010-11-14T15:05:09Z</time>
      </trkpt>
      <trkpt lat="44.11329" lon="5.01846">
        <ele>84.3</ele>
        <time>2010-11-14T15:05:13Z</time>
      </trkpt>
      <trkpt lat="44.11322" lon="5.0184">
        <ele>85.1</ele>
        <time>2010-11-14T15:05:18Z</time>
      </trkpt>
      <trkpt lat="44.11321" lon="5.01838">
        <ele>84.9</ele>
        <time>2010-11-14T15:05:19Z</time>
      </trkpt>
      <trkpt lat="44.11311" lon="5.01825">
        <ele>84.6</ele>
        <time>2010-11-14T15:05:27Z</time>
      </trkpt>
      <trkpt lat="44.11304" lon="5.01817">
        <ele>84.5</ele>
        <time>2010-11-14T15:05:32Z</time>
      </trkpt>
      <trkpt lat="44.11297" lon="5.01811">
        <ele>84.2</ele>
        <time>2010-11-14T15:05:37Z</time>
      </trkpt>
      <trkpt lat="44.1129" lon="5.01803">
        <ele>84.1</ele>
        <time>2010-11-14T15:05:42Z</time>
      </trkpt>
      <trkpt lat="44.11284" lon="5.01798">
        <ele>84</ele>
        <time>2010-11-14T15:05:46Z</time>
      </trkpt>
      <trkpt lat="44.11277" lon="5.01792">
        <ele>83.7</ele>
        <time>2010-11-14T15:05:51Z</time>
      </trkpt>
      <trkpt lat="44.11271" lon="5.01784">
        <ele>83.3</ele>
        <time>2010-11-14T15:05:56Z</time>
      </trkpt>
      <trkpt lat="44.11264" lon="5.01777">
        <ele>83.3</ele>
        <time>2010-11-14T15:06:01Z</time>
      </trkpt>
      <trkpt lat="44.11258" lon="5.0177">
        <ele>83</ele>
        <time>2010-11-14T15:06:05Z</time>
      </trkpt>
      <trkpt lat="44.11251" lon="5.01764">
        <ele>83.3</ele>
        <time>2010-11-14T15:06:10Z</time>
      </trkpt>
      <trkpt lat="44.11246" lon="5.01757">
        <ele>82.9</ele>
        <time>2010-11-14T15:06:14Z</time>
      </trkpt>
      <trkpt lat="44.11239" lon="5.01751">
        <ele>83.7</ele>
        <time>2010-11-14T15:06:18Z</time>
      </trkpt>
      <trkpt lat="44.11233" lon="5.01745">
        <ele>83.9</ele>
        <time>2010-11-14T15:06:21Z</time>
      </trkpt>
      <trkpt lat="44.11231" lon="5.01744">
        <ele>83.6</ele>
        <time>2010-11-14T15:06:22Z</time>
      </trkpt>
      <trkpt lat="44.1122" lon="5.01733">
        <ele>83.2</ele>
        <time>2010-11-14T15:06:29Z</time>
      </trkpt>
      <trkpt lat="44.11213" lon="5.01726">
        <ele>83.2</ele>
        <time>2010-11-14T15:06:33Z</time>
      </trkpt>
      <trkpt lat="44.11207" lon="5.01718">
        <ele>83.2</ele>
        <time>2010-11-14T15:06:37Z</time>
      </trkpt>
      <trkpt lat="44.11199" lon="5.01711">
        <ele>82.6</ele>
        <time>2010-11-14T15:06:42Z</time>
      </trkpt>
      <trkpt lat="44.11193" lon="5.01705">
        <ele>82</ele>
        <time>2010-11-14T15:06:47Z</time>
      </trkpt>
      <trkpt lat="44.11186" lon="5.01699">
        <ele>81.8</ele>
        <time>2010-11-14T15:06:52Z</time>
      </trkpt>
      <trkpt lat="44.11179" lon="5.01692">
        <ele>81.5</ele>
        <time>2010-11-14T15:06:57Z</time>
      </trkpt>
      <trkpt lat="44.11173" lon="5.01686">
        <ele>82.1</ele>
        <time>2010-11-14T15:07:02Z</time>
      </trkpt>
      <trkpt lat="44.11167" lon="5.01679">
        <ele>82.1</ele>
        <time>2010-11-14T15:07:07Z</time>
      </trkpt>
      <trkpt lat="44.1116" lon="5.01671">
        <ele>81.8</ele>
        <time>2010-11-14T15:07:12Z</time>
      </trkpt>
      <trkpt lat="44.11154" lon="5.01664">
        <ele>81.4</ele>
        <time>2010-11-14T15:07:17Z</time>
      </trkpt>
      <trkpt lat="44.11148" lon="5.01657">
        <ele>80.9</ele>
        <time>2010-11-14T15:07:22Z</time>
      </trkpt>
      <trkpt lat="44.11147" lon="5.01656">
        <ele>81</ele>
        <time>2010-11-14T15:07:23Z</time>
      </trkpt>
      <trkpt lat="44.11135" lon="5.01644">
        <ele>81</ele>
        <time>2010-11-14T15:07:32Z</time>
      </trkpt>
      <trkpt lat="44.11128" lon="5.01639">
        <ele>80.7</ele>
        <time>2010-11-14T15:07:37Z</time>
      </trkpt>
      <trkpt lat="44.11121" lon="5.01633">
        <ele>80.2</ele>
        <time>2010-11-14T15:07:41Z</time>
      </trkpt>
      <trkpt lat="44.11114" lon="5.01628">
        <ele>80.1</ele>
        <time>2010-11-14T15:07:46Z</time>
      </trkpt>
      <trkpt lat="44.11106" lon="5.01622">
        <ele>79.9</ele>
        <time>2010-11-14T15:07:51Z</time>
      </trkpt>
      <trkpt lat="44.11099" lon="5.01616">
        <ele>79.9</ele>
        <time>2010-11-14T15:07:56Z</time>
      </trkpt>
      <trkpt lat="44.11092" lon="5.01611">
        <ele>80.1</ele>
        <time>2010-11-14T15:08:01Z</time>
      </trkpt>
      <trkpt lat="44.11084" lon="5.01605">
        <ele>80</ele>
        <time>2010-11-14T15:08:06Z</time>
      </trkpt>
      <trkpt lat="44.11078" lon="5.016">
        <ele>80</ele>
        <time>2010-11-14T15:08:11Z</time>
      </trkpt>
      <trkpt lat="44.11071" lon="5.01594">
        <ele>79.8</ele>
        <time>2010-11-14T15:08:15Z</time>
      </trkpt>
      <trkpt lat="44.11065" lon="5.01588">
        <ele>80.1</ele>
        <time>2010-11-14T15:08:19Z</time>
      </trkpt>
      <trkpt lat="44.11059" lon="5.01583">
        <ele>80.1</ele>
        <time>2010-11-14T15:08:24Z</time>
      </trkpt>
      <trkpt lat="44.11057" lon="5.01582">
        <ele>80.2</ele>
        <time>2010-11-14T15:08:25Z</time>
      </trkpt>
      <trkpt lat="44.11045" lon="5.01573">
        <ele>79.6</ele>
        <time>2010-11-14T15:08:33Z</time>
      </trkpt>
      <trkpt lat="44.11037" lon="5.01568">
        <ele>78.6</ele>
        <time>2010-11-14T15:08:38Z</time>
      </trkpt>
      <trkpt lat="44.11029" lon="5.01564">
        <ele>79.4</ele>
        <time>2010-11-14T15:08:43Z</time>
      </trkpt>
      <trkpt lat="44.11022" lon="5.01559">
        <ele>79.7</ele>
        <time>2010-11-14T15:08:48Z</time>
      </trkpt>
      <trkpt lat="44.11015" lon="5.01553">
        <ele>79.2</ele>
        <time>2010-11-14T15:08:53Z</time>
      </trkpt>
      <trkpt lat="44.11007" lon="5.01548">
        <ele>78.5</ele>
        <time>2010-11-14T15:08:58Z</time>
      </trkpt>
      <trkpt lat="44.11" lon="5.01541">
        <ele>79.1</ele>
        <time>2010-11-14T15:09:03Z</time>
      </trkpt>
      <trkpt lat="44.10993" lon="5.01536">
        <ele>78.8</ele>
        <time>2010-11-14T15:09:07Z</time>
      </trkpt>
      <trkpt lat="44.10986" lon="5.01529">
        <ele>79.6</ele>
        <time>2010-11-14T15:09:12Z</time>
      </trkpt>
      <trkpt lat="44.10981" lon="5.01521">
        <ele>79.6</ele>
        <time>2010-11-14T15:09:16Z</time>
      </trkpt>
      <trkpt lat="44.10977" lon="5.01511">
        <ele>78.4</ele>
        <time>2010-11-14T15:09:21Z</time>
      </trkpt>
      <trkpt lat="44.10972" lon="5.01502">
        <ele>77.6</ele>
        <time>2010-11-14T15:09:25Z</time>
      </trkpt>
      <trkpt lat="44.10971" lon="5.015">
        <ele>77.6</ele>
        <time>2010-11-14T15:09:26Z</time>
      </trkpt>
      <trkpt lat="44.10964" lon="5.01482">
        <ele>77.9</ele>
        <time>2010-11-14T15:09:36Z</time>
      </trkpt>
      <trkpt lat="44.10959" lon="5.01471">
        <ele>78.8</ele>
        <time>2010-11-14T15:09:42Z</time>
      </trkpt>
      <trkpt lat="44.10955" lon="5.01464">
        <ele>78.8</ele>
        <time>2010-11-14T15:09:45Z</time>
      </trkpt>
      <trkpt lat="44.1095" lon="5.01455">
        <ele>78.5</ele>
        <time>2010-11-14T15:09:49Z</time>
      </trkpt>
      <trkpt lat="44.10945" lon="5.01447">
        <ele>78.2</ele>
        <time>2010-11-14T15:09:54Z</time>
      </trkpt>
      <trkpt lat="44.10941" lon="5.01438">
        <ele>77.4</ele>
        <time>2010-11-14T15:09:58Z</time>
      </trkpt>
      <trkpt lat="44.10937" lon="5.01428">
        <ele>77.7</ele>
        <time>2010-11-14T15:10:02Z</time>
      </trkpt>
      <trkpt lat="44.10933" lon="5.01418">
        <ele>78.4</ele>
        <time>2010-11-14T15:10:06Z</time>
      </trkpt>
      <trkpt lat="44.10938" lon="5.0141">
        <ele>78.6</ele>
        <time>2010-11-14T15:10:10Z</time>
      </trkpt>
      <trkpt lat="44.10945" lon="5.01406">
        <ele>78.3</ele>
        <time>2010-11-14T15:10:14Z</time>
      </trkpt>
      <trkpt lat="44.10952" lon="5.01402">
        <ele>78.4</ele>
        <time>2010-11-14T15:10:18Z</time>
      </trkpt>
      <trkpt lat="44.1096" lon="5.01397">
        <ele>78.4</ele>
        <time>2010-11-14T15:10:23Z</time>
      </trkpt>
      <trkpt lat="44.10967" lon="5.01393">
        <ele>78.8</ele>
        <time>2010-11-14T15:10:28Z</time>
      </trkpt>
      <trkpt lat="44.10969" lon="5.01392">
        <ele>78.6</ele>
        <time>2010-11-14T15:10:29Z</time>
      </trkpt>
      <trkpt lat="44.10982" lon="5.01385">
        <ele>77.9</ele>
        <time>2010-11-14T15:10:37Z</time>
      </trkpt>
      <trkpt lat="44.1099" lon="5.01382">
        <ele>78.2</ele>
        <time>2010-11-14T15:10:41Z</time>
      </trkpt>
      <trkpt lat="44.10998" lon="5.01378">
        <ele>78.1</ele>
        <time>2010-11-14T15:10:46Z</time>
      </trkpt>
      <trkpt lat="44.11006" lon="5.01374">
        <ele>77.1</ele>
        <time>2010-11-14T15:10:51Z</time>
      </trkpt>
      <trkpt lat="44.11014" lon="5.01371">
        <ele>76.2</ele>
        <time>2010-11-14T15:10:56Z</time>
      </trkpt>
      <trkpt lat="44.11022" lon="5.01367">
        <ele>76.6</ele>
        <time>2010-11-14T15:11:02Z</time>
      </trkpt>
      <trkpt lat="44.11027" lon="5.01358">
        <ele>78.4</ele>
        <time>2010-11-14T15:11:07Z</time>
      </trkpt>
      <trkpt lat="44.11026" lon="5.01348">
        <ele>77.7</ele>
        <time>2010-11-14T15:11:11Z</time>
      </trkpt>
      <trkpt lat="44.11023" lon="5.01338">
        <ele>77.1</ele>
        <time>2010-11-14T15:11:14Z</time>
      </trkpt>
      <trkpt lat="44.11019" lon="5.01328">
        <ele>77.3</ele>
        <time>2010-11-14T15:11:18Z</time>
      </trkpt>
      <trkpt lat="44.11017" lon="5.01317">
        <ele>77.5</ele>
        <time>2010-11-14T15:11:23Z</time>
      </trkpt>
      <trkpt lat="44.11014" lon="5.01306">
        <ele>76.6</ele>
        <time>2010-11-14T15:11:28Z</time>
      </trkpt>
      <trkpt lat="44.11012" lon="5.01295">
        <ele>76.5</ele>
        <time>2010-11-14T15:11:33Z</time>
      </trkpt>
      <trkpt lat="44.11011" lon="5.01293">
        <ele>76.5</ele>
        <time>2010-11-14T15:11:34Z</time>
      </trkpt>
      <trkpt lat="44.11007" lon="5.01272">
        <ele>76.1</ele>
        <time>2010-11-14T15:11:43Z</time>
      </trkpt>
      <trkpt lat="44.11004" lon="5.01263">
        <ele>75.6</ele>
        <time>2010-11-14T15:11:47Z</time>
      </trkpt>
      <trkpt lat="44.11001" lon="5.01252">
        <ele>75</ele>
        <time>2010-11-14T15:11:51Z</time>
      </trkpt>
      <trkpt lat="44.10999" lon="5.0124">
        <ele>75.3</ele>
        <time>2010-11-14T15:11:56Z</time>
      </trkpt>
      <trkpt lat="44.10997" lon="5.01228">
        <ele>74.9</ele>
        <time>2010-11-14T15:12:02Z</time>
      </trkpt>
      <trkpt lat="44.10996" lon="5.01219">
        <ele>74.6</ele>
        <time>2010-11-14T15:12:06Z</time>
      </trkpt>
      <trkpt lat="44.10994" lon="5.01208">
        <ele>74.5</ele>
        <time>2010-11-14T15:12:10Z</time>
      </trkpt>
      <trkpt lat="44.1099" lon="5.01198">
        <ele>74.3</ele>
        <time>2010-11-14T15:12:15Z</time>
      </trkpt>
      <trkpt lat="44.10987" lon="5.01188">
        <ele>74.2</ele>
        <time>2010-11-14T15:12:19Z</time>
      </trkpt>
      <trkpt lat="44.10986" lon="5.01176">
        <ele>74.5</ele>
        <time>2010-11-14T15:12:24Z</time>
      </trkpt>
      <trkpt lat="44.10983" lon="5.01166">
        <ele>74.6</ele>
        <time>2010-11-14T15:12:28Z</time>
      </trkpt>
      <trkpt lat="44.1098" lon="5.01157">
        <ele>74.6</ele>
        <time>2010-11-14T15:12:32Z</time>
      </trkpt>
      <trkpt lat="44.10977" lon="5.01145">
        <ele>73.9</ele>
        <time>2010-11-14T15:12:37Z</time>
      </trkpt>
      <trkpt lat="44.10977" lon="5.01143">
        <ele>73.9</ele>
        <time>2010-11-14T15:12:38Z</time>
      </trkpt>
      <trkpt lat="44.10969" lon="5.01126">
        <ele>73.7</ele>
        <time>2010-11-14T15:12:47Z</time>
      </trkpt>
      <trkpt lat="44.10966" lon="5.01116">
        <ele>74.2</ele>
        <time>2010-11-14T15:12:52Z</time>
      </trkpt>
      <trkpt lat="44.10958" lon="5.01111">
        <ele>73.2</ele>
        <time>2010-11-14T15:12:57Z</time>
      </trkpt>
      <trkpt lat="44.10951" lon="5.01113">
        <ele>72.2</ele>
        <time>2010-11-14T15:13:02Z</time>
      </trkpt>
      <trkpt lat="44.10943" lon="5.01115">
        <ele>72.4</ele>
        <time>2010-11-14T15:13:07Z</time>
      </trkpt>
      <trkpt lat="44.10935" lon="5.01112">
        <ele>73</ele>
        <time>2010-11-14T15:13:12Z</time>
      </trkpt>
      <trkpt lat="44.10928" lon="5.01107">
        <ele>73.3</ele>
        <time>2010-11-14T15:13:16Z</time>
      </trkpt>
      <trkpt lat="44.10922" lon="5.01101">
        <ele>73</ele>
        <time>2010-11-14T15:13:20Z</time>
      </trkpt>
      <trkpt lat="44.10917" lon="5.01095">
        <ele>72.9</ele>
        <time>2010-11-14T15:13:23Z</time>
      </trkpt>
      <trkpt lat="44.10911" lon="5.01088">
        <ele>72.8</ele>
        <time>2010-11-14T15:13:26Z</time>
      </trkpt>
      <trkpt lat="44.10904" lon="5.01083">
        <ele>72.2</ele>
        <time>2010-11-14T15:13:31Z</time>
      </trkpt>
      <trkpt lat="44.10897" lon="5.01078">
        <ele>73.2</ele>
        <time>2010-11-14T15:13:36Z</time>
      </trkpt>
      <trkpt lat="44.1089" lon="5.01072">
        <ele>72.8</ele>
        <time>2010-11-14T15:13:41Z</time>
      </trkpt>
      <trkpt lat="44.10888" lon="5.01071">
        <ele>72.9</ele>
        <time>2010-11-14T15:13:42Z</time>
      </trkpt>
      <trkpt lat="44.10875" lon="5.01067">
        <ele>72.4</ele>
        <time>2010-11-14T15:13:50Z</time>
      </trkpt>
      <trkpt lat="44.10867" lon="5.01067">
        <ele>72</ele>
        <time>2010-11-14T15:13:55Z</time>
      </trkpt>
      <trkpt lat="44.10858" lon="5.01066">
        <ele>71.9</ele>
        <time>2010-11-14T15:14:01Z</time>
      </trkpt>
      <trkpt lat="44.10851" lon="5.01065">
        <ele>71.8</ele>
        <time>2010-11-14T15:14:05Z</time>
      </trkpt>
      <trkpt lat="44.10845" lon="5.01064">
        <ele>72.1</ele>
        <time>2010-11-14T15:14:07Z</time>
      </trkpt>
      <trkpt lat="44.10837" lon="5.01061">
        <ele>72</ele>
        <time>2010-11-14T15:14:09Z</time>
      </trkpt>
      <trkpt lat="44.10832" lon="5.01059">
        <ele>71.8</ele>
        <time>2010-11-14T15:14:10Z</time>
      </trkpt>
      <trkpt lat="44.10827" lon="5.01057">
        <ele>71.9</ele>
        <time>2010-11-14T15:14:11Z</time>
      </trkpt>
      <trkpt lat="44.10818" lon="5.01054">
        <ele>71.7</ele>
        <time>2010-11-14T15:14:13Z</time>
      </trkpt>
      <trkpt lat="44.10814" lon="5.01053">
        <ele>71.8</ele>
        <time>2010-11-14T15:14:14Z</time>
      </trkpt>
      <trkpt lat="44.10805" lon="5.01054">
        <ele>71.2</ele>
        <time>2010-11-14T15:14:16Z</time>
      </trkpt>
      <trkpt lat="44.10797" lon="5.01056">
        <ele>70.9</ele>
        <time>2010-11-14T15:14:18Z</time>
      </trkpt>
      <trkpt lat="44.10789" lon="5.01056">
        <ele>71.3</ele>
        <time>2010-11-14T15:14:21Z</time>
      </trkpt>
      <trkpt lat="44.10781" lon="5.01057">
        <ele>71.1</ele>
        <time>2010-11-14T15:14:26Z</time>
      </trkpt>
      <trkpt lat="44.10773" lon="5.01054">
        <ele>71.2</ele>
        <time>2010-11-14T15:14:30Z</time>
      </trkpt>
      <trkpt lat="44.10765" lon="5.01054">
        <ele>71.2</ele>
        <time>2010-11-14T15:14:35Z</time>
      </trkpt>
      <trkpt lat="44.10757" lon="5.01054">
        <ele>70.2</ele>
        <time>2010-11-14T15:14:41Z</time>
      </trkpt>
      <trkpt lat="44.10749" lon="5.01053">
        <ele>70.4</ele>
        <time>2010-11-14T15:14:46Z</time>
      </trkpt>
      <trkpt lat="44.10747" lon="5.01053">
        <ele>70.4</ele>
        <time>2010-11-14T15:14:47Z</time>
      </trkpt>
      <trkpt lat="44.10732" lon="5.01052">
        <ele>71</ele>
        <time>2010-11-14T15:14:58Z</time>
      </trkpt>
      <trkpt lat="44.10725" lon="5.01048">
        <ele>70.7</ele>
        <time>2010-11-14T15:15:02Z</time>
      </trkpt>
      <trkpt lat="44.10721" lon="5.01039">
        <ele>70.7</ele>
        <time>2010-11-14T15:15:07Z</time>
      </trkpt>
      <trkpt lat="44.10719" lon="5.01027">
        <ele>70.8</ele>
        <time>2010-11-14T15:15:12Z</time>
      </trkpt>
      <trkpt lat="44.10717" lon="5.01017">
        <ele>70.8</ele>
        <time>2010-11-14T15:15:16Z</time>
      </trkpt>
      <trkpt lat="44.10717" lon="5.01005">
        <ele>70.7</ele>
        <time>2010-11-14T15:15:22Z</time>
      </trkpt>
      <trkpt lat="44.10715" lon="5.00994">
        <ele>71</ele>
        <time>2010-11-14T15:15:27Z</time>
      </trkpt>
      <trkpt lat="44.10711" lon="5.00984">
        <ele>71.1</ele>
        <time>2010-11-14T15:15:32Z</time>
      </trkpt>
      <trkpt lat="44.10708" lon="5.00974">
        <ele>70.3</ele>
        <time>2010-11-14T15:15:37Z</time>
      </trkpt>
      <trkpt lat="44.10708" lon="5.00963">
        <ele>70.9</ele>
        <time>2010-11-14T15:15:41Z</time>
      </trkpt>
      <trkpt lat="44.10707" lon="5.00953">
        <ele>71.3</ele>
        <time>2010-11-14T15:15:45Z</time>
      </trkpt>
      <trkpt lat="44.10706" lon="5.00941">
        <ele>71.3</ele>
        <time>2010-11-14T15:15:50Z</time>
      </trkpt>
      <trkpt lat="44.10706" lon="5.00939">
        <ele>71.4</ele>
        <time>2010-11-14T15:15:51Z</time>
      </trkpt>
      <trkpt lat="44.10703" lon="5.00917">
        <ele>70.8</ele>
        <time>2010-11-14T15:16:00Z</time>
      </trkpt>
      <trkpt lat="44.10702" lon="5.00905">
        <ele>70.9</ele>
        <time>2010-11-14T15:16:05Z</time>
      </trkpt>
      <trkpt lat="44.107" lon="5.00895">
        <ele>71.1</ele>
        <time>2010-11-14T15:16:09Z</time>
      </trkpt>
      <trkpt lat="44.10699" lon="5.00884">
        <ele>70.5</ele>
        <time>2010-11-14T15:16:14Z</time>
      </trkpt>
      <trkpt lat="44.10698" lon="5.00872">
        <ele>70.1</ele>
        <time>2010-11-14T15:16:19Z</time>
      </trkpt>
      <trkpt lat="44.10696" lon="5.0086">
        <ele>70.2</ele>
        <time>2010-11-14T15:16:24Z</time>
      </trkpt>
      <trkpt lat="44.10692" lon="5.00851">
        <ele>70.3</ele>
        <time>2010-11-14T15:16:28Z</time>
      </trkpt>
      <trkpt lat="44.10687" lon="5.00841">
        <ele>70.2</ele>
        <time>2010-11-14T15:16:32Z</time>
      </trkpt>
      <trkpt lat="44.10683" lon="5.00832">
        <ele>70.4</ele>
        <time>2010-11-14T15:16:36Z</time>
      </trkpt>
      <trkpt lat="44.1068" lon="5.00821">
        <ele>70.7</ele>
        <time>2010-11-14T15:16:41Z</time>
      </trkpt>
      <trkpt lat="44.10676" lon="5.00811">
        <ele>70.5</ele>
        <time>2010-11-14T15:16:47Z</time>
      </trkpt>
      <trkpt lat="44.10671" lon="5.008">
        <ele>71</ele>
        <time>2010-11-14T15:16:53Z</time>
      </trkpt>
      <trkpt lat="44.10671" lon="5.00799">
        <ele>71.1</ele>
        <time>2010-11-14T15:16:54Z</time>
      </trkpt>
      <trkpt lat="44.10663" lon="5.00779">
        <ele>70.1</ele>
        <time>2010-11-14T15:17:03Z</time>
      </trkpt>
      <trkpt lat="44.10659" lon="5.00768">
        <ele>68.9</ele>
        <time>2010-11-14T15:17:08Z</time>
      </trkpt>
      <trkpt lat="44.10656" lon="5.00757">
        <ele>69.5</ele>
        <time>2010-11-14T15:17:13Z</time>
      </trkpt>
      <trkpt lat="44.10652" lon="5.00747">
        <ele>69.1</ele>
        <time>2010-11-14T15:17:17Z</time>
      </trkpt>
      <trkpt lat="44.10649" lon="5.00739">
        <ele>69.2</ele>
        <time>2010-11-14T15:17:21Z</time>
      </trkpt>
      <trkpt lat="44.10645" lon="5.0073">
        <ele>68.8</ele>
        <time>2010-11-14T15:17:25Z</time>
      </trkpt>
      <trkpt lat="44.10642" lon="5.00721">
        <ele>69.1</ele>
        <time>2010-11-14T15:17:29Z</time>
      </trkpt>
      <trkpt lat="44.10639" lon="5.00709">
        <ele>69.3</ele>
        <time>2010-11-14T15:17:35Z</time>
      </trkpt>
      <trkpt lat="44.10634" lon="5.00701">
        <ele>69.3</ele>
        <time>2010-11-14T15:17:39Z</time>
      </trkpt>
      <trkpt lat="44.1063" lon="5.00692">
        <ele>69.9</ele>
        <time>2010-11-14T15:17:42Z</time>
      </trkpt>
      <trkpt lat="44.10628" lon="5.00682">
        <ele>71.5</ele>
        <time>2010-11-14T15:17:46Z</time>
      </trkpt>
      <trkpt lat="44.10626" lon="5.00672">
        <ele>72.7</ele>
        <time>2010-11-14T15:17:50Z</time>
      </trkpt>
      <trkpt lat="44.10626" lon="5.00661">
        <ele>73.1</ele>
        <time>2010-11-14T15:17:56Z</time>
      </trkpt>
      <trkpt lat="44.10627" lon="5.00658">
        <ele>73.1</ele>
        <time>2010-11-14T15:17:57Z</time>
      </trkpt>
      <trkpt lat="44.10632" lon="5.00639">
        <ele>72.1</ele>
        <time>2010-11-14T15:18:04Z</time>
      </trkpt>
      <trkpt lat="44.10636" lon="5.0063">
        <ele>73.1</ele>
        <time>2010-11-14T15:18:09Z</time>
      </trkpt>
      <trkpt lat="44.10641" lon="5.00622">
        <ele>73.2</ele>
        <time>2010-11-14T15:18:13Z</time>
      </trkpt>
      <trkpt lat="44.10645" lon="5.00613">
        <ele>72.1</ele>
        <time>2010-11-14T15:18:18Z</time>
      </trkpt>
      <trkpt lat="44.10649" lon="5.00602">
        <ele>70.7</ele>
        <time>2010-11-14T15:18:23Z</time>
      </trkpt>
      <trkpt lat="44.10651" lon="5.00591">
        <ele>70.4</ele>
        <time>2010-11-14T15:18:28Z</time>
      </trkpt>
      <trkpt lat="44.10654" lon="5.00581">
        <ele>69.4</ele>
        <time>2010-11-14T15:18:33Z</time>
      </trkpt>
      <trkpt lat="44.10656" lon="5.0057">
        <ele>68.9</ele>
        <time>2010-11-14T15:18:38Z</time>
      </trkpt>
      <trkpt lat="44.10658" lon="5.0056">
        <ele>69.3</ele>
        <time>2010-11-14T15:18:43Z</time>
      </trkpt>
      <trkpt lat="44.1066" lon="5.00549">
        <ele>68.8</ele>
        <time>2010-11-14T15:18:47Z</time>
      </trkpt>
      <trkpt lat="44.10662" lon="5.00539">
        <ele>69.1</ele>
        <time>2010-11-14T15:18:52Z</time>
      </trkpt>
      <trkpt lat="44.10664" lon="5.00527">
        <ele>68.3</ele>
        <time>2010-11-14T15:18:57Z</time>
      </trkpt>
      <trkpt lat="44.10665" lon="5.00524">
        <ele>68</ele>
        <time>2010-11-14T15:18:58Z</time>
      </trkpt>
      <trkpt lat="44.10669" lon="5.00503">
        <ele>68.5</ele>
        <time>2010-11-14T15:19:07Z</time>
      </trkpt>
      <trkpt lat="44.10673" lon="5.00494">
        <ele>68.4</ele>
        <time>2010-11-14T15:19:11Z</time>
      </trkpt>
      <trkpt lat="44.10674" lon="5.00481">
        <ele>68.3</ele>
        <time>2010-11-14T15:19:16Z</time>
      </trkpt>
      <trkpt lat="44.10676" lon="5.00469">
        <ele>68.6</ele>
        <time>2010-11-14T15:19:21Z</time>
      </trkpt>
      <trkpt lat="44.10677" lon="5.00457">
        <ele>68.7</ele>
        <time>2010-11-14T15:19:26Z</time>
      </trkpt>
      <trkpt lat="44.10678" lon="5.00445">
        <ele>67.3</ele>
        <time>2010-11-14T15:19:32Z</time>
      </trkpt>
      <trkpt lat="44.10679" lon="5.00434">
        <ele>68</ele>
        <time>2010-11-14T15:19:37Z</time>
      </trkpt>
      <trkpt lat="44.1068" lon="5.00424">
        <ele>68.4</ele>
        <time>2010-11-14T15:19:41Z</time>
      </trkpt>
      <trkpt lat="44.10681" lon="5.00413">
        <ele>67.8</ele>
        <time>2010-11-14T15:19:45Z</time>
      </trkpt>
      <trkpt lat="44.10682" lon="5.00401">
        <ele>67.8</ele>
        <time>2010-11-14T15:19:50Z</time>
      </trkpt>
      <trkpt lat="44.10682" lon="5.00391">
        <ele>67.1</ele>
        <time>2010-11-14T15:19:54Z</time>
      </trkpt>
      <trkpt lat="44.10683" lon="5.00381">
        <ele>67.6</ele>
        <time>2010-11-14T15:19:58Z</time>
      </trkpt>
      <trkpt lat="44.10684" lon="5.00379">
        <ele>67.8</ele>
        <time>2010-11-14T15:19:59Z</time>
      </trkpt>
      <trkpt lat="44.10688" lon="5.00361">
        <ele>68.7</ele>
        <time>2010-11-14T15:20:06Z</time>
      </trkpt>
      <trkpt lat="44.1069" lon="5.00352">
        <ele>68.5</ele>
        <time>2010-11-14T15:20:10Z</time>
      </trkpt>
      <trkpt lat="44.10693" lon="5.00342">
        <ele>68.2</ele>
        <time>2010-11-14T15:20:14Z</time>
      </trkpt>
      <trkpt lat="44.10696" lon="5.00333">
        <ele>68.1</ele>
        <time>2010-11-14T15:20:18Z</time>
      </trkpt>
      <trkpt lat="44.10698" lon="5.00322">
        <ele>67.8</ele>
        <time>2010-11-14T15:20:22Z</time>
      </trkpt>
      <trkpt lat="44.10702" lon="5.00311">
        <ele>68</ele>
        <time>2010-11-14T15:20:27Z</time>
      </trkpt>
      <trkpt lat="44.10705" lon="5.00301">
        <ele>68.7</ele>
        <time>2010-11-14T15:20:32Z</time>
      </trkpt>
      <trkpt lat="44.10708" lon="5.0029">
        <ele>69.2</ele>
        <time>2010-11-14T15:20:37Z</time>
      </trkpt>
      <trkpt lat="44.1071" lon="5.00279">
        <ele>70.2</ele>
        <time>2010-11-14T15:20:42Z</time>
      </trkpt>
      <trkpt lat="44.10714" lon="5.00269">
        <ele>69.7</ele>
        <time>2010-11-14T15:20:49Z</time>
      </trkpt>
      <trkpt lat="44.10718" lon="5.0026">
        <ele>69.1</ele>
        <time>2010-11-14T15:20:53Z</time>
      </trkpt>
      <trkpt lat="44.1072" lon="5.0025">
        <ele>68.5</ele>
        <time>2010-11-14T15:20:57Z</time>
      </trkpt>
      <trkpt lat="44.10725" lon="5.00242">
        <ele>67.9</ele>
        <time>2010-11-14T15:21:01Z</time>
      </trkpt>
      <trkpt lat="44.10726" lon="5.0024">
        <ele>67.7</ele>
        <time>2010-11-14T15:21:02Z</time>
      </trkpt>
      <trkpt lat="44.10734" lon="5.00221">
        <ele>67.7</ele>
        <time>2010-11-14T15:21:11Z</time>
      </trkpt>
      <trkpt lat="44.10737" lon="5.00212">
        <ele>67.5</ele>
        <time>2010-11-14T15:21:15Z</time>
      </trkpt>
      <trkpt lat="44.10742" lon="5.00203">
        <ele>67.4</ele>
        <time>2010-11-14T15:21:19Z</time>
      </trkpt>
      <trkpt lat="44.10747" lon="5.00193">
        <ele>67.1</ele>
        <time>2010-11-14T15:21:24Z</time>
      </trkpt>
      <trkpt lat="44.10751" lon="5.00184">
        <ele>67.1</ele>
        <time>2010-11-14T15:21:28Z</time>
      </trkpt>
      <trkpt lat="44.10754" lon="5.00173">
        <ele>66.4</ele>
        <time>2010-11-14T15:21:33Z</time>
      </trkpt>
      <trkpt lat="44.10756" lon="5.00162">
        <ele>65.9</ele>
        <time>2010-11-14T15:21:38Z</time>
      </trkpt>
      <trkpt lat="44.10758" lon="5.0015">
        <ele>65.8</ele>
        <time>2010-11-14T15:21:43Z</time>
      </trkpt>
      <trkpt lat="44.1076" lon="5.00139">
        <ele>66.3</ele>
        <time>2010-11-14T15:21:48Z</time>
      </trkpt>
      <trkpt lat="44.10762" lon="5.00129">
        <ele>65.9</ele>
        <time>2010-11-14T15:21:52Z</time>
      </trkpt>
      <trkpt lat="44.10763" lon="5.00117">
        <ele>66.1</ele>
        <time>2010-11-14T15:21:57Z</time>
      </trkpt>
      <trkpt lat="44.10764" lon="5.00105">
        <ele>66</ele>
        <time>2010-11-14T15:22:02Z</time>
      </trkpt>
      <trkpt lat="44.10764" lon="5.00102">
        <ele>66</ele>
        <time>2010-11-14T15:22:03Z</time>
      </trkpt>
      <trkpt lat="44.10767" lon="5.00083">
        <ele>66.4</ele>
        <time>2010-11-14T15:22:12Z</time>
      </trkpt>
      <trkpt lat="44.10769" lon="5.00071">
        <ele>65.9</ele>
        <time>2010-11-14T15:22:17Z</time>
      </trkpt>
      <trkpt lat="44.10771" lon="5.00059">
        <ele>66.1</ele>
        <time>2010-11-14T15:22:22Z</time>
      </trkpt>
      <trkpt lat="44.10773" lon="5.00048">
        <ele>66</ele>
        <time>2010-11-14T15:22:27Z</time>
      </trkpt>
      <trkpt lat="44.10775" lon="5.00037">
        <ele>65.5</ele>
        <time>2010-11-14T15:22:32Z</time>
      </trkpt>
      <trkpt lat="44.10777" lon="5.00025">
        <ele>64.9</ele>
        <time>2010-11-14T15:22:37Z</time>
      </trkpt>
      <trkpt lat="44.10779" lon="5.00013">
        <ele>65</ele>
        <time>2010-11-14T15:22:42Z</time>
      </trkpt>
      <trkpt lat="44.10781" lon="5.00002">
        <ele>65.1</ele>
        <time>2010-11-14T15:22:47Z</time>
      </trkpt>
      <trkpt lat="44.10782" lon="4.9999">
        <ele>65.7</ele>
        <time>2010-11-14T15:22:52Z</time>
      </trkpt>
      <trkpt lat="44.10784" lon="4.99978">
        <ele>66.1</ele>
        <time>2010-11-14T15:22:57Z</time>
      </trkpt>
      <trkpt lat="44.10785" lon="4.99966">
        <ele>65.8</ele>
        <time>2010-11-14T15:23:02Z</time>
      </trkpt>
      <trkpt lat="44.10787" lon="4.99955">
        <ele>65.9</ele>
        <time>2010-11-14T15:23:07Z</time>
      </trkpt>
      <trkpt lat="44.10788" lon="4.99953">
        <ele>65.9</ele>
        <time>2010-11-14T15:23:08Z</time>
      </trkpt>
      <trkpt lat="44.10792" lon="4.99936">
        <ele>65.1</ele>
        <time>2010-11-14T15:23:14Z</time>
      </trkpt>
      <trkpt lat="44.10793" lon="4.99924">
        <ele>64.8</ele>
        <time>2010-11-14T15:23:17Z</time>
      </trkpt>
      <trkpt lat="44.10795" lon="4.99913">
        <ele>64.9</ele>
        <time>2010-11-14T15:23:22Z</time>
      </trkpt>
      <trkpt lat="44.10798" lon="4.99901">
        <ele>65.1</ele>
        <time>2010-11-14T15:23:28Z</time>
      </trkpt>
      <trkpt lat="44.10799" lon="4.99891">
        <ele>64.8</ele>
        <time>2010-11-14T15:23:32Z</time>
      </trkpt>
      <trkpt lat="44.10801" lon="4.9988">
        <ele>65</ele>
        <time>2010-11-14T15:23:37Z</time>
      </trkpt>
      <trkpt lat="44.10802" lon="4.99868">
        <ele>65.5</ele>
        <time>2010-11-14T15:23:42Z</time>
      </trkpt>
      <trkpt lat="44.10804" lon="4.99857">
        <ele>65.6</ele>
        <time>2010-11-14T15:23:47Z</time>
      </trkpt>
      <trkpt lat="44.10805" lon="4.99845">
        <ele>65.7</ele>
        <time>2010-11-14T15:23:52Z</time>
      </trkpt>
      <trkpt lat="44.10806" lon="4.99834">
        <ele>65.8</ele>
        <time>2010-11-14T15:23:57Z</time>
      </trkpt>
      <trkpt lat="44.10808" lon="4.99823">
        <ele>65.9</ele>
        <time>2010-11-14T15:24:02Z</time>
      </trkpt>
      <trkpt lat="44.1081" lon="4.99812">
        <ele>66</ele>
        <time>2010-11-14T15:24:07Z</time>
      </trkpt>
      <trkpt lat="44.10812" lon="4.998">
        <ele>65.8</ele>
        <time>2010-11-14T15:24:12Z</time>
      </trkpt>
      <trkpt lat="44.10812" lon="4.99798">
        <ele>65.8</ele>
        <time>2010-11-14T15:24:13Z</time>
      </trkpt>
      <trkpt lat="44.10815" lon="4.99776">
        <ele>65.8</ele>
        <time>2010-11-14T15:24:22Z</time>
      </trkpt>
      <trkpt lat="44.10815" lon="4.99765">
        <ele>65.6</ele>
        <time>2010-11-14T15:24:27Z</time>
      </trkpt>
      <trkpt lat="44.10816" lon="4.99754">
        <ele>65.5</ele>
        <time>2010-11-14T15:24:32Z</time>
      </trkpt>
      <trkpt lat="44.10816" lon="4.99742">
        <ele>66</ele>
        <time>2010-11-14T15:24:43Z</time>
      </trkpt>
      <trkpt lat="44.10816" lon="4.9973">
        <ele>65.6</ele>
        <time>2010-11-14T15:24:52Z</time>
      </trkpt>
      <trkpt lat="44.10824" lon="4.99725">
        <ele>65.2</ele>
        <time>2010-11-14T15:25:00Z</time>
      </trkpt>
      <trkpt lat="44.10827" lon="4.99715">
        <ele>66.4</ele>
        <time>2010-11-14T15:27:17Z</time>
      </trkpt>
      <trkpt lat="44.10827" lon="4.99713">
        <ele>66.4</ele>
        <time>2010-11-14T15:27:18Z</time>
      </trkpt>
      <trkpt lat="44.10831" lon="4.99693">
        <ele>66.4</ele>
        <time>2010-11-14T15:27:32Z</time>
      </trkpt>
      <trkpt lat="44.1083" lon="4.99682">
        <ele>66.4</ele>
        <time>2010-11-14T15:27:37Z</time>
      </trkpt>
      <trkpt lat="44.10831" lon="4.9967">
        <ele>66.3</ele>
        <time>2010-11-14T15:27:42Z</time>
      </trkpt>
      <trkpt lat="44.10834" lon="4.99661">
        <ele>66.2</ele>
        <time>2010-11-14T15:27:47Z</time>
      </trkpt>
      <trkpt lat="44.10835" lon="4.9965">
        <ele>66.5</ele>
        <time>2010-11-14T15:27:52Z</time>
      </trkpt>
      <trkpt lat="44.1083" lon="4.99641">
        <ele>66.3</ele>
        <time>2010-11-14T15:27:57Z</time>
      </trkpt>
      <trkpt lat="44.10823" lon="4.99637">
        <ele>66.9</ele>
        <time>2010-11-14T15:28:02Z</time>
      </trkpt>
      <trkpt lat="44.10816" lon="4.99632">
        <ele>66.9</ele>
        <time>2010-11-14T15:28:08Z</time>
      </trkpt>
      <trkpt lat="44.10808" lon="4.99626">
        <ele>66.9</ele>
        <time>2010-11-14T15:28:14Z</time>
      </trkpt>
      <trkpt lat="44.108" lon="4.99621">
        <ele>66.2</ele>
        <time>2010-11-14T15:28:19Z</time>
      </trkpt>
      <trkpt lat="44.10799" lon="4.9962">
        <ele>66</ele>
        <time>2010-11-14T15:28:20Z</time>
      </trkpt>
      <trkpt lat="44.10786" lon="4.9961">
        <ele>66</ele>
        <time>2010-11-14T15:28:31Z</time>
      </trkpt>
      <trkpt lat="44.10778" lon="4.99603">
        <ele>66.9</ele>
        <time>2010-11-14T15:28:37Z</time>
      </trkpt>
      <trkpt lat="44.1078" lon="4.99592">
        <ele>66.4</ele>
        <time>2010-11-14T15:28:43Z</time>
      </trkpt>
      <trkpt lat="44.10786" lon="4.99585">
        <ele>66.4</ele>
        <time>2010-11-14T15:28:48Z</time>
      </trkpt>
      <trkpt lat="44.10792" lon="4.99579">
        <ele>66.4</ele>
        <time>2010-11-14T15:28:52Z</time>
      </trkpt>
      <trkpt lat="44.108" lon="4.99574">
        <ele>66.1</ele>
        <time>2010-11-14T15:28:57Z</time>
      </trkpt>
      <trkpt lat="44.10806" lon="4.99569">
        <ele>65.8</ele>
        <time>2010-11-14T15:29:02Z</time>
      </trkpt>
      <trkpt lat="44.10813" lon="4.99564">
        <ele>65.4</ele>
        <time>2010-11-14T15:29:07Z</time>
      </trkpt>
      <trkpt lat="44.1082" lon="4.9956">
        <ele>65.8</ele>
        <time>2010-11-14T15:29:12Z</time>
      </trkpt>
      <trkpt lat="44.10828" lon="4.99555">
        <ele>65.6</ele>
        <time>2010-11-14T15:29:18Z</time>
      </trkpt>
      <trkpt lat="44.10835" lon="4.99549">
        <ele>65.8</ele>
        <time>2010-11-14T15:29:24Z</time>
      </trkpt>
      <trkpt lat="44.10836" lon="4.99548">
        <ele>65.9</ele>
        <time>2010-11-14T15:29:25Z</time>
      </trkpt>
      <trkpt lat="44.1085" lon="4.9954">
        <ele>66.2</ele>
        <time>2010-11-14T15:29:34Z</time>
      </trkpt>
      <trkpt lat="44.10858" lon="4.99535">
        <ele>66.2</ele>
        <time>2010-11-14T15:29:40Z</time>
      </trkpt>
      <trkpt lat="44.10866" lon="4.99529">
        <ele>66.3</ele>
        <time>2010-11-14T15:29:45Z</time>
      </trkpt>
      <trkpt lat="44.10873" lon="4.99524">
        <ele>67.2</ele>
        <time>2010-11-14T15:29:50Z</time>
      </trkpt>
      <trkpt lat="44.1088" lon="4.99519">
        <ele>67</ele>
        <time>2010-11-14T15:29:55Z</time>
      </trkpt>
      <trkpt lat="44.10888" lon="4.99512">
        <ele>67</ele>
        <time>2010-11-14T15:30:01Z</time>
      </trkpt>
      <trkpt lat="44.10895" lon="4.99506">
        <ele>67</ele>
        <time>2010-11-14T15:30:06Z</time>
      </trkpt>
      <trkpt lat="44.10903" lon="4.995">
        <ele>67</ele>
        <time>2010-11-14T15:30:12Z</time>
      </trkpt>
      <trkpt lat="44.1091" lon="4.99495">
        <ele>66.9</ele>
        <time>2010-11-14T15:30:17Z</time>
      </trkpt>
      <trkpt lat="44.10917" lon="4.99488">
        <ele>66.9</ele>
        <time>2010-11-14T15:30:22Z</time>
      </trkpt>
      <trkpt lat="44.10924" lon="4.99482">
        <ele>67.2</ele>
        <time>2010-11-14T15:30:27Z</time>
      </trkpt>
      <trkpt lat="44.10926" lon="4.99481">
        <ele>67.3</ele>
        <time>2010-11-14T15:30:28Z</time>
      </trkpt>
      <trkpt lat="44.10938" lon="4.99471">
        <ele>66.8</ele>
        <time>2010-11-14T15:30:37Z</time>
      </trkpt>
      <trkpt lat="44.10945" lon="4.99464">
        <ele>67</ele>
        <time>2010-11-14T15:30:42Z</time>
      </trkpt>
      <trkpt lat="44.10952" lon="4.99458">
        <ele>67.2</ele>
        <time>2010-11-14T15:30:47Z</time>
      </trkpt>
      <trkpt lat="44.10959" lon="4.99453">
        <ele>67.5</ele>
        <time>2010-11-14T15:30:52Z</time>
      </trkpt>
      <trkpt lat="44.10967" lon="4.9945">
        <ele>68.1</ele>
        <time>2010-11-14T15:30:57Z</time>
      </trkpt>
      <trkpt lat="44.10974" lon="4.99449">
        <ele>68.4</ele>
        <time>2010-11-14T15:31:01Z</time>
      </trkpt>
      <trkpt lat="44.1098" lon="4.99442">
        <ele>69</ele>
        <time>2010-11-14T15:31:05Z</time>
      </trkpt>
      <trkpt lat="44.1098" lon="4.99431">
        <ele>69.9</ele>
        <time>2010-11-14T15:31:10Z</time>
      </trkpt>
      <trkpt lat="44.1098" lon="4.99419">
        <ele>70.7</ele>
        <time>2010-11-14T15:31:16Z</time>
      </trkpt>
      <trkpt lat="44.10978" lon="4.99409">
        <ele>70.8</ele>
        <time>2010-11-14T15:31:21Z</time>
      </trkpt>
      <trkpt lat="44.10973" lon="4.99398">
        <ele>70.6</ele>
        <time>2010-11-14T15:31:27Z</time>
      </trkpt>
      <trkpt lat="44.10967" lon="4.99391">
        <ele>69.7</ele>
        <time>2010-11-14T15:31:32Z</time>
      </trkpt>
      <trkpt lat="44.10966" lon="4.99389">
        <ele>69.9</ele>
        <time>2010-11-14T15:31:33Z</time>
      </trkpt>
      <trkpt lat="44.10957" lon="4.99375">
        <ele>68.9</ele>
        <time>2010-11-14T15:31:41Z</time>
      </trkpt>
      <trkpt lat="44.10951" lon="4.99367">
        <ele>68.5</ele>
        <time>2010-11-14T15:31:46Z</time>
      </trkpt>
      <trkpt lat="44.10945" lon="4.9936">
        <ele>67.9</ele>
        <time>2010-11-14T15:31:51Z</time>
      </trkpt>
      <trkpt lat="44.1094" lon="4.99352">
        <ele>67.6</ele>
        <time>2010-11-14T15:31:56Z</time>
      </trkpt>
      <trkpt lat="44.10934" lon="4.99345">
        <ele>67.5</ele>
        <time>2010-11-14T15:32:01Z</time>
      </trkpt>
      <trkpt lat="44.10928" lon="4.99337">
        <ele>67.3</ele>
        <time>2010-11-14T15:32:06Z</time>
      </trkpt>
      <trkpt lat="44.10921" lon="4.99328">
        <ele>67.5</ele>
        <time>2010-11-14T15:32:11Z</time>
      </trkpt>
      <trkpt lat="44.10914" lon="4.99322">
        <ele>67.5</ele>
        <time>2010-11-14T15:32:17Z</time>
      </trkpt>
      <trkpt lat="44.10906" lon="4.99317">
        <ele>67.3</ele>
        <time>2010-11-14T15:32:22Z</time>
      </trkpt>
      <trkpt lat="44.10898" lon="4.99313">
        <ele>66.9</ele>
        <time>2010-11-14T15:32:27Z</time>
      </trkpt>
      <trkpt lat="44.1089" lon="4.9931">
        <ele>66.9</ele>
        <time>2010-11-14T15:32:32Z</time>
      </trkpt>
      <trkpt lat="44.10882" lon="4.99308">
        <ele>67</ele>
        <time>2010-11-14T15:32:37Z</time>
      </trkpt>
      <trkpt lat="44.1088" lon="4.99307">
        <ele>66.9</ele>
        <time>2010-11-14T15:32:38Z</time>
      </trkpt>
      <trkpt lat="44.10866" lon="4.99305">
        <ele>66.4</ele>
        <time>2010-11-14T15:32:48Z</time>
      </trkpt>
      <trkpt lat="44.10858" lon="4.99305">
        <ele>66.2</ele>
        <time>2010-11-14T15:32:53Z</time>
      </trkpt>
      <trkpt lat="44.10849" lon="4.99304">
        <ele>65.7</ele>
        <time>2010-11-14T15:32:59Z</time>
      </trkpt>
      <trkpt lat="44.10846" lon="4.99295">
        <ele>65.1</ele>
        <time>2010-11-14T15:33:03Z</time>
      </trkpt>
      <trkpt lat="44.10845" lon="4.99285">
        <ele>65.1</ele>
        <time>2010-11-14T15:33:06Z</time>
      </trkpt>
      <trkpt lat="44.10842" lon="4.99273">
        <ele>65</ele>
        <time>2010-11-14T15:33:10Z</time>
      </trkpt>
      <trkpt lat="44.1084" lon="4.99263">
        <ele>65</ele>
        <time>2010-11-14T15:33:15Z</time>
      </trkpt>
      <trkpt lat="44.10838" lon="4.99251">
        <ele>64.9</ele>
        <time>2010-11-14T15:33:20Z</time>
      </trkpt>
      <trkpt lat="44.10836" lon="4.9924">
        <ele>65</ele>
        <time>2010-11-14T15:33:25Z</time>
      </trkpt>
      <trkpt lat="44.10833" lon="4.99229">
        <ele>64.7</ele>
        <time>2010-11-14T15:33:31Z</time>
      </trkpt>
      <trkpt lat="44.10832" lon="4.99218">
        <ele>64.7</ele>
        <time>2010-11-14T15:33:37Z</time>
      </trkpt>
      <trkpt lat="44.10832" lon="4.99206">
        <ele>64.8</ele>
        <time>2010-11-14T15:33:43Z</time>
      </trkpt>
      <trkpt lat="44.10831" lon="4.99204">
        <ele>64.9</ele>
        <time>2010-11-14T15:33:44Z</time>
      </trkpt>
      <trkpt lat="44.10831" lon="4.99184">
        <ele>64.6</ele>
        <time>2010-11-14T15:33:53Z</time>
      </trkpt>
      <trkpt lat="44.10829" lon="4.99173">
        <ele>64.4</ele>
        <time>2010-11-14T15:33:58Z</time>
      </trkpt>
      <trkpt lat="44.10824" lon="4.99164">
        <ele>63.8</ele>
        <time>2010-11-14T15:34:05Z</time>
      </trkpt>
      <trkpt lat="44.10816" lon="4.99164">
        <ele>64.2</ele>
        <time>2010-11-14T15:34:11Z</time>
      </trkpt>
      <trkpt lat="44.10809" lon="4.99165">
        <ele>64.2</ele>
        <time>2010-11-14T15:34:16Z</time>
      </trkpt>
      <trkpt lat="44.10805" lon="4.99156">
        <ele>64.2</ele>
        <time>2010-11-14T15:34:22Z</time>
      </trkpt>
      <trkpt lat="44.108" lon="4.99146">
        <ele>64.4</ele>
        <time>2010-11-14T15:34:27Z</time>
      </trkpt>
      <trkpt lat="44.10797" lon="4.99137">
        <ele>64.7</ele>
        <time>2010-11-14T15:34:32Z</time>
      </trkpt>
      <trkpt lat="44.10792" lon="4.99127">
        <ele>63.9</ele>
        <time>2010-11-14T15:34:37Z</time>
      </trkpt>
      <trkpt lat="44.10787" lon="4.99118">
        <ele>64.8</ele>
        <time>2010-11-14T15:34:42Z</time>
      </trkpt>
      <trkpt lat="44.10783" lon="4.99107">
        <ele>65</ele>
        <time>2010-11-14T15:34:47Z</time>
      </trkpt>
      <trkpt lat="44.10782" lon="4.99105">
        <ele>64.7</ele>
        <time>2010-11-14T15:34:48Z</time>
      </trkpt>
      <trkpt lat="44.1078" lon="4.99083">
        <ele>64.9</ele>
        <time>2010-11-14T15:34:58Z</time>
      </trkpt>
      <trkpt lat="44.10779" lon="4.99071">
        <ele>64.9</ele>
        <time>2010-11-14T15:35:03Z</time>
      </trkpt>
      <trkpt lat="44.10778" lon="4.9906">
        <ele>64.8</ele>
        <time>2010-11-14T15:35:08Z</time>
      </trkpt>
      <trkpt lat="44.10777" lon="4.99049">
        <ele>64.5</ele>
        <time>2010-11-14T15:35:13Z</time>
      </trkpt>
      <trkpt lat="44.10776" lon="4.99039">
        <ele>64.4</ele>
        <time>2010-11-14T15:35:18Z</time>
      </trkpt>
      <trkpt lat="44.10774" lon="4.99028">
        <ele>64.8</ele>
        <time>2010-11-14T15:35:23Z</time>
      </trkpt>
      <trkpt lat="44.10779" lon="4.99019">
        <ele>64.4</ele>
        <time>2010-11-14T15:35:29Z</time>
      </trkpt>
      <trkpt lat="44.10787" lon="4.99017">
        <ele>65.1</ele>
        <time>2010-11-14T15:35:34Z</time>
      </trkpt>
      <trkpt lat="44.10795" lon="4.99015">
        <ele>65.3</ele>
        <time>2010-11-14T15:35:39Z</time>
      </trkpt>
      <trkpt lat="44.10803" lon="4.99013">
        <ele>65.2</ele>
        <time>2010-11-14T15:35:44Z</time>
      </trkpt>
      <trkpt lat="44.10812" lon="4.99011">
        <ele>65.5</ele>
        <time>2010-11-14T15:35:49Z</time>
      </trkpt>
      <trkpt lat="44.10813" lon="4.9901">
        <ele>65.4</ele>
        <time>2010-11-14T15:35:50Z</time>
      </trkpt>
      <trkpt lat="44.10822" lon="4.98995">
        <ele>66.1</ele>
        <time>2010-11-14T15:35:59Z</time>
      </trkpt>
      <trkpt lat="44.1082" lon="4.98983">
        <ele>65.8</ele>
        <time>2010-11-14T15:36:04Z</time>
      </trkpt>
      <trkpt lat="44.10817" lon="4.98971">
        <ele>65.7</ele>
        <time>2010-11-14T15:36:10Z</time>
      </trkpt>
      <trkpt lat="44.10814" lon="4.9896">
        <ele>65.4</ele>
        <time>2010-11-14T15:36:15Z</time>
      </trkpt>
      <trkpt lat="44.10812" lon="4.98949">
        <ele>64.9</ele>
        <time>2010-11-14T15:36:20Z</time>
      </trkpt>
      <trkpt lat="44.1081" lon="4.98939">
        <ele>64.1</ele>
        <time>2010-11-14T15:36:25Z</time>
      </trkpt>
      <trkpt lat="44.10808" lon="4.98928">
        <ele>64.5</ele>
        <time>2010-11-14T15:36:30Z</time>
      </trkpt>
      <trkpt lat="44.10806" lon="4.98917">
        <ele>65.5</ele>
        <time>2010-11-14T15:36:35Z</time>
      </trkpt>
      <trkpt lat="44.10803" lon="4.98906">
        <ele>65</ele>
        <time>2010-11-14T15:36:40Z</time>
      </trkpt>
      <trkpt lat="44.10801" lon="4.98894">
        <ele>65.5</ele>
        <time>2010-11-14T15:36:45Z</time>
      </trkpt>
      <trkpt lat="44.10807" lon="4.98885">
        <ele>64.7</ele>
        <time>2010-11-14T15:36:51Z</time>
      </trkpt>
      <trkpt lat="44.10808" lon="4.98885">
        <ele>64.5</ele>
        <time>2010-11-14T15:36:52Z</time>
      </trkpt>
      <trkpt lat="44.10823" lon="4.98879">
        <ele>64.4</ele>
        <time>2010-11-14T15:37:00Z</time>
      </trkpt>
      <trkpt lat="44.10831" lon="4.98876">
        <ele>64.8</ele>
        <time>2010-11-14T15:37:05Z</time>
      </trkpt>
      <trkpt lat="44.10839" lon="4.98872">
        <ele>64.3</ele>
        <time>2010-11-14T15:37:10Z</time>
      </trkpt>
      <trkpt lat="44.10848" lon="4.98868">
        <ele>64.7</ele>
        <time>2010-11-14T15:37:15Z</time>
      </trkpt>
      <trkpt lat="44.10855" lon="4.98866">
        <ele>64.5</ele>
        <time>2010-11-14T15:37:20Z</time>
      </trkpt>
      <trkpt lat="44.10864" lon="4.98864">
        <ele>64.8</ele>
        <time>2010-11-14T15:37:26Z</time>
      </trkpt>
      <trkpt lat="44.10872" lon="4.98861">
        <ele>65.1</ele>
        <time>2010-11-14T15:37:30Z</time>
      </trkpt>
      <trkpt lat="44.1088" lon="4.98858">
        <ele>64.4</ele>
        <time>2010-11-14T15:37:35Z</time>
      </trkpt>
      <trkpt lat="44.10888" lon="4.98856">
        <ele>64.7</ele>
        <time>2010-11-14T15:37:40Z</time>
      </trkpt>
      <trkpt lat="44.10896" lon="4.98853">
        <ele>64.2</ele>
        <time>2010-11-14T15:37:44Z</time>
      </trkpt>
      <trkpt lat="44.10904" lon="4.98851">
        <ele>64.1</ele>
        <time>2010-11-14T15:37:49Z</time>
      </trkpt>
      <trkpt lat="44.10912" lon="4.98847">
        <ele>64.2</ele>
        <time>2010-11-14T15:37:54Z</time>
      </trkpt>
      <trkpt lat="44.10914" lon="4.98847">
        <ele>64.1</ele>
        <time>2010-11-14T15:37:55Z</time>
      </trkpt>
      <trkpt lat="44.10928" lon="4.98842">
        <ele>64.8</ele>
        <time>2010-11-14T15:38:04Z</time>
      </trkpt>
      <trkpt lat="44.10935" lon="4.98837">
        <ele>66.2</ele>
        <time>2010-11-14T15:38:10Z</time>
      </trkpt>
      <trkpt lat="44.10932" lon="4.98827">
        <ele>66.1</ele>
        <time>2010-11-14T15:38:15Z</time>
      </trkpt>
      <trkpt lat="44.10927" lon="4.98818">
        <ele>66.1</ele>
        <time>2010-11-14T15:38:20Z</time>
      </trkpt>
      <trkpt lat="44.10922" lon="4.98809">
        <ele>65.9</ele>
        <time>2010-11-14T15:38:25Z</time>
      </trkpt>
      <trkpt lat="44.10917" lon="4.988">
        <ele>65.6</ele>
        <time>2010-11-14T15:38:30Z</time>
      </trkpt>
      <trkpt lat="44.10911" lon="4.98791">
        <ele>65.6</ele>
        <time>2010-11-14T15:38:36Z</time>
      </trkpt>
      <trkpt lat="44.10907" lon="4.98783">
        <ele>65.5</ele>
        <time>2010-11-14T15:38:43Z</time>
      </trkpt>
      <trkpt lat="44.10904" lon="4.98773">
        <ele>65.7</ele>
        <time>2010-11-14T15:38:49Z</time>
      </trkpt>
      <trkpt lat="44.10899" lon="4.98764">
        <ele>65.6</ele>
        <time>2010-11-14T15:38:55Z</time>
      </trkpt>
      <trkpt lat="44.10898" lon="4.98762">
        <ele>65.5</ele>
        <time>2010-11-14T15:38:56Z</time>
      </trkpt>
      <trkpt lat="44.10888" lon="4.98747">
        <ele>65.6</ele>
        <time>2010-11-14T15:39:05Z</time>
      </trkpt>
      <trkpt lat="44.10883" lon="4.9874">
        <ele>64.9</ele>
        <time>2010-11-14T15:39:09Z</time>
      </trkpt>
      <trkpt lat="44.1088" lon="4.9873">
        <ele>65</ele>
        <time>2010-11-14T15:39:13Z</time>
      </trkpt>
      <trkpt lat="44.10875" lon="4.9872">
        <ele>65.3</ele>
        <time>2010-11-14T15:39:18Z</time>
      </trkpt>
      <trkpt lat="44.1087" lon="4.98712">
        <ele>65.1</ele>
        <time>2010-11-14T15:39:23Z</time>
      </trkpt>
      <trkpt lat="44.10866" lon="4.98703">
        <ele>65.3</ele>
        <time>2010-11-14T15:39:27Z</time>
      </trkpt>
      <trkpt lat="44.10862" lon="4.98692">
        <ele>65.5</ele>
        <time>2010-11-14T15:39:33Z</time>
      </trkpt>
      <trkpt lat="44.10853" lon="4.98693">
        <ele>65</ele>
        <time>2010-11-14T15:39:38Z</time>
      </trkpt>
      <trkpt lat="44.10845" lon="4.98692">
        <ele>64.7</ele>
        <time>2010-11-14T15:39:44Z</time>
      </trkpt>
      <trkpt lat="44.1085" lon="4.98697">
        <ele>63</ele>
        <time>2010-11-14T15:40:42Z</time>
      </trkpt>
      <trkpt lat="44.1085" lon="4.98697">
        <ele>63</ele>
        <time>2010-11-14T15:40:42Z</time>
      </trkpt>
    </trkseg>
  </trk>
</gpx>